# Wetter Temperatur Luftdruck Luftfeuchtigkeit Sichtweite Windgeschwindigkeit Windrichtung Zeit
1 Drizzle 14 1012 87 10000 4.6 180 19:58 17.10.2019
2 Drizzle 15 1012 87 10000 5.1 170 19:39 17.10.2019
3 Rain 15 1012 77 10000 4.6 180 19:19 17.10.2019
4 Rain 15 1012 77 10000 4.6 170 18:43 17.10.2019
5 Clouds 15 1012 77 10000 3.6 170 18:22 17.10.2019
6 Clouds 16 1012 77 10000 3.6 170 18:00 17.10.2019
7 Clouds 16 1012 77 10000 4.6 190 17:41 17.10.2019
8 Clouds 16 1012 77 10000 3.1 170 17:23 17.10.2019
9 Clouds 16 1012 77 10000 4.6 190 16:56 17.10.2019
10 Clouds 16 1012 72 10000 5.1 200 16:37 17.10.2019
11 Clouds 16 1012 72 10000 4.6 200 16:18 17.10.2019
12 -273 0 0 0 0 0 15:55 17.10.2019
13 -273 0 0 0 0 0 15:55 17.10.2019
14 Clouds 17 1012 63 10000 5.1 220 15:37 17.10.2019
15 Clouds 17 1012 63 10000 5.7 210 15:19 17.10.2019
16 Clouds 17 1012 63 10000 5.1 220 14:42 17.10.2019
17 Clouds 16 1012 67 10000 6.2 200 14:23 17.10.2019
18 Clouds 16 1012 67 10000 6.2 200 13:56 17.10.2019
19 Clouds 16 1012 77 10000 5.7 200 13:38 17.10.2019
20 Clouds 16 1012 77 10000 5.7 200 13:18 17.10.2019
21 Clouds 16 1012 76 10000 5.1 200 12:41 17.10.2019
22 Clouds 15 1012 82 10000 5.7 200 12:20 17.10.2019
23 Clouds 15 1012 82 10000 5.7 200 11:59 17.10.2019
24 Clouds 15 1012 82 10000 6.2 200 11:40 17.10.2019
25 Clouds 15 1012 76 10000 6.2 190 11:19 17.10.2019
26 Clouds 15 1012 76 10000 6.2 190 10:55 17.10.2019
27 Clouds 14 1012 76 10000 5.1 200 10:36 17.10.2019
28 Clouds 14 1012 82 10000 4.1 180 10:18 17.10.2019
29 Clouds 14 1012 81 10000 3.1 170 09:42 17.10.2019
30 Clouds 13 1011 81 10000 5.1 170 09:22 17.10.2019
31 Clouds 13 1011 81 10000 5.1 170 08:58 17.10.2019
32 Clouds 13 1011 81 10000 5.1 170 08:58 17.10.2019
33 Clouds 13 1011 76 10000 5.7 190 08:39 17.10.2019
34 Clouds 13 1011 76 10000 4.1 190 08:21 17.10.2019
35 Clouds 13 1011 76 10000 4.1 190 08:21 17.10.2019
36 Clouds 13 1011 76 10000 4.1 190 07:55 17.10.2019
37 Clouds 13 1010 76 10000 4.1 200 07:36 17.10.2019
38 Clouds 13 1009 76 10000 6.2 200 07:18 17.10.2019
39 Clouds 13 1010 71 10000 6.2 200 06:39 17.10.2019
40 Rain 13 1010 81 10000 3.1 150 06:20 17.10.2019
41 Rain 13 1010 81 10000 3.1 150 05:51 17.10.2019
42 Rain 13 1010 81 10000 3.1 150 05:31 17.10.2019
43 Clouds 13 1011 87 10000 3.6 160 04:52 17.10.2019
44 Rain 13 1009 76 10000 5.7 190 03:55 17.10.2019
45 Clouds 13 1011 76 10000 3.1 210 02:36 17.10.2019
46 Clouds 13 1009 72 10000 6.2 190 00:57 17.10.2019
47 Clouds 13 1011 82 10000 3.6 200 00:38 17.10.2019
48 Clouds 13 1011 82 10000 3.1 210 00:18 17.10.2019
49 Clouds 13 1011 82 10000 3.1 210 23:42 16.10.2019
50 Clouds 13 1011 82 10000 3.1 170 23:21 16.10.2019
51 Clouds 13 1011 82 10000 3.1 170 23:21 16.10.2019
52 Clouds 13 1011 82 10000 3.1 170 23:21 16.10.2019
53 Clouds 13 1011 82 10000 3.1 170 22:55 16.10.2019
54 Clouds 13 1011 82 10000 4.1 180 22:36 16.10.2019
55 Clouds 13 1011 82 10000 4.1 180 22:36 16.10.2019
56 Clouds 13 1011 82 10000 4.1 190 22:18 16.10.2019
57 Clouds 13 1011 82 10000 4.1 190 21:56 16.10.2019
58 Clouds 13 1011 87 10000 4.1 180 21:37 16.10.2019
59 Clouds 13 1011 87 10000 4.6 180 21:18 16.10.2019
60 Clouds 13 1011 87 10000 4.6 180 20:56 16.10.2019
61 Clouds 13 1011 87 10000 5.7 190 20:38 16.10.2019
62 Clouds 13 1011 87 10000 5.7 190 20:20 16.10.2019
63 Clouds 13 1011 87 10000 5.7 190 19:56 16.10.2019
64 Clouds 13 1011 87 10000 5.7 190 19:38 16.10.2019
65 Clouds 13 1010 87 10000 5.1 190 19:19 16.10.2019
66 Clouds 13 1010 87 10000 5.1 190 18:39 16.10.2019
67 Clouds 13 1010 87 10000 5.1 190 18:39 16.10.2019
68 Clouds 13 1010 82 10000 4.1 180 18:19 16.10.2019
69 Clouds 13 1010 82 10000 4.1 180 17:56 16.10.2019
70 Clouds 13 1010 82 10000 5.1 190 17:38 16.10.2019
71 Clouds 13 1010 82 10000 5.7 190 17:19 16.10.2019
72 Clouds 14 1010 82 10000 5.7 190 16:58 16.10.2019
73 Clouds 14 1011 82 10000 4.6 180 16:39 16.10.2019
74 Clouds 14 1011 76 10000 5.1 190 16:20 16.10.2019
75 Clouds 14 1011 76 10000 5.1 190 15:55 16.10.2019
76 Clouds 14 1011 71 10000 6.2 210 15:36 16.10.2019
77 Clouds 14 1011 71 10000 6.2 220 15:18 16.10.2019
78 Clouds 14 1011 71 10000 6.2 220 15:18 16.10.2019
79 Clouds 14 1011 71 10000 6.2 220 14:55 16.10.2019
80 Clouds 14 1011 71 10000 6.2 220 14:37 16.10.2019
81 Clouds 14 1011 71 10000 6.2 220 14:37 16.10.2019
82 Clouds 14 1011 67 10000 8.2 220 14:18 16.10.2019
83 Clouds 14 1011 67 10000 8.2 220 13:55 16.10.2019
84 Clouds 14 1011 67 10000 8.2 220 13:55 16.10.2019
85 Clouds 15 1011 67 10000 6.7 230 13:36 16.10.2019
86 Clouds 14 1011 71 10000 7.2 220 13:18 16.10.2019
87 Clouds 14 1011 76 10000 7.2 220 12:40 16.10.2019
88 Clouds 13 1011 76 10000 7.2 220 12:18 16.10.2019
89 Clouds 13 1011 81 10000 6.7 230 11:42 16.10.2019
90 Clouds 12 1011 81 10000 6.2 220 11:18 16.10.2019
91 Clouds 12 1011 87 10000 5.1 220 10:39 16.10.2019
92 Clouds 11 1011 87 10000 5.1 220 10:20 16.10.2019
93 Clouds 11 1011 87 10000 5.1 220 09:55 16.10.2019
94 Clouds 11 1011 87 10000 4.1 220 09:37 16.10.2019
95 Drizzle 11 1010 87 10000 3.1 210 09:19 16.10.2019
96 Rain 11 1010 87 10000 3.1 210 08:42 16.10.2019
97 Rain 11 1010 87 10000 3.1 210 08:24 16.10.2019
98 Rain 11 1010 93 10000 4.1 210 07:45 16.10.2019
99 Rain 11 1010 93 10000 4.1 210 07:45 16.10.2019
100 Rain 11 1010 93 10000 4.1 210 07:25 16.10.2019
101 -273 0 0 0 0 0 07:24 16.10.2019
102 Rain 11 1010 93 10000 3.1 200 06:57 16.10.2019
103 Rain 11 1010 93 10000 3.1 200 06:35 16.10.2019
104 Rain 11 1010 87 8000 3.6 210 05:39 16.10.2019
105 Rain 13 1008 93 6000 4.6 250 02:57 16.10.2019
106 Rain 13 1008 93 10000 2.1 220 02:37 16.10.2019
107 Rain 13 1008 100 7000 4.6 240 01:18 16.10.2019
108 Rain 14 1008 93 10000 3.1 250 00:46 16.10.2019
109 Rain 14 1008 100 7000 4.6 240 00:25 16.10.2019
110 Rain 14 1007 87 10000 2.6 210 23:39 15.10.2019
111 Thunderstorm 15 1007 93 6000 3.6 290 23:21 15.10.2019
112 Thunderstorm 15 1007 93 6000 3.6 290 22:55 15.10.2019
113 Thunderstorm 15 1006 100 8000 5.1 310 22:37 15.10.2019
114 Rain 16 1007 87 8000 6.7 210 22:19 15.10.2019
115 Thunderstorm 16 1006 82 4800 5.7 260 21:55 15.10.2019
116 -273 0 0 0 0 0 21:55 15.10.2019
117 Clouds 16 1006 87 10000 4.6 270 21:37 15.10.2019
118 Thunderstorm 16 1007 100 4100 2.6 270 21:19 15.10.2019
119 Thunderstorm 16 1007 100 4100 2.6 270 20:57 15.10.2019
120 Clouds 16 1005 77 10000 3.1 300 20:38 15.10.2019
121 Clouds 16 1006 87 10000 3.1 310 20:19 15.10.2019
122 Clouds 17 1006 87 10000 3.1 310 19:56 15.10.2019
123 Clouds 17 1006 82 10000 3.6 320 19:37 15.10.2019
124 Clouds 17 1005 77 10000 5.1 310 19:19 15.10.2019
125 Clouds 18 1005 77 10000 5.7 310 18:44 15.10.2019
126 Clouds 19 1005 77 10000 5.7 310 18:26 15.10.2019
127 Clouds 19 1005 72 10000 4.1 310 17:57 15.10.2019
128 Clouds 20 1005 72 10000 4.6 330 17:38 15.10.2019
129 Clouds 20 1005 64 10000 4.1 220 17:19 15.10.2019
130 Rain 21 1005 60 10000 2.1 60 16:46 15.10.2019
131 Rain 22 1005 60 10000 2.1 60 16:22 15.10.2019
132 Rain 22 1005 60 10000 2.6 90 15:58 15.10.2019
133 Rain 22 1005 56 10000 3.1 110 15:40 15.10.2019
134 Clouds 22 1005 53 10000 1 0 15:20 15.10.2019
135 Clouds 22 1005 53 10000 1 0 14:57 15.10.2019
136 Clouds 22 1005 53 10000 2.1 210 14:37 15.10.2019
137 Clouds 22 1006 53 10000 1.5 230 14:19 15.10.2019
138 Clouds 22 1006 60 10000 3.6 190 13:44 15.10.2019
139 Clouds 21 1006 60 10000 2.6 140 13:21 15.10.2019
140 Clouds 20 1006 60 10000 2.6 140 12:59 15.10.2019
141 Clouds 20 1006 60 10000 2.6 140 12:59 15.10.2019
142 Clouds 20 1006 60 10000 1.5 160 12:39 15.10.2019
143 Clouds 19 1007 64 10000 1.5 120 12:20 15.10.2019
144 Clouds 18 1007 68 10000 1.5 150 11:44 15.10.2019
145 Clouds 18 1007 68 10000 2.6 140 11:21 15.10.2019
146 Clear 17 1007 68 10000 2.6 140 10:58 15.10.2019
147 Clear 17 1007 77 10000 2.6 150 10:39 15.10.2019
148 Clear 16 1007 72 10000 3.1 160 10:19 15.10.2019
149 Clear 16 1007 72 10000 3.1 160 09:57 15.10.2019
150 Clear 15 1007 77 10000 4.1 150 09:37 15.10.2019
151 Clear 14 1007 82 10000 2.6 100 09:19 15.10.2019
152 Fog 13 1007 82 10000 2.6 140 08:41 15.10.2019
153 Fog 13 1007 82 10000 2.1 80 08:21 15.10.2019
154 Fog 13 1007 82 10000 2.1 80 07:55 15.10.2019
155 Clear 13 1007 72 10000 2.6 170 07:37 15.10.2019
156 Clear 12 1006 72 10000 4.1 150 07:18 15.10.2019
157 Clouds 13 1008 93 10000 0.5 280 06:43 15.10.2019
158 Fog 14 1008 72 10000 3.6 140 06:22 15.10.2019
159 Clear 15 1008 72 10000 3.6 140 05:37 15.10.2019
160 Clear 15 1008 77 10000 3.1 140 05:19 15.10.2019
161 Fog 13 1006 59 10000 4.6 170 04:23 15.10.2019
162 Fog 14 1008 93 8000 1 0 03:36 15.10.2019
163 Fog 14 1008 93 8000 1 0 03:36 15.10.2019
164 Clear 14 1007 56 10000 4.1 150 02:22 15.10.2019
165 Clouds 15 1009 93 10000 2.65 165.419 01:47 15.10.2019
166 Clouds 14 1010 93 10000 1 300 01:19 15.10.2019
167 Clouds 15 1010 93 10000 1 300 00:47 15.10.2019
168 Clear 15 1010 68 10000 3.1 140 00:20 15.10.2019
169 Clear 14 1010 68 10000 3.1 140 23:40 14.10.2019
170 Clear 14 1010 68 10000 2.1 150 23:19 14.10.2019
171 Clear 15 1010 67 10000 1.5 160 22:40 14.10.2019
172 Clear 15 1010 67 10000 1 0 22:21 14.10.2019
173 Clear 15 1010 67 10000 1 0 21:59 14.10.2019
174 Clear 16 1010 67 10000 3.1 140 21:40 14.10.2019
175 Clear 16 1009 77 10000 1 0 21:21 14.10.2019
176 Clear 16 1009 77 10000 1 0 20:59 14.10.2019
177 Clouds 16 1010 87 10000 2 126.198 20:39 14.10.2019
178 Clear 17 1011 63 10000 0.5 0 20:20 14.10.2019
179 Clear 17 1011 63 10000 0.5 0 19:58 14.10.2019
180 Clouds 17 1011 63 10000 1 0 19:40 14.10.2019
181 Clouds 18 1011 55 10000 1.5 130 19:21 14.10.2019
182 Clear 18 1011 55 10000 1.5 130 18:57 14.10.2019
183 Clear 18 1011 55 10000 1.5 130 18:57 14.10.2019
184 Clear 20 1011 56 10000 3.1 160 18:38 14.10.2019
185 Clear 21 1011 53 10000 3.1 140 18:18 14.10.2019
186 Clear 22 1011 56 10000 3.6 140 17:44 14.10.2019
187 Clear 22 1011 56 10000 3.6 140 17:25 14.10.2019
188 Clear 23 1011 60 10000 3.6 150 16:58 14.10.2019
189 Clear 23 1012 56 10000 3.6 150 16:40 14.10.2019
190 Clear 23 1012 56 10000 4.1 140 16:19 14.10.2019
191 Clear 23 1012 56 10000 4.6 140 15:41 14.10.2019
192 Clear 23 1013 56 10000 5.1 130 15:22 14.10.2019
193 Clear 22 1013 56 10000 4.6 140 14:44 14.10.2019
194 Clear 22 1013 60 10000 4.1 140 14:26 14.10.2019
195 Clear 22 1014 60 10000 3.6 140 13:59 14.10.2019
196 Clear 22 1014 60 10000 3.6 140 13:40 14.10.2019
197 Clear 22 1014 56 10000 4.6 130 13:21 14.10.2019
198 Clear 21 1014 60 10000 3.1 130 12:42 14.10.2019
199 Clear 20 1015 68 10000 1.5 80 12:21 14.10.2019
200 Clear 19 1015 63 10000 1.5 80 11:57 14.10.2019
201 Clear 19 1015 63 10000 1.5 80 11:39 14.10.2019
202 Clear 19 1015 68 10000 2.1 150 11:20 14.10.2019
203 Clear 17 1015 77 10000 2.1 140 10:44 14.10.2019
204 Clear 17 1015 82 10000 1 0 10:21 14.10.2019
205 Clear 16 1015 82 10000 1 0 09:59 14.10.2019
206 Clear 15 1015 87 10000 1.5 110 09:40 14.10.2019
207 Clear 14 1015 93 10000 0.5 0 09:20 14.10.2019
208 Clear 13 1015 100 10000 1 0 08:48 14.10.2019
209 Clear 13 1014 93 10000 1.5 190 08:23 14.10.2019
210 Clear 13 1014 93 10000 1 0 07:45 14.10.2019
211 Clouds 13 1014 93 10000 1 0 07:22 14.10.2019
212 Clouds 13 1014 93 10000 0.5 0 06:56 14.10.2019
213 Clouds 13 1014 93 10000 0.5 0 06:56 14.10.2019
214 Clear 15 1014 82 10000 2.6 240 06:28 14.10.2019
215 Clear 15 1014 82 10000 2.6 240 05:53 14.10.2019
216 Clouds 15 1014 87 10000 3.1 130 04:53 14.10.2019
217 Clouds 15 1013 82 10000 1.5 70 03:49 14.10.2019
218 Clouds 17 1013 82 10000 2.1 260 03:22 14.10.2019
219 Clear 18 1012 68 10000 3.6 260 01:56 14.10.2019
220 Clear 18 1012 72 10000 3.6 240 01:18 14.10.2019
221 Clouds 18 1012 72 10000 4.1 200 00:40 14.10.2019
222 Clear 19 1011 60 10000 7.7 210 00:18 14.10.2019
223 Clouds 19 1012 72 10000 4.6 190 23:40 13.10.2019
224 Clear 20 1011 64 10000 5.7 210 23:19 13.10.2019
225 Clear 20 1011 64 10000 5.7 210 22:55 13.10.2019
226 Clear 20 1011 64 10000 5.7 210 22:55 13.10.2019
227 Clear 20 1011 64 10000 5.7 210 22:37 13.10.2019
228 Clear 20 1011 64 10000 4.1 190 22:19 13.10.2019
229 Clear 20 1011 64 10000 4.1 190 22:19 13.10.2019
230 Clear 20 1011 64 10000 4.1 190 21:55 13.10.2019
231 Clouds 20 1012 68 10000 5.1 190 21:36 13.10.2019
232 Clear 20 1010 64 10000 6.7 180 21:18 13.10.2019
233 Clear 20 1010 64 10000 6.7 180 21:18 13.10.2019
234 Clouds 20 1011 68 10000 5.1 210 20:55 13.10.2019
235 Clouds 20 1011 68 10000 5.1 210 20:37 13.10.2019
236 Clear 20 1010 56 10000 7.7 200 20:18 13.10.2019
237 Clear 20 1010 56 10000 7.2 200 19:54 13.10.2019
238 Clear 20 1010 56 10000 7.2 200 19:54 13.10.2019
239 Clear 20 1010 56 10000 7.2 200 19:36 13.10.2019
240 Clear 21 1010 60 10000 8.2 190 19:18 13.10.2019
241 Clear 21 1010 56 10000 7.7 190 18:39 13.10.2019
242 Clear 22 1010 56 10000 9.8 190 18:20 13.10.2019
243 Clear 22 1010 56 10000 9.8 190 18:20 13.10.2019
244 Clear 22 1010 56 10000 9.8 190 17:59 13.10.2019
245 Clear 23 1010 56 10000 9.3 200 17:41 13.10.2019
246 Clear 23 1010 56 10000 8.7 200 17:22 13.10.2019
247 Clear 23 1010 53 10000 8.2 190 16:43 13.10.2019
248 Clear 23 1010 56 10000 8.2 190 16:19 13.10.2019
249 Clear 23 1010 56 10000 8.2 190 15:57 13.10.2019
250 -273 0 0 0 0 0 15:57 13.10.2019
251 Clear 23 1010 56 10000 7.7 180 15:39 13.10.2019
252 Clear 23 1010 60 10000 8.2 180 15:20 13.10.2019
253 Clear 22 1011 68 10000 7.7 180 14:57 13.10.2019
254 Clear 22 1011 68 10000 7.7 180 14:38 13.10.2019
255 Clear 22 1011 68 10000 7.2 180 14:19 13.10.2019
256 Clear 21 1011 64 10000 5.1 180 13:42 13.10.2019
257 Rain 21 1012 77 10000 4.6 150 13:23 13.10.2019
258 Rain 21 1012 77 10000 4.6 150 12:59 13.10.2019
259 Rain 20 1013 68 10000 4.1 200 12:39 13.10.2019
260 Rain 20 1013 72 10000 4.1 190 12:21 13.10.2019
261 Rain 20 1013 72 10000 4.1 190 11:59 13.10.2019
262 Rain 20 1013 72 10000 5.7 210 11:39 13.10.2019
263 Clouds 20 1012 77 10000 5.7 190 11:21 13.10.2019
264 Clouds 20 1012 77 10000 5.7 190 10:59 13.10.2019
265 Clouds 19 1013 82 10000 5.7 190 10:39 13.10.2019
266 Clouds 19 1013 82 10000 5.7 190 10:39 13.10.2019
267 Clouds 18 1013 82 10000 4.1 170 10:20 13.10.2019
268 Rain 18 1012 87 10000 4.1 160 09:39 13.10.2019
269 Clouds 17 1012 93 10000 2.1 140 09:21 13.10.2019
270 Clouds 16 1012 93 10000 1 110 08:51 13.10.2019
271 Clouds 16 1012 93 10000 3.6 60 08:27 13.10.2019
272 Clouds 15 1012 93 10000 1 0 07:55 13.10.2019
273 Clouds 15 1012 93 10000 1 0 07:35 13.10.2019
274 Clouds 15 1012 93 10000 1 0 06:54 13.10.2019
275 Clouds 15 1010 82 10000 4.6 180 06:26 13.10.2019
276 Clouds 15 1012 93 10000 2.6 160 05:27 13.10.2019
277 Clouds 15 1012 87 10000 2.1 150 04:35 13.10.2019
278 Clouds 16 1011 82 10000 3.6 200 03:35 13.10.2019
279 Clouds 16 1011 77 10000 4.1 220 02:32 13.10.2019
280 Clouds 16 1012 82 10000 4.6 220 01:37 13.10.2019
281 Clouds 16 1011 68 10000 5.1 210 01:18 13.10.2019
282 Clouds 16 1012 77 10000 4.6 220 00:42 13.10.2019
283 Clouds 16 1012 77 10000 4.6 220 00:42 13.10.2019
284 Clouds 17 1011 68 10000 5.1 210 00:19 13.10.2019
285 Clouds 17 1012 77 10000 4.1 220 23:42 12.10.2019
286 Clear 17 1012 77 10000 3.1 160 23:23 12.10.2019
287 Clear 17 1012 77 10000 3.1 160 23:23 12.10.2019
288 Clear 17 1012 77 10000 3.1 160 22:59 12.10.2019
289 Clear 16 1012 77 10000 3.1 160 22:40 12.10.2019
290 Clear 17 1011 77 10000 2.6 170 22:22 12.10.2019
291 Clear 17 1011 77 10000 2.6 170 21:59 12.10.2019
292 Clear 17 1011 72 10000 2.6 180 21:40 12.10.2019
293 Clear 17 1011 77 10000 2.6 170 21:22 12.10.2019
294 Clear 17 1011 77 10000 2.6 170 20:56 12.10.2019
295 Clear 17 1011 67 10000 4.1 190 20:37 12.10.2019
296 Clear 17 1011 67 10000 3.6 180 20:19 12.10.2019
297 Clouds 17 1011 63 10000 4.1 190 19:36 12.10.2019
298 Clouds 18 1011 63 10000 3.1 190 19:18 12.10.2019
299 Clouds 18 1012 63 10000 4.6 200 18:44 12.10.2019
300 Clouds 18 1012 63 10000 4.1 210 18:26 12.10.2019
301 Rain 19 1012 72 10000 4.1 210 17:46 12.10.2019
302 Rain 19 1012 72 10000 4.1 210 17:46 12.10.2019
303 Clouds 19 1012 59 10000 4.1 210 17:22 12.10.2019
304 Clouds 19 1012 59 10000 4.1 210 16:59 12.10.2019
305 Clouds 19 1012 59 10000 4.6 210 16:40 12.10.2019
306 Clouds 19 1012 59 10000 4.6 210 16:40 12.10.2019
307 Clouds 20 1011 56 10000 5.7 220 16:21 12.10.2019
308 Clouds 19 1011 55 10000 6.2 220 15:56 12.10.2019
309 Clouds 19 1011 55 10000 6.2 220 15:37 12.10.2019
310 Clouds 19 1011 59 10000 4.6 210 15:18 12.10.2019
311 Clouds 19 1011 59 10000 5.1 200 14:40 12.10.2019
312 Clouds 19 1011 63 10000 4.6 200 14:20 12.10.2019
313 Clouds 18 1012 67 10000 5.7 200 13:51 12.10.2019
314 Clouds 18 1012 67 10000 5.7 200 13:32 12.10.2019
315 Clouds 18 1012 67 10000 5.1 220 12:55 12.10.2019
316 Clouds 18 1012 67 10000 5.1 220 12:37 12.10.2019
317 Clouds 17 1011 67 10000 6.2 210 12:19 12.10.2019
318 Clouds 17 1011 67 10000 5.1 210 11:43 12.10.2019
319 Clouds 17 1011 67 10000 5.1 210 11:43 12.10.2019
320 Clouds 16 1011 72 10000 5.1 200 11:23 12.10.2019
321 Clouds 16 1011 72 10000 5.1 200 10:58 12.10.2019
322 Clouds 15 1011 76 10000 4.6 190 10:38 12.10.2019
323 Clouds 15 1011 72 10000 4.1 180 10:19 12.10.2019
324 Clear 14 1011 82 10000 4.1 180 09:56 12.10.2019
325 Clear 14 1011 82 10000 4.1 180 09:56 12.10.2019
326 Clear 14 1011 82 10000 4.1 180 09:37 12.10.2019
327 Clear 13 1010 81 10000 4.6 180 09:19 12.10.2019
328 Clear 13 1010 87 10000 4.1 170 08:43 12.10.2019
329 Clear 12 1010 87 10000 5.7 180 08:23 12.10.2019
330 Clear 12 1010 87 10000 5.7 180 07:40 12.10.2019
331 Clouds 12 1010 87 10000 3.6 180 07:22 12.10.2019
332 Clouds 13 1010 87 10000 4.1 190 05:54 12.10.2019
333 Clouds 13 1010 87 10000 4.1 190 05:26 12.10.2019
334 Clouds 13 1009 72 10000 7.2 200 04:31 12.10.2019
335 Clouds 13 1011 82 10000 8.7 220 03:46 12.10.2019
336 Clouds 14 1009 72 10000 7.2 210 02:37 12.10.2019
337 Clouds 14 1010 67 10000 7.7 210 01:31 12.10.2019
338 Clouds 14 1011 82 10000 6.7 220 00:44 12.10.2019
339 Clouds 14 1011 76 10000 3.6 210 00:24 12.10.2019
340 Clouds 14 1011 76 10000 4.1 210 23:41 11.10.2019
341 Clouds 15 1011 72 10000 6.2 210 23:21 11.10.2019
342 Clouds 15 1011 72 10000 6.2 210 22:59 11.10.2019
343 Clouds 15 1011 76 10000 5.7 210 22:37 11.10.2019
344 Clouds 15 1011 76 10000 5.7 210 22:37 11.10.2019
345 Clouds 15 1011 72 10000 5.7 210 22:18 11.10.2019
346 Clouds 14 1011 76 10000 4.6 220 21:40 11.10.2019
347 Clouds 14 1011 76 10000 5.1 210 21:21 11.10.2019
348 Clouds 14 1011 71 10000 5.7 210 20:54 11.10.2019
349 Clouds 14 1011 71 10000 5.7 210 20:54 11.10.2019
350 Clouds 14 1011 71 10000 5.7 210 20:36 11.10.2019
351 Clouds 14 1012 71 10000 5.1 200 20:18 11.10.2019
352 Clouds 14 1012 71 10000 5.7 200 19:54 11.10.2019
353 Clouds 14 1012 71 10000 5.7 200 19:54 11.10.2019
354 Clouds 14 1012 71 10000 5.7 200 19:36 11.10.2019
355 Clouds 14 1012 76 10000 5.1 190 19:18 11.10.2019
356 Clouds 14 1012 76 10000 5.1 190 19:18 11.10.2019
357 Clouds 14 1012 76 10000 5.1 190 19:18 11.10.2019
358 Clouds 14 1012 76 10000 4.1 180 18:39 11.10.2019
359 Clouds 14 1012 76 10000 6.7 190 18:19 11.10.2019
360 Clouds 14 1012 76 10000 6.7 190 17:59 11.10.2019
361 Clouds 15 1012 76 10000 6.2 190 17:38 11.10.2019
362 Clouds 15 1013 76 10000 5.1 210 17:20 11.10.2019
363 Clouds 15 1013 76 10000 5.1 210 16:59 11.10.2019
364 Clouds 15 1013 76 10000 6.7 200 16:39 11.10.2019
365 Clouds 15 1013 76 10000 6.2 200 16:19 11.10.2019
366 Clouds 15 1013 76 10000 6.2 200 15:55 11.10.2019
367 Clouds 15 1013 76 10000 7.7 210 15:36 11.10.2019
368 Clouds 15 1013 76 10000 6.2 210 15:18 11.10.2019
369 Clouds 15 1013 76 10000 6.2 210 15:18 11.10.2019
370 Clouds 15 1013 71 10000 7.2 210 14:42 11.10.2019
371 Clouds 15 1014 71 10000 7.2 210 14:23 11.10.2019
372 Clouds 15 1014 71 10000 6.2 200 13:47 11.10.2019
373 Clouds 15 1014 71 10000 6.2 200 13:26 11.10.2019
374 Clouds 14 1014 71 10000 6.7 200 12:58 11.10.2019
375 Clouds 15 1014 67 10000 5.1 200 12:40 11.10.2019
376 Clouds 14 1015 76 10000 3.1 170 12:21 11.10.2019
377 Clouds 13 1015 76 10000 3.1 170 11:59 11.10.2019
378 Clouds 13 1015 81 10000 2.6 130 11:39 11.10.2019
379 Clouds 12 1015 76 10000 4.1 190 11:21 11.10.2019
380 Clouds 12 1015 76 10000 4.1 190 10:56 11.10.2019
381 Clouds 12 1015 76 10000 4.1 190 10:56 11.10.2019
382 Rain 12 1015 76 10000 3.1 190 10:37 11.10.2019
383 Clouds 11 1015 87 10000 3.1 150 10:18 11.10.2019
384 Rain 11 1016 87 10000 4.1 170 09:42 11.10.2019
385 Clouds 11 1015 81 10000 2.6 180 09:21 11.10.2019
386 Clouds 11 1015 81 10000 2.6 180 08:59 11.10.2019
387 Clouds 11 1015 81 10000 3.6 190 08:39 11.10.2019
388 Clouds 11 1015 81 10000 3.6 190 08:39 11.10.2019
389 Clouds 10 1015 81 10000 4.1 210 08:20 11.10.2019
390 Clouds 10 1015 81 10000 3.6 210 07:57 11.10.2019
391 Clouds 10 1015 81 10000 3.6 210 07:38 11.10.2019
392 Clear 10 1013 71 10000 6.7 200 07:19 11.10.2019
393 Clouds 10 1016 87 10000 4.6 180 06:43 11.10.2019
394 Clear 10 1015 81 10000 5.1 210 06:19 11.10.2019
395 Clear 10 1015 81 10000 5.1 210 05:32 11.10.2019
396 Clear 10 1015 81 10000 4.6 210 04:59 11.10.2019
397 Clouds 11 1017 87 10000 3.6 220 03:46 11.10.2019
398 Clouds 10 1015 76 10000 6.2 210 01:57 11.10.2019
399 Clouds 10 1017 87 10000 3.1 200 00:42 11.10.2019
400 Clouds 10 1015 81 10000 6.7 210 00:22 11.10.2019
401 Clouds 10 1017 81 10000 4.1 220 23:41 10.10.2019
402 Clouds 10 1015 76 10000 6.2 200 23:20 10.10.2019
403 Clouds 10 1017 81 10000 2.6 210 22:57 10.10.2019
404 Clouds 10 1017 81 10000 2.6 210 22:37 10.10.2019
405 Clear 10 1016 76 10000 5.7 230 22:19 10.10.2019
406 Clear 10 1016 76 10000 5.7 230 21:54 10.10.2019
407 Clear 10 1016 76 10000 5.7 230 21:36 10.10.2019
408 Clear 11 1015 76 10000 5.7 230 21:18 10.10.2019
409 Clear 11 1015 66 10000 5.1 230 20:40 10.10.2019
410 Clouds 11 1015 66 10000 4.6 240 20:20 10.10.2019
411 Clouds 11 1015 66 10000 4.6 240 20:20 10.10.2019
412 Clouds 11 1015 66 10000 4.6 240 19:57 10.10.2019
413 Rain 11 1015 71 10000 4.1 260 19:39 10.10.2019
414 Rain 11 1014 66 10000 4.1 230 19:19 10.10.2019
415 -273 0 0 0 0 0 18:54 10.10.2019
416 Rain 11 1014 66 10000 4.6 240 18:36 10.10.2019
417 Clouds 12 1014 66 10000 4.1 230 18:18 10.10.2019
418 Rain 13 1014 62 10000 5.7 240 17:40 10.10.2019
419 Clouds 13 1014 66 10000 4.6 240 17:19 10.10.2019
420 Clouds 13 1013 66 10000 5.1 250 16:57 10.10.2019
421 Clouds 13 1013 66 10000 5.1 250 16:38 10.10.2019
422 Clouds 13 1013 71 10000 6.7 250 16:20 10.10.2019
423 Clouds 13 1013 62 10000 7.2 250 15:42 10.10.2019
424 Clouds 13 1013 66 10000 5.7 240 15:23 10.10.2019
425 Clouds 13 1013 66 10000 5.7 240 14:59 10.10.2019
426 Clouds 12 1013 71 10000 4.6 250 14:37 10.10.2019
427 Clouds 12 1013 71 10000 5.1 260 14:19 10.10.2019
428 Clouds 12 1013 71 10000 5.1 260 13:58 10.10.2019
429 Clouds 11 1012 81 10000 4.6 250 13:39 10.10.2019
430 Clouds 11 1012 81 10000 4.1 240 13:18 10.10.2019
431 Clouds 11 1012 81 10000 4.6 240 12:42 10.10.2019
432 Clouds 11 1012 81 10000 4.6 240 12:42 10.10.2019
433 Clouds 11 1011 81 10000 4.1 230 12:21 10.10.2019
434 Clouds 11 1011 81 10000 4.1 230 11:58 10.10.2019
435 Clouds 11 1011 76 10000 4.6 240 11:40 10.10.2019
436 Clouds 11 1011 81 10000 3.6 230 11:19 10.10.2019
437 Clouds 10 1011 81 10000 3.6 230 10:57 10.10.2019
438 Clouds 10 1011 81 10000 3.1 240 10:39 10.10.2019
439 Clouds 10 1010 87 10000 3.6 230 10:20 10.10.2019
440 Clouds 10 1010 87 10000 2.6 240 09:41 10.10.2019
441 Clouds 9 1009 87 10000 3.6 220 09:23 10.10.2019
442 Clouds 9 1009 87 10000 3.6 220 08:59 10.10.2019
443 Clouds 9 1009 93 10000 3.1 220 08:40 10.10.2019
444 Drizzle 9 1008 93 10000 2.6 210 08:21 10.10.2019
445 Clouds 9 1008 93 10000 3.6 220 07:48 10.10.2019
446 Drizzle 9 1007 87 10000 4.6 230 07:26 10.10.2019
447 Drizzle 9 1008 93 10000 4.1 220 06:56 10.10.2019
448 Drizzle 9 1007 87 10000 5.1 240 06:38 10.10.2019
449 Drizzle 9 1008 87 10000 4.1 190 05:50 10.10.2019
450 Clouds 9 1008 81 10000 4.1 210 05:19 10.10.2019
451 Clouds 9 1008 87 10000 7.2 220 04:35 10.10.2019
452 Clouds 10 1007 81 10000 7.2 220 02:29 10.10.2019
453 Clouds 10 1008 87 10000 5.1 220 01:37 10.10.2019
454 Clouds 10 1006 81 10000 7.7 230 01:18 10.10.2019
455 Clouds 10 1006 81 10000 8.2 230 00:33 10.10.2019
456 Rain 10 1007 87 10000 5.7 220 23:42 09.10.2019
457 -273 0 0 0 0 0 23:24 09.10.2019
458 Rain 10 1006 87 10000 6.7 230 23:24 09.10.2019
459 Rain 10 1006 87 10000 6.7 230 22:59 09.10.2019
460 Rain 10 1007 87 10000 4.6 230 22:41 09.10.2019
461 Rain 10 1006 87 10000 3.1 240 22:22 09.10.2019
462 Rain 10 1006 87 10000 3.1 240 21:57 09.10.2019
463 Rain 10 1006 87 10000 3.6 230 21:38 09.10.2019
464 Drizzle 10 1006 87 10000 4.1 220 21:19 09.10.2019
465 Drizzle 10 1006 87 10000 4.6 230 20:55 09.10.2019
466 Drizzle 10 1006 87 10000 4.6 230 20:36 09.10.2019
467 Rain 10 1006 87 10000 5.1 210 20:18 09.10.2019
468 Rain 10 1006 87 10000 5.1 210 20:18 09.10.2019
469 Rain 10 1005 87 10000 6.2 210 19:43 09.10.2019
470 Rain 10 1005 81 10000 4.1 200 19:22 09.10.2019
471 Rain 11 1005 81 10000 5.1 200 18:39 09.10.2019
472 Rain 11 1005 87 10000 4.1 220 18:21 09.10.2019
473 Rain 12 1005 81 10000 6.7 210 17:58 09.10.2019
474 Rain 12 1005 81 10000 6.7 210 17:40 09.10.2019
475 Rain 12 1005 76 10000 5.1 200 17:22 09.10.2019
476 Rain 12 1005 76 10000 5.1 200 16:57 09.10.2019
477 Rain 13 1005 76 10000 5.1 200 16:39 09.10.2019
478 Rain 13 1006 76 10000 5.1 200 16:21 09.10.2019
479 Rain 13 1006 76 10000 5.1 200 16:21 09.10.2019
480 Clouds 13 1006 81 10000 5.1 200 15:57 09.10.2019
481 Clouds 13 1006 81 10000 5.1 200 15:38 09.10.2019
482 Clouds 13 1006 81 10000 4.1 210 15:19 09.10.2019
483 -273 0 0 0 0 0 14:55 09.10.2019
484 Clouds 14 1007 82 10000 4.6 220 14:36 09.10.2019
485 Rain 13 1007 87 10000 3.6 200 14:18 09.10.2019
486 Rain 13 1007 71 10000 4.1 200 13:38 09.10.2019
487 Rain 13 1007 71 10000 4.1 200 13:38 09.10.2019
488 Clouds 14 1008 71 10000 5.1 210 13:18 09.10.2019
489 Clouds 14 1008 71 10000 6.2 220 12:44 09.10.2019
490 Clouds 13 1008 76 10000 6.7 220 12:23 09.10.2019
491 Clouds 13 1008 76 10000 7.7 220 11:58 09.10.2019
492 Clouds 13 1008 76 10000 7.7 220 11:40 09.10.2019
493 Clouds 13 1008 81 10000 6.2 210 11:20 09.10.2019
494 Clouds 13 1008 76 10000 6.2 210 10:59 09.10.2019
495 Clouds 13 1008 76 10000 6.2 210 10:40 09.10.2019
496 Clouds 13 1008 76 10000 6.2 210 10:40 09.10.2019
497 Clouds 12 1009 81 10000 6.2 220 10:18 09.10.2019
498 Clouds 11 1009 81 10000 5.7 210 09:43 09.10.2019
499 Clouds 11 1009 81 10000 5.1 220 09:20 09.10.2019
500 Clouds 11 1009 81 10000 5.1 220 08:58 09.10.2019
501 Clouds 10 1009 87 10000 5.1 220 08:38 09.10.2019
502 Clouds 10 1009 87 10000 4.6 220 08:19 09.10.2019
503 Clouds 10 1009 87 10000 3.6 220 07:47 09.10.2019
504 Clouds 10 1009 87 10000 3.6 220 07:47 09.10.2019
505 Clouds 10 1009 93 10000 3.1 220 07:24 09.10.2019
506 Clouds 10 1009 93 10000 3.1 220 06:57 09.10.2019
507 Clouds 10 1009 93 10000 3.1 220 06:34 09.10.2019
508 Clouds 10 1008 93 10000 3.1 220 05:51 09.10.2019
509 Clouds 11 1009 93 10000 5.1 230 04:50 09.10.2019
510 Clouds 10 1008 93 10000 1.5 200 03:47 09.10.2019
511 Clouds 11 1007 81 10000 5.7 240 02:27 09.10.2019
512 Clouds 11 1007 81 10000 5.1 230 01:24 09.10.2019
513 Clouds 11 1007 81 10000 5.1 230 00:59 09.10.2019
514 Clouds 11 1008 87 10000 3.1 250 00:40 09.10.2019
515 Clouds 11 1007 81 10000 5.7 230 00:22 09.10.2019
516 Clouds 12 1007 81 10000 5.7 230 23:58 08.10.2019
517 Clouds 12 1008 93 10000 4.1 250 23:38 08.10.2019
518 Clouds 12 1007 93 10000 3.1 210 23:18 08.10.2019
519 Clouds 12 1007 93 10000 3.1 210 22:41 08.10.2019
520 Rain 12 1006 93 10000 3.1 210 22:22 08.10.2019
521 Rain 12 1006 93 10000 3.1 210 21:58 08.10.2019
522 Rain 12 1006 87 10000 2.6 210 21:39 08.10.2019
523 Rain 12 1006 82 10000 5.1 220 21:20 08.10.2019
524 Rain 12 1006 82 10000 5.1 220 20:58 08.10.2019
525 Rain 12 1007 93 10000 2.1 250 20:39 08.10.2019
526 Rain 12 1006 93 10000 2.6 200 20:21 08.10.2019
527 Rain 12 1006 93 10000 2.6 200 19:59 08.10.2019
528 Rain 12 1006 93 10000 3.6 210 19:41 08.10.2019
529 Rain 12 1006 100 10000 2.1 170 19:23 08.10.2019
530 Rain 12 1006 100 9000 2.6 260 18:55 08.10.2019
531 Rain 12 1006 100 9000 2.6 260 18:37 08.10.2019
532 Rain 13 1006 100 7000 1 0 18:19 08.10.2019
533 Rain 13 1006 100 8000 0.5 0 17:55 08.10.2019
534 Rain 13 1006 100 8000 0.5 0 17:55 08.10.2019
535 Rain 13 1006 100 8000 0.5 0 17:36 08.10.2019
536 Drizzle 13 1006 93 7000 1 0 17:18 08.10.2019
537 Drizzle 14 1006 93 4000 2.6 300 16:40 08.10.2019
538 Rain 13 1007 93 3600 4.1 310 16:22 08.10.2019
539 Rain 13 1007 93 4500 2.1 320 15:41 08.10.2019
540 Rain 13 1007 100 4000 2.1 240 15:22 08.10.2019
541 Rain 13 1007 100 4000 2.1 240 15:22 08.10.2019
542 Rain 13 1007 100 4000 2.1 240 14:59 08.10.2019
543 Rain 13 1007 93 4500 2.6 230 14:41 08.10.2019
544 Rain 13 1007 87 10000 4.6 230 14:21 08.10.2019
545 Rain 13 1007 87 10000 4.6 230 13:57 08.10.2019
546 Rain 13 1007 87 10000 5.1 220 13:39 08.10.2019
547 Rain 13 1007 93 10000 5.7 230 13:19 08.10.2019
548 Rain 12 1007 93 10000 5.7 230 12:59 08.10.2019
549 Rain 12 1007 87 7000 5.7 230 12:38 08.10.2019
550 Drizzle 12 1007 87 10000 5.1 230 12:18 08.10.2019
551 Drizzle 12 1007 87 10000 6.2 230 11:42 08.10.2019
552 Rain 12 1007 87 10000 5.7 230 11:24 08.10.2019
553 Rain 12 1007 87 10000 5.7 220 10:58 08.10.2019
554 Rain 12 1007 87 10000 5.7 220 10:37 08.10.2019
555 Clouds 11 1008 87 10000 6.2 220 10:19 08.10.2019
556 Clouds 11 1008 87 10000 6.2 220 09:55 08.10.2019
557 Clouds 11 1008 87 10000 5.7 220 09:37 08.10.2019
558 Drizzle 11 1008 87 10000 5.1 220 09:19 08.10.2019
559 Rain 11 1009 93 10000 7.7 220 08:42 08.10.2019
560 Rain 11 1008 93 10000 4.6 200 08:23 08.10.2019
561 Rain 11 1008 93 10000 4.6 200 08:23 08.10.2019
562 Rain 11 1008 93 10000 5.7 190 07:44 08.10.2019
563 Rain 11 1008 93 10000 5.7 210 07:21 08.10.2019
564 Rain 11 1010 87 10000 2.6 210 06:51 08.10.2019
565 Rain 11 1010 81 10000 3.6 200 06:28 08.10.2019
566 Rain 11 1010 81 10000 3.6 200 05:46 08.10.2019
567 Rain 11 1011 87 10000 4.1 180 05:26 08.10.2019
568 Rain 10 1011 87 10000 5.1 180 04:31 08.10.2019
569 Clouds 10 1011 76 10000 5.7 200 03:27 08.10.2019
570 Clouds 10 1014 87 10000 3.6 170 02:36 08.10.2019
571 Clouds 10 1014 81 10000 4.1 180 01:47 08.10.2019
572 Clouds 10 1013 81 10000 4.1 180 01:27 08.10.2019
573 Clouds 10 1015 81 10000 5.1 190 00:46 08.10.2019
574 Clouds 9 1014 76 10000 5.7 180 00:21 08.10.2019
575 Clouds 10 1016 81 10000 4.1 190 23:40 07.10.2019
576 Clouds 10 1015 76 10000 5.1 180 23:20 07.10.2019
577 Clouds 10 1017 81 10000 1.5 190 22:56 07.10.2019
578 Clouds 10 1017 81 10000 1.5 190 22:38 07.10.2019
579 Clouds 9 1017 81 10000 4.1 170 22:20 07.10.2019
580 Clouds 10 1017 81 10000 3.6 170 21:56 07.10.2019
581 Clouds 10 1017 81 10000 3.6 170 21:37 07.10.2019
582 Clouds 10 1017 81 10000 3.6 170 21:37 07.10.2019
583 Clouds 10 1017 76 10000 3.1 180 21:19 07.10.2019
584 Clouds 10 1017 76 10000 3.1 180 21:19 07.10.2019
585 Clouds 10 1017 76 10000 3.1 180 21:19 07.10.2019
586 Clouds 10 1017 76 10000 3.1 180 20:57 07.10.2019
587 Clouds 10 1018 81 10000 2.1 210 20:38 07.10.2019
588 Clouds 10 1017 76 10000 3.1 180 20:19 07.10.2019
589 Clouds 10 1017 76 10000 3.1 180 19:56 07.10.2019
590 Clouds 10 1017 81 10000 2.1 200 19:38 07.10.2019
591 Clouds 10 1017 81 10000 2.1 200 19:38 07.10.2019
592 Clouds 10 1017 76 10000 2.6 190 19:18 07.10.2019
593 Clouds 11 1017 66 10000 3.1 210 18:43 07.10.2019
594 Clouds 11 1017 71 10000 3.6 210 18:20 07.10.2019
595 Clouds 11 1017 71 10000 3.6 210 17:59 07.10.2019
596 Clouds 12 1017 71 10000 3.1 200 17:41 07.10.2019
597 Clouds 12 1018 66 10000 4.6 210 17:19 07.10.2019
598 Clouds 13 1018 58 10000 4.1 170 16:46 07.10.2019
599 Clouds 13 1018 58 10000 4.1 170 16:46 07.10.2019
600 Clouds 13 1018 58 10000 4.1 170 16:28 07.10.2019
601 Clouds 13 1018 62 10000 3.6 140 15:59 07.10.2019
602 Clouds 13 1018 62 10000 3.1 170 15:40 07.10.2019
603 Clouds 13 1018 58 10000 3.6 180 15:21 07.10.2019
604 Clouds 13 1019 58 10000 3.6 150 14:42 07.10.2019
605 Clouds 12 1019 58 10000 3.6 140 14:23 07.10.2019
606 Clouds 12 1019 66 10000 3.6 160 13:45 07.10.2019
607 Clouds 12 1019 66 10000 2.6 140 13:21 07.10.2019
608 Clouds 12 1019 66 10000 2.6 120 12:59 07.10.2019
609 Clouds 11 1019 66 10000 2.6 120 12:41 07.10.2019
610 Clear 10 1019 71 10000 3.1 100 12:21 07.10.2019
611 Clear 10 1019 71 10000 3.1 100 11:59 07.10.2019
612 Clear 10 1019 70 10000 2.6 110 11:40 07.10.2019
613 Clear 9 1019 75 10000 2.6 120 11:21 07.10.2019
614 Clear 8 1019 75 10000 2.6 110 10:58 07.10.2019
615 Clear 8 1019 75 10000 2.6 110 10:58 07.10.2019
616 Clear 8 1019 75 10000 2.6 110 10:39 07.10.2019
617 Clear 7 1019 81 10000 2.1 100 10:20 07.10.2019
618 Clear 6 1019 86 10000 2.1 90 09:40 07.10.2019
619 Clear 5 1019 93 10000 1 100 09:22 07.10.2019
620 Clear 4 1018 86 10000 1 0 08:44 07.10.2019
621 Clear 3 1018 93 10000 2.1 130 08:21 07.10.2019
622 Clear 3 1018 100 10000 2.6 100 07:59 07.10.2019
623 Clear 2 1018 100 10000 2.6 100 07:38 07.10.2019
624 Clear 3 1017 86 10000 3.6 100 07:19 07.10.2019
625 Clouds 3 1018 87 10000 1.5 40 06:43 07.10.2019
626 Clear 4 1017 86 10000 2.6 90 06:22 07.10.2019
627 Clear 5 1017 86 10000 2.1 90 05:27 07.10.2019
628 Clouds 5 1017 81 10000 2.6 50 04:56 07.10.2019
629 Clouds 5 1016 87 10000 0.5 330 03:51 07.10.2019
630 Clouds 5 1016 87 10000 0.5 330 03:51 07.10.2019
631 Clear 6 1016 81 10000 3.1 90 03:32 07.10.2019
632 Clear 6 1016 87 10000 4.6 80 02:55 07.10.2019
633 Clear 6 1015 87 10000 4.1 90 02:19 07.10.2019
634 Clouds 7 1014 87 10000 4.1 90 01:24 07.10.2019
635 Clouds 7 1014 87 10000 2.1 70 00:55 07.10.2019
636 Rain 7 1014 87 10000 4.6 80 00:27 07.10.2019
637 Rain 7 1014 87 10000 4.6 80 23:59 06.10.2019
638 Rain 7 1014 87 10000 1.5 50 23:40 06.10.2019
639 Rain 7 1014 87 9000 3.1 80 23:20 06.10.2019
640 Rain 7 1014 87 9000 3.1 80 22:57 06.10.2019
641 Rain 7 1013 87 9000 4.1 90 22:39 06.10.2019
642 Drizzle 8 1013 87 10000 3.6 90 22:20 06.10.2019
643 Drizzle 8 1013 87 10000 3.6 90 22:20 06.10.2019
644 Drizzle 8 1013 87 10000 2.1 70 21:55 06.10.2019
645 Drizzle 8 1013 87 10000 2.1 70 21:37 06.10.2019
646 Rain 8 1012 87 10000 5.1 120 21:18 06.10.2019
647 Rain 8 1012 87 10000 5.1 120 21:18 06.10.2019
648 Rain 8 1012 87 10000 5.1 120 20:56 06.10.2019
649 Rain 8 1013 87 10000 1.5 70 20:38 06.10.2019
650 Rain 8 1013 87 10000 3.6 90 20:19 06.10.2019
651 Rain 8 1013 87 10000 4.1 100 19:55 06.10.2019
652 Rain 8 1013 87 10000 4.1 100 19:36 06.10.2019
653 Rain 8 1013 87 10000 3.6 90 19:18 06.10.2019
654 Rain 9 1013 81 10000 4.1 100 18:55 06.10.2019
655 Rain 9 1013 81 10000 4.1 100 18:36 06.10.2019
656 Rain 9 1014 76 10000 4.1 100 18:18 06.10.2019
657 Rain 9 1014 76 10000 4.1 100 18:18 06.10.2019
658 Rain 9 1014 76 10000 4.1 100 18:18 06.10.2019
659 Rain 9 1014 76 10000 4.6 90 17:42 06.10.2019
660 Rain 10 1014 76 10000 6.2 90 17:20 06.10.2019
661 Rain 10 1014 76 10000 6.2 90 17:20 06.10.2019
662 Rain 10 1014 76 10000 6.2 90 17:20 06.10.2019
663 Rain 10 1014 76 10000 6.2 90 16:55 06.10.2019
664 Rain 9 1014 76 10000 6.7 110 16:37 06.10.2019
665 Rain 10 1014 76 10000 6.2 110 16:18 06.10.2019
666 Rain 10 1015 76 10000 5.1 120 15:43 06.10.2019
667 Clouds 10 1015 70 10000 5.7 110 15:21 06.10.2019
668 Clouds 10 1015 70 10000 6.7 120 14:44 06.10.2019
669 Clouds 10 1015 70 10000 6.7 120 14:26 06.10.2019
670 Clouds 9 1015 70 10000 6.7 120 13:59 06.10.2019
671 Clouds 9 1016 75 10000 5.7 110 13:40 06.10.2019
672 Clouds 9 1016 75 10000 5.1 120 13:22 06.10.2019
673 Clouds 9 1017 81 10000 4.1 120 12:58 06.10.2019
674 Clouds 9 1017 81 10000 4.1 120 12:39 06.10.2019
675 Clear 9 1017 75 10000 3.6 130 12:21 06.10.2019
676 Clear 9 1017 75 10000 3.6 130 11:59 06.10.2019
677 Clear 8 1017 87 10000 3.6 90 11:40 06.10.2019
678 Clear 8 1017 81 10000 3.1 110 11:21 06.10.2019
679 Clear 7 1018 87 10000 2.6 120 10:54 06.10.2019
680 Clear 7 1018 87 10000 2.6 120 10:36 06.10.2019
681 Clear 6 1018 87 10000 4.1 100 10:18 06.10.2019
682 Clear 6 1018 93 10000 2.6 100 09:41 06.10.2019
683 Clear 6 1018 93 10000 2.1 120 09:19 06.10.2019
684 Clear 5 1018 93 10000 2.6 120 08:47 06.10.2019
685 Clear 5 1019 93 10000 2.6 110 08:21 06.10.2019
686 Clear 4 1019 100 10000 3.6 110 07:57 06.10.2019
687 Clear 4 1019 100 10000 3.6 110 07:38 06.10.2019
688 Clear 4 1018 75 10000 3.6 120 06:39 06.10.2019
689 Clear 4 1019 93 10000 2.1 110 05:36 06.10.2019
690 Clear 4 1019 81 10000 2.1 80 04:29 06.10.2019
691 Clouds 4 1020 100 10000 1 320 02:48 06.10.2019
692 Fog 5 1019 87 10000 2.6 100 02:28 06.10.2019
693 Fog 5 1020 93 10000 0.5 10 01:46 06.10.2019
694 Clear 5 1019 87 10000 2.1 120 01:27 06.10.2019
695 Clear 5 1019 87 10000 2.1 120 01:27 06.10.2019
696 Clear 5 1020 87 10000 2.1 110 00:59 06.10.2019
697 Clear 5 1020 87 10000 2.1 110 00:59 06.10.2019
698 Clear 6 1020 87 10000 1.5 110 00:31 06.10.2019
699 Clouds 6 1020 93 10000 1.5 20 23:46 05.10.2019
700 Clear 6 1020 93 10000 1.5 210 23:24 05.10.2019
701 Clear 7 1020 93 10000 1.5 210 22:59 05.10.2019
702 Clear 6 1020 100 10000 1 0 22:40 05.10.2019
703 Clear 7 1019 87 10000 1.5 120 22:21 05.10.2019
704 Clear 7 1019 87 10000 1.5 120 22:21 05.10.2019
705 Clear 7 1019 87 10000 1.5 120 21:59 05.10.2019
706 Clouds 7 1019 93 10000 1.07 83.695 21:40 05.10.2019
707 Clear 7 1019 93 10000 1 0 21:21 05.10.2019
708 Clouds 7 1019 93 10000 1 60 20:56 05.10.2019
709 Clouds 8 1019 93 10000 1 60 20:38 05.10.2019
710 Clear 8 1019 87 10000 0.5 0 20:19 05.10.2019
711 Clear 8 1019 87 10000 1 20 19:40 05.10.2019
712 Clouds 9 1019 76 10000 1 0 19:22 05.10.2019
713 Clouds 9 1018 81 10000 1 30 18:57 05.10.2019
714 Clouds 9 1018 81 10000 1 30 18:39 05.10.2019
715 Clouds 10 1018 71 10000 2.1 70 18:20 05.10.2019
716 Clouds 11 1017 66 10000 2.6 50 17:55 05.10.2019
717 Clouds 11 1017 66 10000 2.6 50 17:55 05.10.2019
718 Clouds 11 1017 66 10000 2.6 50 17:37 05.10.2019
719 Clouds 11 1017 71 10000 3.1 80 17:18 05.10.2019
720 Clouds 11 1017 71 10000 3.1 70 16:42 05.10.2019
721 Clouds 11 1017 66 10000 3.1 40 16:21 05.10.2019
722 Clouds 11 1017 66 10000 3.1 40 15:57 05.10.2019
723 Clouds 11 1016 71 10000 2.6 30 15:39 05.10.2019
724 Clouds 11 1016 66 10000 4.1 50 15:21 05.10.2019
725 Clouds 11 1016 66 10000 4.1 50 14:56 05.10.2019
726 Clouds 11 1016 66 10000 4.1 50 14:56 05.10.2019
727 Clouds 11 1016 71 10000 2.6 20 14:38 05.10.2019
728 Clouds 11 1016 71 10000 2.6 20 14:38 05.10.2019
729 Clouds 11 1016 76 10000 4.1 20 14:20 05.10.2019
730 Clouds 11 1015 76 10000 3.6 20 13:41 05.10.2019
731 Clouds 10 1015 76 10000 4.6 40 13:21 05.10.2019
732 Clouds 10 1015 81 10000 4.6 360 12:46 05.10.2019
733 Clouds 10 1015 81 10000 4.6 360 12:46 05.10.2019
734 Clouds 10 1015 81 10000 5.7 360 12:21 05.10.2019
735 Clouds 9 1014 87 10000 5.1 360 11:58 05.10.2019
736 Clouds 9 1014 87 10000 5.1 360 11:37 05.10.2019
737 Clouds 9 1014 87 10000 5.1 350 11:18 05.10.2019
738 Clouds 9 1013 93 10000 4.6 350 10:44 05.10.2019
739 Clouds 8 1013 100 10000 3.6 330 10:25 05.10.2019
740 Clouds 8 1013 100 10000 3.6 330 09:57 05.10.2019
741 Clouds 8 1012 93 10000 3.6 330 09:38 05.10.2019
742 Clouds 8 1011 93 10000 3.6 320 09:20 05.10.2019
743 Clouds 8 1011 93 10000 3.6 330 08:39 05.10.2019
744 Clouds 8 1011 93 10000 3.6 330 08:39 05.10.2019
745 Clouds 8 1010 93 10000 4.1 340 08:19 05.10.2019
746 Clouds 8 1010 93 10000 4.1 340 07:56 05.10.2019
747 Clouds 8 1010 93 10000 4.6 350 07:33 05.10.2019
748 Rain 8 1008 93 6000 4.6 340 06:58 05.10.2019
749 Rain 8 1008 93 6000 4.6 340 06:26 05.10.2019
750 Rain 8 1008 93 10000 5.1 350 05:40 05.10.2019
751 Drizzle 9 1006 87 10000 3.6 310 03:56 05.10.2019
752 Drizzle 9 1007 93 9000 3.6 310 03:28 05.10.2019
753 Clouds 9 1004 87 10000 4.6 310 01:41 05.10.2019
754 Drizzle 9 1004 93 10000 2.6 300 01:18 05.10.2019
755 Rain 10 1003 93 10000 2.1 270 00:41 05.10.2019
756 Rain 10 1004 93 6000 4.6 290 00:23 05.10.2019
757 Rain 10 1003 93 10000 4.6 220 23:44 04.10.2019
758 Rain 10 1002 87 10000 5.1 220 23:25 04.10.2019
759 Rain 10 1002 87 10000 5.1 220 22:59 04.10.2019
760 Rain 10 1002 87 10000 5.1 210 22:39 04.10.2019
761 Rain 10 1002 87 7000 7.2 240 22:19 04.10.2019
762 Rain 10 1002 87 7000 7.2 240 22:19 04.10.2019
763 Rain 10 1002 87 7000 7.2 240 21:55 04.10.2019
764 Rain 10 1001 87 7000 8.2 240 21:36 04.10.2019
765 Rain 10 1003 87 10000 3.1 200 21:18 04.10.2019
766 Rain 10 1003 93 10000 3.6 210 20:42 04.10.2019
767 Rain 10 1003 100 10000 2.6 170 20:23 04.10.2019
768 Rain 10 1003 100 10000 2.6 170 19:58 04.10.2019
769 Rain 10 1003 93 10000 3.1 180 19:39 04.10.2019
770 Clouds 10 1003 93 10000 3.6 170 19:21 04.10.2019
771 Clouds 9 1003 93 10000 3.1 160 18:56 04.10.2019
772 Clouds 9 1003 93 10000 3.1 160 18:37 04.10.2019
773 Rain 9 1003 93 10000 3.1 160 18:18 04.10.2019
774 Rain 9 1003 93 10000 3.1 160 18:18 04.10.2019
775 Drizzle 9 1003 93 10000 3.6 180 17:41 04.10.2019
776 Rain 9 1003 93 10000 4.6 180 17:22 04.10.2019
777 Rain 9 1003 93 10000 4.6 180 16:58 04.10.2019
778 Rain 9 1003 93 9000 3.6 160 16:40 04.10.2019
779 Rain 9 1003 93 9000 3.6 160 16:40 04.10.2019
780 Drizzle 9 1003 100 10000 4.6 130 16:19 04.10.2019
781 Rain 9 1003 100 10000 4.6 130 15:57 04.10.2019
782 Rain 9 1004 93 9000 4.6 140 15:39 04.10.2019
783 Rain 9 1004 93 8000 5.1 140 15:19 04.10.2019
784 Rain 9 1004 93 8000 5.1 140 14:56 04.10.2019
785 Rain 9 1005 93 6000 5.1 140 14:37 04.10.2019
786 Rain 9 1005 93 8000 5.7 140 14:19 04.10.2019
787 Rain 9 1005 87 9000 6.2 140 13:44 04.10.2019
788 Rain 9 1006 93 9000 4.6 140 13:22 04.10.2019
789 Rain 9 1007 87 8000 4.1 150 12:54 04.10.2019
790 Rain 9 1007 87 8000 4.1 150 12:36 04.10.2019
791 Rain 10 1007 76 10000 6.2 140 12:18 04.10.2019
792 Rain 10 1007 87 10000 5.7 130 11:42 04.10.2019
793 Rain 10 1007 87 10000 5.7 130 11:42 04.10.2019
794 Rain 10 1007 87 10000 5.7 130 11:42 04.10.2019
795 Rain 10 1008 87 10000 5.1 140 11:21 04.10.2019
796 Clouds 9 1008 93 10000 5.1 130 10:41 04.10.2019
797 Rain 9 1009 93 10000 3.6 130 10:21 04.10.2019
798 Rain 9 1009 93 10000 3.6 140 09:50 04.10.2019
799 Clouds 9 1009 93 10000 3.6 140 09:32 04.10.2019
800 Clouds 8 1010 93 10000 3.6 140 08:59 04.10.2019
801 Clouds 8 1010 93 10000 3.1 140 08:41 04.10.2019
802 Clouds 8 1010 93 10000 3.1 140 08:41 04.10.2019
803 Clouds 8 1010 93 10000 3.1 140 08:23 04.10.2019
804 Clouds 8 1011 93 10000 2.1 150 07:47 04.10.2019
805 Clear 8 1010 81 10000 3.1 170 07:23 04.10.2019
806 Clouds 8 1011 93 10000 2.1 140 06:48 04.10.2019
807 Clouds 8 1011 93 10000 2.6 150 06:27 04.10.2019
808 Clouds 8 1011 93 10000 2.6 150 05:52 04.10.2019
809 Clouds 8 1012 93 10000 3.1 150 05:19 04.10.2019
810 Clear 8 1012 87 10000 3.1 180 04:25 04.10.2019
811 Clouds 8 1014 87 10000 2.6 240 02:56 04.10.2019
812 Clouds 8 1014 87 10000 2.6 240 02:56 04.10.2019
813 Clouds 8 1013 87 10000 3.1 160 02:37 04.10.2019
814 Clouds 8 1014 87 10000 1.5 220 01:43 04.10.2019
815 Clear 9 1014 87 10000 3.6 210 01:24 04.10.2019
816 Clouds 9 1015 87 10000 2.6 190 00:24 04.10.2019
817 Clouds 9 1015 81 10000 3.1 240 23:38 03.10.2019
818 Clouds 9 1015 93 10000 4.1 220 23:19 03.10.2019
819 Clouds 8 1015 93 10000 4.1 220 22:57 03.10.2019
820 Rain 9 1016 87 10000 0.5 0 22:39 03.10.2019
821 Rain 9 1016 81 10000 3.6 290 22:21 03.10.2019
822 Rain 9 1016 81 10000 3.6 290 21:56 03.10.2019
823 Rain 9 1016 81 10000 3.6 290 21:38 03.10.2019
824 Clouds 10 1016 81 10000 4.1 270 21:19 03.10.2019
825 Clouds 10 1016 81 10000 0.5 240 20:57 03.10.2019
826 Clouds 10 1016 81 10000 0.5 240 20:37 03.10.2019
827 Rain 10 1015 81 10000 3.6 270 20:19 03.10.2019
828 Rain 10 1015 81 10000 3.1 270 19:55 03.10.2019
829 Rain 10 1015 81 10000 3.1 270 19:36 03.10.2019
830 Clouds 10 1015 76 10000 3.1 280 19:18 03.10.2019
831 Rain 12 1015 71 10000 3.6 280 18:40 03.10.2019
832 Clouds 12 1015 71 10000 4.6 280 18:20 03.10.2019
833 Clouds 12 1015 71 10000 3.1 290 17:59 03.10.2019
834 Clouds 12 1015 71 10000 3.1 290 17:41 03.10.2019
835 Clouds 13 1015 71 10000 4.6 280 17:20 03.10.2019
836 Clouds 13 1015 71 10000 4.6 290 16:54 03.10.2019
837 Clouds 13 1015 71 10000 4.6 290 16:36 03.10.2019
838 Rain 13 1015 71 10000 6.2 290 16:18 03.10.2019
839 Clouds 13 1015 66 10000 6.2 300 15:41 03.10.2019
840 Rain 13 1016 71 10000 6.7 290 15:23 03.10.2019
841 Rain 12 1016 71 10000 6.7 290 14:54 03.10.2019
842 Rain 12 1016 76 10000 5.1 310 14:36 03.10.2019
843 Rain 12 1016 76 10000 5.7 320 14:18 03.10.2019
844 Rain 12 1016 81 10000 7.2 310 13:41 03.10.2019
845 Clouds 12 1016 76 10000 8.2 300 13:22 03.10.2019
846 Clouds 12 1016 76 10000 7.7 300 12:58 03.10.2019
847 Clouds 11 1016 76 10000 7.7 300 12:39 03.10.2019
848 Clouds 11 1016 81 10000 6.2 280 12:19 03.10.2019
849 -273 0 0 0 0 0 11:55 03.10.2019
850 Clouds 11 1016 87 10000 4.6 280 11:36 03.10.2019
851 Rain 10 1016 93 9000 4.6 280 11:18 03.10.2019
852 Drizzle 10 1016 93 9000 5.1 280 10:41 03.10.2019
853 Rain 10 1016 93 7000 5.7 280 10:19 03.10.2019
854 Rain 10 1016 93 7000 5.7 280 10:19 03.10.2019
855 Rain 10 1016 93 7000 5.7 280 09:58 03.10.2019
856 Rain 10 1016 93 8000 4.6 280 09:40 03.10.2019
857 Rain 9 1015 100 10000 4.1 290 09:21 03.10.2019
858 Rain 9 1015 100 10000 4.1 290 08:55 03.10.2019
859 Rain 9 1016 81 10000 3.6 290 08:36 03.10.2019
860 Rain 9 1015 100 10000 4.6 280 08:18 03.10.2019
861 Rain 9 1015 93 10000 6.7 290 07:41 03.10.2019
862 Rain 9 1015 93 9000 4.6 250 07:19 03.10.2019
863 Rain 9 1015 76 10000 4.6 280 06:51 03.10.2019
864 Rain 9 1015 93 4200 5.1 260 06:25 03.10.2019
865 Clouds 9 1015 76 10000 4.1 280 05:47 03.10.2019
866 Clouds 9 1014 87 10000 7.2 290 05:20 03.10.2019
867 Clouds 9 1015 93 10000 5.1 250 04:31 03.10.2019
868 Rain 9 1015 81 10000 3.6 250 03:24 03.10.2019
869 Rain 9 1015 81 10000 3.6 250 02:39 03.10.2019
870 Rain 8 1015 93 9000 5.1 260 01:59 03.10.2019
871 Rain 8 1015 81 10000 2.6 250 01:35 03.10.2019
872 Clouds 8 1014 81 10000 4.1 220 00:51 03.10.2019
873 Clouds 8 1014 81 10000 5.1 260 00:19 03.10.2019
874 Clouds 8 1014 87 10000 2.6 200 23:43 02.10.2019
875 Clouds 8 1014 81 10000 6.2 260 23:22 02.10.2019
876 Clear 8 1014 87 10000 1 0 22:44 02.10.2019
877 Clouds 8 1013 75 10000 4.6 270 22:22 02.10.2019
878 Clouds 8 1013 75 10000 4.6 270 21:58 02.10.2019
879 Clouds 8 1013 75 10000 4.6 270 21:38 02.10.2019
880 Clouds 8 1012 75 10000 5.1 280 21:20 02.10.2019
881 Clouds 8 1012 75 10000 5.1 280 20:57 02.10.2019
882 Clouds 8 1013 81 10000 1.5 270 20:38 02.10.2019
883 Clouds 8 1012 75 10000 3.6 270 20:20 02.10.2019
884 Clouds 8 1012 75 10000 3.6 280 19:55 02.10.2019
885 Clouds 9 1012 75 10000 3.6 280 19:37 02.10.2019
886 Clouds 9 1011 81 10000 3.6 300 19:18 02.10.2019
887 Clouds 9 1011 76 10000 4.6 300 18:56 02.10.2019
888 Clouds 10 1011 76 10000 4.6 300 18:36 02.10.2019
889 Clouds 10 1011 76 10000 5.1 300 18:18 02.10.2019
890 Rain 10 1010 81 10000 6.2 340 17:42 02.10.2019
891 Rain 11 1010 62 10000 5.7 310 17:21 02.10.2019
892 Rain 11 1010 58 10000 5.1 280 16:58 02.10.2019
893 Rain 12 1010 58 10000 5.1 280 16:39 02.10.2019
894 Rain 12 1009 62 10000 6.2 330 16:20 02.10.2019
895 Rain 12 1009 62 10000 6.2 330 15:56 02.10.2019
896 Rain 12 1010 66 10000 4.6 290 15:37 02.10.2019
897 Rain 12 1010 66 10000 4.6 290 15:18 02.10.2019
898 Rain 12 1009 66 10000 5.1 300 14:45 02.10.2019
899 Rain 12 1009 62 10000 6.7 300 14:27 02.10.2019
900 Clouds 12 1009 66 10000 5.7 300 13:58 02.10.2019
901 Clouds 12 1008 66 10000 5.7 320 13:40 02.10.2019
902 Clouds 12 1008 66 10000 5.7 320 13:21 02.10.2019
903 Clouds 11 1008 76 10000 5.7 310 12:41 02.10.2019
904 Clouds 11 1008 76 10000 5.7 310 12:23 02.10.2019
905 Clouds 10 1008 81 10000 5.1 330 11:59 02.10.2019
906 Clouds 10 1007 87 10000 4.6 320 11:41 02.10.2019
907 Clouds 10 1007 87 10000 4.6 320 11:21 02.10.2019
908 Rain 9 1006 93 10000 4.6 340 10:39 02.10.2019
909 Rain 9 1006 93 10000 4.6 340 10:19 02.10.2019
910 Rain 9 1006 93 10000 4.6 340 10:19 02.10.2019
911 Rain 8 1006 93 10000 5.7 320 09:41 02.10.2019
912 Rain 8 1005 93 10000 4.6 330 09:20 02.10.2019
913 Rain 8 1004 93 10000 5.1 350 08:57 02.10.2019
914 Rain 8 1003 93 10000 5.1 350 08:38 02.10.2019
915 Rain 8 1003 93 10000 5.1 350 08:20 02.10.2019
916 Rain 7 1002 93 10000 7.7 350 07:43 02.10.2019
917 Rain 8 1001 87 10000 6.2 330 07:24 02.10.2019
918 Rain 9 1000 87 7000 5.7 320 06:58 02.10.2019
919 Rain 10 1000 93 10000 5.7 360 06:27 02.10.2019
920 Rain 10 1000 100 10000 4.1 350 05:51 02.10.2019
921 Rain 11 1000 100 8000 3.1 320 05:21 02.10.2019
922 Rain 13 999 93 10000 3.1 230 03:53 02.10.2019
923 Rain 13 999 93 10000 5.1 240 03:31 02.10.2019
924 Rain 14 999 93 9000 5.7 240 02:27 02.10.2019
925 Rain 14 1000 93 8000 0.5 160 01:59 02.10.2019
926 Rain 14 999 82 10000 4.1 200 00:52 02.10.2019
927 Rain 14 999 82 10000 3.6 200 00:29 02.10.2019
928 Rain 14 1000 93 10000 1.5 150 23:55 01.10.2019
929 Clear 14 1000 87 10000 2.1 220 23:36 01.10.2019
930 Clear 14 1000 87 10000 2.1 220 23:18 01.10.2019
931 Clear 14 1000 87 10000 2.1 220 22:57 01.10.2019
932 Clear 15 1000 87 10000 3.6 220 22:37 01.10.2019
933 Clear 14 1000 87 10000 3.6 220 22:18 01.10.2019
934 Clear 14 1000 87 10000 3.6 220 22:18 01.10.2019
935 Clear 15 1000 82 10000 3.6 220 21:42 01.10.2019
936 Clear 15 1000 82 10000 4.1 220 21:22 01.10.2019
937 Clouds 15 1001 87 10000 3.1 220 20:58 01.10.2019
938 Clouds 15 1000 87 10000 3.6 220 20:39 01.10.2019
939 Clouds 15 1000 87 10000 3.6 220 20:20 01.10.2019
940 Clouds 15 1000 87 10000 3.1 210 19:57 01.10.2019
941 Clouds 15 1000 87 10000 2.6 230 19:39 01.10.2019
942 Clouds 15 1000 87 10000 2.6 230 19:20 01.10.2019
943 Clouds 16 1000 77 10000 2.6 210 18:55 01.10.2019
944 Rain 16 1000 77 10000 4.6 230 18:37 01.10.2019
945 Rain 16 1000 77 10000 4.6 230 18:19 01.10.2019
946 Clouds 16 1000 77 10000 4.6 220 17:43 01.10.2019
947 Clouds 17 1000 77 10000 4.6 220 17:20 01.10.2019
948 Rain 17 1000 72 10000 6.7 230 16:59 01.10.2019
949 Clouds 17 1000 72 10000 6.7 230 16:40 01.10.2019
950 Clouds 17 1000 72 10000 4.6 230 16:22 01.10.2019
951 Clouds 17 1000 72 10000 4.6 230 16:22 01.10.2019
952 Clouds 17 1000 72 10000 5.7 230 15:48 01.10.2019
953 Clouds 18 1001 72 10000 6.2 230 15:24 01.10.2019
954 Clouds 17 1001 82 10000 6.2 220 14:58 01.10.2019
955 Clouds 17 1001 82 10000 6.7 220 14:38 01.10.2019
956 Clouds 17 1001 82 10000 6.7 220 14:19 01.10.2019
957 Rain 16 1002 82 10000 4.6 210 13:55 01.10.2019
958 Rain 15 1002 87 10000 5.1 240 13:36 01.10.2019
959 Rain 15 1002 87 10000 5.1 240 13:18 01.10.2019
960 Rain 15 1002 93 7000 6.2 230 12:42 01.10.2019
961 Rain 14 1002 93 7000 6.2 230 12:21 01.10.2019
962 Rain 14 1001 87 10000 8.7 210 11:59 01.10.2019
963 Rain 14 1001 87 10000 6.2 210 11:39 01.10.2019
964 Rain 14 1001 87 10000 6.2 210 11:19 01.10.2019
965 Rain 14 1002 82 10000 6.2 200 10:59 01.10.2019
966 Rain 14 1002 82 10000 6.2 200 10:41 01.10.2019
967 Rain 14 1002 87 10000 4.6 200 10:23 01.10.2019
968 Rain 13 1003 87 10000 7.7 220 09:43 01.10.2019
969 Rain 13 1003 87 10000 7.7 220 09:25 01.10.2019
970 Rain 13 1002 87 10000 4.6 200 08:43 01.10.2019
971 Rain 13 1003 87 10000 5.1 190 08:25 01.10.2019
972 Rain 13 1003 82 10000 5.7 190 07:49 01.10.2019
973 Clouds 13 1002 82 10000 7.7 210 07:26 01.10.2019
974 Rain 13 1004 87 10000 8.2 220 06:50 01.10.2019
975 Rain 12 1002 82 10000 7.7 190 06:23 01.10.2019
976 Rain 12 1005 82 10000 7.7 200 05:46 01.10.2019
977 Rain 12 1005 82 10000 7.7 200 05:46 01.10.2019
978 Rain 12 1006 93 10000 3.6 160 05:19 01.10.2019
979 Clouds 12 1006 82 10000 6.2 180 04:35 01.10.2019
980 Clouds 12 1006 82 10000 6.2 180 04:35 01.10.2019
981 Clear 12 1008 82 10000 5.1 200 03:25 01.10.2019
982 Clouds 12 1008 82 10000 6.7 200 02:18 01.10.2019
983 Clear 11 1009 76 10000 5.7 200 01:41 01.10.2019
984 Clouds 12 1010 76 10000 5.1 190 00:40 01.10.2019
985 Clouds 11 1010 76 10000 5.1 190 00:22 01.10.2019
986 Clouds 11 1010 76 10000 4.6 200 23:41 30.09.2019
987 Clouds 11 1010 76 10000 4.6 200 23:22 30.09.2019
988 Clouds 11 1012 87 10000 2.49 211.825 22:46 30.09.2019
989 Clear 11 1011 81 10000 5.1 200 22:26 30.09.2019
990 Clouds 11 1012 81 10000 0.5 0 21:58 30.09.2019
991 Clouds 11 1011 87 10000 4.1 200 21:40 30.09.2019
992 Clouds 12 1011 76 10000 4.6 220 21:20 30.09.2019
993 Clouds 12 1012 87 10000 2.6 230 20:58 30.09.2019
994 Clouds 12 1012 87 10000 3.1 250 20:39 30.09.2019
995 Clouds 13 1012 87 10000 3.1 250 20:21 30.09.2019
996 Clouds 13 1012 82 10000 3.6 260 19:58 30.09.2019
997 Clouds 13 1011 82 10000 4.1 250 19:40 30.09.2019
998 Clouds 13 1011 82 10000 4.1 250 19:20 30.09.2019
999 Clouds 13 1011 76 10000 4.6 270 18:58 30.09.2019
1000 Clouds 14 1011 76 10000 5.1 270 18:40 30.09.2019
1001 Clouds 15 1011 76 10000 5.1 270 18:20 30.09.2019
1002 Clouds 15 1011 82 10000 5.7 260 17:54 30.09.2019
1003 Clouds 15 1011 72 10000 3.1 290 17:36 30.09.2019
1004 Clouds 15 1011 72 10000 3.1 290 17:18 30.09.2019
1005 -273 0 0 0 0 0 16:41 30.09.2019
1006 Rain 15 1011 82 10000 6.2 270 16:41 30.09.2019
1007 Rain 15 1011 82 10000 6.2 270 16:41 30.09.2019
1008 Clouds 15 1011 76 10000 7.2 280 16:20 30.09.2019
1009 Clouds 15 1011 76 10000 7.2 280 16:19 30.09.2019
1010 Clouds 15 1010 72 10000 6.2 260 15:59 30.09.2019
1011 Rain 15 1010 76 10000 7.2 280 15:38 30.09.2019
1012 Rain 15 1010 76 10000 7.2 280 15:19 30.09.2019
1013 Clouds 15 1010 72 10000 6.7 280 14:58 30.09.2019
1014 Rain 15 1011 76 6000 7.2 260 14:38 30.09.2019
1015 Rain 15 1011 76 6000 7.2 260 14:38 30.09.2019
1016 Rain 15 1011 76 6000 7.2 260 14:19 30.09.2019
1017 Rain 15 1009 87 10000 6.2 280 13:58 30.09.2019
1018 Rain 15 1008 76 10000 8.2 270 13:39 30.09.2019
1019 Rain 15 1008 76 10000 8.2 270 13:20 30.09.2019
1020 Rain 15 1008 82 10000 9.8 290 12:44 30.09.2019
1021 Clouds 15 1008 67 10000 10.8 290 12:23 30.09.2019
1022 Rain 14 1007 71 10000 11.3 290 11:59 30.09.2019
1023 Clouds 14 1006 71 10000 9.8 290 11:40 30.09.2019
1024 Clouds 14 1006 71 10000 9.8 290 11:19 30.09.2019
1025 Rain 14 1006 76 10000 8.7 290 10:55 30.09.2019
1026 Rain 13 1005 76 10000 9.3 290 10:37 30.09.2019
1027 Rain 13 1005 76 10000 9.3 290 10:18 30.09.2019
1028 Rain 13 1004 81 10000 8.7 290 09:40 30.09.2019
1029 Rain 13 1004 81 10000 8.7 290 09:21 30.09.2019
1030 Rain 13 1003 76 10000 9.8 280 08:51 30.09.2019
1031 Rain 13 1002 76 10000 9.3 280 08:33 30.09.2019
1032 Rain 13 1001 76 10000 10.8 280 07:47 30.09.2019
1033 Rain 13 1001 93 10000 8.2 250 07:28 30.09.2019
1034 Rain 13 1001 76 10000 8.2 260 06:59 30.09.2019
1035 Rain 14 999 87 10000 9.3 250 06:41 30.09.2019
1036 Rain 14 1000 82 10000 6.2 260 05:51 30.09.2019
1037 Rain 14 1000 82 10000 6.2 260 05:51 30.09.2019
1038 Rain 14 998 77 10000 11.3 280 05:33 30.09.2019
1039 Rain 15 997 82 10000 8.7 240 02:49 30.09.2019
1040 Clouds 15 995 87 10000 8.7 240 01:41 30.09.2019
1041 Rain 15 996 82 10000 7.7 250 00:55 30.09.2019
1042 Rain 15 996 87 8000 6.2 210 00:37 30.09.2019
1043 Rain 15 996 87 8000 6.2 210 00:18 30.09.2019
1044 Drizzle 15 996 87 10000 5.7 200 23:39 29.09.2019
1045 Drizzle 15 996 87 10000 5.7 200 23:20 29.09.2019
1046 Rain 16 996 82 10000 6.2 200 22:43 29.09.2019
1047 Rain 16 996 87 10000 6.2 200 22:25 29.09.2019
1048 Rain 16 997 87 10000 7.2 200 21:59 29.09.2019
1049 Clouds 16 997 82 10000 7.2 210 21:39 29.09.2019
1050 Clouds 16 997 82 10000 7.2 210 21:19 29.09.2019
1051 Drizzle 16 998 82 10000 7.2 210 20:58 29.09.2019
1052 Rain 16 998 82 10000 7.7 210 20:40 29.09.2019
1053 Rain 16 998 82 10000 7.7 210 20:19 29.09.2019
1054 Drizzle 16 998 77 10000 6.7 210 19:55 29.09.2019
1055 -273 0 0 0 0 0 19:36 29.09.2019
1056 Drizzle 16 999 82 5000 8.7 220 19:36 29.09.2019
1057 Rain 16 999 72 10000 6.7 210 19:18 29.09.2019
1058 -273 0 0 0 0 0 18:54 29.09.2019
1059 Clouds 16 999 72 10000 8.2 220 18:36 29.09.2019
1060 Clouds 16 999 72 10000 8.2 220 18:18 29.09.2019
1061 Clouds 16 999 72 10000 6.7 210 17:54 29.09.2019
1062 Clouds 16 999 72 10000 6.7 210 17:54 29.09.2019
1063 Clouds 16 1000 72 10000 7.2 210 17:36 29.09.2019
1064 Clouds 16 1000 72 10000 7.2 210 17:18 29.09.2019
1065 Clouds 17 1000 72 10000 7.7 220 16:41 29.09.2019
1066 Rain 16 1001 67 10000 10.3 210 16:20 29.09.2019
1067 Rain 16 1001 67 10000 10.3 210 15:58 29.09.2019
1068 Rain 16 1001 67 10000 8.7 210 15:37 29.09.2019
1069 Rain 16 1001 67 10000 8.7 210 15:19 29.09.2019
1070 Rain 16 1002 72 10000 7.7 200 14:58 29.09.2019
1071 Rain 16 1002 77 10000 7.2 200 14:37 29.09.2019
1072 Rain 16 1002 77 10000 7.2 200 14:19 29.09.2019
1073 Rain 16 1003 67 10000 8.2 210 13:55 29.09.2019
1074 Rain 16 1003 67 10000 6.7 200 13:36 29.09.2019
1075 Rain 16 1003 67 10000 6.7 200 13:18 29.09.2019
1076 Clouds 17 1003 72 10000 5.7 190 12:55 29.09.2019
1077 Clouds 17 1003 72 10000 5.7 190 12:55 29.09.2019
1078 Clouds 17 1003 72 10000 5.7 190 12:55 29.09.2019
1079 Clouds 17 1003 72 10000 5.7 190 12:55 29.09.2019
1080 Clouds 16 1004 72 10000 6.7 200 12:37 29.09.2019
1081 Clouds 16 1004 72 10000 6.7 200 12:19 29.09.2019
1082 Clouds 16 1005 76 10000 6.2 200 11:41 29.09.2019
1083 Clouds 16 1005 76 10000 6.2 200 11:20 29.09.2019
1084 Clouds 15 1005 76 10000 6.7 190 10:58 29.09.2019
1085 Rain 15 1006 76 10000 5.7 190 10:39 29.09.2019
1086 Rain 15 1006 76 10000 5.7 190 10:20 29.09.2019
1087 Clouds 14 1006 82 10000 5.7 180 09:57 29.09.2019
1088 Clouds 14 1007 82 10000 4.1 170 09:38 29.09.2019
1089 Clouds 14 1007 82 10000 4.1 170 09:18 29.09.2019
1090 Clouds 14 1007 87 10000 3.6 160 08:42 29.09.2019
1091 Rain 13 1007 87 10000 4.1 160 08:21 29.09.2019
1092 Rain 13 1008 87 10000 4.6 160 07:43 29.09.2019
1093 Clear 13 1007 76 10000 6.2 190 07:25 29.09.2019
1094 Clouds 13 1009 82 10000 5.1 180 06:49 29.09.2019
1095 Clouds 13 1010 82 10000 4.1 220 05:58 29.09.2019
1096 Clear 13 1010 82 10000 3.6 200 04:45 29.09.2019
1097 Clear 13 1010 76 10000 6.2 210 04:23 29.09.2019
1098 Clouds 13 1012 82 10000 3.6 180 02:58 29.09.2019
1099 Clouds 13 1011 76 10000 7.2 220 02:19 29.09.2019
1100 Clouds 13 1011 82 10000 7.2 230 01:40 29.09.2019
1101 Clouds 14 1013 82 10000 4.1 210 00:55 29.09.2019
1102 Rain 14 1011 82 10000 8.7 230 00:36 29.09.2019
1103 Rain 13 1011 82 10000 8.7 230 00:18 29.09.2019
1104 Clear 13 1012 87 10000 6.2 230 23:37 28.09.2019
1105 Clear 14 1012 87 10000 6.2 230 23:19 28.09.2019
1106 Drizzle 14 1012 87 9000 5.1 230 22:40 28.09.2019
1107 Drizzle 14 1012 87 9000 5.1 230 22:21 28.09.2019
1108 Drizzle 14 1012 93 8000 4.1 240 21:58 28.09.2019
1109 Drizzle 14 1012 93 8000 4.1 240 21:58 28.09.2019
1110 Drizzle 14 1012 93 8000 4.1 220 21:40 28.09.2019
1111 Drizzle 14 1012 93 8000 4.1 220 21:21 28.09.2019
1112 Rain 14 1012 93 6000 3.6 240 20:57 28.09.2019
1113 Drizzle 15 1012 82 10000 6.2 220 20:38 28.09.2019
1114 Drizzle 14 1012 82 10000 6.2 220 20:19 28.09.2019
1115 Rain 15 1012 72 10000 7.2 230 19:56 28.09.2019
1116 Drizzle 15 1011 72 10000 7.7 230 19:38 28.09.2019
1117 Drizzle 15 1011 72 10000 7.7 230 19:19 28.09.2019
1118 Rain 15 1011 72 10000 6.2 220 18:54 28.09.2019
1119 Rain 16 1011 67 10000 6.2 220 18:36 28.09.2019
1120 Rain 16 1011 67 10000 6.2 220 18:18 28.09.2019
1121 Rain 16 1011 67 10000 6.2 230 17:42 28.09.2019
1122 Clouds 17 1012 67 10000 6.2 240 17:23 28.09.2019
1123 Clouds 17 1011 63 10000 6.7 230 16:58 28.09.2019
1124 Rain 17 1011 63 10000 7.7 230 16:38 28.09.2019
1125 Rain 17 1011 63 10000 7.7 230 16:20 28.09.2019
1126 Rain 17 1012 77 10000 7.2 250 15:41 28.09.2019
1127 Rain 17 1012 77 10000 7.2 250 15:22 28.09.2019
1128 Rain 16 1011 77 8000 9.3 220 14:56 28.09.2019
1129 Rain 17 1011 63 10000 8.2 230 14:38 28.09.2019
1130 Rain 17 1011 63 10000 8.2 230 14:19 28.09.2019
1131 Rain 17 1012 59 10000 8.2 230 13:56 28.09.2019
1132 Clouds 17 1012 63 10000 8.2 230 13:37 28.09.2019
1133 Clouds 17 1012 63 10000 8.2 230 13:19 28.09.2019
1134 Rain 15 1012 67 10000 8.2 230 12:40 28.09.2019
1135 Rain 15 1012 67 10000 8.2 230 12:19 28.09.2019
1136 Rain 15 1012 72 10000 6.7 230 11:43 28.09.2019
1137 Rain 15 1012 72 10000 6.7 230 11:22 28.09.2019
1138 Rain 15 1012 77 10000 6.2 220 10:59 28.09.2019
1139 Clouds 15 1011 82 10000 5.7 210 10:39 28.09.2019
1140 Clouds 15 1011 82 10000 5.7 210 10:19 28.09.2019
1141 Rain 14 1011 82 10000 6.2 210 09:42 28.09.2019
1142 Rain 14 1011 82 10000 6.2 210 09:23 28.09.2019
1143 Rain 14 1011 87 10000 5.1 210 08:55 28.09.2019
1144 Rain 13 1011 82 10000 4.6 210 08:37 28.09.2019
1145 Rain 13 1011 82 10000 4.6 210 08:18 28.09.2019
1146 Rain 13 1011 82 10000 6.2 220 07:43 28.09.2019
1147 Clouds 13 1011 87 10000 4.6 210 07:19 28.09.2019
1148 Clouds 13 1011 87 10000 4.6 210 06:52 28.09.2019
1149 Clouds 13 1011 87 10000 4.6 220 06:30 28.09.2019
1150 Clouds 13 1011 87 10000 4.6 210 05:43 28.09.2019
1151 Clouds 13 1011 87 10000 4.6 210 05:20 28.09.2019
1152 Clear 13 1010 82 10000 6.7 190 04:38 28.09.2019
1153 Clouds 13 1011 87 10000 2.1 200 03:48 28.09.2019
1154 Clear 13 1010 82 10000 6.2 200 03:20 28.09.2019
1155 Clear 13 1010 82 10000 6.2 190 02:43 28.09.2019
1156 Clear 13 1010 82 10000 6.2 190 02:43 28.09.2019
1157 Clouds 13 1009 82 10000 6.2 190 02:25 28.09.2019
1158 Clouds 13 1011 93 10000 2.6 200 01:46 28.09.2019
1159 Clear 13 1009 82 10000 6.2 200 01:24 28.09.2019
1160 Clouds 13 1011 93 10000 2.6 200 00:49 28.09.2019
1161 Clear 13 1009 77 10000 6.7 210 00:30 28.09.2019
1162 Clear 13 1010 76 10000 4.1 210 23:41 27.09.2019
1163 Clear 13 1010 76 10000 4.1 210 23:22 27.09.2019
1164 Clear 13 1010 76 10000 4.1 210 22:59 27.09.2019
1165 Clear 13 1010 82 10000 3.1 170 22:41 27.09.2019
1166 Clear 13 1010 82 10000 3.1 170 22:19 27.09.2019
1167 Clear 13 1010 82 10000 3.1 170 22:19 27.09.2019
1168 Clear 13 1010 82 10000 1.5 150 21:55 27.09.2019
1169 Clear 13 1010 76 10000 3.1 210 21:36 27.09.2019
1170 Clear 14 1010 76 10000 3.1 210 21:18 27.09.2019
1171 Clear 14 1010 82 10000 3.6 210 20:55 27.09.2019
1172 Rain 14 1010 82 10000 3.6 200 20:36 27.09.2019
1173 Rain 14 1010 82 10000 3.6 200 20:18 27.09.2019
1174 Rain 15 1009 72 10000 3.6 220 19:42 27.09.2019
1175 Rain 15 1009 72 10000 3.6 220 19:23 27.09.2019
1176 Rain 16 1009 67 10000 5.1 210 18:56 27.09.2019
1177 Rain 16 1009 82 10000 2.6 250 18:37 27.09.2019
1178 Rain 17 1009 82 10000 2.6 250 18:19 27.09.2019
1179 Clouds 18 1009 63 10000 5.7 220 17:40 27.09.2019
1180 Clouds 18 1009 63 10000 5.7 220 17:22 27.09.2019
1181 Clouds 18 1009 63 10000 5.7 230 16:59 27.09.2019
1182 Clouds 19 1009 63 10000 5.7 230 16:41 27.09.2019
1183 Clouds 18 1009 63 10000 4.6 220 16:20 27.09.2019
1184 Clouds 18 1009 63 10000 4.6 220 16:20 27.09.2019
1185 Rain 18 1009 67 10000 5.7 230 15:57 27.09.2019
1186 Clouds 18 1009 63 10000 5.7 230 15:39 27.09.2019
1187 Clouds 18 1009 63 10000 5.7 230 15:19 27.09.2019
1188 Clouds 17 1009 72 10000 5.7 220 14:56 27.09.2019
1189 Clouds 17 1009 72 10000 4.6 230 14:37 27.09.2019
1190 Clouds 17 1009 72 10000 4.6 230 14:18 27.09.2019
1191 Clouds 16 1010 77 10000 5.7 230 13:42 27.09.2019
1192 Clouds 16 1010 82 10000 4.1 210 13:22 27.09.2019
1193 Clouds 16 1010 82 10000 4.1 210 13:22 27.09.2019
1194 Clouds 15 1010 87 10000 3.6 210 12:57 27.09.2019
1195 Clouds 15 1010 87 10000 2.6 200 12:38 27.09.2019
1196 Clouds 15 1010 87 10000 2.6 200 12:20 27.09.2019
1197 Drizzle 14 1010 93 10000 2.6 180 11:39 27.09.2019
1198 Drizzle 14 1010 93 10000 2.6 180 11:21 27.09.2019
1199 Drizzle 14 1010 87 10000 2.6 180 10:57 27.09.2019
1200 Rain 14 1010 87 6000 2.1 180 10:39 27.09.2019
1201 Rain 14 1010 87 6000 2.1 180 10:39 27.09.2019
1202 Rain 14 1010 87 6000 2.1 180 10:20 27.09.2019
1203 Rain 13 1010 87 7000 1.5 190 09:42 27.09.2019
1204 Rain 14 1010 87 7000 1.5 190 09:21 27.09.2019
1205 Rain 14 1009 100 8000 2.6 270 08:57 27.09.2019
1206 Rain 14 1010 93 9000 1.5 280 08:38 27.09.2019
1207 Rain 14 1010 93 9000 1.5 280 08:19 27.09.2019
1208 Rain 14 1010 93 2500 4.1 240 07:45 27.09.2019
1209 Drizzle 14 1009 93 7000 4.1 200 07:22 27.09.2019
1210 Clouds 14 1010 93 10000 2.1 160 06:43 27.09.2019
1211 Rain 14 1010 93 10000 2.1 160 06:23 27.09.2019
1212 Rain 15 1010 93 10000 2.1 160 05:50 27.09.2019
1213 Rain 15 1009 93 10000 4.1 200 05:31 27.09.2019
1214 Rain 15 1010 87 10000 3.6 170 03:55 27.09.2019
1215 Drizzle 16 1009 87 10000 5.7 200 02:41 27.09.2019
1216 Rain 16 1009 93 10000 5.1 190 01:44 27.09.2019
1217 Rain 16 1011 88 10000 4.6 210 00:59 27.09.2019
1218 Rain 16 1011 88 10000 5.1 210 00:20 27.09.2019
1219 Rain 16 1010 93 8000 3.6 160 23:56 26.09.2019
1220 Rain 16 1011 93 10000 3.1 180 23:37 26.09.2019
1221 Rain 16 1011 93 10000 3.1 180 23:18 26.09.2019
1222 Drizzle 16 1010 93 10000 2.6 160 22:55 26.09.2019
1223 Drizzle 16 1011 93 9000 2.1 160 22:37 26.09.2019
1224 Drizzle 16 1011 93 9000 2.1 160 22:18 26.09.2019
1225 Drizzle 16 1011 93 9000 2.1 160 22:18 26.09.2019
1226 Drizzle 16 1011 93 9000 2.1 160 22:18 26.09.2019
1227 -273 0 0 0 0 0 21:55 26.09.2019
1228 Drizzle 16 1011 93 9000 2.1 160 21:36 26.09.2019
1229 Drizzle 16 1011 93 9000 2.1 160 21:18 26.09.2019
1230 Drizzle 16 1011 93 9000 2.1 160 21:18 26.09.2019
1231 Drizzle 16 1011 93 9000 2.1 160 21:18 26.09.2019
1232 Drizzle 16 1011 93 9000 2.1 160 20:55 26.09.2019
1233 Drizzle 16 1011 93 9000 2.6 160 20:37 26.09.2019
1234 Drizzle 16 1011 93 9000 2.6 160 20:19 26.09.2019
1235 Drizzle 16 1011 93 9000 4.1 160 19:40 26.09.2019
1236 Drizzle 16 1011 93 9000 4.1 160 19:19 26.09.2019
1237 Drizzle 16 1011 93 8000 3.6 150 18:58 26.09.2019
1238 Rain 16 1011 93 9000 3.1 150 18:39 26.09.2019
1239 Rain 16 1011 93 9000 3.1 150 18:21 26.09.2019
1240 Drizzle 16 1011 87 10000 3.1 170 17:39 26.09.2019
1241 Drizzle 16 1011 87 10000 3.1 170 17:19 26.09.2019
1242 Drizzle 16 1011 87 10000 3.1 170 17:19 26.09.2019
1243 Rain 16 1011 93 9000 3.6 190 16:59 26.09.2019
1244 Rain 16 1011 87 7000 3.6 190 16:39 26.09.2019
1245 Rain 17 1011 87 7000 3.6 190 16:20 26.09.2019
1246 Rain 17 1011 87 10000 4.1 170 15:58 26.09.2019
1247 Rain 17 1011 82 10000 4.6 170 15:38 26.09.2019
1248 Rain 17 1011 82 10000 4.6 170 15:19 26.09.2019
1249 Rain 17 1011 82 10000 4.1 180 14:57 26.09.2019
1250 Clouds 17 1011 77 10000 5.1 210 14:37 26.09.2019
1251 Clouds 17 1011 77 10000 5.1 210 14:19 26.09.2019
1252 Clouds 17 1011 77 10000 4.1 200 13:41 26.09.2019
1253 Clouds 17 1011 77 10000 4.1 200 13:20 26.09.2019
1254 Clouds 17 1011 77 10000 4.1 200 13:20 26.09.2019
1255 Clouds 17 1011 72 10000 3.6 200 12:57 26.09.2019
1256 Drizzle 17 1011 72 10000 3.6 200 12:39 26.09.2019
1257 Drizzle 17 1011 72 10000 3.6 200 12:20 26.09.2019
1258 Clouds 17 1011 82 10000 2.1 180 11:42 26.09.2019
1259 Clouds 16 1011 82 10000 2.1 180 11:22 26.09.2019
1260 Clouds 16 1011 87 10000 2.1 160 10:56 26.09.2019
1261 Clouds 16 1011 87 10000 2.1 160 10:56 26.09.2019
1262 Clouds 16 1011 87 10000 2.1 160 10:56 26.09.2019
1263 Clouds 16 1011 87 10000 2.1 160 10:56 26.09.2019
1264 Clouds 16 1010 93 10000 3.1 130 10:38 26.09.2019
1265 Clouds 16 1010 93 10000 3.1 130 10:38 26.09.2019
1266 Clouds 16 1010 93 10000 3.1 130 10:19 26.09.2019
1267 Clouds 15 1010 87 10000 3.6 190 09:43 26.09.2019
1268 Clouds 15 1010 87 10000 3.6 190 09:25 26.09.2019
1269 Clouds 15 1010 87 10000 3.6 190 09:25 26.09.2019
1270 Clouds 14 1010 93 10000 3.6 170 08:56 26.09.2019
1271 Clouds 14 1010 93 10000 4.1 190 08:38 26.09.2019
1272 Clouds 14 1010 93 10000 4.1 190 08:19 26.09.2019
1273 Clouds 14 1010 93 10000 2.1 210 07:41 26.09.2019
1274 Clouds 13 1010 93 10000 2.1 210 07:20 26.09.2019
1275 Clouds 13 1009 93 10000 2.6 190 06:43 26.09.2019
1276 Clouds 13 1009 93 10000 2.6 190 06:25 26.09.2019
1277 Clouds 13 1009 93 10000 1 0 05:44 26.09.2019
1278 Clouds 13 1009 93 10000 1 0 05:24 26.09.2019
1279 Rain 13 1009 87 10000 2.6 190 02:50 26.09.2019
1280 Rain 13 1009 87 10000 0.5 210 01:53 26.09.2019
1281 Rain 13 1007 87 10000 4.1 180 01:28 26.09.2019
1282 Rain 13 1008 87 10000 1 0 00:55 26.09.2019
1283 Clouds 13 1007 82 10000 4.6 180 00:37 26.09.2019
1284 Clouds 13 1007 87 10000 3.6 170 23:47 25.09.2019
1285 Clouds 13 1007 87 10000 3.1 180 23:28 25.09.2019
1286 Clouds 13 1008 82 10000 1 120 22:58 25.09.2019
1287 Clouds 13 1008 93 10000 2.1 180 22:40 25.09.2019
1288 Clouds 13 1008 93 10000 2.1 180 22:20 25.09.2019
1289 Rain 13 1008 93 10000 1.5 170 21:57 25.09.2019
1290 Clear 13 1008 93 10000 1.5 200 21:38 25.09.2019
1291 Clear 13 1008 93 10000 1.5 200 21:19 25.09.2019
1292 Clouds 13 1007 93 10000 1.5 180 20:57 25.09.2019
1293 Clouds 14 1007 87 10000 0.5 0 20:39 25.09.2019
1294 Clouds 14 1007 87 10000 0.5 0 20:20 25.09.2019
1295 Clouds 14 1007 82 10000 1.5 90 19:43 25.09.2019
1296 Clouds 15 1007 82 10000 1.5 90 19:25 25.09.2019
1297 Rain 15 1007 77 10000 1 0 18:58 25.09.2019
1298 Thunderstorm 16 1006 82 10000 2.6 180 18:39 25.09.2019
1299 Thunderstorm 16 1006 82 10000 2.6 180 18:21 25.09.2019
1300 Rain 17 1007 82 10000 2.1 190 17:59 25.09.2019
1301 Rain 17 1006 82 10000 2.6 200 17:38 25.09.2019
1302 Rain 17 1006 82 10000 2.6 200 17:19 25.09.2019
1303 Rain 17 1006 82 10000 2.6 200 17:19 25.09.2019
1304 Rain 17 1006 82 10000 4.6 210 16:45 25.09.2019
1305 Rain 17 1006 82 10000 1.5 160 16:27 25.09.2019
1306 Rain 17 1007 87 10000 2.1 160 15:59 25.09.2019
1307 Rain 18 1006 67 10000 4.1 240 15:40 25.09.2019
1308 Rain 18 1006 67 10000 4.1 240 15:22 25.09.2019
1309 Rain 18 1007 87 10000 3.6 230 14:56 25.09.2019
1310 Rain 18 1007 72 10000 1.5 240 14:38 25.09.2019
1311 Rain 17 1007 72 10000 1.5 240 14:20 25.09.2019
1312 Clouds 17 1007 77 10000 3.1 230 13:41 25.09.2019
1313 Clouds 17 1007 77 10000 3.1 230 13:22 25.09.2019
1314 Clouds 17 1007 77 10000 3.1 230 13:22 25.09.2019
1315 Clouds 17 1007 77 10000 4.1 220 12:58 25.09.2019
1316 Clouds 16 1007 77 10000 4.1 230 12:39 25.09.2019
1317 Clouds 16 1007 77 10000 4.1 230 12:21 25.09.2019
1318 Clouds 15 1007 82 10000 3.6 220 11:42 25.09.2019
1319 Clouds 15 1007 82 10000 3.6 220 11:22 25.09.2019
1320 Clouds 15 1007 87 10000 2.6 230 10:59 25.09.2019
1321 Rain 15 1007 87 10000 2.6 230 10:41 25.09.2019
1322 Rain 15 1006 87 10000 3.6 250 10:21 25.09.2019
1323 Rain 14 1006 93 10000 3.6 250 09:56 25.09.2019
1324 Clouds 14 1006 93 10000 3.1 260 09:36 25.09.2019
1325 Clouds 14 1006 93 10000 3.1 260 09:18 25.09.2019
1326 Drizzle 13 1006 93 9000 2.6 250 08:41 25.09.2019
1327 Rain 13 1005 93 8000 2.6 250 08:21 25.09.2019
1328 Rain 13 1005 93 7000 2.6 250 07:56 25.09.2019
1329 Drizzle 13 1005 100 6000 0.5 250 07:37 25.09.2019
1330 Drizzle 13 1005 93 4400 2.1 240 07:19 25.09.2019
1331 Rain 13 1005 100 8000 1 160 06:37 25.09.2019
1332 Drizzle 13 1005 93 9000 3.1 200 05:52 25.09.2019
1333 Drizzle 14 1005 93 7000 1 0 05:27 25.09.2019
1334 Drizzle 14 1005 93 5000 2.6 180 04:49 25.09.2019
1335 Drizzle 14 1006 93 6000 3.1 160 01:54 25.09.2019
1336 Rain 14 1006 87 10000 2.6 100 00:43 25.09.2019
1337 Rain 14 1008 87 10000 2.6 170 00:23 25.09.2019
1338 Rain 14 1008 87 10000 2.6 170 23:54 24.09.2019
1339 Rain 14 1008 87 10000 2.6 170 23:54 24.09.2019
1340 Drizzle 14 1008 77 10000 3.1 150 23:36 24.09.2019
1341 Drizzle 14 1008 77 10000 3.1 150 23:18 24.09.2019
1342 Clouds 15 1008 72 10000 3.6 160 22:38 24.09.2019
1343 Clouds 15 1008 72 10000 3.6 160 22:20 24.09.2019
1344 Clouds 15 1009 72 10000 4.1 170 21:56 24.09.2019
1345 Clouds 15 1009 72 10000 2.6 160 21:37 24.09.2019
1346 Clouds 15 1009 72 10000 2.6 160 21:37 24.09.2019
1347 Clouds 15 1009 72 10000 2.6 160 21:19 24.09.2019
1348 Clouds 15 1009 77 10000 2.1 160 20:57 24.09.2019
1349 Clouds 15 1009 77 10000 2.1 160 20:57 24.09.2019
1350 Clouds 15 1009 77 10000 2.1 170 20:38 24.09.2019
1351 Clouds 15 1009 77 10000 2.1 170 20:19 24.09.2019
1352 Clear 15 1009 72 10000 1 170 19:43 24.09.2019
1353 Clear 16 1009 72 10000 2.1 180 19:21 24.09.2019
1354 Clouds 17 1009 67 10000 2.6 180 18:59 24.09.2019
1355 Clouds 17 1009 63 10000 3.6 180 18:39 24.09.2019
1356 Clouds 17 1009 63 10000 3.6 180 18:21 24.09.2019
1357 Clouds 18 1009 63 10000 4.1 190 17:57 24.09.2019
1358 Clouds 18 1010 59 10000 5.1 190 17:38 24.09.2019
1359 Clouds 18 1010 59 10000 5.1 190 17:38 24.09.2019
1360 Clouds 18 1010 59 10000 5.1 190 17:20 24.09.2019
1361 Clouds 19 1010 59 10000 5.1 200 16:55 24.09.2019
1362 Clouds 19 1010 55 10000 4.1 180 16:37 24.09.2019
1363 Clouds 19 1010 55 10000 4.1 180 16:18 24.09.2019
1364 Clouds 20 1011 59 10000 5.1 180 15:41 24.09.2019
1365 Clouds 20 1011 59 10000 5.1 180 15:23 24.09.2019
1366 Clouds 20 1011 55 10000 4.6 180 14:41 24.09.2019
1367 Clouds 19 1011 59 10000 4.6 170 14:20 24.09.2019
1368 Clouds 20 1012 59 10000 4.1 190 13:55 24.09.2019
1369 -273 0 0 0 0 0 13:55 24.09.2019
1370 Clouds 20 1012 59 10000 3.1 190 13:37 24.09.2019
1371 Clouds 20 1012 59 10000 3.1 190 13:18 24.09.2019
1372 Clouds 18 1013 77 10000 3.6 230 12:39 24.09.2019
1373 Clouds 18 1013 77 10000 3.6 140 12:18 24.09.2019
1374 Clouds 17 1014 77 10000 3.1 130 11:43 24.09.2019
1375 Clouds 16 1014 77 10000 3.1 130 11:22 24.09.2019
1376 Clouds 16 1014 87 10000 2.6 120 10:57 24.09.2019
1377 Clouds 15 1014 87 9000 3.1 150 10:37 24.09.2019
1378 Clouds 15 1014 87 9000 3.1 150 10:19 24.09.2019
1379 Clouds 14 1014 93 9000 2.1 140 09:46 24.09.2019
1380 Fog 13 1015 100 7000 0.5 0 09:27 24.09.2019
1381 Mist 13 1014 93 4300 1.5 160 08:57 24.09.2019
1382 Mist 13 1014 93 4300 1.5 160 08:57 24.09.2019
1383 Mist 13 1015 100 1400 2.6 160 08:38 24.09.2019
1384 Mist 12 1015 100 1400 2.6 160 08:20 24.09.2019
1385 Fog 12 1014 100 800 2.6 130 07:52 24.09.2019
1386 Fog 12 1014 100 350 2.1 130 07:25 24.09.2019
1387 Mist 12 1014 100 3800 2.1 160 06:57 24.09.2019
1388 Mist 12 1015 100 4000 2.1 150 06:36 24.09.2019
1389 Mist 12 1015 100 4000 2.1 150 06:36 24.09.2019
1390 Mist 12 1015 100 3600 1 0 05:51 24.09.2019
1391 Clouds 12 1015 100 7000 2.1 180 05:20 24.09.2019
1392 Fog 13 1015 87 10000 1 0 03:45 24.09.2019
1393 Clouds 13 1016 100 10000 0.5 300 02:57 24.09.2019
1394 Clear 13 1016 93 10000 2.6 200 02:38 24.09.2019
1395 Clouds 13 1016 93 10000 3.6 200 01:22 24.09.2019
1396 Clouds 13 1016 93 10000 1.52 194.815 00:37 24.09.2019
1397 Clouds 14 1016 82 10000 2.6 200 00:18 24.09.2019
1398 Clear 14 1016 93 10000 0.5 0 23:40 23.09.2019
1399 Clear 14 1016 93 10000 0.5 0 23:40 23.09.2019
1400 Clear 14 1016 93 10000 0.5 0 23:21 23.09.2019
1401 Clouds 14 1016 87 10000 2.6 180 22:40 23.09.2019
1402 Clouds 14 1016 87 10000 2.6 180 22:21 23.09.2019
1403 Clouds 14 1016 87 10000 1.34 201.357 21:58 23.09.2019
1404 Clouds 14 1016 93 10000 1 210 21:40 23.09.2019
1405 Clouds 15 1016 93 10000 1 210 21:20 23.09.2019
1406 Clear 15 1016 93 10000 1 230 20:56 23.09.2019
1407 Clear 15 1016 93 10000 1 230 20:37 23.09.2019
1408 Clear 15 1016 93 10000 1 230 20:18 23.09.2019
1409 Drizzle 15 1016 87 9000 1.5 280 19:39 23.09.2019
1410 Drizzle 15 1016 87 9000 1.5 280 19:39 23.09.2019
1411 Drizzle 16 1016 87 9000 1.5 280 19:21 23.09.2019
1412 Drizzle 16 1016 87 9000 1.5 330 18:58 23.09.2019
1413 Drizzle 16 1015 87 9000 3.1 310 18:39 23.09.2019
1414 Drizzle 16 1015 87 9000 3.1 310 18:18 23.09.2019
1415 Rain 16 1015 77 10000 3.1 290 17:56 23.09.2019
1416 Rain 16 1015 82 10000 0.5 0 17:37 23.09.2019
1417 Rain 16 1015 82 10000 0.5 0 17:18 23.09.2019
1418 Clouds 17 1015 72 10000 2.6 350 16:40 23.09.2019
1419 Clouds 17 1015 72 10000 2.6 350 16:22 23.09.2019
1420 Clouds 17 1015 72 10000 3.6 320 15:59 23.09.2019
1421 Clouds 17 1015 77 10000 2.1 300 15:41 23.09.2019
1422 Clouds 17 1015 77 10000 2.1 300 15:20 23.09.2019
1423 Clouds 17 1015 77 10000 2.1 300 15:20 23.09.2019
1424 Clouds 17 1015 77 10000 2.6 310 14:59 23.09.2019
1425 Drizzle 17 1015 82 10000 3.6 300 14:39 23.09.2019
1426 Drizzle 16 1015 82 10000 3.6 300 14:19 23.09.2019
1427 Drizzle 17 1015 82 10000 4.6 300 13:57 23.09.2019
1428 Clouds 16 1015 77 10000 5.1 290 13:37 23.09.2019
1429 Clouds 16 1014 77 10000 5.1 310 13:18 23.09.2019
1430 Clouds 16 1015 77 10000 5.7 310 12:41 23.09.2019
1431 Clouds 16 1015 77 10000 5.7 310 12:21 23.09.2019
1432 Rain 16 1014 82 10000 5.7 300 11:55 23.09.2019
1433 Drizzle 16 1014 82 10000 5.1 290 11:37 23.09.2019
1434 Drizzle 16 1014 82 10000 5.1 290 11:18 23.09.2019
1435 Drizzle 16 1014 82 10000 5.1 290 11:18 23.09.2019
1436 Rain 15 1014 77 10000 4.6 290 10:44 23.09.2019
1437 Rain 15 1014 77 10000 5.7 300 10:20 23.09.2019
1438 Rain 15 1013 82 10000 4.1 310 09:49 23.09.2019
1439 Rain 14 1013 82 10000 4.1 310 09:29 23.09.2019
1440 Rain 14 1012 82 10000 5.1 300 08:59 23.09.2019
1441 Rain 14 1012 82 10000 5.1 290 08:39 23.09.2019
1442 Rain 13 1012 82 10000 5.1 290 08:19 23.09.2019
1443 Clouds 13 1012 82 10000 5.1 290 07:38 23.09.2019
1444 Clouds 13 1012 82 10000 5.1 290 07:20 23.09.2019
1445 Clouds 12 1012 82 10000 3.6 260 06:20 23.09.2019
1446 Clear 12 1011 81 10000 1.5 200 05:44 23.09.2019
1447 Clear 12 1010 76 10000 2.1 280 04:59 23.09.2019
1448 Clouds 13 1010 77 10000 2.6 250 04:37 23.09.2019
1449 Clear 13 1009 55 10000 0.5 0 01:26 23.09.2019
1450 Clear 14 1010 67 10000 2.1 170 00:39 23.09.2019
1451 Clear 15 1010 67 10000 2.1 170 00:19 23.09.2019
1452 Clear 14 1010 63 10000 0.5 0 23:44 22.09.2019
1453 Clear 14 1010 63 10000 0.5 0 23:44 22.09.2019
1454 Clear 14 1010 63 10000 0.5 0 23:26 22.09.2019
1455 Clear 14 1010 63 10000 0.5 0 22:56 22.09.2019
1456 Clouds 13 1009 72 10000 0.5 290 22:37 22.09.2019
1457 Clouds 14 1009 72 10000 0.5 290 22:19 22.09.2019
1458 Clear 16 1010 59 10000 1 190 21:43 22.09.2019
1459 Clear 17 1010 59 10000 1 190 21:21 22.09.2019
1460 Clear 17 1010 59 10000 1 190 20:46 22.09.2019
1461 Clear 17 1009 52 10000 1.5 180 20:28 22.09.2019
1462 Clear 18 1009 52 10000 1 0 19:59 22.09.2019
1463 Clear 19 1009 40 10000 1.5 140 19:41 22.09.2019
1464 Clear 20 1009 40 10000 1.5 140 19:21 22.09.2019
1465 Clear 21 1009 36 10000 2.1 160 18:57 22.09.2019
1466 Clear 22 1009 33 10000 2.1 150 18:38 22.09.2019
1467 Clear 23 1009 33 10000 2.1 150 18:18 22.09.2019
1468 Clear 24 1010 33 10000 2.6 140 17:48 22.09.2019
1469 Clear 24 1010 33 10000 2.1 150 17:27 22.09.2019
1470 Clear 24 1010 33 10000 2.6 150 16:58 22.09.2019
1471 Clear 24 1010 36 10000 2.6 140 16:40 22.09.2019
1472 Clear 25 1010 36 10000 2.6 140 16:21 22.09.2019
1473 Clear 24 1010 36 10000 2.6 160 15:46 22.09.2019
1474 Clear 24 1010 38 10000 3.1 140 15:27 22.09.2019
1475 Clear 24 1011 35 10000 4.1 140 14:57 22.09.2019
1476 Clear 24 1011 35 10000 4.1 140 14:57 22.09.2019
1477 Clear 24 1011 35 10000 3.6 150 14:39 22.09.2019
1478 Clear 24 1011 35 10000 3.6 150 14:21 22.09.2019
1479 Clear 24 1011 40 10000 5.1 140 13:45 22.09.2019
1480 Clear 23 1012 40 10000 4.6 150 13:26 22.09.2019
1481 Clear 22 1012 42 10000 5.1 140 12:58 22.09.2019
1482 Clear 22 1012 42 10000 4.1 140 12:40 22.09.2019
1483 Clear 21 1012 42 10000 4.1 140 12:21 22.09.2019
1484 Clear 21 1012 42 10000 4.1 140 12:21 22.09.2019
1485 Clear 20 1013 45 10000 3.6 140 11:56 22.09.2019
1486 Clear 19 1013 51 10000 3.6 120 11:38 22.09.2019
1487 Clear 18 1013 51 10000 3.6 120 11:19 22.09.2019
1488 Clear 17 1013 59 10000 2.6 120 10:42 22.09.2019
1489 Clear 16 1013 59 10000 2.6 120 10:20 22.09.2019
1490 Clear 16 1013 59 10000 2.6 120 10:20 22.09.2019
1491 Clear 15 1013 62 10000 1.5 110 09:55 22.09.2019
1492 Clear 15 1013 71 10000 1.5 90 09:36 22.09.2019
1493 Clear 11 1013 71 10000 1.5 90 09:18 22.09.2019
1494 Clear 10 1014 76 10000 1 70 08:42 22.09.2019
1495 Clear 9 1014 76 10000 1 70 08:22 22.09.2019
1496 Clear 8 1014 81 10000 1 90 07:46 22.09.2019
1497 Clear 8 1013 66 10000 2.1 90 07:26 22.09.2019
1498 Clouds 8 1014 93 10000 0.5 0 06:59 22.09.2019
1499 Clear 8 1014 76 10000 2.6 130 06:37 22.09.2019
1500 Clear 8 1014 81 10000 2.6 150 05:18 22.09.2019
1501 Clear 10 1014 58 10000 4.1 100 02:45 22.09.2019
1502 Clear 10 1014 58 10000 4.1 100 02:24 22.09.2019
1503 Clear 10 1016 81 10000 1.5 300 01:45 22.09.2019
1504 Clear 10 1016 76 10000 2.1 300 00:54 22.09.2019
1505 Clear 11 1016 48 10000 4.6 120 00:32 22.09.2019
1506 Clear 12 1017 76 10000 1 300 23:54 21.09.2019
1507 Clear 12 1017 66 10000 1.5 150 23:36 21.09.2019
1508 Clear 11 1017 66 10000 1.5 150 22:47 21.09.2019
1509 Clear 12 1017 58 10000 1.5 160 22:26 21.09.2019
1510 Clear 13 1017 76 10000 1 300 21:59 21.09.2019
1511 Clear 13 1017 76 10000 1 300 21:59 21.09.2019
1512 Clear 13 1017 76 10000 1 300 21:59 21.09.2019
1513 Clear 13 1017 48 10000 2.6 90 21:41 21.09.2019
1514 Clear 15 1017 48 10000 2.6 90 21:19 21.09.2019
1515 Clear 15 1017 48 10000 2.6 90 20:56 21.09.2019
1516 Clear 16 1017 45 10000 2.1 80 20:36 21.09.2019
1517 Clear 17 1017 45 10000 2.1 80 20:18 21.09.2019
1518 Clear 17 1017 45 10000 2.1 80 20:18 21.09.2019
1519 Clear 17 1018 37 10000 3.1 90 19:43 21.09.2019
1520 Clear 18 1018 37 10000 3.1 90 19:19 21.09.2019
1521 Clear 21 1018 33 10000 3.6 80 18:40 21.09.2019
1522 Clear 22 1018 33 10000 3.6 80 18:21 21.09.2019
1523 Clear 22 1019 31 10000 3.1 80 17:43 21.09.2019
1524 Clear 22 1019 31 10000 3.1 80 17:23 21.09.2019
1525 Clear 22 1019 33 10000 2.6 130 16:57 21.09.2019
1526 Clear 22 1020 33 10000 3.1 120 16:37 21.09.2019
1527 Clear 22 1020 33 10000 3.1 120 16:19 21.09.2019
1528 Clear 22 1020 33 10000 3.1 130 15:43 21.09.2019
1529 Clear 22 1020 35 10000 3.1 150 15:22 21.09.2019
1530 Clear 21 1021 34 10000 4.1 130 14:48 21.09.2019
1531 Clear 21 1021 34 10000 3.1 150 14:30 21.09.2019
1532 Clear 21 1022 37 10000 3.1 130 13:51 21.09.2019
1533 Clear 20 1022 36 10000 3.1 120 13:29 21.09.2019
1534 Clear 20 1022 39 10000 2.6 140 12:59 21.09.2019
1535 Clear 19 1023 44 10000 3.1 140 12:41 21.09.2019
1536 Clear 18 1023 44 10000 3.1 140 12:22 21.09.2019
1537 Clear 17 1023 51 10000 3.1 140 11:59 21.09.2019
1538 Clear 17 1023 54 10000 3.6 140 11:41 21.09.2019
1539 Clear 16 1023 54 10000 3.6 140 11:21 21.09.2019
1540 Clear 16 1023 54 10000 3.6 140 11:21 21.09.2019
1541 Clear 14 1023 66 10000 2.1 100 10:41 21.09.2019
1542 Clear 13 1023 66 10000 2.1 100 10:23 21.09.2019
1543 Clear 11 1023 71 10000 1.5 120 09:57 21.09.2019
1544 Clear 9 1023 75 10000 1.5 90 09:38 21.09.2019
1545 Clear 8 1023 75 10000 1.5 90 09:20 21.09.2019
1546 Clear 7 1024 81 10000 2.1 100 08:51 21.09.2019
1547 Clear 5 1024 75 10000 0.5 0 08:26 21.09.2019
1548 Clear 4 1022 61 10000 2.1 120 07:41 21.09.2019
1549 Clear 4 1022 61 10000 2.1 120 07:21 21.09.2019
1550 Clear 4 1022 70 10000 3.1 130 06:47 21.09.2019
1551 Clear 4 1024 86 10000 1.5 90 06:26 21.09.2019
1552 Clear 5 1024 86 10000 0.5 0 04:49 21.09.2019
1553 Clear 5 1024 86 10000 0.5 0 04:49 21.09.2019
1554 Clear 5 1025 86 10000 1 300 04:31 21.09.2019
1555 Clear 6 1025 75 10000 1.5 320 02:30 21.09.2019
1556 Clear 6 1025 75 10000 1.5 300 01:53 21.09.2019
1557 Clear 6 1025 75 10000 1.5 300 01:34 21.09.2019
1558 Clear 8 1025 66 10000 2.6 120 00:39 21.09.2019
1559 Clear 8 1025 66 10000 2.6 120 00:18 21.09.2019
1560 Clear 8 1026 75 10000 0.5 0 23:42 20.09.2019
1561 Clear 8 1026 75 10000 0.5 0 23:42 20.09.2019
1562 Clear 8 1026 75 10000 0.5 0 23:22 20.09.2019
1563 Clear 9 1026 81 10000 0.5 270 22:41 20.09.2019
1564 Clear 9 1026 81 10000 0.5 270 22:41 20.09.2019
1565 Clear 9 1026 81 10000 0.5 270 22:23 20.09.2019
1566 Clear 10 1026 66 10000 1 0 21:56 20.09.2019
1567 Clear 10 1026 50 10000 2.6 130 21:37 20.09.2019
1568 Clear 11 1026 50 10000 2.6 130 21:18 20.09.2019
1569 Clouds 11 1026 61 10000 1 280 20:55 20.09.2019
1570 -273 0 0 0 0 0 20:55 20.09.2019
1571 Clear 12 1027 58 10000 1 360 20:36 20.09.2019
1572 Clear 12 1027 58 10000 1 360 20:36 20.09.2019
1573 Clear 12 1027 58 10000 1 360 20:18 20.09.2019
1574 -273 0 0 0 0 0 19:41 20.09.2019
1575 Clear 15 1026 44 10000 1 0 19:21 20.09.2019
1576 Clear 15 1027 42 10000 1 0 18:56 20.09.2019
1577 Clear 16 1027 42 10000 1 0 18:36 20.09.2019
1578 Clear 17 1027 42 10000 1 0 18:18 20.09.2019
1579 Clear 18 1027 39 10000 1.5 140 17:43 20.09.2019
1580 Clear 18 1027 39 10000 1.5 140 17:25 20.09.2019
1581 Clear 17 1028 42 10000 1.5 0 16:43 20.09.2019
1582 Clear 18 1028 42 10000 1.5 0 16:21 20.09.2019
1583 Clear 17 1028 41 10000 1 0 15:58 20.09.2019
1584 Clear 17 1028 25 10000 1 0 15:40 20.09.2019
1585 Clear 17 1028 25 10000 1 0 15:21 20.09.2019
1586 Clouds 17 1029 29 10000 1 0 14:42 20.09.2019
1587 Clear 16 1029 50 10000 1 0 14:19 20.09.2019
1588 Clear 16 1029 50 10000 1 0 14:19 20.09.2019
1589 Clear 15 1029 50 10000 1 0 13:48 20.09.2019
1590 Clear 15 1029 50 10000 1 0 13:48 20.09.2019
1591 Clear 15 1030 58 10000 1 0 13:28 20.09.2019
1592 Clear 14 1030 58 10000 1 0 12:58 20.09.2019
1593 Clouds 14 1030 54 10000 1.5 0 12:37 20.09.2019
1594 Clear 13 1030 62 10000 1 0 12:18 20.09.2019
1595 Clear 12 1030 71 10000 1.5 80 11:49 20.09.2019
1596 Clear 11 1030 76 10000 1 0 11:21 20.09.2019
1597 Clear 11 1030 87 10000 0.5 0 10:44 20.09.2019
1598 Clear 10 1030 87 10000 0.5 0 10:24 20.09.2019
1599 Clear 9 1030 87 10000 0.5 0 09:59 20.09.2019
1600 Fog 7 1030 93 10000 0.5 0 09:38 20.09.2019
1601 Fog 6 1030 93 10000 0.5 0 09:18 20.09.2019
1602 Fog 4 1030 100 10000 0.5 200 08:43 20.09.2019
1603 Fog 3 1030 100 10000 0.5 200 08:25 20.09.2019
1604 Fog 3 1029 93 10000 0.5 0 07:47 20.09.2019
1605 Fog 3 1029 93 10000 1 0 07:28 20.09.2019
1606 Clear 3 1029 93 10000 1 170 06:45 20.09.2019
1607 Clear 3 1029 93 10000 1 170 06:27 20.09.2019
1608 Clear 3 1030 100 10000 1 230 05:50 20.09.2019
1609 Clear 4 1030 86 10000 1 0 03:46 20.09.2019
1610 Clear 4 1030 86 10000 1 0 03:21 20.09.2019
1611 Clear 5 1030 81 10000 1 0 01:45 20.09.2019
1612 Clear 5 1030 81 10000 1 0 01:18 20.09.2019
1613 Clear 6 1030 81 10000 1.5 180 00:31 20.09.2019
1614 Clear 6 1030 81 10000 2.1 160 23:45 19.09.2019
1615 Clear 6 1030 81 10000 2.1 160 23:22 19.09.2019
1616 Clouds 6 1030 75 10000 2.1 310 22:57 19.09.2019
1617 Clear 7 1030 70 10000 1.5 230 22:38 19.09.2019
1618 Clear 7 1030 70 10000 1.5 230 22:19 19.09.2019
1619 Clear 7 1030 70 10000 1.5 230 21:56 19.09.2019
1620 Clear 8 1030 70 10000 1.5 230 21:37 19.09.2019
1621 Clear 8 1030 70 10000 1.5 230 21:18 19.09.2019
1622 Clear 10 1029 53 10000 1.5 320 20:43 19.09.2019
1623 Clear 10 1029 53 10000 1.5 320 20:23 19.09.2019
1624 Clear 11 1029 54 10000 1 300 19:56 19.09.2019
1625 Clouds 12 1029 47 10000 2.6 340 19:38 19.09.2019
1626 Clear 12 1029 47 10000 2.1 350 19:19 19.09.2019
1627 Clear 12 1029 47 10000 2.1 350 19:19 19.09.2019
1628 Clear 12 1029 47 10000 2.1 350 19:19 19.09.2019
1629 Clear 12 1029 47 10000 2.1 350 19:19 19.09.2019
1630 Clear 13 1029 44 10000 2.6 10 18:55 19.09.2019
1631 Clear 14 1029 44 10000 2.6 10 18:36 19.09.2019
1632 Clear 14 1029 50 10000 4.1 20 18:18 19.09.2019
1633 Clear 15 1029 44 10000 3.1 0 17:42 19.09.2019
1634 Clear 15 1029 44 10000 3.1 0 17:23 19.09.2019
1635 Clear 15 1029 47 10000 3.6 320 16:57 19.09.2019
1636 Clear 15 1029 47 10000 2.6 330 16:38 19.09.2019
1637 Clear 15 1029 47 10000 2.6 330 16:18 19.09.2019
1638 Clouds 15 1030 47 10000 3.6 290 15:39 19.09.2019
1639 Clouds 15 1030 47 10000 3.6 290 15:18 19.09.2019
1640 Clouds 14 1030 47 10000 2.6 10 14:42 19.09.2019
1641 Clouds 15 1030 47 10000 2.6 10 14:23 19.09.2019
1642 Clouds 14 1030 47 10000 3.1 360 13:59 19.09.2019
1643 Clouds 14 1030 50 10000 3.6 360 13:39 19.09.2019
1644 Clouds 14 1030 50 10000 3.6 360 13:19 19.09.2019
1645 Clouds 14 1030 50 10000 3.6 360 13:19 19.09.2019
1646 Clouds 13 1030 58 10000 4.1 340 12:40 19.09.2019
1647 Clouds 13 1030 58 10000 4.1 340 12:19 19.09.2019
1648 Clear 12 1030 62 10000 4.6 330 11:57 19.09.2019
1649 Clear 12 1030 66 10000 2.1 340 11:38 19.09.2019
1650 Clear 12 1030 66 10000 2.1 340 11:19 19.09.2019
1651 Clear 10 1030 81 10000 1 0 10:41 19.09.2019
1652 Clear 10 1030 81 10000 1 0 10:22 19.09.2019
1653 Clear 9 1029 87 10000 1.5 270 09:59 19.09.2019
1654 Fog 8 1029 87 10000 1 0 09:41 19.09.2019
1655 Fog 7 1029 87 10000 1 0 09:21 19.09.2019
1656 Fog 5 1029 86 10000 0.5 0 08:55 19.09.2019
1657 Fog 5 1028 100 10000 1 180 08:28 19.09.2019
1658 Fog 4 1028 100 10000 1.5 260 07:56 19.09.2019
1659 Clear 4 1028 100 10000 1.5 300 07:38 19.09.2019
1660 Clear 4 1028 100 10000 1.5 300 07:19 19.09.2019
1661 Clouds 4 1028 100 10000 0.5 0 06:43 19.09.2019
1662 Clouds 4 1028 100 10000 0.5 0 06:43 19.09.2019
1663 Clouds 4 1028 100 10000 0.5 0 06:25 19.09.2019
1664 Clouds 4 1028 100 10000 1 240 05:50 19.09.2019
1665 Clouds 5 1027 87 10000 3.6 300 04:27 19.09.2019
1666 Clear 5 1028 87 10000 1.5 280 03:21 19.09.2019
1667 Clouds 6 1027 81 10000 2.6 300 01:50 19.09.2019
1668 Clear 6 1028 81 10000 1.5 260 01:20 19.09.2019
1669 Clear 7 1028 81 10000 1.5 240 00:47 19.09.2019
1670 Clear 7 1027 81 10000 1.5 270 00:24 19.09.2019
1671 Clear 8 1027 81 10000 1 0 23:39 18.09.2019
1672 Clear 8 1027 81 10000 1 0 23:20 18.09.2019
1673 Clear 8 1027 81 10000 1 0 23:20 18.09.2019
1674 Clouds 9 1026 71 10000 2.6 320 22:43 18.09.2019
1675 Clouds 9 1026 71 10000 2.6 320 22:20 18.09.2019
1676 Clouds 9 1026 71 10000 2.6 320 22:20 18.09.2019
1677 Clouds 9 1026 71 10000 3.1 310 21:58 18.09.2019
1678 Clouds 9 1026 71 10000 3.1 310 21:58 18.09.2019
1679 Clouds 9 1026 71 10000 3.6 310 21:40 18.09.2019
1680 Clouds 9 1026 71 10000 3.6 310 21:40 18.09.2019
1681 Clouds 11 1026 71 10000 3.6 310 21:19 18.09.2019
1682 Clouds 11 1025 71 10000 3.1 290 20:58 18.09.2019
1683 Clouds 11 1025 71 10000 2.6 310 20:40 18.09.2019
1684 Clouds 12 1025 71 10000 2.6 310 20:22 18.09.2019
1685 Clouds 12 1025 62 10000 3.6 320 19:57 18.09.2019
1686 Clouds 13 1025 62 10000 5.1 320 19:38 18.09.2019
1687 Clouds 12 1025 62 10000 5.1 320 19:19 18.09.2019
1688 Clouds 13 1025 54 10000 5.1 310 18:55 18.09.2019
1689 Clear 14 1025 50 10000 5.1 320 18:37 18.09.2019
1690 Clear 15 1025 50 10000 5.1 320 18:18 18.09.2019
1691 Clouds 15 1025 47 10000 6.2 300 17:57 18.09.2019
1692 Clouds 15 1025 47 10000 6.2 300 17:57 18.09.2019
1693 Clouds 15 1025 50 10000 6.7 310 17:38 18.09.2019
1694 Clouds 15 1025 50 10000 6.7 310 17:18 18.09.2019
1695 -273 0 0 0 0 0 16:55 18.09.2019
1696 Clouds 15 1025 47 10000 7.7 300 16:36 18.09.2019
1697 Clouds 15 1025 47 10000 7.7 300 16:18 18.09.2019
1698 Clouds 15 1025 47 10000 6.7 300 15:54 18.09.2019
1699 Clouds 15 1025 47 10000 5.7 300 15:36 18.09.2019
1700 Clouds 15 1025 47 10000 5.7 300 15:18 18.09.2019
1701 Clouds 15 1025 50 10000 6.2 320 14:55 18.09.2019
1702 Clouds 15 1025 47 10000 6.7 310 14:36 18.09.2019
1703 Clouds 15 1025 47 10000 6.7 310 14:18 18.09.2019
1704 Clouds 15 1026 50 10000 6.2 320 13:40 18.09.2019
1705 Clouds 15 1026 50 10000 6.2 320 13:19 18.09.2019
1706 Clouds 15 1026 58 10000 4.6 300 12:53 18.09.2019
1707 Clouds 14 1026 71 10000 2.6 350 12:31 18.09.2019
1708 Clouds 14 1026 66 10000 3.6 320 11:57 18.09.2019
1709 Clouds 13 1026 71 10000 4.1 320 11:38 18.09.2019
1710 Clouds 13 1026 71 10000 4.1 320 11:19 18.09.2019
1711 Clouds 12 1026 81 10000 2.1 280 10:40 18.09.2019
1712 Clouds 11 1026 81 10000 2.1 280 10:21 18.09.2019
1713 Clouds 10 1025 81 10000 2.1 280 09:58 18.09.2019
1714 Clouds 10 1025 87 10000 2.6 290 09:38 18.09.2019
1715 Clouds 9 1025 87 10000 2.6 290 09:20 18.09.2019
1716 Clouds 8 1025 93 10000 1 0 08:44 18.09.2019
1717 Clouds 7 1024 93 10000 1 0 08:25 18.09.2019
1718 Clouds 7 1024 87 10000 1.5 260 07:58 18.09.2019
1719 Clouds 6 1025 87 10000 1.5 280 07:40 18.09.2019
1720 Clouds 6 1025 87 10000 1.5 280 07:22 18.09.2019
1721 Clouds 6 1024 87 10000 1.5 240 06:40 18.09.2019
1722 Clouds 6 1024 87 10000 0.5 0 05:50 18.09.2019
1723 Clouds 6 1024 86 10000 1.5 150 04:57 18.09.2019
1724 Clouds 7 1024 87 10000 2.6 250 03:19 18.09.2019
1725 Clear 8 1024 81 10000 2.1 250 02:29 18.09.2019
1726 Clouds 8 1023 76 10000 2.6 250 01:21 18.09.2019
1727 Clouds 8 1023 66 10000 3.1 320 00:49 18.09.2019
1728 Clear 9 1023 76 10000 2.1 260 00:21 18.09.2019
1729 Clear 9 1022 81 10000 4.1 300 23:45 17.09.2019
1730 Clear 10 1022 81 10000 4.1 300 23:22 17.09.2019
1731 Clouds 9 1021 76 10000 4.1 320 22:43 17.09.2019
1732 Clouds 9 1021 76 10000 4.1 320 22:24 17.09.2019
1733 Clouds 9 1021 76 10000 4.1 320 22:24 17.09.2019
1734 Clouds 10 1021 71 10000 4.6 310 21:55 17.09.2019
1735 Clouds 11 1021 66 10000 6.2 330 21:37 17.09.2019
1736 Clouds 11 1021 66 10000 6.2 330 21:37 17.09.2019
1737 Clouds 11 1021 66 10000 6.2 330 21:19 17.09.2019
1738 Clouds 12 1020 71 10000 5.1 320 20:58 17.09.2019
1739 Clouds 12 1020 71 10000 5.1 320 20:58 17.09.2019
1740 Clouds 12 1020 71 10000 6.2 310 20:40 17.09.2019
1741 Clouds 12 1020 71 10000 6.2 310 20:21 17.09.2019
1742 Clouds 13 1019 71 10000 5.7 310 19:58 17.09.2019
1743 Clouds 13 1019 66 10000 7.2 320 19:39 17.09.2019
1744 Clouds 13 1019 66 10000 8.2 320 19:19 17.09.2019
1745 Clouds 13 1019 66 10000 8.2 320 18:56 17.09.2019
1746 Clouds 14 1018 67 10000 7.7 310 18:38 17.09.2019
1747 Clouds 14 1018 67 10000 7.7 310 18:20 17.09.2019
1748 Clouds 14 1018 67 10000 7.7 310 18:20 17.09.2019
1749 Clouds 15 1018 87 10000 6.2 310 17:45 17.09.2019
1750 Clouds 15 1018 87 10000 6.2 310 17:20 17.09.2019
1751 Rain 15 1018 81 10000 8.2 320 16:57 17.09.2019
1752 Rain 15 1018 62 10000 9.3 300 16:37 17.09.2019
1753 Rain 15 1018 62 10000 9.3 300 16:19 17.09.2019
1754 Clouds 15 1018 55 10000 8.7 290 15:39 17.09.2019
1755 Clouds 15 1018 55 10000 8.7 290 15:20 17.09.2019
1756 Rain 15 1018 55 10000 7.2 280 14:56 17.09.2019
1757 Clouds 15 1018 58 10000 7.7 290 14:38 17.09.2019
1758 Clouds 16 1018 58 10000 7.7 290 14:19 17.09.2019
1759 Clouds 16 1019 62 10000 8.7 290 13:54 17.09.2019
1760 Clouds 15 1019 58 10000 8.2 300 13:36 17.09.2019
1761 Clouds 15 1019 58 10000 8.2 300 13:18 17.09.2019
1762 Clouds 15 1019 67 10000 6.7 280 12:41 17.09.2019
1763 Clouds 15 1019 67 10000 6.7 280 12:19 17.09.2019
1764 Clouds 14 1019 71 10000 7.7 290 11:44 17.09.2019
1765 Clouds 14 1019 71 10000 7.7 290 11:25 17.09.2019
1766 Clouds 13 1019 81 10000 5.7 280 10:57 17.09.2019
1767 Clouds 13 1019 87 10000 4.6 280 10:39 17.09.2019
1768 Clouds 12 1019 87 10000 4.6 280 10:20 17.09.2019
1769 Clouds 12 1019 87 9000 4.1 280 09:43 17.09.2019
1770 Clouds 11 1019 87 10000 1.5 290 09:24 17.09.2019
1771 Clouds 11 1019 87 10000 1.5 260 08:57 17.09.2019
1772 Clouds 10 1019 87 10000 1.5 250 08:39 17.09.2019
1773 Clouds 10 1019 87 10000 1.5 250 08:20 17.09.2019
1774 Clouds 9 1019 93 10000 2.6 250 07:42 17.09.2019
1775 Clouds 9 1019 93 10000 2.6 250 07:24 17.09.2019
1776 Clouds 9 1019 100 10000 2.32 276.745 06:52 17.09.2019
1777 Fog 10 1019 93 8000 2.1 260 06:29 17.09.2019
1778 Fog 10 1019 100 10000 1 260 05:51 17.09.2019
1779 Mist 10 1019 100 4000 2.6 260 04:32 17.09.2019
1780 Fog 10 1020 100 4500 2.1 280 03:34 17.09.2019
1781 Mist 11 1020 93 10000 1 300 02:39 17.09.2019
1782 Mist 11 1020 93 10000 1 0 01:49 17.09.2019
1783 Mist 11 1020 93 4500 2.1 250 00:45 17.09.2019
1784 Mist 12 1019 87 10000 1 350 23:41 16.09.2019
1785 Mist 12 1019 87 10000 1 350 23:19 16.09.2019
1786 Mist 12 1019 87 10000 1 350 23:19 16.09.2019
1787 Clouds 12 1019 100 10000 2.1 320 22:57 16.09.2019
1788 Clouds 12 1019 93 8000 3.1 310 22:39 16.09.2019
1789 Clouds 12 1019 93 8000 3.1 310 22:21 16.09.2019
1790 Clouds 13 1019 93 8000 3.1 330 21:56 16.09.2019
1791 Clouds 13 1020 93 8000 2.6 340 21:37 16.09.2019
1792 Clouds 13 1020 93 8000 2.6 340 21:18 16.09.2019
1793 Drizzle 13 1019 100 8000 3.6 340 20:41 16.09.2019
1794 Drizzle 13 1019 100 8000 3.6 340 20:22 16.09.2019
1795 Mist 13 1019 100 4800 3.6 340 19:57 16.09.2019
1796 Drizzle 13 1019 93 7000 3.6 340 19:39 16.09.2019
1797 Drizzle 13 1019 93 7000 3.6 340 19:20 16.09.2019
1798 Mist 13 1019 100 5000 2.1 340 18:48 16.09.2019
1799 Mist 13 1019 100 5000 2.1 340 18:30 16.09.2019
1800 Mist 14 1019 93 4500 2.6 360 17:59 16.09.2019
1801 Rain 14 1018 100 2500 1.5 10 17:41 16.09.2019
1802 Rain 14 1018 100 2500 1.5 10 17:22 16.09.2019
1803 Rain 14 1019 100 3600 2.6 10 16:55 16.09.2019
1804 Rain 14 1019 100 2600 1.5 10 16:37 16.09.2019
1805 Rain 14 1019 100 2600 1.5 10 16:18 16.09.2019
1806 Rain 14 1018 77 4500 2.6 20 15:55 16.09.2019
1807 Mist 14 1019 100 3500 3.1 310 15:37 16.09.2019
1808 Mist 14 1019 100 3500 3.1 310 15:37 16.09.2019
1809 Mist 14 1019 100 3500 3.1 310 15:18 16.09.2019
1810 Mist 14 1019 100 3500 3.1 310 15:18 16.09.2019
1811 Mist 14 1019 100 3500 0.5 0 14:42 16.09.2019
1812 Mist 14 1019 100 3500 0.5 0 14:22 16.09.2019
1813 Mist 15 1019 100 3500 1 0 13:57 16.09.2019
1814 Rain 14 1019 100 4000 0.5 0 13:38 16.09.2019
1815 Rain 14 1019 100 4000 0.5 0 13:19 16.09.2019
1816 Rain 14 1020 100 1500 2.6 20 12:42 16.09.2019
1817 Rain 14 1020 100 1500 2.6 20 12:24 16.09.2019
1818 Rain 14 1020 93 9000 1 0 11:54 16.09.2019
1819 Mist 14 1020 87 9000 1.5 130 11:36 16.09.2019
1820 Mist 14 1020 87 9000 1.5 130 11:18 16.09.2019
1821 Clouds 14 1020 93 9000 1 0 10:38 16.09.2019
1822 Clouds 13 1020 93 9000 1 0 10:19 16.09.2019
1823 Rain 13 1020 93 9000 1.5 210 09:57 16.09.2019
1824 Clouds 13 1020 93 10000 1.5 200 09:38 16.09.2019
1825 Clouds 13 1020 93 10000 1.5 200 09:18 16.09.2019
1826 Clouds 12 1020 93 9000 1.5 190 08:42 16.09.2019
1827 Clouds 12 1020 93 9000 1.5 190 08:24 16.09.2019
1828 Clouds 12 1020 93 9000 1 0 07:48 16.09.2019
1829 Clouds 12 1020 87 10000 1 0 07:25 16.09.2019
1830 Clouds 12 1020 76 10000 1 260 06:59 16.09.2019
1831 Clouds 12 1021 81 10000 0.5 260 06:40 16.09.2019
1832 Clouds 12 1021 81 10000 0.5 260 06:22 16.09.2019
1833 Clouds 13 1021 93 9000 0.5 0 05:43 16.09.2019
1834 Clouds 13 1021 93 9000 0.5 0 05:23 16.09.2019
1835 Clouds 13 1021 71 10000 0.5 110 03:51 16.09.2019
1836 Clouds 14 1021 66 10000 0.5 360 01:57 16.09.2019
1837 Clouds 14 1022 82 10000 2.1 280 00:39 16.09.2019
1838 Clouds 15 1022 82 10000 2.1 280 00:21 16.09.2019
1839 Clear 15 1021 51 10000 2.6 270 23:39 15.09.2019
1840 Clear 15 1021 51 10000 2.6 270 23:20 15.09.2019
1841 Clear 16 1021 51 10000 2.6 260 22:40 15.09.2019
1842 Clear 16 1021 51 10000 2.6 260 22:21 15.09.2019
1843 Clear 15 1021 54 10000 2.6 220 21:58 15.09.2019
1844 Clear 15 1021 54 10000 2.6 220 21:58 15.09.2019
1845 Clear 16 1021 48 10000 1.5 230 21:39 15.09.2019
1846 Clear 17 1021 48 10000 1.5 230 21:21 15.09.2019
1847 Clear 18 1021 39 10000 2.6 280 20:57 15.09.2019
1848 Clear 18 1021 39 10000 2.6 280 20:57 15.09.2019
1849 Clear 18 1021 36 10000 3.1 300 20:39 15.09.2019
1850 Clear 18 1021 36 10000 3.1 300 20:21 15.09.2019
1851 Clear 20 1020 28 10000 4.1 320 19:44 15.09.2019
1852 Clear 19 1020 28 10000 4.1 320 19:23 15.09.2019
1853 Clear 23 1020 62 10000 5.7 310 18:43 15.09.2019
1854 Clear 23 1020 38 10000 5.7 310 18:24 15.09.2019
1855 Clear 24 1020 22 10000 5.7 290 17:58 15.09.2019
1856 Clear 24 1021 23 10000 5.1 290 17:39 15.09.2019
1857 Clear 24 1021 23 10000 5.1 290 17:20 15.09.2019
1858 Clear 24 1021 23 10000 6.2 280 16:44 15.09.2019
1859 Clear 24 1021 25 10000 5.7 280 16:44 15.09.2019
1860 Clear 24 1021 25 10000 5.7 280 16:25 15.09.2019
1861 Clear 24 1022 28 10000 4.6 310 15:58 15.09.2019
1862 Clear 24 1022 30 10000 3.6 300 15:40 15.09.2019
1863 Clear 24 1022 30 10000 3.6 300 15:20 15.09.2019
1864 Clear 24 1022 30 10000 4.6 310 14:58 15.09.2019
1865 Clear 23 1023 37 10000 4.6 320 14:39 15.09.2019
1866 Clear 23 1023 37 10000 4.6 320 14:20 15.09.2019
1867 Clear 23 1023 37 10000 5.1 310 13:46 15.09.2019
1868 Clear 22 1023 40 10000 4.6 280 13:24 15.09.2019
1869 Clear 22 1023 46 10000 3.6 290 12:56 15.09.2019
1870 Clear 21 1023 49 10000 3.1 280 12:38 15.09.2019
1871 Clear 21 1023 49 10000 3.1 280 12:18 15.09.2019
1872 Clear 19 1023 59 10000 1.5 0 11:42 15.09.2019
1873 Clear 19 1023 59 10000 1.5 0 11:22 15.09.2019
1874 Clear 18 1024 63 10000 2.1 120 10:56 15.09.2019
1875 Clear 18 1024 71 10000 1.5 110 10:38 15.09.2019
1876 Clear 16 1024 71 10000 1.5 110 10:20 15.09.2019
1877 Clear 13 1024 81 10000 2.1 170 09:40 15.09.2019
1878 Clear 11 1024 81 10000 2.1 170 09:20 15.09.2019
1879 Clear 10 1024 93 10000 1 0 08:47 15.09.2019
1880 Fog 8 1024 100 10000 2.1 150 08:28 15.09.2019
1881 Fog 9 1024 100 10000 1.5 110 07:51 15.09.2019
1882 Fog 8 1024 76 10000 3.1 190 07:32 15.09.2019
1883 Clear 8 1025 93 10000 2.1 150 06:43 15.09.2019
1884 Clear 8 1026 87 10000 1 300 03:54 15.09.2019
1885 Clouds 8 1027 81 10000 1.5 290 02:46 15.09.2019
1886 Clouds 9 1027 81 10000 1.5 290 01:49 15.09.2019
1887 Clear 10 1026 62 10000 4.6 170 01:28 15.09.2019
1888 Clouds 9 1028 76 10000 1.5 300 00:50 15.09.2019
1889 Clouds 9 1028 76 10000 1.5 300 00:50 15.09.2019
1890 Clear 10 1028 81 10000 4.1 160 00:24 15.09.2019
1891 Clouds 10 1028 71 10000 3.1 300 23:59 14.09.2019
1892 Clear 10 1029 71 10000 1 230 23:41 14.09.2019
1893 Clear 10 1029 71 10000 1 230 23:22 14.09.2019
1894 Clear 11 1029 71 10000 1 230 22:59 14.09.2019
1895 Clear 11 1029 71 10000 1 230 22:59 14.09.2019
1896 Clear 11 1029 71 10000 1 230 22:59 14.09.2019
1897 Clear 11 1029 76 10000 0.5 0 22:41 14.09.2019
1898 Clear 11 1029 76 10000 0.5 0 22:41 14.09.2019
1899 Clear 12 1029 76 10000 0.5 0 22:21 14.09.2019
1900 Clear 12 1029 76 10000 1 190 21:57 14.09.2019
1901 Clear 13 1030 76 10000 0.82 108.746 21:39 14.09.2019
1902 Clear 13 1030 76 10000 1.45 79.07 21:19 14.09.2019
1903 Clear 14 1030 58 10000 1 0 20:55 14.09.2019
1904 Clear 14 1030 51 10000 1 10 20:37 14.09.2019
1905 Clear 15 1030 51 10000 1 10 20:19 14.09.2019
1906 Clear 15 1030 55 10000 1.5 10 19:44 14.09.2019
1907 Clear 17 1030 45 10000 1.5 20 19:21 14.09.2019
1908 Clear 18 1030 45 10000 1.5 30 18:55 14.09.2019
1909 Clear 19 1030 39 10000 1 0 18:37 14.09.2019
1910 Clear 20 1030 39 10000 1 0 18:18 14.09.2019
1911 Clear 20 1031 39 10000 2.1 30 17:42 14.09.2019
1912 Clear 20 1031 39 10000 2.1 30 17:22 14.09.2019
1913 Clear 20 1031 42 10000 2.1 0 16:47 14.09.2019
1914 Clear 19 1031 45 10000 2.1 0 16:26 14.09.2019
1915 Clear 20 1032 42 10000 1.5 0 15:58 14.09.2019
1916 Clear 20 1032 42 10000 2.1 0 15:40 14.09.2019
1917 Clear 20 1032 42 10000 2.1 0 15:20 14.09.2019
1918 Clear 20 1032 45 10000 2.1 0 14:43 14.09.2019
1919 Clear 20 1032 45 10000 2.1 0 14:43 14.09.2019
1920 Clouds 19 1033 48 10000 1 0 14:19 14.09.2019
1921 Clouds 19 1033 48 10000 2.1 110 13:48 14.09.2019
1922 Clouds 19 1033 48 10000 2.1 110 13:48 14.09.2019
1923 Clouds 19 1034 48 10000 2.6 50 13:24 14.09.2019
1924 Clear 18 1034 51 10000 2.1 0 12:59 14.09.2019
1925 Clear 18 1034 59 10000 2.1 20 12:38 14.09.2019
1926 Clear 17 1034 59 10000 2.1 20 12:18 14.09.2019
1927 Clear 16 1035 71 10000 1.5 0 11:40 14.09.2019
1928 Clear 16 1035 71 10000 1.5 0 11:19 14.09.2019
1929 Fog 14 1035 87 10000 1.5 320 10:39 14.09.2019
1930 Clear 14 1034 76 10000 2.1 110 10:20 14.09.2019
1931 Fog 12 1035 93 10000 2.1 340 09:57 14.09.2019
1932 Fog 12 1035 81 10000 1.5 120 09:39 14.09.2019
1933 Fog 11 1034 93 10000 1 360 09:19 14.09.2019
1934 Fog 9 1034 93 10000 0.5 0 08:47 14.09.2019
1935 Fog 8 1034 100 10000 1.5 220 08:24 14.09.2019
1936 Fog 7 1035 93 10000 0.5 0 07:48 14.09.2019
1937 Fog 7 1034 93 10000 2.6 140 07:28 14.09.2019
1938 Fog 7 1034 93 10000 1.5 310 06:52 14.09.2019
1939 Clear 7 1034 100 10000 1.5 140 06:28 14.09.2019
1940 Clear 7 1034 100 10000 1.5 140 06:28 14.09.2019
1941 Clear 8 1034 93 10000 0.5 0 05:26 14.09.2019
1942 Clouds 9 1034 87 10000 3.1 310 03:46 14.09.2019
1943 Clouds 9 1034 81 10000 2.6 310 02:54 14.09.2019
1944 Clouds 10 1034 81 10000 2.1 310 01:54 14.09.2019
1945 Clouds 10 1035 93 10000 1 0 01:23 14.09.2019
1946 Clouds 10 1034 87 10000 2.6 290 00:59 14.09.2019
1947 Clouds 11 1035 81 10000 1 0 00:39 14.09.2019
1948 Clouds 12 1035 81 10000 1 0 00:20 14.09.2019
1949 Clouds 13 1034 82 10000 1.5 340 23:38 13.09.2019
1950 Clouds 12 1034 82 10000 1.5 340 23:19 13.09.2019
1951 Clouds 13 1034 82 10000 2.6 10 22:59 13.09.2019
1952 Clouds 14 1034 82 10000 3.6 10 22:38 13.09.2019
1953 Clouds 14 1034 82 10000 3.6 10 22:20 13.09.2019
1954 Clouds 15 1033 82 10000 3.1 290 21:42 13.09.2019
1955 Clouds 16 1033 82 10000 3.1 290 21:20 13.09.2019
1956 Clouds 16 1033 82 10000 3.1 290 20:59 13.09.2019
1957 Clouds 16 1033 82 10000 3.1 300 20:40 13.09.2019
1958 Clouds 16 1033 82 10000 3.1 300 20:21 13.09.2019
1959 Clouds 16 1032 77 10000 3.6 310 19:56 13.09.2019
1960 Clouds 17 1032 72 10000 4.1 320 19:38 13.09.2019
1961 Clouds 18 1032 72 10000 4.1 320 19:19 13.09.2019
1962 Clouds 18 1032 77 10000 4.1 310 18:56 13.09.2019
1963 Clouds 19 1032 82 10000 4.1 300 18:37 13.09.2019
1964 Clouds 19 1032 82 10000 4.1 300 18:18 13.09.2019
1965 Clouds 19 1032 82 10000 4.1 300 17:39 13.09.2019
1966 Clouds 19 1032 82 10000 4.1 300 17:19 13.09.2019
1967 Clouds 19 1032 93 10000 2.6 280 16:42 13.09.2019
1968 Clouds 19 1032 93 10000 2.6 280 16:21 13.09.2019
1969 Drizzle 19 1032 87 10000 2.1 310 15:57 13.09.2019
1970 Drizzle 19 1032 88 8000 4.6 330 15:39 13.09.2019
1971 Drizzle 20 1032 88 8000 4.6 330 15:20 13.09.2019
1972 Drizzle 20 1032 88 8000 4.6 330 15:20 13.09.2019
1973 Clouds 19 1031 77 9000 8.2 330 14:43 13.09.2019
1974 Clouds 19 1031 77 9000 8.2 330 14:22 13.09.2019
1975 Rain 20 1031 64 10000 5.7 290 13:54 13.09.2019
1976 Rain 19 1031 72 10000 4.6 280 13:36 13.09.2019
1977 Rain 19 1031 72 10000 4.6 280 13:18 13.09.2019
1978 Rain 19 1031 72 10000 4.6 280 13:18 13.09.2019
1979 Drizzle 19 1031 64 10000 3.6 310 12:41 13.09.2019
1980 Drizzle 19 1031 64 10000 3.6 310 12:22 13.09.2019
1981 Clouds 18 1031 82 10000 4.6 300 11:55 13.09.2019
1982 Clouds 18 1031 82 10000 4.6 300 11:55 13.09.2019
1983 Drizzle 18 1030 82 10000 4.1 270 11:19 13.09.2019
1984 Clouds 18 1030 88 10000 3.1 280 10:39 13.09.2019
1985 Clouds 17 1030 88 10000 3.1 280 10:19 13.09.2019
1986 Drizzle 17 1030 93 7000 2.1 270 09:46 13.09.2019
1987 Drizzle 17 1030 93 7000 2.1 270 09:25 13.09.2019
1988 Clouds 17 1029 82 10000 2.6 280 08:59 13.09.2019
1989 Clouds 16 1029 82 10000 3.6 260 08:40 13.09.2019
1990 Clouds 16 1029 82 10000 3.6 260 08:20 13.09.2019
1991 Clouds 16 1029 82 10000 3.1 240 07:52 13.09.2019
1992 Clouds 16 1029 77 10000 5.1 250 07:34 13.09.2019
1993 Clouds 16 1028 77 10000 4.1 250 06:48 13.09.2019
1994 Clouds 16 1028 77 10000 2.6 230 05:49 13.09.2019
1995 Clouds 16 1028 77 10000 2.6 240 04:59 13.09.2019
1996 Clouds 15 1028 72 10000 4.6 230 03:40 13.09.2019
1997 Clouds 15 1028 72 10000 4.1 220 02:20 13.09.2019
1998 Clouds 15 1029 93 10000 0.5 320 01:59 13.09.2019
1999 Clouds 15 1028 77 10000 3.6 220 01:33 13.09.2019
2000 Clear 15 1029 93 10000 0.5 290 00:47 13.09.2019
2001 Clear 16 1029 93 10000 0.5 290 00:21 13.09.2019
2002 Clouds 15 1029 72 10000 4.1 230 23:38 12.09.2019
2003 Clouds 16 1029 72 10000 4.1 230 23:19 12.09.2019
2004 Clouds 16 1029 68 10000 3.6 220 22:42 12.09.2019
2005 Clouds 17 1028 72 10000 3.6 220 22:23 12.09.2019
2006 Clouds 16 1029 82 10000 2.1 270 21:57 12.09.2019
2007 Clear 17 1029 72 10000 3.1 250 21:38 12.09.2019
2008 Clear 18 1029 72 10000 3.1 250 21:19 12.09.2019
2009 -273 0 0 0 0 0 20:56 12.09.2019
2010 Clear 19 1028 63 10000 3.1 260 20:37 12.09.2019
2011 Clear 19 1028 63 10000 3.1 260 20:19 12.09.2019
2012 Clear 19 1028 63 10000 3.1 260 20:19 12.09.2019
2013 Clouds 20 1028 56 10000 4.1 270 19:42 12.09.2019
2014 Clouds 20 1028 56 10000 4.1 270 19:20 12.09.2019
2015 Clouds 21 1028 49 10000 4.6 260 18:58 12.09.2019
2016 Clouds 22 1028 49 10000 6.7 260 18:37 12.09.2019
2017 Clouds 22 1028 49 10000 6.7 260 18:18 12.09.2019
2018 Clouds 22 1028 53 10000 5.1 240 17:54 12.09.2019
2019 Clear 22 1028 64 10000 4.6 230 17:36 12.09.2019
2020 Clear 22 1028 64 10000 4.6 230 17:18 12.09.2019
2021 Clear 22 1028 52 10000 5.1 240 16:41 12.09.2019
2022 Clear 22 1028 52 10000 5.1 240 16:21 12.09.2019
2023 Clear 22 1028 49 10000 5.1 260 15:43 12.09.2019
2024 Clouds 22 1028 49 10000 5.1 260 15:24 12.09.2019
2025 Clouds 22 1029 60 10000 5.7 220 14:56 12.09.2019
2026 Clouds 21 1028 56 10000 4.6 250 14:38 12.09.2019
2027 Clouds 21 1028 56 10000 4.6 250 14:20 12.09.2019
2028 Clouds 21 1028 52 10000 4.6 240 13:39 12.09.2019
2029 Clouds 20 1028 52 10000 4.6 240 13:21 12.09.2019
2030 Clouds 20 1028 68 10000 4.1 210 12:49 12.09.2019
2031 Clouds 20 1028 68 10000 4.1 210 12:49 12.09.2019
2032 Clouds 20 1028 72 10000 3.6 190 12:20 12.09.2019
2033 Clouds 20 1028 72 10000 2.6 220 11:58 12.09.2019
2034 Clouds 20 1028 72 10000 2.6 220 11:58 12.09.2019
2035 Clouds 19 1028 77 10000 1.5 0 11:40 12.09.2019
2036 Clouds 19 1028 77 10000 1.5 0 11:21 12.09.2019
2037 Clouds 18 1028 82 10000 2.6 200 10:49 12.09.2019
2038 Clouds 17 1028 82 10000 2.1 160 10:28 12.09.2019
2039 Clouds 16 1027 87 10000 1.5 180 09:57 12.09.2019
2040 Clouds 16 1027 87 10000 1.5 180 09:38 12.09.2019
2041 Clouds 15 1027 87 10000 1.5 180 09:19 12.09.2019
2042 Clouds 15 1027 87 10000 2.6 150 08:43 12.09.2019
2043 Clouds 15 1026 93 10000 1.5 140 08:23 12.09.2019
2044 Clouds 14 1026 93 10000 1 150 07:47 12.09.2019
2045 Clouds 14 1025 87 10000 4.1 200 07:21 12.09.2019
2046 Clouds 14 1026 87 10000 2.1 190 06:52 12.09.2019
2047 Clouds 14 1026 87 10000 2.6 170 06:32 12.09.2019
2048 Clouds 14 1026 87 10000 2.6 170 06:32 12.09.2019
2049 Clouds 14 1026 87 10000 2.6 170 05:53 12.09.2019
2050 Clouds 14 1025 87 10000 2.6 240 05:35 12.09.2019
2051 Clouds 14 1025 87 9000 2.6 240 04:42 12.09.2019
2052 Clouds 14 1024 87 10000 4.6 210 03:18 12.09.2019
2053 Rain 14 1023 87 8000 4.6 220 01:43 12.09.2019
2054 Rain 14 1023 87 8000 4.6 220 01:21 12.09.2019
2055 Rain 14 1023 87 10000 5.7 220 00:45 12.09.2019
2056 Rain 14 1023 82 10000 5.1 220 00:45 12.09.2019
2057 Rain 14 1023 87 10000 5.7 220 00:25 12.09.2019
2058 Rain 14 1023 87 10000 5.7 220 23:43 11.09.2019
2059 Rain 14 1023 87 10000 5.7 220 23:24 11.09.2019
2060 Rain 14 1025 87 10000 2.1 190 22:57 11.09.2019
2061 Rain 14 1025 87 10000 1.5 190 22:38 11.09.2019
2062 Rain 14 1025 87 10000 1.5 190 22:19 11.09.2019
2063 Rain 14 1024 93 6000 4.1 240 21:55 11.09.2019
2064 Drizzle 14 1024 82 10000 5.1 250 21:36 11.09.2019
2065 Drizzle 15 1024 82 10000 5.1 250 21:18 11.09.2019
2066 Rain 16 1023 59 10000 3.6 270 20:54 11.09.2019
2067 Rain 17 1022 67 10000 2.1 260 20:36 11.09.2019
2068 Rain 17 1022 67 10000 2.1 260 20:18 11.09.2019
2069 Drizzle 16 1022 59 10000 3.6 260 19:42 11.09.2019
2070 Drizzle 17 1022 52 10000 3.6 250 19:22 11.09.2019
2071 Drizzle 17 1022 52 10000 3.6 250 19:22 11.09.2019
2072 Rain 18 1022 45 10000 4.1 260 18:59 11.09.2019
2073 Rain 17 1022 45 10000 4.1 260 18:59 11.09.2019
2074 Rain 18 1021 40 10000 6.2 240 18:41 11.09.2019
2075 Rain 20 1021 40 10000 6.2 240 18:22 11.09.2019
2076 Rain 20 1021 40 10000 5.7 240 17:57 11.09.2019
2077 Clear 20 1021 40 10000 4.6 230 17:38 11.09.2019
2078 Clear 20 1021 40 10000 4.6 230 17:20 11.09.2019
2079 Clear 21 1021 37 10000 6.2 210 16:49 11.09.2019
2080 Clear 20 1021 40 10000 6.7 210 16:26 11.09.2019
2081 Clear 21 1022 40 10000 6.2 210 15:59 11.09.2019
2082 Clear 21 1022 40 10000 4.6 230 15:41 11.09.2019
2083 Clear 21 1022 40 10000 4.6 230 15:20 11.09.2019
2084 -273 0 0 0 0 0 14:56 11.09.2019
2085 Clear 21 1022 40 10000 6.7 210 14:56 11.09.2019
2086 Clear 21 1022 40 10000 4.6 210 14:37 11.09.2019
2087 Clear 21 1022 40 10000 4.6 210 14:18 11.09.2019
2088 Clear 21 1022 45 10000 5.7 200 13:38 11.09.2019
2089 Clear 20 1022 45 10000 5.7 200 13:20 11.09.2019
2090 Clear 20 1022 45 10000 5.7 230 12:59 11.09.2019
2091 Clear 20 1022 45 10000 4.6 220 12:38 11.09.2019
2092 Clear 19 1022 45 10000 4.6 220 12:20 11.09.2019
2093 Clear 17 1022 59 10000 2.6 120 11:39 11.09.2019
2094 Clear 17 1022 59 10000 2.6 120 11:21 11.09.2019
2095 Clear 15 1023 67 10000 2.1 120 10:57 11.09.2019
2096 Clear 15 1022 76 10000 2.1 130 10:38 11.09.2019
2097 Clear 14 1022 76 10000 2.1 130 10:19 11.09.2019
2098 Fog 12 1022 87 10000 2.1 110 09:39 11.09.2019
2099 Fog 10 1022 87 10000 2.1 110 09:20 11.09.2019
2100 Fog 9 1022 93 10000 2.1 100 08:55 11.09.2019
2101 Fog 9 1022 93 10000 2.1 100 08:55 11.09.2019
2102 Fog 8 1022 93 10000 0.5 0 08:37 11.09.2019
2103 Fog 8 1022 93 10000 0.5 0 08:19 11.09.2019
2104 Fog 6 1021 76 10000 2.6 0 07:40 11.09.2019
2105 Fog 6 1021 76 10000 2.6 0 07:22 11.09.2019
2106 Fog 6 1021 87 10000 2.6 160 06:48 11.09.2019
2107 Fog 6 1021 87 10000 2.6 160 06:27 11.09.2019
2108 Clear 6 1021 66 10000 4.6 170 05:36 11.09.2019
2109 Clear 7 1021 66 10000 4.6 170 05:18 11.09.2019
2110 Clear 6 1021 87 10000 4.6 170 04:22 11.09.2019
2111 Clear 7 1021 81 10000 4.6 170 03:31 11.09.2019
2112 Clear 7 1020 81 10000 3.1 170 02:40 11.09.2019
2113 Clear 8 1021 76 10000 1.5 160 01:42 11.09.2019
2114 Clear 8 1021 81 10000 1.5 300 00:46 11.09.2019
2115 Clear 9 1020 76 10000 1 0 00:20 11.09.2019
2116 Clear 9 1020 66 10000 1 0 23:41 10.09.2019
2117 Clear 10 1020 66 10000 1 0 23:41 10.09.2019
2118 Clear 10 1020 66 10000 1 0 23:22 10.09.2019
2119 Clear 10 1020 71 10000 1.5 300 22:57 10.09.2019
2120 Clear 10 1020 71 10000 1.5 300 22:57 10.09.2019
2121 Clear 10 1020 66 10000 2.1 170 22:38 10.09.2019
2122 Clear 10 1020 66 10000 2.1 170 22:19 10.09.2019
2123 Clear 10 1020 66 10000 2.1 170 22:19 10.09.2019
2124 Clouds 10 1020 76 10000 1.5 290 21:55 10.09.2019
2125 Clear 12 1019 58 10000 1 0 21:37 10.09.2019
2126 Clear 13 1019 58 10000 1 0 21:18 10.09.2019
2127 -273 0 0 0 0 0 20:56 10.09.2019
2128 Clear 14 1019 54 10000 2.1 290 20:37 10.09.2019
2129 Clear 15 1019 54 10000 2.1 290 20:18 10.09.2019
2130 Clear 15 1019 58 10000 2.1 320 19:55 10.09.2019
2131 Clear 16 1018 48 10000 3.1 340 19:36 10.09.2019
2132 Clear 16 1018 48 10000 3.1 340 19:18 10.09.2019
2133 Clear 16 1018 48 10000 3.1 340 19:18 10.09.2019
2134 Clear 17 1018 45 10000 3.1 330 18:45 10.09.2019
2135 Clear 18 1018 39 10000 3.6 320 18:22 10.09.2019
2136 Clear 18 1018 45 10000 2.6 280 17:57 10.09.2019
2137 Clear 18 1018 45 10000 3.6 290 17:39 10.09.2019
2138 Clear 19 1018 45 10000 3.6 290 17:20 10.09.2019
2139 Clear 19 1018 45 10000 2.6 290 16:57 10.09.2019
2140 Clear 18 1018 45 10000 4.1 330 16:38 10.09.2019
2141 Clear 19 1018 45 10000 4.1 330 16:19 10.09.2019
2142 Clear 19 1018 48 10000 3.1 300 15:43 10.09.2019
2143 Clear 18 1017 48 10000 3.6 320 15:23 10.09.2019
2144 Clouds 18 1017 48 10000 3.6 340 14:57 10.09.2019
2145 Clouds 18 1017 45 10000 5.1 330 14:39 10.09.2019
2146 Clouds 18 1017 45 10000 5.1 330 14:20 10.09.2019
2147 Clouds 18 1017 48 10000 3.1 330 13:47 10.09.2019
2148 Clouds 18 1017 45 10000 3.6 330 13:23 10.09.2019
2149 Clouds 18 1017 51 10000 2.1 300 12:53 10.09.2019
2150 Clouds 17 1017 51 10000 2.1 300 12:53 10.09.2019
2151 Clouds 17 1017 48 10000 1 230 12:28 10.09.2019
2152 Clouds 16 1018 67 10000 1 0 11:59 10.09.2019
2153 Clouds 16 1018 71 10000 1 0 11:40 10.09.2019
2154 Clouds 15 1018 71 10000 1 0 11:22 10.09.2019
2155 Clouds 15 1018 76 10000 1 0 10:54 10.09.2019
2156 Fog 14 1017 87 8000 1 0 10:36 10.09.2019
2157 Fog 13 1017 87 10000 1 0 10:18 10.09.2019
2158 Fog 12 1017 93 10000 0.5 0 09:42 10.09.2019
2159 Fog 10 1017 93 10000 0.5 0 09:20 10.09.2019
2160 Fog 10 1017 87 8000 1.39 202.193 09:20 10.09.2019
2161 Fog 8 1016 100 10000 0.5 80 08:47 10.09.2019
2162 Fog 8 1016 100 10000 0.5 80 08:29 10.09.2019
2163 Fog 7 1017 100 5000 0.5 290 07:56 10.09.2019
2164 Clear 7 1016 87 10000 0.5 0 07:38 10.09.2019
2165 Clouds 7 1016 100 6000 1.5 201.304 07:20 10.09.2019
2166 Clear 7 1015 87 10000 0.5 0 06:40 10.09.2019
2167 Clouds 7 1016 93 6000 1 300 06:20 10.09.2019
2168 Fog 8 1016 93 6000 0.5 250 04:19 10.09.2019
2169 Clouds 8 1015 87 10000 2.1 230 02:38 10.09.2019
2170 Clouds 9 1015 87 10000 2.1 230 02:20 10.09.2019
2171 Clouds 9 1015 87 10000 2.1 230 02:20 10.09.2019
2172 Clouds 9 1015 87 10000 2.1 230 02:20 10.09.2019
2173 Clear 9 1015 81 10000 2.6 240 01:50 10.09.2019
2174 Clear 9 1015 81 10000 2.6 240 01:50 10.09.2019
2175 Clear 9 1015 81 10000 2.6 240 01:50 10.09.2019
2176 Clear 9 1015 81 10000 3.1 240 01:22 10.09.2019
2177 Clouds 10 1015 87 10000 1 260 00:36 10.09.2019
2178 Clouds 10 1015 87 10000 1 260 00:36 10.09.2019
2179 Clouds 11 1015 87 10000 0.5 290 23:56 09.09.2019
2180 Clear 11 1015 76 10000 2.1 220 23:36 09.09.2019
2181 Clouds 11 1015 81 10000 0.5 220 23:18 09.09.2019
2182 Clouds 12 1015 81 10000 0.5 220 22:54 09.09.2019
2183 Clear 12 1014 71 10000 2.6 270 22:36 09.09.2019
2184 Clear 12 1014 71 10000 2.6 270 22:18 09.09.2019
2185 Clear 13 1014 71 10000 2.6 270 21:55 09.09.2019
2186 Clear 13 1014 71 10000 3.6 270 21:36 09.09.2019
2187 Clear 14 1014 71 10000 3.6 270 21:18 09.09.2019
2188 Clear 14 1014 71 10000 3.1 270 20:54 09.09.2019
2189 Rain 14 1014 66 10000 3.1 280 20:36 09.09.2019
2190 Rain 14 1014 62 10000 4.1 300 20:18 09.09.2019
2191 Rain 14 1014 62 10000 4.1 300 19:55 09.09.2019
2192 Rain 15 1014 51 10000 2.6 310 19:36 09.09.2019
2193 Clouds 15 1013 59 10000 4.6 310 19:18 09.09.2019
2194 Clouds 16 1013 63 10000 2.6 250 18:41 09.09.2019
2195 Clouds 16 1013 59 10000 5.7 320 18:22 09.09.2019
2196 Clouds 17 1013 59 10000 5.7 320 17:59 09.09.2019
2197 Clouds 17 1013 59 10000 5.7 320 17:59 09.09.2019
2198 Clouds 17 1013 59 10000 4.6 320 17:40 09.09.2019
2199 Clouds 16 1013 59 10000 4.6 320 17:21 09.09.2019
2200 Clouds 16 1013 67 10000 4.1 330 16:57 09.09.2019
2201 Clouds 16 1013 72 10000 4.6 340 16:38 09.09.2019
2202 Clouds 16 1014 72 10000 5.1 330 16:20 09.09.2019
2203 Clouds 16 1014 72 10000 5.1 330 15:56 09.09.2019
2204 Clouds 16 1014 72 10000 5.1 330 15:56 09.09.2019
2205 Clouds 15 1014 76 10000 4.6 320 15:37 09.09.2019
2206 Clouds 15 1014 76 10000 4.6 320 15:18 09.09.2019
2207 Clouds 15 1014 76 10000 4.1 330 14:55 09.09.2019
2208 Clouds 15 1014 82 10000 5.7 330 14:37 09.09.2019
2209 Clouds 15 1014 82 10000 5.7 330 14:19 09.09.2019
2210 Clouds 15 1014 82 10000 5.7 330 14:19 09.09.2019
2211 Clouds 14 1014 76 10000 5.7 320 13:44 09.09.2019
2212 Clouds 14 1014 76 10000 5.7 320 13:20 09.09.2019
2213 Clouds 14 1014 82 10000 5.1 330 12:58 09.09.2019
2214 Clouds 14 1014 82 10000 4.6 320 12:38 09.09.2019
2215 Clouds 14 1014 87 9000 4.6 320 12:20 09.09.2019
2216 Clouds 13 1015 93 8000 3.1 330 11:47 09.09.2019
2217 Clouds 13 1015 93 8000 3.1 330 11:23 09.09.2019
2218 Clouds 14 1015 93 7000 3.6 330 10:59 09.09.2019
2219 Mist 13 1014 93 5000 3.1 310 10:41 09.09.2019
2220 Mist 13 1014 93 5000 3.1 310 10:20 09.09.2019
2221 Mist 12 1015 100 5000 2.6 330 09:56 09.09.2019
2222 Mist 12 1015 93 5000 1.5 350 09:37 09.09.2019
2223 Mist 12 1015 93 5000 1.5 350 09:37 09.09.2019
2224 Mist 12 1015 93 5000 1.5 350 09:19 09.09.2019
2225 Mist 11 1015 100 4000 1.5 310 08:38 09.09.2019
2226 Mist 11 1015 100 4000 1.5 310 08:20 09.09.2019
2227 Clouds 11 1015 100 6000 0.5 0 07:46 09.09.2019
2228 Clouds 11 1015 100 6000 0.5 0 07:22 09.09.2019
2229 Clouds 11 1015 93 10000 1.5 300 06:56 09.09.2019
2230 Clouds 11 1015 93 10000 1.5 300 06:56 09.09.2019
2231 Clouds 11 1015 93 10000 1.5 300 06:32 09.09.2019
2232 Clouds 11 1015 87 10000 2.1 320 04:54 09.09.2019
2233 Clear 12 1017 93 10000 2.1 240 02:43 09.09.2019
2234 Clear 12 1017 93 10000 2.1 240 02:19 09.09.2019
2235 Clouds 11 1017 87 10000 3.1 300 00:39 09.09.2019
2236 Clouds 12 1017 81 10000 2.6 310 00:21 09.09.2019
2237 Clouds 12 1017 93 10000 2.1 280 23:44 08.09.2019
2238 Clouds 12 1017 93 10000 2.1 280 23:23 08.09.2019
2239 Clear 12 1017 93 10000 2.1 280 22:55 08.09.2019
2240 Drizzle 12 1017 93 10000 2.6 300 22:36 08.09.2019
2241 Drizzle 12 1017 93 10000 2.6 300 22:36 08.09.2019
2242 Drizzle 12 1017 93 10000 2.6 300 22:18 08.09.2019
2243 Rain 13 1017 93 10000 2.6 290 21:41 08.09.2019
2244 Rain 13 1017 93 10000 2.6 290 21:22 08.09.2019
2245 Clear 13 1017 93 10000 2.1 290 20:57 08.09.2019
2246 Rain 14 1017 93 10000 1.5 290 20:37 08.09.2019
2247 Clouds 14 1016 62 10000 3.1 360 20:19 08.09.2019
2248 Clouds 14 1018 71 10000 0.5 0 20:19 08.09.2019
2249 Clouds 14 1017 93 10000 0.5 0 19:56 08.09.2019
2250 Rain 15 1016 62 10000 3.1 360 19:37 08.09.2019
2251 Rain 15 1017 93 10000 3.6 310 19:18 08.09.2019
2252 Rain 15 1017 93 10000 3.6 310 19:18 08.09.2019
2253 Clouds 16 1016 55 10000 4.1 350 18:55 08.09.2019
2254 Clouds 16 1016 55 10000 4.1 350 18:37 08.09.2019
2255 Clouds 17 1016 59 10000 2.6 20 18:18 08.09.2019
2256 Clouds 17 1018 77 10000 2.1 360 17:38 08.09.2019
2257 Clouds 16 1017 63 10000 2.1 0 17:19 08.09.2019
2258 Clouds 17 1017 63 10000 2.1 0 16:58 08.09.2019
2259 Clouds 17 1017 59 10000 3.6 320 16:40 08.09.2019
2260 Clouds 17 1017 59 10000 3.6 320 16:20 08.09.2019
2261 Clouds 17 1017 59 10000 3.1 360 15:56 08.09.2019
2262 Clouds 17 1017 67 10000 2.1 320 15:37 08.09.2019
2263 Clouds 18 1017 67 10000 2.1 320 15:18 08.09.2019
2264 Clouds 17 1018 72 10000 2.6 350 14:40 08.09.2019
2265 Clouds 17 1018 72 10000 2.6 350 14:22 08.09.2019
2266 Clouds 16 1018 72 10000 3.1 350 13:58 08.09.2019
2267 Clouds 17 1018 76 10000 2.6 340 13:40 08.09.2019
2268 Clouds 17 1018 76 10000 2.6 340 13:22 08.09.2019
2269 Clouds 16 1018 76 9000 3.1 20 12:55 08.09.2019
2270 Mist 16 1018 82 10000 1.5 350 12:37 08.09.2019
2271 Mist 15 1019 82 10000 2.1 20 12:19 08.09.2019
2272 Mist 15 1019 82 10000 2.1 20 12:19 08.09.2019
2273 Mist 15 1019 82 10000 2.1 20 11:56 08.09.2019
2274 Fog 14 1018 87 10000 2.1 0 11:37 08.09.2019
2275 Fog 14 1018 87 10000 2.1 0 11:37 08.09.2019
2276 Fog 14 1018 87 10000 2.6 300 11:19 08.09.2019
2277 Fog 13 1018 93 1400 1.5 10 10:42 08.09.2019
2278 Fog 12 1018 93 1400 1.5 10 10:23 08.09.2019
2279 Fog 11 1018 93 900 0.5 40 09:56 08.09.2019
2280 Fog 11 1018 100 10000 0.5 0 09:37 08.09.2019
2281 Fog 10 1018 100 10000 0.5 0 09:19 08.09.2019
2282 Fog 10 1018 93 7000 1.5 230 08:40 08.09.2019
2283 Fog 9 1018 93 400 1.5 320 08:19 08.09.2019
2284 Fog 9 1018 93 10000 1 0 07:43 08.09.2019
2285 Fog 9 1018 93 10000 1 0 07:22 08.09.2019
2286 Fog 9 1018 100 600 1.5 310 06:57 08.09.2019
2287 Fog 9 1018 100 600 1.5 310 06:38 08.09.2019
2288 Fog 8 1018 100 600 2.1 270 05:40 08.09.2019
2289 Fog 8 1018 100 7000 1 0 05:21 08.09.2019
2290 Fog 9 1018 93 10000 1 0 03:23 08.09.2019
2291 Fog 9 1018 93 10000 1 0 02:48 08.09.2019
2292 Fog 9 1018 100 200 0.5 310 01:54 08.09.2019
2293 Fog 9 1019 93 800 1 320 01:29 08.09.2019
2294 Clear 9 1019 93 10000 1 160 00:49 08.09.2019
2295 Clear 9 1019 93 10000 1 160 00:30 08.09.2019
2296 Clear 10 1019 93 10000 1 160 23:57 07.09.2019
2297 Clouds 10 1019 93 10000 0.5 170 23:37 07.09.2019
2298 Clouds 10 1019 93 10000 0.5 170 23:18 07.09.2019
2299 Clear 11 1018 93 10000 1 0 22:43 07.09.2019
2300 Clear 11 1018 93 10000 1 0 22:25 07.09.2019
2301 Clear 11 1018 93 10000 2.6 260 21:56 07.09.2019
2302 Rain 12 1018 87 10000 1 250 21:38 07.09.2019
2303 Rain 13 1018 82 10000 0.5 0 21:20 07.09.2019
2304 Rain 13 1018 82 10000 0.5 0 21:20 07.09.2019
2305 Rain 13 1018 76 10000 1 0 20:40 07.09.2019
2306 Rain 14 1018 76 10000 1 0 20:21 07.09.2019
2307 Rain 14 1018 76 10000 2.1 50 19:57 07.09.2019
2308 Clouds 15 1018 76 10000 3.6 330 19:38 07.09.2019
2309 Clouds 15 1018 76 10000 3.6 330 19:19 07.09.2019
2310 Clouds 16 1018 59 10000 1.5 230 18:58 07.09.2019
2311 Clouds 16 1018 59 10000 1.5 230 18:58 07.09.2019
2312 Clouds 16 1018 59 10000 2.6 220 18:39 07.09.2019
2313 Clouds 16 1018 59 10000 2.6 220 18:20 07.09.2019
2314 Clouds 16 1018 55 10000 3.1 230 17:58 07.09.2019
2315 Clouds 16 1018 55 10000 3.1 230 17:58 07.09.2019
2316 Clouds 16 1018 55 10000 3.1 230 17:58 07.09.2019
2317 Clouds 16 1018 63 10000 2.6 210 17:39 07.09.2019
2318 Clouds 16 1018 63 10000 2.6 210 17:18 07.09.2019
2319 Clouds 16 1018 63 10000 2.6 190 16:56 07.09.2019
2320 Rain 17 1018 59 10000 2.6 240 16:37 07.09.2019
2321 Rain 17 1018 59 10000 2.6 240 16:18 07.09.2019
2322 Clouds 16 1018 67 10000 3.1 220 15:44 07.09.2019
2323 Clouds 15 1018 67 10000 3.1 220 15:25 07.09.2019
2324 Clouds 15 1018 71 10000 3.6 210 14:56 07.09.2019
2325 Clouds 14 1018 71 10000 3.6 200 14:36 07.09.2019
2326 Clouds 14 1018 71 10000 3.6 200 14:36 07.09.2019
2327 Clouds 14 1019 76 10000 2.6 180 14:18 07.09.2019
2328 Rain 14 1019 76 10000 3.6 180 13:44 07.09.2019
2329 Rain 14 1019 76 10000 3.6 180 13:25 07.09.2019
2330 Clouds 14 1019 76 10000 3.1 170 12:55 07.09.2019
2331 Rain 14 1019 76 10000 3.1 160 12:37 07.09.2019
2332 Rain 13 1019 76 10000 2.6 180 12:19 07.09.2019
2333 Rain 13 1019 81 10000 2.6 0 11:41 07.09.2019
2334 Rain 13 1019 81 10000 2.6 0 11:41 07.09.2019
2335 Rain 13 1019 81 10000 2.6 0 11:22 07.09.2019
2336 Rain 13 1019 71 10000 1.5 250 10:42 07.09.2019
2337 Rain 13 1019 71 10000 1.5 250 10:42 07.09.2019
2338 Rain 13 1019 71 10000 1.5 250 10:23 07.09.2019
2339 Rain 12 1019 66 10000 1 170 09:59 07.09.2019
2340 Rain 12 1018 71 10000 1 0 09:41 07.09.2019
2341 Rain 12 1018 71 10000 1 0 09:21 07.09.2019
2342 Rain 11 1018 71 10000 1 0 08:49 07.09.2019
2343 Rain 11 1018 76 10000 0.5 0 08:31 07.09.2019
2344 Rain 11 1018 71 10000 0.5 0 07:57 07.09.2019
2345 Rain 10 1018 93 10000 3.6 220 07:38 07.09.2019
2346 Rain 10 1018 93 10000 3.6 220 07:20 07.09.2019
2347 Rain 11 1018 87 10000 3.1 210 06:42 07.09.2019
2348 Rain 11 1018 71 10000 1 160 05:39 07.09.2019
2349 Clouds 11 1018 58 10000 3.1 230 04:26 07.09.2019
2350 Clear 11 1018 51 10000 3.6 200 03:41 07.09.2019
2351 Clear 11 1018 54 10000 4.1 200 02:22 07.09.2019
2352 Clear 11 1019 54 10000 3.1 180 01:27 07.09.2019
2353 Clear 11 1019 54 10000 3.6 200 00:54 07.09.2019
2354 Clear 12 1019 51 10000 3.1 190 00:23 07.09.2019
2355 Clouds 12 1020 66 10000 1.55 223.954 23:59 06.09.2019
2356 Clear 12 1020 50 10000 2.1 220 23:38 06.09.2019
2357 Clear 13 1020 44 10000 3.6 260 23:19 06.09.2019
2358 Clear 13 1020 44 10000 3.6 260 23:19 06.09.2019
2359 Clear 13 1020 44 10000 3.6 260 22:55 06.09.2019
2360 Clear 13 1020 44 10000 3.6 280 22:36 06.09.2019
2361 Clear 14 1020 44 10000 3.6 200 22:18 06.09.2019
2362 Clear 14 1020 44 10000 3.1 190 21:42 06.09.2019
2363 Clear 14 1020 44 10000 3.1 190 21:23 06.09.2019
2364 Clear 14 1020 50 10000 2.1 180 20:59 06.09.2019
2365 Clear 15 1020 41 10000 2.6 170 20:40 06.09.2019
2366 Clear 15 1020 41 10000 2.6 170 20:21 06.09.2019
2367 Clear 16 1020 36 10000 2.6 180 19:58 06.09.2019
2368 Clear 16 1020 34 10000 3.6 170 19:40 06.09.2019
2369 Clear 17 1020 34 10000 2.1 240 19:20 06.09.2019
2370 Clouds 18 1020 32 10000 3.6 250 18:48 06.09.2019
2371 Clouds 19 1020 32 10000 3.6 250 18:29 06.09.2019
2372 Clear 19 1021 34 10000 2.6 260 17:59 06.09.2019
2373 Clear 19 1021 34 10000 2.6 260 17:59 06.09.2019
2374 Clear 19 1021 37 10000 2.6 220 17:39 06.09.2019
2375 Clear 20 1021 37 10000 2.6 220 17:20 06.09.2019
2376 Clear 20 1021 37 10000 2.6 220 17:20 06.09.2019
2377 Clear 19 1022 34 10000 2.6 190 16:42 06.09.2019
2378 Clear 19 1022 34 10000 2.6 190 16:20 06.09.2019
2379 Clear 19 1022 34 10000 2.1 0 15:59 06.09.2019
2380 Clouds 19 1022 36 10000 3.1 220 15:40 06.09.2019
2381 Clouds 19 1022 36 10000 3.1 220 15:22 06.09.2019
2382 Clouds 18 1023 42 10000 2.6 0 14:41 06.09.2019
2383 Clouds 18 1023 42 10000 2.6 0 14:19 06.09.2019
2384 Clouds 18 1024 44 10000 3.1 180 13:44 06.09.2019
2385 Clouds 18 1024 44 10000 3.1 180 13:23 06.09.2019
2386 Clouds 17 1024 44 10000 3.1 230 12:56 06.09.2019
2387 Clouds 17 1024 44 10000 2.6 190 12:36 06.09.2019
2388 Clouds 16 1025 58 10000 2.6 210 12:18 06.09.2019
2389 Clouds 16 1025 58 10000 2.6 210 12:18 06.09.2019
2390 Clouds 15 1025 67 10000 3.1 210 11:40 06.09.2019
2391 Clouds 15 1025 67 10000 3.1 210 11:22 06.09.2019
2392 Clouds 14 1025 66 10000 1.5 0 10:56 06.09.2019
2393 Fog 13 1025 71 10000 1.5 150 10:38 06.09.2019
2394 Fog 12 1025 81 10000 2.1 140 10:18 06.09.2019
2395 Clear 11 1025 87 10000 1.5 130 09:38 06.09.2019
2396 Clear 10 1025 87 10000 1.5 130 09:19 06.09.2019
2397 Fog 9 1026 93 10000 1.5 110 08:54 06.09.2019
2398 Fog 8 1026 93 10000 0.5 0 08:36 06.09.2019
2399 Fog 7 1025 93 10000 1 0 08:18 06.09.2019
2400 Fog 7 1025 87 10000 3.1 190 07:41 06.09.2019
2401 Fog 6 1025 87 10000 3.1 190 07:22 06.09.2019
2402 Clear 6 1025 93 10000 1.5 250 06:41 06.09.2019
2403 Clear 6 1025 93 10000 1.5 250 05:58 06.09.2019
2404 Clouds 7 1025 93 10000 0.5 160 04:56 06.09.2019
2405 Clear 7 1025 93 10000 1.5 250 04:25 06.09.2019
2406 Clear 8 1025 87 10000 3.6 220 03:23 06.09.2019
2407 Clouds 9 1025 81 10000 2.6 240 01:31 06.09.2019
2408 Clouds 11 1025 76 10000 2.1 250 00:23 06.09.2019
2409 Clouds 11 1024 71 10000 3.1 280 23:42 05.09.2019
2410 Clouds 12 1024 71 10000 3.1 280 23:22 05.09.2019
2411 Clouds 12 1023 76 10000 4.6 300 22:46 05.09.2019
2412 Clouds 12 1023 76 10000 4.6 300 22:27 05.09.2019
2413 Clouds 12 1023 76 10000 4.6 300 21:58 05.09.2019
2414 Clouds 13 1023 71 10000 6.2 300 21:40 05.09.2019
2415 Clouds 14 1023 71 10000 6.2 300 21:20 05.09.2019
2416 Clouds 14 1022 71 10000 5.7 300 20:58 05.09.2019
2417 Rain 14 1022 67 10000 4.1 310 20:40 05.09.2019
2418 Rain 14 1021 67 10000 6.7 330 20:21 05.09.2019
2419 Rain 13 1021 67 10000 6.7 330 19:58 05.09.2019
2420 Rain 13 1022 62 10000 5.7 310 19:39 05.09.2019
2421 Rain 15 1020 58 10000 6.7 310 19:20 05.09.2019
2422 Rain 15 1021 55 10000 6.2 310 18:45 05.09.2019
2423 Rain 16 1021 55 10000 6.2 310 18:27 05.09.2019
2424 Rain 16 1020 59 10000 8.2 290 17:59 05.09.2019
2425 Rain 16 1020 55 10000 5.1 320 17:40 05.09.2019
2426 Rain 17 1020 55 10000 5.1 320 17:22 05.09.2019
2427 Rain 17 1019 67 10000 7.7 300 16:57 05.09.2019
2428 Rain 17 1019 67 10000 7.7 300 16:57 05.09.2019
2429 Rain 17 1019 67 10000 7.7 300 16:57 05.09.2019
2430 Rain 17 1019 55 10000 8.2 320 16:39 05.09.2019
2431 Rain 18 1018 48 10000 9.3 300 16:18 05.09.2019
2432 Clouds 18 1018 48 10000 5.7 260 15:40 05.09.2019
2433 Rain 19 1018 48 10000 9.3 300 15:19 05.09.2019
2434 Rain 19 1018 48 10000 9.3 300 15:19 05.09.2019
2435 Rain 18 1018 48 10000 9.3 300 14:57 05.09.2019
2436 Rain 18 1018 48 10000 6.7 290 14:38 05.09.2019
2437 Clouds 18 1018 55 10000 6.7 290 14:18 05.09.2019
2438 Clouds 18 1018 55 10000 8.2 300 13:43 05.09.2019
2439 Clouds 18 1017 51 10000 8.2 300 13:21 05.09.2019
2440 Clouds 17 1018 51 10000 4.1 290 12:46 05.09.2019
2441 Clouds 17 1018 51 10000 4.1 290 12:26 05.09.2019
2442 Clouds 16 1017 59 10000 6.2 280 11:58 05.09.2019
2443 Clouds 16 1017 59 10000 6.2 270 11:39 05.09.2019
2444 Clouds 16 1017 59 10000 6.2 270 11:18 05.09.2019
2445 Clouds 15 1016 71 10000 6.7 250 10:42 05.09.2019
2446 Clouds 15 1016 71 10000 6.7 250 10:22 05.09.2019
2447 Clouds 15 1016 72 10000 5.1 230 09:58 05.09.2019
2448 Clouds 15 1016 72 10000 5.1 230 09:58 05.09.2019
2449 Clear 15 1015 76 10000 5.7 220 09:38 05.09.2019
2450 Clear 14 1015 76 10000 5.7 220 09:18 05.09.2019
2451 Clear 14 1015 82 10000 5.1 220 09:18 05.09.2019
2452 Clear 14 1015 82 10000 5.1 220 09:18 05.09.2019
2453 Clear 13 1015 81 10000 3.1 230 08:45 05.09.2019
2454 Clear 13 1015 81 10000 3.1 230 08:26 05.09.2019
2455 Clear 12 1014 81 10000 5.1 220 07:46 05.09.2019
2456 Clear 11 1014 81 10000 5.1 220 07:27 05.09.2019
2457 Clouds 11 1015 100 10000 0.5 270 06:54 05.09.2019
2458 Clouds 11 1015 100 10000 0.5 270 06:30 05.09.2019
2459 Clouds 11 1015 100 10000 0.5 270 06:30 05.09.2019
2460 Clouds 12 1014 93 10000 2.6 230 05:50 05.09.2019
2461 Clouds 12 1014 93 10000 2.6 230 05:30 05.09.2019
2462 Clouds 12 1014 87 10000 3.6 250 04:50 05.09.2019
2463 Clear 13 1014 82 10000 3.6 200 04:24 05.09.2019
2464 Clear 13 1014 82 10000 3.1 240 03:38 05.09.2019
2465 Clouds 15 1014 87 10000 3.1 240 02:45 05.09.2019
2466 Clouds 15 1014 87 10000 3.1 240 02:20 05.09.2019
2467 Clouds 16 1014 93 10000 3.1 260 01:36 05.09.2019
2468 Clouds 16 1014 72 10000 0.5 290 00:42 05.09.2019
2469 Rain 16 1014 87 10000 4.6 250 00:20 05.09.2019
2470 Clouds 16 1014 82 10000 3.6 250 23:48 04.09.2019
2471 Clouds 17 1014 82 10000 3.6 250 23:26 04.09.2019
2472 Clouds 17 1013 82 10000 3.1 320 22:59 04.09.2019
2473 Rain 17 1014 93 10000 2.1 230 22:40 04.09.2019
2474 Rain 17 1014 82 10000 5.1 330 22:18 04.09.2019
2475 Rain 17 1013 68 10000 9.3 310 21:39 04.09.2019
2476 Rain 18 1013 56 10000 4.1 260 21:20 04.09.2019
2477 Rain 18 1013 56 10000 4.1 260 21:20 04.09.2019
2478 Rain 18 1013 56 10000 4.1 260 20:56 04.09.2019
2479 Clear 19 1013 56 10000 2.6 220 20:38 04.09.2019
2480 Rain 20 1012 43 10000 3.6 270 20:18 04.09.2019
2481 Rain 20 1012 43 10000 3.6 270 19:55 04.09.2019
2482 Rain 21 1012 43 10000 3.6 270 19:36 04.09.2019
2483 Clouds 22 1012 41 10000 4.6 240 19:18 04.09.2019
2484 Clouds 22 1012 41 10000 4.6 240 18:38 04.09.2019
2485 Clouds 23 1013 38 10000 6.2 240 18:19 04.09.2019
2486 Clear 24 1013 41 10000 6.2 230 17:41 04.09.2019
2487 Clear 24 1013 41 10000 6.2 230 17:23 04.09.2019
2488 Clear 24 1013 38 10000 6.2 230 16:58 04.09.2019
2489 Clouds 23 1013 40 10000 4.6 210 16:39 04.09.2019
2490 Clouds 24 1013 40 10000 4.6 210 16:21 04.09.2019
2491 Clouds 24 1014 40 10000 5.1 230 15:55 04.09.2019
2492 Clouds 23 1014 43 10000 5.7 240 15:37 04.09.2019
2493 Clouds 23 1014 40 10000 5.7 220 15:18 04.09.2019
2494 Clouds 23 1014 40 10000 5.7 220 14:54 04.09.2019
2495 Clouds 23 1015 43 10000 4.6 230 14:36 04.09.2019
2496 Clouds 22 1015 49 10000 5.7 240 14:18 04.09.2019
2497 Clouds 22 1015 43 10000 5.1 200 13:39 04.09.2019
2498 Clouds 21 1016 52 10000 4.6 220 13:21 04.09.2019
2499 Clouds 21 1016 49 10000 5.7 220 12:46 04.09.2019
2500 Clouds 20 1016 49 10000 5.7 220 12:27 04.09.2019
2501 Clouds 19 1017 59 10000 4.1 210 11:59 04.09.2019
2502 Clouds 18 1017 67 10000 2.6 140 11:40 04.09.2019
2503 Clouds 18 1017 67 10000 2.6 140 11:21 04.09.2019
2504 Clouds 18 1018 67 10000 2.1 180 10:57 04.09.2019
2505 Clouds 17 1018 72 10000 1 0 10:38 04.09.2019
2506 Clouds 16 1018 72 10000 1 0 10:20 04.09.2019
2507 Clouds 15 1019 76 10000 2.1 170 09:46 04.09.2019
2508 Clouds 15 1019 76 10000 2.1 170 09:21 04.09.2019
2509 Clouds 14 1019 82 10000 2.1 150 08:43 04.09.2019
2510 Clouds 13 1019 82 10000 2.1 150 08:24 04.09.2019
2511 Clouds 13 1019 87 10000 2.1 160 08:00 04.09.2019
2512 Clouds 12 1019 87 10000 1.5 110 07:37 04.09.2019
2513 Clouds 12 1019 87 10000 2.6 140 06:59 04.09.2019
2514 Clouds 12 1019 87 10000 1.5 110 06:39 04.09.2019
2515 Clouds 12 1019 87 10000 1.5 110 06:39 04.09.2019
2516 Clouds 12 1021 93 10000 0.5 270 04:55 04.09.2019
2517 Clouds 12 1020 72 10000 3.1 160 04:23 04.09.2019
2518 Clouds 13 1021 72 10000 3.6 200 02:51 04.09.2019
2519 Clouds 13 1022 72 10000 2.6 200 01:20 04.09.2019
2520 Clouds 13 1022 87 10000 1.34 198.706 00:45 04.09.2019
2521 Clouds 13 1022 87 10000 1.34 198.706 00:27 04.09.2019
2522 Clouds 14 1023 67 10000 1.5 240 23:52 03.09.2019
2523 Clouds 14 1023 67 10000 1.5 240 23:27 03.09.2019
2524 Clouds 14 1023 67 10000 1.5 250 22:43 03.09.2019
2525 Clouds 15 1023 67 10000 1.5 250 22:25 03.09.2019
2526 Clouds 15 1023 63 10000 1 0 21:59 03.09.2019
2527 Clouds 15 1023 63 10000 1 0 21:59 03.09.2019
2528 Clouds 16 1023 63 10000 2.6 340 21:39 03.09.2019
2529 Clouds 17 1023 63 10000 2.6 340 21:20 03.09.2019
2530 Clouds 17 1023 63 10000 2.6 320 20:59 03.09.2019
2531 Clouds 17 1023 55 10000 2.1 330 20:40 03.09.2019
2532 Clouds 18 1023 63 10000 3.6 310 20:21 03.09.2019
2533 Clouds 18 1023 59 10000 5.1 310 19:55 03.09.2019
2534 Clouds 18 1023 59 10000 5.1 310 19:55 03.09.2019
2535 Clouds 18 1023 59 10000 5.1 310 19:55 03.09.2019
2536 Clouds 18 1023 59 10000 5.1 310 19:55 03.09.2019
2537 Clouds 18 1022 49 10000 4.1 310 19:36 03.09.2019
2538 Clouds 18 1023 59 10000 4.6 310 19:18 03.09.2019
2539 Clouds 19 1022 46 10000 5.7 300 18:42 03.09.2019
2540 Clouds 19 1022 46 10000 5.7 300 18:24 03.09.2019
2541 Clear 20 1023 52 10000 6.7 300 17:56 03.09.2019
2542 Clouds 20 1022 43 10000 5.7 310 17:38 03.09.2019
2543 Clouds 20 1023 52 10000 6.7 300 17:19 03.09.2019
2544 Clouds 20 1023 49 10000 7.2 300 16:43 03.09.2019
2545 Clouds 20 1023 49 10000 7.2 300 16:23 03.09.2019
2546 Clear 20 1023 49 10000 7.2 320 15:58 03.09.2019
2547 Clear 20 1023 45 10000 6.7 300 15:39 03.09.2019
2548 Clear 20 1023 45 10000 6.7 300 15:20 03.09.2019
2549 Clear 20 1023 45 10000 6.2 300 14:56 03.09.2019
2550 Clear 20 1023 37 10000 6.7 290 14:37 03.09.2019
2551 Clear 20 1023 40 10000 4.6 260 14:19 03.09.2019
2552 Clear 21 1023 40 10000 4.6 260 13:56 03.09.2019
2553 Clear 21 1023 40 10000 4.6 260 13:56 03.09.2019
2554 Clouds 20 1023 33 10000 6.2 260 13:37 03.09.2019
2555 Clear 20 1023 42 10000 3.6 280 13:19 03.09.2019
2556 Clouds 20 1024 40 10000 5.1 250 12:48 03.09.2019
2557 Clouds 19 1024 40 10000 5.1 250 12:29 03.09.2019
2558 Clear 18 1023 45 10000 6.2 220 11:44 03.09.2019
2559 Clear 18 1023 45 10000 6.2 220 11:25 03.09.2019
2560 Clear 17 1024 48 10000 4.6 220 10:59 03.09.2019
2561 Clear 16 1024 51 10000 4.6 220 10:40 03.09.2019
2562 Clear 16 1024 51 10000 4.6 220 10:21 03.09.2019
2563 Clear 15 1023 51 10000 4.1 220 09:51 03.09.2019
2564 Clear 14 1023 62 10000 1 0 09:33 03.09.2019
2565 Clear 13 1023 71 10000 3.1 160 08:57 03.09.2019
2566 Clear 12 1023 76 10000 1.5 90 08:38 03.09.2019
2567 Clear 12 1023 76 10000 1.5 90 08:38 03.09.2019
2568 Clear 11 1023 76 10000 2.1 70 08:19 03.09.2019
2569 Clear 11 1022 54 10000 4.1 190 07:43 03.09.2019
2570 Clear 10 1022 54 10000 4.1 190 07:24 03.09.2019
2571 Clouds 10 1024 87 10000 2.64 193.736 06:50 03.09.2019
2572 Clouds 10 1024 87 10000 2.64 193.736 06:32 03.09.2019
2573 Clear 9 1023 58 10000 4.1 190 03:44 03.09.2019
2574 Clear 9 1024 62 10000 1.5 210 02:48 03.09.2019
2575 Clear 9 1024 62 10000 2.6 200 02:29 03.09.2019
2576 Clouds 9 1024 87 10000 0.5 0 01:58 03.09.2019
2577 Clouds 9 1024 87 10000 0.5 0 01:39 03.09.2019
2578 Clear 10 1024 87 10000 1.43 197.702 01:20 03.09.2019
2579 Clear 11 1024 58 10000 2.1 0 00:28 03.09.2019
2580 Clear 11 1024 66 10000 0.5 0 23:41 02.09.2019
2581 Clear 11 1024 71 10000 1 300 23:21 02.09.2019
2582 Clear 11 1024 71 10000 1 300 23:21 02.09.2019
2583 Clear 11 1024 71 10000 1 300 22:58 02.09.2019
2584 Clear 11 1024 71 10000 1 300 22:58 02.09.2019
2585 Clear 12 1024 58 10000 1 0 22:39 02.09.2019
2586 Clear 12 1024 58 10000 1 0 22:21 02.09.2019
2587 Clouds 13 1024 66 10000 0.5 0 21:58 02.09.2019
2588 Clear 13 1023 54 10000 2.1 220 21:40 02.09.2019
2589 Clear 13 1023 54 10000 2.1 220 21:40 02.09.2019
2590 Clear 13 1023 54 10000 2.1 220 21:40 02.09.2019
2591 Clear 14 1023 54 10000 2.1 220 21:20 02.09.2019
2592 Clouds 15 1023 67 10000 1.5 280 20:59 02.09.2019
2593 Clouds 15 1023 67 10000 1.5 280 20:40 02.09.2019
2594 Clear 17 1023 42 10000 4.1 310 20:19 02.09.2019
2595 Clear 17 1023 42 10000 4.1 310 19:57 02.09.2019
2596 Clear 17 1023 42 10000 4.1 310 19:39 02.09.2019
2597 Clear 18 1023 39 10000 5.1 310 19:20 02.09.2019
2598 Clouds 19 1023 39 10000 2.6 360 18:41 02.09.2019
2599 Clear 19 1023 39 10000 5.7 310 18:22 02.09.2019
2600 Clear 20 1023 42 10000 4.6 330 17:58 02.09.2019
2601 Clouds 20 1022 37 10000 2.6 320 17:39 02.09.2019
2602 Clouds 20 1022 37 10000 2.6 320 17:21 02.09.2019
2603 Clouds 20 1023 42 10000 5.7 310 16:58 02.09.2019
2604 Clear 20 1023 42 10000 5.7 330 16:37 02.09.2019
2605 Clear 20 1023 42 10000 5.7 330 16:19 02.09.2019
2606 Clear 19 1023 42 10000 5.1 320 15:44 02.09.2019
2607 Clear 19 1023 42 10000 5.1 320 15:22 02.09.2019
2608 Clear 19 1023 37 10000 5.1 300 14:57 02.09.2019
2609 Clear 19 1023 37 10000 5.1 300 14:57 02.09.2019
2610 Clouds 19 1023 48 10000 5.7 330 14:38 02.09.2019
2611 Clouds 19 1023 48 10000 5.7 330 14:20 02.09.2019
2612 Clouds 19 1023 51 10000 5.1 310 13:55 02.09.2019
2613 Clouds 19 1023 45 10000 3.1 360 13:36 02.09.2019
2614 Clouds 19 1023 51 10000 3.1 320 13:18 02.09.2019
2615 Clouds 18 1023 45 10000 3.1 320 12:42 02.09.2019
2616 Clouds 18 1023 45 10000 3.1 320 12:24 02.09.2019
2617 Clouds 17 1023 55 10000 3.6 320 11:58 02.09.2019
2618 Clouds 17 1023 62 10000 3.6 320 11:38 02.09.2019
2619 Clouds 17 1023 62 10000 3.1 300 11:19 02.09.2019
2620 Clouds 17 1023 62 10000 3.1 300 10:55 02.09.2019
2621 Clear 16 1023 67 10000 4.6 310 10:36 02.09.2019
2622 Clear 16 1023 67 10000 4.6 310 10:36 02.09.2019
2623 Clear 15 1023 67 10000 4.6 310 10:18 02.09.2019
2624 Clouds 14 1023 76 10000 1 0 09:42 02.09.2019
2625 Clouds 13 1023 76 10000 1 0 09:21 02.09.2019
2626 Fog 11 1021 93 10000 1 0 08:44 02.09.2019
2627 Fog 11 1021 93 10000 1 0 08:22 02.09.2019
2628 Fog 10 1022 87 3000 2.1 310 07:57 02.09.2019
2629 Fog 10 1021 93 1300 1.5 330 07:39 02.09.2019
2630 Fog 10 1021 93 100 0.5 310 07:20 02.09.2019
2631 Fog 9 1021 93 1200 0.5 0 06:43 02.09.2019
2632 Clear 10 1020 93 10000 1.5 60 05:54 02.09.2019
2633 Clear 10 1020 93 10000 0.5 0 05:26 02.09.2019
2634 Clear 10 1020 93 10000 0.5 0 04:50 02.09.2019
2635 Clouds 11 1019 81 10000 2.1 240 02:30 02.09.2019
2636 Clear 12 1019 81 10000 2.1 240 01:41 02.09.2019
2637 Clouds 12 1019 93 10000 2.6 300 00:42 02.09.2019
2638 Clear 12 1018 87 10000 1 0 00:21 02.09.2019
2639 Clear 13 1018 82 10000 1.5 230 23:39 01.09.2019
2640 Clear 13 1018 87 10000 2.6 240 23:19 01.09.2019
2641 Clear 13 1018 87 10000 2.6 240 23:19 01.09.2019
2642 Clear 14 1018 87 10000 2.6 240 22:57 01.09.2019
2643 Clouds 14 1018 87 10000 2.6 260 22:38 01.09.2019
2644 Clouds 14 1017 82 10000 2.1 260 22:18 01.09.2019
2645 Clouds 14 1017 82 10000 2.1 260 22:18 01.09.2019
2646 Clouds 14 1017 82 10000 2.1 260 21:54 01.09.2019
2647 Rain 14 1017 82 10000 0.5 240 21:36 01.09.2019
2648 Rain 14 1017 82 10000 0.5 240 21:36 01.09.2019
2649 Rain 16 1017 77 10000 1 0 21:18 01.09.2019
2650 Clouds 16 1017 77 10000 1 0 20:54 01.09.2019
2651 Clouds 16 1016 77 10000 1 0 20:36 01.09.2019
2652 Clouds 16 1016 77 10000 1 0 20:18 01.09.2019
2653 Clouds 17 1016 77 10000 1 0 19:40 01.09.2019
2654 Clouds 17 1016 77 10000 0.5 0 19:21 01.09.2019
2655 Clouds 17 1016 77 10000 0.5 0 19:21 01.09.2019
2656 Clouds 17 1016 77 10000 1 0 18:49 01.09.2019
2657 Clouds 17 1016 77 10000 1 0 18:30 01.09.2019
2658 Clouds 17 1016 82 10000 1.5 30 17:59 01.09.2019
2659 Rain 17 1016 82 10000 4.1 340 17:39 01.09.2019
2660 Rain 17 1016 82 10000 4.1 340 17:21 01.09.2019
2661 Rain 17 1015 82 10000 5.1 320 16:56 01.09.2019
2662 Rain 17 1016 87 10000 5.1 310 16:37 01.09.2019
2663 Rain 17 1016 87 10000 5.1 310 16:18 01.09.2019
2664 Clouds 18 1015 77 10000 8.7 300 15:42 01.09.2019
2665 Clouds 18 1015 77 10000 8.7 300 15:42 01.09.2019
2666 Clouds 20 1015 77 10000 8.7 300 15:23 01.09.2019
2667 Rain 21 1014 72 10000 9.8 310 14:44 01.09.2019
2668 Rain 21 1014 72 10000 9.8 310 14:26 01.09.2019
2669 Clouds 22 1013 49 10000 4.6 290 13:59 01.09.2019
2670 Clouds 22 1013 53 10000 3.6 280 13:41 01.09.2019
2671 Clouds 22 1013 53 10000 3.6 280 13:23 01.09.2019
2672 Rain 21 1014 64 10000 3.1 300 12:45 01.09.2019
2673 Rain 20 1014 64 10000 3.1 300 12:26 01.09.2019
2674 Clouds 20 1014 68 10000 3.1 310 11:58 01.09.2019
2675 Clouds 20 1013 72 10000 3.1 290 11:38 01.09.2019
2676 Clouds 20 1013 72 9000 5.1 300 11:19 01.09.2019
2677 Clouds 20 1013 82 10000 5.1 300 10:45 01.09.2019
2678 Clouds 20 1013 82 10000 5.1 300 10:23 01.09.2019
2679 Clouds 19 1012 77 9000 5.1 300 09:48 01.09.2019
2680 Clouds 19 1012 82 9000 3.1 300 09:26 01.09.2019
2681 Clouds 19 1012 82 9000 3.1 300 09:26 01.09.2019
2682 Clouds 19 1012 82 9000 4.1 300 08:58 01.09.2019
2683 Clouds 19 1011 82 8000 5.1 310 08:39 01.09.2019
2684 Clouds 18 1011 82 8000 5.1 310 08:20 01.09.2019
2685 Clouds 18 1011 82 10000 3.6 250 07:42 01.09.2019
2686 Clouds 18 1011 82 10000 3.6 250 07:21 01.09.2019
2687 Clear 18 1010 88 10000 2.1 300 06:39 01.09.2019
2688 Clear 18 1010 88 10000 2.1 300 05:59 01.09.2019
2689 Clear 18 1010 88 10000 2.1 300 05:59 01.09.2019
2690 Clear 18 1010 88 10000 2.1 300 05:59 01.09.2019
2691 Clear 19 1009 82 10000 4.1 260 04:53 01.09.2019
2692 Clouds 20 1009 73 10000 1 290 03:50 01.09.2019
2693 Clouds 20 1010 73 10000 7.2 240 03:32 01.09.2019
2694 Clear 20 1009 64 10000 4.1 200 02:40 01.09.2019
2695 Clear 21 1009 64 10000 4.1 200 02:19 01.09.2019
2696 Clouds 20 1009 77 10000 1 0 01:29 01.09.2019
2697 Thunderstorm 20 1009 82 10000 0.44 214.629 00:57 01.09.2019
2698 Rain 21 1009 82 10000 0.44 214.629 00:38 01.09.2019
2699 Rain 21 1009 88 10000 1.5 290 00:19 01.09.2019
2700 Clear 21 1010 60 10000 3.1 150 23:41 31.08.2019
2701 Clear 22 1010 60 10000 3.1 150 23:21 31.08.2019
2702 Clear 22 1010 60 10000 3.1 150 22:55 31.08.2019
2703 Clear 22 1010 60 10000 3.1 150 22:55 31.08.2019
2704 Clear 22 1010 60 10000 2.6 150 22:37 31.08.2019
2705 Clear 22 1010 60 10000 2.6 160 22:19 31.08.2019
2706 Clear 23 1010 50 10000 2.6 150 21:42 31.08.2019
2707 Clear 25 1010 50 10000 2.6 150 21:21 31.08.2019
2708 Clear 26 1011 47 10000 2.6 160 20:59 31.08.2019
2709 Clear 27 1011 42 10000 2.1 170 20:40 31.08.2019
2710 Clear 27 1011 42 10000 2.1 170 20:22 31.08.2019
2711 Clouds 28 1010 37 10000 3.1 170 19:41 31.08.2019
2712 Clear 28 1011 37 10000 4.1 170 19:22 31.08.2019
2713 Clear 29 1011 37 10000 4.1 180 18:55 31.08.2019
2714 Clouds 29 1010 35 10000 4.1 200 18:37 31.08.2019
2715 Clear 31 1012 35 10000 4.6 190 18:18 31.08.2019
2716 Clear 31 1012 35 10000 4.6 190 18:18 31.08.2019
2717 Clear 31 1012 35 10000 4.6 190 17:54 31.08.2019
2718 Clear 31 1012 35 10000 5.7 180 17:36 31.08.2019
2719 Clear 31 1013 35 10000 4.1 180 17:18 31.08.2019
2720 Clear 31 1013 35 10000 4.1 180 17:18 31.08.2019
2721 Clear 31 1013 38 10000 5.1 150 16:41 31.08.2019
2722 Clear 31 1013 38 10000 5.1 150 16:23 31.08.2019
2723 Clear 31 1014 38 10000 4.6 160 15:59 31.08.2019
2724 Clear 31 1014 40 10000 5.7 180 15:38 31.08.2019
2725 Clear 31 1014 40 10000 5.7 180 15:38 31.08.2019
2726 Clouds 31 1014 40 10000 5.1 180 15:18 31.08.2019
2727 Clouds 31 1015 45 10000 6.2 170 14:42 31.08.2019
2728 Clouds 31 1015 45 10000 6.2 170 14:24 31.08.2019
2729 Clouds 31 1015 42 10000 5.1 170 13:57 31.08.2019
2730 Clouds 31 1015 45 10000 1.5 80 13:37 31.08.2019
2731 Clear 30 1016 51 10000 4.1 150 13:18 31.08.2019
2732 Clouds 29 1016 51 10000 1.5 160 12:42 31.08.2019
2733 Clear 28 1016 54 10000 4.1 150 12:21 31.08.2019
2734 Clear 27 1017 54 10000 4.6 150 11:59 31.08.2019
2735 Clear 27 1017 61 10000 3.6 120 11:40 31.08.2019
2736 Clear 26 1017 61 10000 3.6 120 11:22 31.08.2019
2737 Clear 25 1017 69 10000 2.6 130 10:55 31.08.2019
2738 Clear 23 1017 73 10000 3.6 150 10:36 31.08.2019
2739 Clear 22 1017 73 10000 3.6 150 10:18 31.08.2019
2740 Clear 22 1017 73 10000 3.6 150 10:18 31.08.2019
2741 Clear 21 1018 82 8000 0.5 0 09:40 31.08.2019
2742 Clear 19 1018 82 8000 0.5 0 09:21 31.08.2019
2743 Clear 18 1018 93 10000 1.5 150 08:45 31.08.2019
2744 Fog 17 1018 93 10000 1.5 150 08:27 31.08.2019
2745 Fog 16 1018 93 6000 1.5 310 07:43 31.08.2019
2746 Fog 15 1017 72 10000 2.6 160 07:23 31.08.2019
2747 Fog 15 1018 93 6000 2.6 310 06:59 31.08.2019
2748 Fog 15 1019 100 10000 0.5 0 06:23 31.08.2019
2749 Fog 15 1019 93 10000 0.5 0 05:35 31.08.2019
2750 Clear 15 1019 82 10000 2.6 160 04:45 31.08.2019
2751 Clear 16 1019 82 10000 2.6 160 04:27 31.08.2019
2752 Clear 16 1020 82 10000 3.6 150 03:42 31.08.2019
2753 Clouds 16 1020 88 10000 2.1 310 02:20 31.08.2019
2754 Clouds 16 1020 88 10000 2.1 310 02:20 31.08.2019
2755 Clouds 16 1020 88 10000 2.1 310 01:42 31.08.2019
2756 Clear 17 1021 87 10000 1.5 0 01:23 31.08.2019
2757 Clouds 17 1021 82 10000 2.6 310 00:44 31.08.2019
2758 Clear 17 1021 87 10000 2.1 240 00:25 31.08.2019
2759 Clear 18 1021 82 10000 2.1 260 23:48 30.08.2019
2760 Clear 18 1021 77 10000 1.5 240 23:19 30.08.2019
2761 Clear 18 1021 77 10000 1.5 240 23:19 30.08.2019
2762 Clear 18 1021 77 10000 1.5 240 22:56 30.08.2019
2763 Clear 19 1021 77 10000 1.5 290 22:37 30.08.2019
2764 Clear 19 1021 77 10000 1.5 290 22:19 30.08.2019
2765 Clear 19 1021 68 10000 1 0 21:55 30.08.2019
2766 Clear 20 1021 72 10000 1 340 21:36 30.08.2019
2767 Clear 21 1021 64 10000 1.5 10 21:18 30.08.2019
2768 Clear 22 1021 60 10000 2.6 20 20:42 30.08.2019
2769 Clear 22 1021 60 10000 2.6 20 20:22 30.08.2019
2770 Clear 23 1021 57 10000 2.1 20 19:59 30.08.2019
2771 Clouds 24 1020 47 10000 2.1 20 19:40 30.08.2019
2772 Clear 25 1021 50 10000 3.1 360 19:21 30.08.2019
2773 Clear 25 1021 50 10000 3.1 360 18:58 30.08.2019
2774 Clouds 25 1020 47 10000 1.5 350 18:39 30.08.2019
2775 Clouds 26 1021 50 10000 1.5 0 18:20 30.08.2019
2776 Clouds 26 1021 50 10000 1.5 0 17:56 30.08.2019
2777 Clouds 26 1021 50 10000 1.5 0 17:56 30.08.2019
2778 Clouds 27 1022 50 10000 1 0 17:37 30.08.2019
2779 Clouds 27 1022 50 10000 1 0 17:37 30.08.2019
2780 Clouds 27 1022 50 10000 1 0 17:37 30.08.2019
2781 Clouds 27 1022 53 10000 1.5 0 17:18 30.08.2019
2782 Clouds 26 1022 53 10000 2.1 0 16:43 30.08.2019
2783 Clouds 26 1022 53 10000 2.1 0 16:25 30.08.2019
2784 Clouds 26 1022 57 10000 2.6 20 15:54 30.08.2019
2785 Clouds 26 1023 60 10000 2.6 360 15:36 30.08.2019
2786 Clouds 25 1023 60 10000 1.5 0 15:18 30.08.2019
2787 Clouds 25 1023 60 10000 1.5 0 14:42 30.08.2019
2788 Clouds 25 1023 60 10000 1.5 0 14:23 30.08.2019
2789 Clouds 25 1023 68 10000 1.5 320 13:45 30.08.2019
2790 Clouds 25 1023 68 10000 1.5 320 13:23 30.08.2019
2791 Clouds 25 1023 64 10000 1 0 12:59 30.08.2019
2792 Clouds 24 1023 64 10000 2.1 300 12:41 30.08.2019
2793 Clouds 23 1023 64 10000 2.1 340 12:22 30.08.2019
2794 Clouds 23 1023 68 10000 3.1 320 11:43 30.08.2019
2795 Clouds 23 1023 68 10000 3.1 320 11:24 30.08.2019
2796 Clouds 22 1023 72 10000 3.1 340 10:57 30.08.2019
2797 Clouds 22 1023 82 10000 2.1 10 10:36 30.08.2019
2798 Clouds 22 1023 77 10000 1.5 330 10:18 30.08.2019
2799 Clouds 20 1023 82 10000 2.1 300 09:42 30.08.2019
2800 Clouds 19 1023 82 10000 2.6 310 09:20 30.08.2019
2801 Clouds 19 1023 82 10000 2.6 310 08:57 30.08.2019
2802 Clouds 19 1023 82 10000 2.6 310 08:57 30.08.2019
2803 Clouds 18 1023 82 10000 3.1 310 08:38 30.08.2019
2804 Clouds 18 1023 82 10000 3.1 310 08:20 30.08.2019
2805 Clouds 17 1023 93 8000 1 220 07:42 30.08.2019
2806 Clouds 17 1023 93 8000 1 220 07:23 30.08.2019
2807 Clouds 16 1022 88 10000 2.1 320 06:47 30.08.2019
2808 Clouds 17 1022 88 10000 2.1 320 06:28 30.08.2019
2809 Clouds 17 1022 82 10000 2.1 290 05:46 30.08.2019
2810 Clouds 18 1022 88 10000 2.1 290 03:59 30.08.2019
2811 Clear 18 1022 88 10000 1.5 240 03:38 30.08.2019
2812 Clear 18 1022 88 10000 1.5 240 03:38 30.08.2019
2813 Clouds 18 1022 77 10000 1.5 340 03:18 30.08.2019
2814 Clear 18 1022 88 10000 1.5 240 02:29 30.08.2019
2815 Clear 19 1022 82 10000 1 260 01:29 30.08.2019
2816 Clouds 19 1021 77 10000 2.6 320 00:38 30.08.2019
2817 Clouds 19 1021 77 10000 2.1 330 00:18 30.08.2019
2818 Clear 20 1021 77 10000 1.5 250 23:40 29.08.2019
2819 Clouds 20 1021 82 10000 2.6 310 23:20 29.08.2019
2820 Clear 20 1021 77 10000 1.5 250 23:20 29.08.2019
2821 Clouds 20 1021 68 10000 1.5 340 22:43 29.08.2019
2822 Clouds 20 1021 68 10000 1.5 340 22:25 29.08.2019
2823 Clouds 20 1021 68 10000 3.1 340 21:56 29.08.2019
2824 Clouds 21 1021 68 10000 3.1 320 21:38 29.08.2019
2825 Clouds 22 1021 64 10000 3.6 320 21:20 29.08.2019
2826 Thunderstorm 23 1021 64 10000 3.6 320 20:43 29.08.2019
2827 Thunderstorm 23 1020 60 10000 3.6 340 20:21 29.08.2019
2828 Clouds 23 1020 60 10000 4.6 340 19:59 29.08.2019
2829 Clouds 23 1020 60 10000 4.6 340 19:40 29.08.2019
2830 Clouds 24 1020 60 10000 5.1 330 19:21 29.08.2019
2831 Clouds 24 1019 60 10000 6.2 330 18:44 29.08.2019
2832 Clouds 24 1019 60 10000 6.2 330 18:44 29.08.2019
2833 Clouds 25 1019 61 10000 6.2 320 18:21 29.08.2019
2834 Clouds 25 1019 61 10000 6.2 320 18:21 29.08.2019
2835 Clouds 25 1019 57 10000 5.1 320 17:57 29.08.2019
2836 Thunderstorm 25 1019 57 10000 5.1 320 17:39 29.08.2019
2837 Clouds 25 1019 61 10000 4.6 330 17:19 29.08.2019
2838 Clouds 25 1019 61 10000 4.6 330 17:19 29.08.2019
2839 Rain 25 1019 65 10000 4.1 310 16:57 29.08.2019
2840 Rain 25 1019 65 10000 4.1 310 16:39 29.08.2019
2841 Rain 25 1019 88 9000 2.1 70 16:21 29.08.2019
2842 Thunderstorm 26 1019 60 10000 1.5 350 15:39 29.08.2019
2843 Thunderstorm 27 1019 60 10000 1.5 350 15:21 29.08.2019
2844 Thunderstorm 27 1019 60 10000 4.1 340 14:50 29.08.2019
2845 Clear 27 1019 51 10000 3.1 330 14:26 29.08.2019
2846 Clear 28 1019 51 10000 1 0 13:59 29.08.2019
2847 Clear 27 1019 54 10000 1.5 0 13:41 29.08.2019
2848 Clear 27 1019 54 10000 1.5 0 13:21 29.08.2019
2849 Clear 27 1019 61 10000 1.5 0 12:59 29.08.2019
2850 Clouds 26 1018 57 10000 1 170 12:41 29.08.2019
2851 Clouds 25 1018 57 10000 1 170 12:22 29.08.2019
2852 Clear 24 1019 73 10000 2.1 0 11:59 29.08.2019
2853 Clear 23 1019 73 10000 2.1 350 11:40 29.08.2019
2854 Clear 24 1019 73 10000 2.1 350 11:20 29.08.2019
2855 Clear 24 1019 73 10000 2.1 350 11:20 29.08.2019
2856 Clear 23 1018 68 10000 3.6 310 10:45 29.08.2019
2857 Clear 22 1018 68 10000 3.6 310 10:25 29.08.2019
2858 Clear 21 1018 73 10000 5.1 300 09:57 29.08.2019
2859 Rain 20 1018 77 10000 2.1 260 09:39 29.08.2019
2860 Rain 20 1018 77 10000 2.1 260 09:18 29.08.2019
2861 Clear 19 1017 82 10000 0.5 0 08:41 29.08.2019
2862 Clear 18 1017 82 10000 0.5 0 08:23 29.08.2019
2863 Clear 18 1017 87 10000 0.5 110 07:53 29.08.2019
2864 Clear 18 1017 77 10000 3.6 250 07:33 29.08.2019
2865 Clear 17 1016 72 10000 3.1 270 06:56 29.08.2019
2866 Clear 17 1015 77 10000 4.1 170 06:37 29.08.2019
2867 Clear 17 1016 82 10000 1.5 160 05:51 29.08.2019
2868 Clear 17 1016 82 10000 1.5 200 04:52 29.08.2019
2869 Clear 17 1015 82 10000 1 0 04:30 29.08.2019
2870 Clouds 18 1016 82 10000 0.5 220 03:54 29.08.2019
2871 Clouds 19 1016 77 10000 1.05 226.967 01:54 29.08.2019
2872 Clouds 19 1016 77 10000 1.33 201.769 01:35 29.08.2019
2873 Clouds 20 1016 72 10000 1 270 00:47 29.08.2019
2874 Clear 20 1016 73 10000 0.5 0 00:23 29.08.2019
2875 Clouds 20 1016 68 10000 0.5 230 23:57 28.08.2019
2876 Clear 21 1015 68 10000 2.1 150 23:38 28.08.2019
2877 Clouds 21 1015 60 10000 0.5 340 23:19 28.08.2019
2878 Clear 21 1015 60 10000 4.1 290 22:39 28.08.2019
2879 Clear 21 1015 60 10000 4.1 290 22:19 28.08.2019
2880 Clouds 21 1015 56 10000 0.5 0 21:59 28.08.2019
2881 Clear 22 1015 50 10000 2.6 260 21:41 28.08.2019
2882 Clear 23 1015 50 10000 2.6 260 21:21 28.08.2019
2883 Clear 24 1014 44 10000 2.1 220 20:56 28.08.2019
2884 Thunderstorm 25 1014 47 10000 2.1 230 20:37 28.08.2019
2885 Thunderstorm 25 1014 47 10000 2.1 230 20:37 28.08.2019
2886 Rain 26 1014 37 10000 2.6 220 20:19 28.08.2019
2887 Clouds 27 1014 35 10000 4.1 210 19:40 28.08.2019
2888 Clear 28 1014 37 10000 2.6 250 19:21 28.08.2019
2889 Clear 29 1014 37 10000 2.6 250 18:56 28.08.2019
2890 Clear 29 1014 37 10000 2.6 250 18:37 28.08.2019
2891 Clear 30 1014 35 10000 3.1 240 18:18 28.08.2019
2892 Clear 30 1014 37 10000 3.1 250 17:37 28.08.2019
2893 Clouds 29 1015 35 10000 5.1 300 17:19 28.08.2019
2894 Clouds 30 1015 37 10000 5.1 320 16:44 28.08.2019
2895 Clouds 30 1015 37 10000 5.1 320 16:23 28.08.2019
2896 Thunderstorm 30 1015 35 10000 6.2 320 15:59 28.08.2019
2897 Thunderstorm 30 1015 31 10000 4.6 200 15:37 28.08.2019
2898 Clouds 31 1015 33 10000 5.1 200 15:19 28.08.2019
2899 Clouds 31 1015 33 10000 5.1 200 14:57 28.08.2019
2900 Clear 30 1015 35 10000 4.6 230 14:38 28.08.2019
2901 Clear 31 1015 35 10000 4.6 230 14:20 28.08.2019
2902 Clear 30 1015 38 10000 3.6 190 13:58 28.08.2019
2903 Clear 31 1015 45 10000 2.6 0 13:37 28.08.2019
2904 Clear 30 1015 51 10000 3.6 110 13:19 28.08.2019
2905 Clear 29 1015 51 10000 2.6 0 12:42 28.08.2019
2906 Clear 28 1015 51 10000 2.6 0 12:23 28.08.2019
2907 Clear 28 1015 51 10000 2.6 0 12:23 28.08.2019
2908 Clear 27 1015 65 10000 3.1 130 11:55 28.08.2019
2909 Clear 26 1015 64 10000 2.6 120 11:36 28.08.2019
2910 Clear 26 1015 69 10000 2.1 130 11:18 28.08.2019
2911 Clear 25 1015 73 10000 2.6 130 10:41 28.08.2019
2912 Clear 23 1015 73 10000 2.6 130 10:21 28.08.2019
2913 Clear 22 1015 77 10000 2.6 140 09:58 28.08.2019
2914 Clear 22 1015 77 10000 2.1 120 09:40 28.08.2019
2915 Clear 21 1015 77 10000 2.1 120 09:18 28.08.2019
2916 Clear 19 1015 88 10000 1.5 110 08:39 28.08.2019
2917 Clear 19 1015 82 10000 2.1 100 08:20 28.08.2019
2918 Clear 18 1015 88 10000 1 0 07:42 28.08.2019
2919 Clear 18 1015 88 10000 1 0 07:24 28.08.2019
2920 Clear 18 1015 88 10000 2.1 90 06:51 28.08.2019
2921 Clouds 18 1015 93 10000 1 280 06:32 28.08.2019
2922 Clouds 17 1015 88 10000 0.5 20 05:42 28.08.2019
2923 Clear 19 1014 64 10000 1.5 100 02:48 28.08.2019
2924 Clouds 19 1015 88 10000 1.5 300 01:32 28.08.2019
2925 Clouds 19 1015 88 10000 1.5 300 00:55 28.08.2019
2926 Clouds 20 1015 88 10000 1.5 300 00:37 28.08.2019
2927 Clouds 20 1016 77 10000 1 310 23:58 27.08.2019
2928 Clear 20 1015 57 10000 3.1 170 23:39 27.08.2019
2929 Clouds 21 1016 82 10000 0.5 310 23:20 27.08.2019
2930 Clear 21 1016 68 10000 1.5 260 22:42 27.08.2019
2931 Clear 21 1016 68 10000 1.5 260 22:23 27.08.2019
2932 Clear 21 1016 68 10000 1.5 260 21:57 27.08.2019
2933 Clear 22 1016 69 10000 2.1 150 21:39 27.08.2019
2934 Clear 23 1016 69 10000 2.1 150 21:21 27.08.2019
2935 Clear 24 1016 64 10000 1.5 150 20:59 27.08.2019
2936 Clear 24 1015 61 10000 3.6 110 20:40 27.08.2019
2937 Clear 25 1016 57 10000 2.1 150 20:20 27.08.2019
2938 Clear 25 1016 57 10000 2.1 150 19:55 27.08.2019
2939 Clouds 26 1015 57 10000 0.5 180 19:37 27.08.2019
2940 Thunderstorm 27 1016 54 10000 3.6 110 19:18 27.08.2019
2941 Thunderstorm 27 1015 51 10000 2.1 150 18:41 27.08.2019
2942 Thunderstorm 28 1016 51 10000 6.2 130 18:18 27.08.2019
2943 Thunderstorm 28 1016 51 10000 6.2 130 17:56 27.08.2019
2944 Clouds 28 1016 51 10000 6.7 110 17:37 27.08.2019
2945 Thunderstorm 28 1016 45 10000 7.7 110 17:18 27.08.2019
2946 Thunderstorm 29 1016 38 10000 2.6 170 16:43 27.08.2019
2947 Thunderstorm 28 1016 38 10000 2.6 170 16:24 27.08.2019
2948 Clouds 29 1016 40 10000 2.6 140 15:57 27.08.2019
2949 Clouds 30 1016 40 10000 2.6 0 15:38 27.08.2019
2950 Clouds 30 1016 40 10000 2.6 0 15:19 27.08.2019
2951 Clear 30 1017 40 10000 3.6 120 14:43 27.08.2019
2952 Clear 30 1017 40 10000 3.6 120 14:24 27.08.2019
2953 Clear 30 1017 40 10000 3.6 120 14:24 27.08.2019
2954 Clouds 31 1017 42 10000 3.1 130 13:56 27.08.2019
2955 Clouds 31 1018 42 10000 4.1 140 13:36 27.08.2019
2956 Clear 30 1018 42 10000 3.6 140 13:18 27.08.2019
2957 Clear 30 1018 48 10000 3.1 130 12:41 27.08.2019
2958 Clear 29 1018 48 10000 2.1 0 12:20 27.08.2019
2959 Clear 28 1018 57 10000 2.1 0 11:47 27.08.2019
2960 Clear 27 1018 57 10000 2.1 0 11:28 27.08.2019
2961 Clear 27 1018 57 10000 1 0 10:56 27.08.2019
2962 Clear 26 1018 64 10000 1 0 10:38 27.08.2019
2963 Clear 24 1018 64 10000 2.1 90 10:18 27.08.2019
2964 Clear 23 1018 64 10000 2.1 90 09:54 27.08.2019
2965 Clear 22 1018 73 10000 2.1 110 09:36 27.08.2019
2966 Clear 22 1018 73 10000 2.1 110 09:18 27.08.2019
2967 Clear 20 1018 88 10000 0.5 0 08:41 27.08.2019
2968 Clear 19 1018 88 10000 0.5 0 08:23 27.08.2019
2969 Clear 18 1017 77 10000 2.6 150 07:41 27.08.2019
2970 Clouds 18 1017 87 10000 2.1 300 07:20 27.08.2019
2971 Clouds 18 1017 87 10000 2.1 300 06:54 27.08.2019
2972 Clouds 18 1017 87 10000 2.1 300 06:28 27.08.2019
2973 Clear 18 1018 88 10000 1 200 05:52 27.08.2019
2974 Clear 18 1018 88 10000 1 200 05:20 27.08.2019
2975 Clear 19 1017 64 10000 3.1 140 03:40 27.08.2019
2976 Clear 20 1017 56 10000 3.1 150 02:26 27.08.2019
2977 Rain 20 1018 72 10000 1.5 310 01:44 27.08.2019
2978 Clear 20 1018 56 10000 2.1 160 01:23 27.08.2019
2979 Clear 20 1018 56 10000 2.1 160 01:23 27.08.2019
2980 Clear 21 1018 68 10000 1 350 00:44 27.08.2019
2981 Clear 21 1018 68 10000 1 350 00:24 27.08.2019
2982 Clear 22 1018 53 10000 2.1 110 23:39 26.08.2019
2983 Clear 22 1018 53 10000 2.1 110 23:21 26.08.2019
2984 Clear 23 1018 57 10000 0.5 0 22:41 26.08.2019
2985 Clear 23 1018 57 10000 0.5 0 22:21 26.08.2019
2986 Clear 23 1018 57 10000 0.5 0 21:59 26.08.2019
2987 Clear 24 1018 57 10000 0.5 0 21:38 26.08.2019
2988 Clear 25 1018 50 10000 0.5 0 21:20 26.08.2019
2989 Clear 25 1018 50 10000 1 0 20:57 26.08.2019
2990 Clear 26 1018 50 10000 1 0 20:38 26.08.2019
2991 Clear 27 1018 45 10000 2.6 60 20:19 26.08.2019
2992 Clear 27 1018 39 10000 3.6 60 19:43 26.08.2019
2993 Clear 29 1018 37 10000 3.1 60 19:20 26.08.2019
2994 Clear 29 1018 37 10000 3.6 60 18:58 26.08.2019
2995 Clear 30 1018 37 10000 3.6 60 18:38 26.08.2019
2996 Clear 31 1018 35 10000 3.1 50 18:19 26.08.2019
2997 Clear 31 1018 35 10000 4.6 60 17:44 26.08.2019
2998 Clear 30 1018 35 10000 3.1 90 17:20 26.08.2019
2999 Clear 30 1018 33 10000 4.1 120 16:58 26.08.2019
3000 Clear 31 1018 33 10000 4.1 120 16:40 26.08.2019
3001 Clear 31 1018 33 10000 4.1 120 16:40 26.08.2019
3002 Clear 31 1018 35 10000 4.1 110 16:19 26.08.2019
3003 Clouds 30 1018 35 10000 2.6 0 15:57 26.08.2019
3004 Clouds 31 1018 35 10000 2.6 0 15:38 26.08.2019
3005 Clouds 31 1019 33 10000 3.1 110 15:20 26.08.2019
3006 Clouds 30 1019 40 10000 3.1 0 14:44 26.08.2019
3007 Clouds 31 1019 40 10000 4.6 90 14:23 26.08.2019
3008 Clear 32 1019 42 10000 4.1 70 13:57 26.08.2019
3009 Clear 31 1019 42 10000 4.1 70 13:37 26.08.2019
3010 Clear 31 1019 40 10000 4.1 90 13:18 26.08.2019
3011 Clear 30 1020 40 10000 4.1 100 12:43 26.08.2019
3012 Clear 29 1020 42 10000 4.1 90 12:22 26.08.2019
3013 Clear 29 1020 48 10000 2.6 100 11:44 26.08.2019
3014 Clear 28 1020 51 10000 2.1 0 11:26 26.08.2019
3015 Clear 27 1020 65 10000 2.1 120 10:59 26.08.2019
3016 Clear 27 1020 65 10000 2.1 120 10:59 26.08.2019
3017 Clear 26 1020 65 10000 2.1 120 10:41 26.08.2019
3018 Clear 24 1020 64 10000 1.5 90 10:19 26.08.2019
3019 Clear 24 1020 73 10000 1 0 09:47 26.08.2019
3020 Clear 24 1020 73 10000 1 0 09:47 26.08.2019
3021 Clear 22 1020 77 10000 1 0 09:26 26.08.2019
3022 Clear 21 1020 82 10000 0.5 0 08:59 26.08.2019
3023 Fog 20 1020 82 10000 0.5 0 08:41 26.08.2019
3024 Fog 20 1020 88 10000 0.5 0 08:22 26.08.2019
3025 Fog 18 1020 88 10000 1.5 230 07:46 26.08.2019
3026 Fog 17 1019 88 10000 1 0 07:25 26.08.2019
3027 Fog 17 1019 88 10000 2.1 310 06:59 26.08.2019
3028 Clear 17 1020 93 10000 1 0 06:39 26.08.2019
3029 Clear 17 1020 93 10000 1 0 06:20 26.08.2019
3030 Clear 18 1020 88 10000 0.5 0 05:48 26.08.2019
3031 Clear 18 1019 88 10000 2.1 190 04:22 26.08.2019
3032 Rain 19 1019 82 10000 1.5 300 02:42 26.08.2019
3033 Clear 20 1019 77 10000 1.5 180 01:25 26.08.2019
3034 Clouds 21 1019 77 10000 3.1 310 00:45 26.08.2019
3035 Clear 21 1020 68 10000 1 170 00:27 26.08.2019
3036 Clouds 22 1019 73 10000 1 300 23:46 25.08.2019
3037 Clear 22 1020 73 10000 1.5 210 23:21 25.08.2019
3038 Clear 22 1020 77 10000 1.5 290 22:59 25.08.2019
3039 Clear 22 1020 77 10000 1.5 290 22:40 25.08.2019
3040 Clear 23 1020 73 10000 0.5 0 22:21 25.08.2019
3041 Clear 24 1020 64 10000 1.5 280 21:58 25.08.2019
3042 Clear 24 1020 64 10000 1.5 280 21:40 25.08.2019
3043 Clear 25 1019 61 10000 1 0 21:19 25.08.2019
3044 Clouds 25 1019 65 10000 1 0 20:56 25.08.2019
3045 Rain 26 1019 65 10000 1 0 20:38 25.08.2019
3046 Rain 27 1019 61 10000 1 0 20:19 25.08.2019
3047 Thunderstorm 27 1019 57 10000 2.1 360 19:41 25.08.2019
3048 Rain 28 1019 54 10000 1 0 19:23 25.08.2019
3049 Thunderstorm 29 1019 45 10000 2.1 360 18:59 25.08.2019
3050 Thunderstorm 29 1018 40 10000 2.1 290 18:40 25.08.2019
3051 Thunderstorm 29 1018 40 10000 2.1 290 18:22 25.08.2019
3052 Clear 29 1019 45 10000 3.1 30 17:59 25.08.2019
3053 Clear 29 1019 45 10000 3.1 30 17:40 25.08.2019
3054 Clear 29 1019 45 10000 2.1 0 17:20 25.08.2019
3055 Clear 31 1019 42 10000 1 0 16:41 25.08.2019
3056 Clear 30 1019 45 10000 2.1 0 16:23 25.08.2019
3057 Clear 30 1019 45 10000 1.5 0 15:56 25.08.2019
3058 Clear 30 1019 45 10000 1.5 0 15:37 25.08.2019
3059 Clear 30 1019 45 10000 1.5 0 15:37 25.08.2019
3060 Clear 30 1019 45 10000 1.5 0 15:19 25.08.2019
3061 Clear 30 1019 51 10000 2.6 120 14:39 25.08.2019
3062 Clouds 30 1020 48 10000 3.1 130 14:21 25.08.2019
3063 Clouds 30 1020 48 10000 3.1 80 13:45 25.08.2019
3064 Clouds 29 1020 51 10000 3.1 0 13:21 25.08.2019
3065 Clouds 29 1020 51 10000 1.5 70 12:56 25.08.2019
3066 Clouds 29 1020 51 10000 1.5 70 12:38 25.08.2019
3067 Clear 28 1020 54 10000 1.5 0 12:20 25.08.2019
3068 Clear 27 1020 54 10000 1.5 40 11:55 25.08.2019
3069 Clear 27 1020 54 10000 1.5 40 11:36 25.08.2019
3070 Clear 27 1020 54 10000 1.5 40 11:36 25.08.2019
3071 Clear 26 1020 53 10000 1 0 11:18 25.08.2019
3072 Clear 26 1020 53 10000 1 0 11:18 25.08.2019
3073 Clear 25 1020 57 10000 1 0 10:40 25.08.2019
3074 Clear 23 1021 60 10000 1 0 10:21 25.08.2019
3075 Clear 23 1020 68 10000 1 0 09:57 25.08.2019
3076 Clear 22 1020 68 10000 1 0 09:39 25.08.2019
3077 Clear 21 1020 68 10000 0.5 0 09:20 25.08.2019
3078 Clear 19 1020 77 10000 0.5 0 08:42 25.08.2019
3079 Clear 18 1020 82 10000 0.5 0 08:22 25.08.2019
3080 Clear 17 1020 82 10000 0.5 0 07:43 25.08.2019
3081 Clear 16 1019 77 10000 3.1 110 07:22 25.08.2019
3082 Clear 16 1020 82 10000 1 230 06:31 25.08.2019
3083 Clear 16 1020 82 10000 0.5 260 04:53 25.08.2019
3084 Clear 16 1019 67 10000 2.6 140 03:37 25.08.2019
3085 Clear 17 1020 63 10000 2.6 150 02:40 25.08.2019
3086 Clouds 18 1020 68 10000 2.1 310 01:42 25.08.2019
3087 Clear 18 1020 63 10000 3.1 150 00:40 25.08.2019
3088 Clear 18 1020 63 10000 3.1 150 00:21 25.08.2019
3089 Clear 19 1020 68 10000 2.6 300 23:52 24.08.2019
3090 Clear 19 1020 55 10000 2.6 160 23:23 24.08.2019
3091 Clear 19 1020 55 10000 2.6 160 23:23 24.08.2019
3092 Clear 19 1020 77 10000 1 290 22:56 24.08.2019
3093 Clear 20 1021 60 10000 1 110 22:38 24.08.2019
3094 Clear 20 1021 60 10000 1 110 22:19 24.08.2019
3095 Clear 21 1021 53 10000 1 100 21:56 24.08.2019
3096 Clear 21 1021 53 10000 1 100 21:38 24.08.2019
3097 Clear 22 1020 49 10000 2.1 60 21:19 24.08.2019
3098 Clear 23 1020 47 10000 2.6 60 20:55 24.08.2019
3099 Clear 23 1020 47 10000 2.6 60 20:37 24.08.2019
3100 Clear 25 1020 44 10000 2.6 70 20:18 24.08.2019
3101 Clear 25 1020 44 10000 2.6 70 20:18 24.08.2019
3102 Clear 25 1020 39 10000 3.1 80 19:55 24.08.2019
3103 Clear 26 1020 39 10000 3.1 80 19:37 24.08.2019
3104 Clear 26 1020 39 10000 3.1 80 19:37 24.08.2019
3105 Clear 27 1020 36 10000 4.6 90 19:18 24.08.2019
3106 Clear 28 1020 32 10000 4.6 80 18:41 24.08.2019
3107 Clear 28 1021 30 10000 4.6 90 18:21 24.08.2019
3108 Clear 28 1021 32 10000 4.1 100 17:45 24.08.2019
3109 Clear 29 1021 32 10000 4.6 90 17:25 24.08.2019
3110 Clear 29 1021 32 10000 4.6 110 16:51 24.08.2019
3111 Clear 29 1021 32 10000 4.6 110 16:51 24.08.2019
3112 Clear 28 1021 32 10000 3.6 110 16:21 24.08.2019
3113 Clear 28 1022 34 10000 3.6 100 15:59 24.08.2019
3114 Clear 28 1022 34 10000 3.6 100 15:41 24.08.2019
3115 Clear 28 1022 34 10000 3.6 100 15:41 24.08.2019
3116 Clear 27 1022 36 10000 3.6 80 15:23 24.08.2019
3117 Clear 27 1022 36 10000 3.6 90 14:44 24.08.2019
3118 Clear 28 1022 39 10000 3.1 110 14:23 24.08.2019
3119 Clear 28 1023 39 10000 3.1 80 13:59 24.08.2019
3120 Clear 27 1023 39 10000 3.1 80 13:40 24.08.2019
3121 Clear 27 1023 44 10000 3.1 90 13:21 24.08.2019
3122 Clear 26 1023 47 10000 3.6 90 12:58 24.08.2019
3123 Clear 26 1023 47 10000 3.6 90 12:39 24.08.2019
3124 Clear 26 1023 47 10000 4.6 100 12:20 24.08.2019
3125 Clear 25 1023 49 10000 4.6 90 11:45 24.08.2019
3126 Clear 24 1024 49 10000 3.6 80 11:22 24.08.2019
3127 Clear 23 1024 56 10000 2.1 60 10:52 24.08.2019
3128 Clear 21 1024 56 10000 1 0 10:24 24.08.2019
3129 Clear 20 1024 63 10000 0.5 0 09:45 24.08.2019
3130 Clear 18 1024 67 10000 0.5 0 09:23 24.08.2019
3131 Clear 17 1024 76 10000 0.5 0 08:59 24.08.2019
3132 Clear 16 1024 76 10000 0.5 0 08:40 24.08.2019
3133 Fog 15 1024 76 10000 1.18 84.497 08:22 24.08.2019
3134 Fog 14 1024 81 10000 1 0 07:49 24.08.2019
3135 Fog 12 1024 87 10000 1.5 220 07:27 24.08.2019
3136 Fog 12 1024 87 10000 1.5 220 07:27 24.08.2019
3137 Clear 11 1024 87 10000 0.5 0 06:30 24.08.2019
3138 Clear 12 1024 81 10000 1.5 240 05:42 24.08.2019
3139 Clear 12 1024 81 10000 1.5 220 04:51 24.08.2019
3140 Clear 13 1023 71 10000 3.1 140 03:37 24.08.2019
3141 Clear 14 1024 63 10000 1.5 130 02:27 24.08.2019
3142 Clear 15 1024 63 10000 1.5 110 01:31 24.08.2019
3143 Clear 16 1024 67 10000 2.1 300 00:54 24.08.2019
3144 Clear 16 1024 63 10000 2.1 140 00:26 24.08.2019
3145 Clear 16 1024 63 10000 2.1 320 23:59 23.08.2019
3146 Clear 17 1024 59 10000 1 0 23:39 23.08.2019
3147 Clear 17 1024 59 10000 1 0 23:19 23.08.2019
3148 Clear 18 1024 59 10000 1.5 260 22:42 23.08.2019
3149 Clear 18 1024 63 10000 1.5 290 22:24 23.08.2019
3150 Clear 19 1024 49 10000 1 350 21:41 23.08.2019
3151 Clear 21 1024 43 10000 1 0 21:23 23.08.2019
3152 Clear 21 1024 38 10000 1 0 20:59 23.08.2019
3153 Clear 22 1024 38 10000 1 0 20:40 23.08.2019
3154 Clear 23 1024 38 10000 1.5 20 20:21 23.08.2019
3155 Clear 24 1024 31 10000 1.5 80 19:44 23.08.2019
3156 Clear 26 1024 30 10000 2.6 30 19:19 23.08.2019
3157 Clear 27 1024 30 10000 2.1 20 18:49 23.08.2019
3158 Clear 27 1024 30 10000 2.1 360 18:31 23.08.2019
3159 Clear 27 1025 28 10000 2.1 0 17:58 23.08.2019
3160 Clear 28 1025 28 10000 2.1 0 17:39 23.08.2019
3161 Clear 28 1025 30 10000 1.5 80 17:20 23.08.2019
3162 Clear 27 1025 30 10000 2.1 70 16:48 23.08.2019
3163 Clear 27 1025 28 10000 3.1 110 16:29 23.08.2019
3164 Clear 27 1025 26 10000 3.1 90 15:57 23.08.2019
3165 Clear 27 1025 26 10000 3.1 90 15:37 23.08.2019
3166 Clear 27 1025 28 10000 1.5 0 15:19 23.08.2019
3167 Clear 27 1026 29 10000 2.1 0 14:42 23.08.2019
3168 Clear 27 1026 31 10000 1.5 0 14:21 23.08.2019
3169 Clear 27 1026 31 10000 2.1 0 13:58 23.08.2019
3170 Clear 26 1026 31 10000 2.1 0 13:40 23.08.2019
3171 Clear 26 1026 31 10000 2.1 160 13:22 23.08.2019
3172 Clear 26 1027 36 10000 2.6 70 12:58 23.08.2019
3173 Clear 26 1027 36 10000 2.6 70 12:40 23.08.2019
3174 Clear 24 1027 38 10000 1 0 12:21 23.08.2019
3175 Clear 24 1027 40 10000 1.5 110 11:56 23.08.2019
3176 Clear 24 1027 40 10000 1.5 110 11:37 23.08.2019
3177 Clear 22 1027 52 10000 1.5 40 11:18 23.08.2019
3178 Clear 21 1027 56 10000 1 0 10:43 23.08.2019
3179 Clear 19 1027 63 10000 0.5 0 10:22 23.08.2019
3180 Clear 19 1027 67 10000 1 0 09:57 23.08.2019
3181 Clear 19 1027 67 10000 1 0 09:39 23.08.2019
3182 Clear 16 1027 72 10000 0.5 0 09:20 23.08.2019
3183 Clear 14 1027 87 10000 1 0 08:43 23.08.2019
3184 Clear 13 1027 87 10000 0.5 0 08:19 23.08.2019
3185 Clear 11 1027 87 10000 1 160 07:43 23.08.2019
3186 Fog 11 1026 81 10000 1 0 07:24 23.08.2019
3187 Fog 11 1026 81 10000 1 0 07:24 23.08.2019
3188 Fog 11 1026 81 10000 1 0 07:24 23.08.2019
3189 Fog 12 1026 93 10000 0.5 310 06:58 23.08.2019
3190 Clear 12 1026 81 10000 1 0 06:39 23.08.2019
3191 Clear 10 1026 81 10000 0.62 129.049 06:20 23.08.2019
3192 Clear 11 1026 93 10000 0.5 270 05:42 23.08.2019
3193 Clear 10 1026 93 10000 1 230 05:21 23.08.2019
3194 Clear 12 1026 76 10000 0.5 0 03:22 23.08.2019
3195 Clear 12 1026 67 10000 1 0 02:23 23.08.2019
3196 Clear 12 1026 67 10000 1 0 02:23 23.08.2019
3197 Clear 12 1026 87 10000 2.1 280 01:47 23.08.2019
3198 Clear 14 1026 67 10000 2.6 320 00:46 23.08.2019
3199 Clear 15 1026 63 10000 1 0 00:21 23.08.2019
3200 Clear 15 1026 71 10000 1.5 300 23:50 22.08.2019
3201 Clear 15 1026 59 10000 1 0 23:32 22.08.2019
3202 Clear 15 1025 67 10000 1 0 22:58 22.08.2019
3203 Clear 16 1025 67 10000 1 0 22:40 22.08.2019
3204 Clear 17 1026 55 10000 1.5 190 22:21 22.08.2019
3205 Clear 17 1026 55 10000 1.5 190 21:56 22.08.2019
3206 Clear 18 1026 55 10000 1.5 190 21:37 22.08.2019
3207 Clear 19 1025 52 10000 1.5 210 21:19 22.08.2019
3208 Clear 20 1025 43 10000 0.5 0 20:56 22.08.2019
3209 Clear 21 1025 43 10000 0.5 0 20:38 22.08.2019
3210 Clear 21 1025 36 10000 1.5 150 20:18 22.08.2019
3211 Clear 22 1025 31 10000 1.5 190 19:54 22.08.2019
3212 Clear 22 1025 31 10000 1.5 190 19:54 22.08.2019
3213 Clear 22 1025 31 10000 1.5 190 19:36 22.08.2019
3214 Clear 23 1025 31 10000 0.5 0 19:18 22.08.2019
3215 Clear 24 1025 33 10000 0.5 0 18:55 22.08.2019
3216 Clear 24 1025 33 10000 0.5 0 18:36 22.08.2019
3217 Clear 25 1025 33 10000 1.5 0 18:18 22.08.2019
3218 Clear 25 1025 33 10000 1 0 17:41 22.08.2019
3219 Clear 25 1025 33 10000 1.5 0 17:21 22.08.2019
3220 Clear 25 1025 36 10000 2.6 240 16:57 22.08.2019
3221 Clear 25 1025 36 10000 2.6 240 16:39 22.08.2019
3222 Clear 25 1026 36 10000 2.1 0 16:20 22.08.2019
3223 Clear 25 1026 36 10000 1.5 0 15:57 22.08.2019
3224 Clear 25 1026 36 10000 1.5 0 15:57 22.08.2019
3225 Clear 25 1026 36 10000 1.5 0 15:38 22.08.2019
3226 Clear 25 1026 36 10000 1.5 0 15:38 22.08.2019
3227 Clear 25 1026 38 10000 1.5 0 15:19 22.08.2019
3228 Clear 25 1026 38 10000 1.5 0 15:18 22.08.2019
3229 Clear 25 1026 38 10000 1.5 0 14:41 22.08.2019
3230 Clear 25 1026 38 10000 2.6 0 14:22 22.08.2019
3231 Clear 25 1027 38 10000 3.6 180 13:59 22.08.2019
3232 Clear 25 1027 38 10000 3.6 180 13:41 22.08.2019
3233 Clear 25 1027 35 10000 2.6 190 13:21 22.08.2019
3234 Clear 24 1027 40 10000 3.6 130 12:57 22.08.2019
3235 Clear 24 1027 40 10000 3.6 130 12:38 22.08.2019
3236 Clear 23 1027 43 10000 4.6 140 12:19 22.08.2019
3237 Clear 23 1027 49 10000 4.1 140 11:42 22.08.2019
3238 Clear 22 1027 49 10000 4.1 140 11:42 22.08.2019
3239 Clear 21 1027 49 10000 4.6 130 11:21 22.08.2019
3240 Clear 20 1027 52 10000 2.6 130 10:58 22.08.2019
3241 Clear 20 1027 52 10000 2.6 130 10:40 22.08.2019
3242 Clear 19 1028 63 10000 1.5 100 10:22 22.08.2019
3243 Clear 17 1027 67 10000 1.5 110 09:57 22.08.2019
3244 Clear 17 1027 67 10000 1.5 110 09:39 22.08.2019
3245 Clear 15 1027 71 10000 1 0 09:20 22.08.2019
3246 Clear 14 1027 81 10000 0.5 0 08:54 22.08.2019
3247 Fog 13 1027 81 10000 0.5 0 08:36 22.08.2019
3248 Fog 12 1027 87 10000 0.5 160 08:18 22.08.2019
3249 Fog 11 1026 58 10000 4.1 170 07:39 22.08.2019
3250 Fog 11 1026 58 10000 4.1 170 07:19 22.08.2019
3251 Fog 11 1027 93 10000 2.1 300 06:48 22.08.2019
3252 Clear 10 1026 58 10000 3.1 160 06:23 22.08.2019
3253 Clear 10 1027 87 10000 1.5 200 05:36 22.08.2019
3254 Clear 10 1027 62 10000 2.1 150 04:28 22.08.2019
3255 Clear 11 1027 62 10000 2.6 160 02:38 22.08.2019
3256 Clouds 11 1027 76 10000 2.1 320 01:45 22.08.2019
3257 Clear 12 1027 66 10000 2.6 170 01:21 22.08.2019
3258 Clear 12 1027 66 10000 2.6 160 00:41 22.08.2019
3259 Clear 12 1027 62 10000 2.6 160 00:22 22.08.2019
3260 Clouds 13 1028 76 10000 2.6 300 23:48 21.08.2019
3261 Clear 13 1028 58 10000 1.5 120 23:29 21.08.2019
3262 Clouds 14 1027 71 10000 2.1 310 22:59 21.08.2019
3263 Clear 14 1028 71 10000 0.5 0 22:40 21.08.2019
3264 Clear 14 1028 71 10000 0.5 0 22:21 21.08.2019
3265 Clear 15 1028 63 10000 1 60 21:57 21.08.2019
3266 Clear 16 1028 63 10000 1 60 21:38 21.08.2019
3267 Clear 16 1028 55 10000 1 0 21:19 21.08.2019
3268 Clear 17 1027 55 10000 1.5 30 20:56 21.08.2019
3269 Clear 17 1027 55 10000 1.5 30 20:56 21.08.2019
3270 Clear 17 1027 55 10000 1.5 30 20:38 21.08.2019
3271 Clear 18 1027 48 10000 1.5 50 20:20 21.08.2019
3272 Clear 19 1027 45 10000 1.5 20 19:44 21.08.2019
3273 Clear 19 1027 45 10000 1.5 20 19:44 21.08.2019
3274 Clear 21 1027 42 10000 2.1 20 19:25 21.08.2019
3275 Clear 21 1028 40 10000 1.5 0 18:58 21.08.2019
3276 Clear 21 1028 40 10000 1.5 0 18:39 21.08.2019
3277 Clear 22 1028 40 10000 2.1 50 18:20 21.08.2019
3278 Clear 22 1028 40 10000 1.5 0 17:45 21.08.2019
3279 Clear 22 1028 40 10000 2.6 0 17:23 21.08.2019
3280 Clear 22 1028 40 10000 1.5 0 16:58 21.08.2019
3281 Clear 23 1028 40 10000 1.5 0 16:40 21.08.2019
3282 Clear 22 1028 40 10000 2.1 340 16:20 21.08.2019
3283 Clear 22 1028 37 10000 2.1 180 15:58 21.08.2019
3284 Clear 22 1028 37 10000 2.1 180 15:39 21.08.2019
3285 Clear 21 1028 40 10000 1.5 0 15:20 21.08.2019
3286 Clear 21 1028 45 10000 2.6 300 14:56 21.08.2019
3287 Clear 21 1028 45 10000 2.6 300 14:38 21.08.2019
3288 Clouds 21 1029 55 10000 3.1 0 14:19 21.08.2019
3289 Clear 21 1029 48 10000 2.1 0 13:43 21.08.2019
3290 Clouds 21 1029 48 10000 1.5 0 13:21 21.08.2019
3291 Clouds 21 1029 52 10000 3.1 0 12:58 21.08.2019
3292 Clouds 20 1029 52 10000 3.1 0 12:40 21.08.2019
3293 Clouds 20 1029 55 10000 1.5 340 12:20 21.08.2019
3294 Clouds 20 1029 55 10000 1.5 340 12:20 21.08.2019
3295 Clouds 20 1029 55 10000 1.5 150 11:56 21.08.2019
3296 Clouds 19 1029 55 10000 1.5 150 11:37 21.08.2019
3297 Clear 18 1029 67 10000 1.5 160 11:18 21.08.2019
3298 Clear 18 1029 63 10000 0.5 0 10:55 21.08.2019
3299 Clear 18 1029 63 10000 0.5 0 10:37 21.08.2019
3300 Clear 17 1029 72 10000 1 0 10:19 21.08.2019
3301 Clear 15 1029 76 10000 1.5 90 09:41 21.08.2019
3302 Clear 14 1029 82 10000 2.1 140 09:23 21.08.2019
3303 Clear 13 1029 87 10000 1.5 120 08:56 21.08.2019
3304 Clear 12 1029 87 10000 1.5 120 08:37 21.08.2019
3305 Clear 12 1029 93 10000 1 80 08:19 21.08.2019
3306 Fog 10 1028 100 10000 0.5 0 07:39 21.08.2019
3307 Fog 9 1028 93 10000 1.5 220 07:20 21.08.2019
3308 Fog 9 1028 93 10000 1.5 220 06:46 21.08.2019
3309 Fog 9 1028 93 10000 0.5 0 06:20 21.08.2019
3310 Clear 9 1027 87 10000 1.5 240 05:31 21.08.2019
3311 Clouds 10 1027 93 10000 0.74 230.363 04:59 21.08.2019
3312 Clouds 11 1027 87 10000 0.5 310 02:55 21.08.2019
3313 Clouds 12 1026 81 10000 2.1 120 01:42 21.08.2019
3314 Clear 13 1026 72 10000 2.1 200 00:43 21.08.2019
3315 Clear 14 1026 72 10000 2.6 190 00:22 21.08.2019
3316 Clouds 14 1026 67 10000 0.5 350 23:55 20.08.2019
3317 Clouds 14 1026 77 10000 2.6 210 23:36 20.08.2019
3318 Clear 14 1026 76 10000 2.1 250 23:18 20.08.2019
3319 Clouds 14 1025 62 10000 1.5 0 22:54 20.08.2019
3320 Clear 14 1025 76 10000 1.5 250 22:36 20.08.2019
3321 Clear 15 1025 67 10000 3.1 250 22:18 20.08.2019
3322 Clear 15 1025 67 10000 3.1 250 21:56 20.08.2019
3323 Clear 16 1025 67 10000 3.1 250 21:37 20.08.2019
3324 Clear 16 1024 67 10000 1.5 240 21:18 20.08.2019
3325 Clear 17 1024 59 10000 1.5 270 20:42 20.08.2019
3326 Clear 18 1024 59 10000 2.1 300 20:23 20.08.2019
3327 Clear 19 1023 52 10000 2.1 330 19:42 20.08.2019
3328 Clear 19 1023 48 10000 3.6 330 19:23 20.08.2019
3329 Clear 19 1023 48 10000 3.6 340 18:59 20.08.2019
3330 Clear 20 1023 48 10000 3.6 340 18:41 20.08.2019
3331 Clear 20 1023 42 10000 2.1 320 18:20 20.08.2019
3332 Clear 20 1023 42 10000 2.1 320 17:59 20.08.2019
3333 Clouds 20 1023 37 10000 2.6 240 17:39 20.08.2019
3334 Clear 20 1023 42 10000 1.5 0 17:20 20.08.2019
3335 Clear 20 1023 42 10000 2.6 320 16:46 20.08.2019
3336 Clear 20 1023 42 10000 2.6 320 16:28 20.08.2019
3337 Clear 20 1023 42 10000 1.5 0 15:58 20.08.2019
3338 Clear 20 1023 42 10000 3.1 290 15:40 20.08.2019
3339 Clear 20 1023 42 10000 1.5 0 15:18 20.08.2019
3340 Clouds 20 1023 45 10000 2.6 270 14:44 20.08.2019
3341 Clouds 20 1023 45 10000 2.6 270 14:44 20.08.2019
3342 Clouds 20 1023 45 10000 2.6 270 14:22 20.08.2019
3343 Clear 20 1023 42 10000 2.6 250 13:58 20.08.2019
3344 Clear 20 1023 48 10000 1.5 0 13:39 20.08.2019
3345 Clear 20 1023 48 10000 1.5 0 13:21 20.08.2019
3346 Clear 20 1023 42 10000 2.1 320 12:54 20.08.2019
3347 Clear 20 1023 40 10000 3.1 270 12:36 20.08.2019
3348 Clouds 19 1023 52 10000 1 0 12:18 20.08.2019
3349 Clouds 19 1023 59 10000 1 0 11:42 20.08.2019
3350 Clouds 18 1023 59 10000 1 0 11:21 20.08.2019
3351 Clear 18 1022 67 10000 2.6 90 10:57 20.08.2019
3352 Clear 17 1022 72 10000 1.5 0 10:39 20.08.2019
3353 Clear 17 1022 72 10000 1.5 0 10:39 20.08.2019
3354 Clear 18 1022 72 10000 1.5 0 10:39 20.08.2019
3355 Clear 17 1022 72 10000 1.5 0 10:20 20.08.2019
3356 Clear 17 1022 77 10000 1 0 09:56 20.08.2019
3357 Clear 16 1022 87 10000 0.5 0 09:38 20.08.2019
3358 Clear 16 1022 87 10000 0.5 0 09:38 20.08.2019
3359 Clear 15 1022 87 10000 0.5 0 09:20 20.08.2019
3360 Clear 14 1022 87 10000 1 0 08:41 20.08.2019
3361 Clear 13 1022 87 10000 1 0 08:23 20.08.2019
3362 Clear 12 1022 93 10000 1.5 180 07:57 20.08.2019
3363 Clear 12 1021 81 10000 3.1 180 07:38 20.08.2019
3364 Fog 11 1021 81 10000 3.1 180 07:20 20.08.2019
3365 Fog 11 1021 93 10000 2.1 170 06:43 20.08.2019
3366 Fog 10 1021 93 10000 2.1 170 06:19 20.08.2019
3367 Clear 11 1021 93 10000 1.5 190 05:41 20.08.2019
3368 Clear 11 1020 71 10000 2.6 200 04:23 20.08.2019
3369 Clouds 12 1020 76 10000 1 0 02:48 20.08.2019
3370 Clouds 13 1020 87 10000 1.1 218.807 01:50 20.08.2019
3371 Clear 13 1020 71 10000 2.1 230 01:20 20.08.2019
3372 Clear 13 1019 59 10000 4.1 200 00:44 20.08.2019
3373 Clear 14 1019 59 10000 4.1 200 00:21 20.08.2019
3374 Clear 14 1019 77 10000 1.5 210 23:42 19.08.2019
3375 Clear 15 1019 77 10000 1.5 210 23:19 19.08.2019
3376 Clear 15 1019 77 10000 1.5 210 23:19 19.08.2019
3377 Clear 15 1019 77 10000 1.5 210 22:58 19.08.2019
3378 Clear 15 1019 77 10000 2.1 240 22:40 19.08.2019
3379 Clear 15 1019 77 10000 2.1 240 22:19 19.08.2019
3380 Clear 15 1019 72 10000 2.1 220 21:56 19.08.2019
3381 Clear 17 1019 59 10000 1 180 21:38 19.08.2019
3382 Clear 17 1019 59 10000 1 180 21:19 19.08.2019
3383 Clear 19 1018 52 10000 2.6 330 20:40 19.08.2019
3384 Clear 19 1018 52 10000 2.6 330 20:21 19.08.2019
3385 Clear 20 1018 49 10000 3.1 340 19:59 19.08.2019
3386 Clear 20 1018 49 10000 3.1 340 19:41 19.08.2019
3387 Clear 21 1018 40 10000 3.6 330 19:19 19.08.2019
3388 Clear 21 1018 40 10000 3.6 330 18:59 19.08.2019
3389 Clear 22 1018 40 10000 5.1 310 18:39 19.08.2019
3390 Clear 22 1018 40 10000 5.1 310 18:21 19.08.2019
3391 Clear 22 1017 43 10000 5.1 300 17:55 19.08.2019
3392 Clouds 22 1017 35 10000 4.1 280 17:36 19.08.2019
3393 Clear 22 1017 43 10000 4.6 250 17:18 19.08.2019
3394 Clear 22 1017 43 10000 4.6 250 16:38 19.08.2019
3395 Clear 22 1017 43 10000 5.1 250 16:20 19.08.2019
3396 Clear 21 1017 43 10000 6.2 250 15:56 19.08.2019
3397 Clear 21 1017 43 10000 6.2 250 15:56 19.08.2019
3398 Clear 22 1017 43 10000 6.2 250 15:38 19.08.2019
3399 Clear 21 1017 46 10000 5.1 260 15:19 19.08.2019
3400 Clear 21 1017 52 10000 5.7 260 14:43 19.08.2019
3401 Clear 21 1017 49 10000 6.2 260 14:23 19.08.2019
3402 Clouds 21 1017 45 10000 5.7 240 13:58 19.08.2019
3403 Clouds 21 1017 45 10000 5.7 240 13:38 19.08.2019
3404 Clouds 21 1017 52 10000 5.1 230 13:20 19.08.2019
3405 Clouds 21 1017 52 10000 5.7 250 12:58 19.08.2019
3406 Clouds 20 1017 52 10000 5.7 250 12:39 19.08.2019
3407 Clouds 19 1016 55 10000 5.7 250 12:19 19.08.2019
3408 Clouds 19 1016 59 10000 5.7 220 11:40 19.08.2019
3409 Clouds 19 1016 59 10000 5.7 250 11:21 19.08.2019
3410 Clear 19 1016 59 10000 5.7 250 10:58 19.08.2019
3411 Clear 18 1016 59 10000 5.7 250 10:37 19.08.2019
3412 Clouds 18 1016 67 10000 6.2 250 10:18 19.08.2019
3413 Clear 17 1016 67 10000 6.2 250 09:45 19.08.2019
3414 Clear 16 1015 72 10000 4.6 240 09:24 19.08.2019
3415 Clear 16 1015 72 10000 4.6 240 09:24 19.08.2019
3416 Clear 16 1015 77 10000 3.6 220 08:59 19.08.2019
3417 Clear 16 1015 77 10000 3.6 220 08:41 19.08.2019
3418 Clear 15 1015 76 10000 3.1 220 08:20 19.08.2019
3419 Clear 15 1015 87 10000 3.1 220 07:50 19.08.2019
3420 Clear 14 1015 87 10000 3.1 220 07:31 19.08.2019
3421 Clouds 14 1015 87 10000 3.1 250 06:52 19.08.2019
3422 Clear 15 1014 87 10000 2.1 220 06:33 19.08.2019
3423 Clear 15 1013 87 10000 3.1 220 05:21 19.08.2019
3424 Clear 15 1014 93 10000 2.6 230 04:32 19.08.2019
3425 Clouds 15 1012 82 10000 5.1 230 03:24 19.08.2019
3426 Clouds 16 1011 87 10000 4.6 220 02:29 19.08.2019
3427 Clear 16 1011 87 10000 4.6 210 01:35 19.08.2019
3428 Clouds 16 1012 87 10000 1 0 00:44 19.08.2019
3429 Clear 17 1011 93 10000 2.6 210 00:23 19.08.2019
3430 Clear 17 1010 93 10000 3.1 210 23:43 18.08.2019
3431 Clear 17 1010 93 10000 2.1 300 23:22 18.08.2019
3432 Clear 17 1010 93 10000 2.1 300 22:57 18.08.2019
3433 Clear 17 1010 93 10000 2.1 300 22:38 18.08.2019
3434 Clouds 17 1010 88 10000 0.5 0 22:20 18.08.2019
3435 Clouds 17 1010 88 10000 2.6 310 21:56 18.08.2019
3436 Clouds 17 1010 88 10000 2.6 310 21:37 18.08.2019
3437 Clouds 18 1010 88 10000 4.6 300 21:19 18.08.2019
3438 Clouds 18 1009 93 10000 3.1 310 20:44 18.08.2019
3439 Rain 19 1009 93 10000 2.6 280 20:25 18.08.2019
3440 Rain 19 1008 93 10000 2.6 250 19:56 18.08.2019
3441 Rain 20 1008 93 10000 2.6 250 19:37 18.08.2019
3442 Thunderstorm 20 1008 64 3500 9.3 260 19:19 18.08.2019
3443 Thunderstorm 22 1007 64 10000 8.2 260 18:41 18.08.2019
3444 Clouds 23 1006 64 10000 7.7 250 18:23 18.08.2019
3445 Rain 22 1006 60 10000 8.2 260 17:59 18.08.2019
3446 Rain 22 1006 60 10000 8.2 260 17:41 18.08.2019
3447 Clouds 22 1006 73 10000 2.1 0 17:19 18.08.2019
3448 Clouds 22 1006 77 10000 5.1 310 16:57 18.08.2019
3449 Clouds 21 1006 77 10000 5.1 310 16:38 18.08.2019
3450 Clouds 22 1005 64 10000 8.7 230 16:20 18.08.2019
3451 Clouds 22 1005 64 10000 8.7 230 16:20 18.08.2019
3452 Clouds 22 1005 69 10000 7.7 210 15:56 18.08.2019
3453 Clouds 22 1005 69 10000 7.7 210 15:56 18.08.2019
3454 Clouds 23 1005 69 10000 7.7 210 15:38 18.08.2019
3455 Thunderstorm 22 1005 73 10000 7.2 200 15:20 18.08.2019
3456 Rain 23 1005 73 10000 7.7 190 14:40 18.08.2019
3457 Rain 22 1005 78 10000 7.2 180 14:21 18.08.2019
3458 Rain 22 1006 82 10000 7.2 170 13:59 18.08.2019
3459 Rain 22 1006 82 10000 7.2 170 13:41 18.08.2019
3460 Rain 20 1006 88 10000 6.7 180 13:22 18.08.2019
3461 Rain 19 1006 88 10000 5.7 170 12:58 18.08.2019
3462 Rain 19 1006 88 10000 5.7 170 12:39 18.08.2019
3463 Rain 19 1007 82 10000 5.1 160 12:20 18.08.2019
3464 Rain 18 1007 88 10000 3.6 160 11:43 18.08.2019
3465 Rain 18 1007 93 10000 1.5 140 11:23 18.08.2019
3466 Rain 17 1007 88 10000 3.1 210 10:58 18.08.2019
3467 Rain 17 1007 88 10000 3.1 210 10:40 18.08.2019
3468 Rain 17 1007 93 10000 2.1 160 10:19 18.08.2019
3469 Rain 17 1007 93 9000 2.1 120 09:43 18.08.2019
3470 Drizzle 16 1007 88 10000 1.5 230 09:20 18.08.2019
3471 Drizzle 16 1007 100 6000 3.1 150 08:44 18.08.2019
3472 Drizzle 16 1007 100 6000 3.1 150 08:44 18.08.2019
3473 Drizzle 16 1007 93 10000 2.1 140 08:25 18.08.2019
3474 Drizzle 17 1007 100 9000 2.1 130 07:57 18.08.2019
3475 Rain 17 1007 100 5000 1.5 140 07:30 18.08.2019
3476 Rain 17 1007 93 6000 1 140 06:47 18.08.2019
3477 Clouds 17 1008 93 10000 1 0 05:43 18.08.2019
3478 Rain 17 1008 88 10000 2.6 200 04:18 18.08.2019
3479 Clouds 18 1010 93 10000 0.5 190 02:59 18.08.2019
3480 Clouds 18 1010 93 10000 0.5 190 02:41 18.08.2019
3481 Rain 18 1010 93 10000 2.1 230 01:57 18.08.2019
3482 Clouds 17 1009 82 10000 4.1 200 01:26 18.08.2019
3483 Clouds 18 1010 93 10000 4.6 230 00:42 18.08.2019
3484 Clear 17 1008 82 10000 4.1 180 00:22 18.08.2019
3485 Clouds 17 1010 88 10000 3.6 200 23:58 17.08.2019
3486 Rain 17 1008 82 10000 5.1 180 23:38 17.08.2019
3487 Rain 17 1010 88 10000 2.1 170 23:19 17.08.2019
3488 Rain 17 1010 88 10000 2.1 170 22:57 17.08.2019
3489 Rain 18 1010 88 10000 2.1 170 22:39 17.08.2019
3490 Rain 18 1010 82 10000 3.6 190 22:20 17.08.2019
3491 Rain 18 1010 82 10000 3.6 190 22:20 17.08.2019
3492 Rain 19 1010 77 10000 3.6 200 21:54 17.08.2019
3493 Rain 19 1010 77 10000 3.6 200 21:36 17.08.2019
3494 Drizzle 19 1009 77 10000 2.6 150 21:18 17.08.2019
3495 Rain 20 1010 72 10000 3.1 190 20:38 17.08.2019
3496 Clouds 21 1010 68 10000 2.1 180 20:19 17.08.2019
3497 Clouds 21 1010 68 10000 4.6 200 19:43 17.08.2019
3498 Clouds 21 1010 68 10000 5.1 210 19:24 17.08.2019
3499 Clouds 21 1010 68 10000 5.7 200 18:59 17.08.2019
3500 Clouds 21 1010 68 10000 5.7 200 18:39 17.08.2019
3501 Clouds 21 1010 64 10000 6.7 200 18:18 17.08.2019
3502 Clouds 21 1010 64 10000 6.7 200 18:18 17.08.2019
3503 Clouds 21 1010 64 10000 6.7 200 18:18 17.08.2019
3504 Clouds 21 1010 64 10000 7.2 220 17:43 17.08.2019
3505 Clouds 21 1010 68 10000 5.7 200 17:22 17.08.2019
3506 Clouds 21 1010 64 10000 5.7 200 16:59 17.08.2019
3507 Clouds 21 1010 64 10000 5.7 200 16:40 17.08.2019
3508 Clouds 21 1010 64 10000 6.2 200 16:22 17.08.2019
3509 Clouds 21 1010 64 10000 6.2 210 15:55 17.08.2019
3510 Clouds 21 1010 64 10000 6.2 210 15:37 17.08.2019
3511 Clouds 22 1010 64 10000 7.2 220 15:19 17.08.2019
3512 Clouds 22 1010 56 10000 7.7 210 14:40 17.08.2019
3513 Clouds 22 1010 56 10000 6.2 200 14:22 17.08.2019
3514 Clouds 23 1010 56 10000 7.7 220 13:46 17.08.2019
3515 Clear 22 1010 53 10000 6.2 210 13:21 17.08.2019
3516 Clear 22 1010 56 10000 6.2 210 12:46 17.08.2019
3517 Clear 21 1010 64 10000 5.7 210 12:21 17.08.2019
3518 Rain 21 1010 64 10000 6.2 200 11:59 17.08.2019
3519 Rain 21 1010 64 10000 6.2 200 11:39 17.08.2019
3520 Clear 21 1010 64 10000 6.2 190 11:20 17.08.2019
3521 Clear 21 1010 68 10000 4.1 200 10:44 17.08.2019
3522 Clear 20 1010 68 10000 4.1 200 10:25 17.08.2019
3523 Clear 20 1010 68 10000 4.1 200 10:25 17.08.2019
3524 Clear 19 1010 77 10000 4.1 200 09:59 17.08.2019
3525 Clear 18 1010 77 10000 4.1 200 09:41 17.08.2019
3526 Clear 18 1010 77 10000 4.1 200 09:41 17.08.2019
3527 Clear 18 1010 82 10000 3.6 190 09:23 17.08.2019
3528 Clear 18 1010 77 10000 3.1 130 08:52 17.08.2019
3529 Clear 17 1010 77 10000 4.1 130 08:23 17.08.2019
3530 Clear 17 1010 82 10000 3.6 140 07:44 17.08.2019
3531 Clear 16 1009 68 10000 4.6 170 07:20 17.08.2019
3532 Drizzle 16 1011 82 10000 4.1 120 06:34 17.08.2019
3533 Clouds 15 1012 82 10000 1 70 04:48 17.08.2019
3534 Rain 15 1011 72 10000 3.6 180 04:23 17.08.2019
3535 Clouds 15 1013 87 10000 2.56 166.442 02:49 17.08.2019
3536 Clear 15 1012 59 10000 3.6 170 01:40 17.08.2019
3537 Clear 15 1013 59 10000 3.6 160 01:21 17.08.2019
3538 Clouds 15 1014 87 10000 0.5 310 00:48 17.08.2019
3539 Clear 15 1013 59 10000 3.1 170 00:25 17.08.2019
3540 Clouds 15 1014 82 10000 2.43 183.59 23:47 16.08.2019
3541 Clear 15 1014 72 10000 2.1 200 23:25 16.08.2019
3542 Clear 15 1014 72 10000 1.5 230 22:44 16.08.2019
3543 Clear 16 1014 67 10000 1.5 190 22:20 16.08.2019
3544 Clear 16 1014 63 10000 1 200 21:59 16.08.2019
3545 Clear 17 1014 63 10000 1 200 21:39 16.08.2019
3546 Clear 18 1014 59 10000 2.6 200 21:19 16.08.2019
3547 Clear 19 1014 52 10000 2.6 210 20:43 16.08.2019
3548 Clear 20 1014 52 10000 3.1 230 20:22 16.08.2019
3549 Clear 20 1014 49 10000 4.1 220 19:59 16.08.2019
3550 Clear 21 1014 49 10000 4.1 220 19:39 16.08.2019
3551 Clear 22 1014 46 10000 4.1 210 19:20 16.08.2019
3552 Clear 22 1015 46 10000 3.6 190 18:42 16.08.2019
3553 Clear 22 1015 46 10000 4.1 210 18:23 16.08.2019
3554 Clear 23 1015 46 10000 2.6 240 17:48 16.08.2019
3555 Clouds 22 1015 46 10000 3.6 220 17:30 16.08.2019
3556 Clouds 22 1016 49 10000 4.6 240 16:59 16.08.2019
3557 Clouds 22 1016 49 10000 4.6 240 16:40 16.08.2019
3558 Clouds 22 1016 46 10000 4.6 250 16:19 16.08.2019
3559 Clouds 22 1016 49 10000 3.6 290 15:56 16.08.2019
3560 Clouds 22 1016 49 10000 3.6 290 15:38 16.08.2019
3561 Clouds 21 1016 49 10000 4.6 240 15:19 16.08.2019
3562 Clouds 21 1017 52 10000 4.1 260 14:56 16.08.2019
3563 Clouds 21 1017 52 10000 4.1 260 14:37 16.08.2019
3564 Clouds 21 1017 52 10000 3.6 260 14:18 16.08.2019
3565 Clouds 20 1017 55 10000 4.6 270 13:40 16.08.2019
3566 Clouds 20 1017 59 10000 3.6 260 13:21 16.08.2019
3567 Clouds 20 1017 55 10000 4.1 250 12:41 16.08.2019
3568 Clouds 20 1017 55 10000 4.1 250 12:41 16.08.2019
3569 Clouds 20 1018 55 10000 5.1 260 12:22 16.08.2019
3570 Clouds 19 1018 63 10000 4.6 250 11:56 16.08.2019
3571 Clouds 19 1018 63 10000 4.6 250 11:56 16.08.2019
3572 Clouds 19 1018 63 10000 4.6 250 11:37 16.08.2019
3573 Clouds 18 1018 59 10000 4.6 270 11:19 16.08.2019
3574 Clouds 18 1018 67 10000 4.1 270 10:42 16.08.2019
3575 Clouds 17 1018 72 10000 4.1 250 10:21 16.08.2019
3576 Clouds 16 1018 77 10000 5.1 230 09:39 16.08.2019
3577 Clouds 16 1018 82 10000 3.1 230 09:20 16.08.2019
3578 Clouds 15 1018 87 10000 3.1 240 08:59 16.08.2019
3579 Clouds 15 1018 87 10000 3.1 240 08:39 16.08.2019
3580 Clear 14 1017 87 10000 4.1 240 08:19 16.08.2019
3581 Clear 13 1017 87 10000 3.6 230 07:48 16.08.2019
3582 Fog 13 1017 93 10000 3.1 200 07:28 16.08.2019
3583 Fog 13 1018 87 10000 1.5 0 06:55 16.08.2019
3584 Clear 13 1016 93 10000 3.6 220 06:19 16.08.2019
3585 Clear 13 1016 93 10000 4.6 270 05:34 16.08.2019
3586 Clouds 14 1016 87 10000 4.1 240 03:20 16.08.2019
3587 Rain 15 1016 93 10000 2.52 260.967 01:52 16.08.2019
3588 Clouds 15 1016 82 10000 2.1 260 01:25 16.08.2019
3589 Clouds 15 1016 82 10000 1.5 240 00:50 16.08.2019
3590 Clouds 15 1015 87 10000 3.1 240 00:24 16.08.2019
3591 Clouds 15 1015 87 10000 3.1 290 23:57 15.08.2019
3592 Clouds 15 1015 87 10000 2.6 240 23:39 15.08.2019
3593 Clouds 15 1015 87 10000 3.1 250 23:18 15.08.2019
3594 Clouds 15 1014 93 10000 4.6 230 22:41 15.08.2019
3595 Rain 16 1013 87 10000 1.5 210 22:23 15.08.2019
3596 Rain 16 1013 87 10000 1.5 210 21:58 15.08.2019
3597 Thunderstorm 16 1013 87 10000 1.5 210 21:39 15.08.2019
3598 Thunderstorm 16 1013 87 10000 1.5 210 21:39 15.08.2019
3599 Thunderstorm 16 1013 93 10000 1 220 21:19 15.08.2019
3600 Thunderstorm 17 1013 88 10000 1 0 20:58 15.08.2019
3601 Thunderstorm 17 1013 88 10000 1 0 20:40 15.08.2019
3602 Thunderstorm 17 1012 88 10000 1.5 240 20:20 15.08.2019
3603 Thunderstorm 17 1012 82 10000 2.6 290 19:40 15.08.2019
3604 Thunderstorm 18 1012 82 10000 3.1 270 19:22 15.08.2019
3605 Thunderstorm 18 1012 88 10000 4.6 290 18:57 15.08.2019
3606 Thunderstorm 17 1012 88 10000 4.6 290 18:39 15.08.2019
3607 Thunderstorm 18 1012 82 10000 2.1 300 18:21 15.08.2019
3608 Rain 18 1012 68 10000 4.6 310 17:54 15.08.2019
3609 Rain 18 1012 68 10000 4.6 310 17:54 15.08.2019
3610 Rain 18 1011 88 10000 5.7 270 17:36 15.08.2019
3611 Rain 19 1011 82 10000 2.1 240 17:18 15.08.2019
3612 Rain 20 1011 60 10000 6.2 220 16:42 15.08.2019
3613 Rain 20 1010 60 10000 5.1 200 16:23 15.08.2019
3614 Rain 20 1010 64 10000 5.7 210 15:55 15.08.2019
3615 Rain 20 1010 64 10000 5.7 210 15:36 15.08.2019
3616 Rain 20 1010 64 10000 6.2 200 15:18 15.08.2019
3617 Clouds 20 1010 68 10000 6.7 200 14:41 15.08.2019
3618 Clouds 19 1010 72 10000 5.7 200 14:22 15.08.2019
3619 Clouds 19 1010 82 10000 6.7 210 13:57 15.08.2019
3620 Clouds 19 1010 82 10000 6.7 210 13:39 15.08.2019
3621 Clouds 19 1011 82 10000 4.6 210 13:20 15.08.2019
3622 Clouds 18 1011 77 10000 4.6 200 12:55 15.08.2019
3623 Drizzle 18 1011 77 10000 4.6 200 12:36 15.08.2019
3624 Drizzle 18 1011 77 10000 3.6 190 12:18 15.08.2019
3625 Clouds 18 1010 77 10000 4.6 190 11:39 15.08.2019
3626 Clouds 17 1011 82 10000 5.7 190 11:20 15.08.2019
3627 Rain 16 1011 87 10000 3.6 170 10:59 15.08.2019
3628 Rain 16 1011 87 10000 3.6 170 10:38 15.08.2019
3629 Rain 16 1011 87 10000 3.1 170 10:19 15.08.2019
3630 Rain 16 1011 82 10000 5.7 190 09:44 15.08.2019
3631 Clear 16 1011 82 10000 6.2 190 09:23 15.08.2019
3632 Clear 16 1011 82 10000 6.2 190 09:23 15.08.2019
3633 Clear 15 1011 82 10000 4.6 180 08:56 15.08.2019
3634 Clear 15 1011 82 10000 4.6 180 08:55 15.08.2019
3635 Clear 15 1011 82 10000 4.6 180 08:36 15.08.2019
3636 Clear 15 1011 87 10000 3.6 140 08:18 15.08.2019
3637 Rain 14 1011 82 10000 3.1 140 07:42 15.08.2019
3638 Rain 14 1010 77 10000 4.1 170 07:22 15.08.2019
3639 Rain 14 1012 87 10000 2.6 210 06:53 15.08.2019
3640 Rain 14 1012 76 10000 5.7 180 06:32 15.08.2019
3641 Rain 14 1012 76 10000 5.7 180 05:44 15.08.2019
3642 Rain 14 1012 76 10000 2.6 140 05:25 15.08.2019
3643 Rain 14 1011 82 10000 3.6 160 04:32 15.08.2019
3644 Clear 15 1012 82 10000 2.6 140 03:37 15.08.2019
3645 Clear 15 1013 55 10000 2.1 130 02:37 15.08.2019
3646 Clouds 15 1015 67 10000 2.1 200 01:50 15.08.2019
3647 Clear 15 1014 51 10000 3.6 150 01:27 15.08.2019
3648 Clear 15 1014 51 10000 2.1 150 00:39 15.08.2019
3649 Clear 14 1014 51 10000 2.1 170 00:20 15.08.2019
3650 Clouds 14 1015 76 10000 2.23 176.459 23:57 14.08.2019
3651 Clear 14 1014 48 10000 2.1 160 23:37 14.08.2019
3652 Clear 14 1016 54 10000 2.1 180 23:19 14.08.2019
3653 Clear 14 1016 54 10000 2.1 180 22:55 14.08.2019
3654 Clear 14 1016 54 10000 2.1 180 22:37 14.08.2019
3655 Clear 15 1016 58 10000 2.6 190 22:19 14.08.2019
3656 Clear 15 1016 62 10000 2.1 180 21:55 14.08.2019
3657 Clear 16 1016 62 10000 2.1 180 21:36 14.08.2019
3658 Clear 17 1016 51 10000 1.5 180 21:18 14.08.2019
3659 Clear 17 1016 42 10000 2.1 190 20:41 14.08.2019
3660 Clear 19 1016 39 10000 2.6 210 20:20 14.08.2019
3661 Clear 19 1016 37 10000 3.1 220 19:56 14.08.2019
3662 Clear 21 1016 37 10000 3.1 220 19:37 14.08.2019
3663 Clear 20 1016 37 10000 4.1 220 19:18 14.08.2019
3664 Clear 21 1016 35 10000 3.6 250 18:56 14.08.2019
3665 Clear 21 1016 35 10000 3.6 250 18:37 14.08.2019
3666 Clear 21 1017 34 10000 4.6 240 18:18 14.08.2019
3667 Clear 21 1017 35 10000 3.6 220 17:55 14.08.2019
3668 Clear 21 1017 35 10000 3.6 220 17:36 14.08.2019
3669 Clouds 21 1017 37 10000 3.6 210 17:18 14.08.2019
3670 Clear 20 1017 42 10000 1.5 290 16:39 14.08.2019
3671 Clouds 21 1018 45 10000 2.1 0 16:20 14.08.2019
3672 Clouds 20 1018 48 10000 2.1 0 15:44 14.08.2019
3673 Clouds 19 1018 48 10000 1 0 15:20 14.08.2019
3674 Clouds 20 1018 48 10000 1.5 0 14:59 14.08.2019
3675 Clouds 19 1018 48 10000 1.5 0 14:39 14.08.2019
3676 Clouds 19 1018 52 10000 3.1 210 14:19 14.08.2019
3677 Clouds 19 1018 52 10000 3.1 210 14:19 14.08.2019
3678 Clouds 19 1018 52 10000 3.1 210 14:19 14.08.2019
3679 Clouds 19 1019 52 10000 2.1 230 13:55 14.08.2019
3680 Clouds 19 1019 52 10000 2.1 230 13:37 14.08.2019
3681 Clouds 18 1019 59 10000 3.6 260 13:18 14.08.2019
3682 Clouds 17 1019 55 10000 2.6 280 12:40 14.08.2019
3683 Clouds 17 1019 59 10000 3.6 280 12:22 14.08.2019
3684 Clouds 17 1019 59 10000 1.5 250 11:59 14.08.2019
3685 Clouds 17 1019 59 10000 1.5 250 11:40 14.08.2019
3686 Clouds 16 1019 63 10000 1.5 240 11:21 14.08.2019
3687 Clouds 16 1019 62 10000 2.1 310 10:45 14.08.2019
3688 Clouds 15 1019 67 10000 1.5 0 10:25 14.08.2019
3689 Clouds 15 1019 67 10000 1.5 0 10:25 14.08.2019
3690 Clear 14 1019 76 10000 2.1 0 09:59 14.08.2019
3691 Clear 14 1019 76 10000 2.1 0 09:41 14.08.2019
3692 Clear 13 1019 82 10000 2.1 110 09:20 14.08.2019
3693 Clear 12 1019 82 10000 1.5 160 08:42 14.08.2019
3694 Clear 11 1019 87 10000 0.5 0 08:23 14.08.2019
3695 Clear 11 1019 87 10000 1 0 07:55 14.08.2019
3696 Clear 11 1019 87 10000 1 0 07:34 14.08.2019
3697 Clear 10 1018 93 10000 1 0 06:49 14.08.2019
3698 Clear 9 1018 93 10000 1 0 06:23 14.08.2019
3699 Clear 10 1018 87 10000 4.1 210 05:28 14.08.2019
3700 Clear 10 1018 87 10000 4.1 210 05:28 14.08.2019
3701 Clear 11 1018 87 10000 4.6 210 03:40 14.08.2019
3702 Clear 11 1018 87 10000 4.1 210 02:36 14.08.2019
3703 Clouds 12 1019 87 10000 1 260 01:55 14.08.2019
3704 Clear 13 1018 81 10000 4.1 200 01:21 14.08.2019
3705 Clouds 14 1018 82 10000 1.5 110 23:56 13.08.2019
3706 Clear 14 1018 87 10000 3.6 210 23:37 13.08.2019
3707 Clear 13 1018 87 10000 3.6 190 23:18 13.08.2019
3708 Clouds 14 1019 71 10000 1 340 22:42 13.08.2019
3709 Clear 14 1019 67 10000 5.1 320 22:24 13.08.2019
3710 Rain 14 1019 67 10000 5.1 320 21:59 13.08.2019
3711 Rain 14 1019 67 10000 5.1 320 21:39 13.08.2019
3712 Rain 15 1018 71 10000 2.1 320 21:19 13.08.2019
3713 Rain 15 1018 71 10000 3.1 340 20:58 13.08.2019
3714 Rain 16 1018 71 10000 3.1 340 20:39 13.08.2019
3715 Clear 17 1018 67 10000 4.1 350 20:19 13.08.2019
3716 Rain 16 1017 59 10000 5.1 330 19:54 13.08.2019
3717 Rain 17 1017 59 10000 5.1 330 19:36 13.08.2019
3718 Rain 18 1017 48 10000 3.1 270 19:18 13.08.2019
3719 Clear 18 1017 48 10000 5.1 260 18:41 13.08.2019
3720 Clear 19 1017 45 10000 4.1 250 18:21 13.08.2019
3721 Clear 19 1017 48 10000 4.6 250 17:43 13.08.2019
3722 Clear 19 1017 40 10000 5.1 270 17:22 13.08.2019
3723 Clear 19 1017 45 10000 5.1 250 16:58 13.08.2019
3724 Clear 19 1017 45 10000 5.1 250 16:40 13.08.2019
3725 Clouds 19 1017 45 10000 5.7 230 16:21 13.08.2019
3726 Clouds 20 1017 42 10000 5.7 270 15:59 13.08.2019
3727 Clouds 19 1017 42 10000 5.7 270 15:38 13.08.2019
3728 Clouds 19 1017 42 10000 5.7 270 15:38 13.08.2019
3729 Clouds 20 1017 45 10000 6.2 290 15:19 13.08.2019
3730 Clouds 20 1017 45 10000 6.2 290 15:19 13.08.2019
3731 Clouds 19 1017 45 10000 6.2 280 14:42 13.08.2019
3732 Clouds 19 1017 48 10000 6.2 300 14:20 13.08.2019
3733 Clouds 19 1018 59 10000 5.1 320 13:57 13.08.2019
3734 Clouds 18 1018 59 10000 5.1 320 13:38 13.08.2019
3735 Clouds 18 1018 59 10000 4.1 280 13:18 13.08.2019
3736 Clouds 17 1018 59 10000 5.7 290 12:56 13.08.2019
3737 Clouds 17 1018 59 10000 5.7 290 12:37 13.08.2019
3738 Clouds 17 1018 63 10000 6.2 270 12:18 13.08.2019
3739 Clouds 17 1017 72 10000 6.2 260 11:40 13.08.2019
3740 Clouds 16 1017 77 10000 5.1 270 11:21 13.08.2019
3741 Clouds 16 1017 72 10000 5.7 240 10:57 13.08.2019
3742 Clouds 15 1017 72 10000 5.7 240 10:38 13.08.2019
3743 Clouds 15 1017 77 10000 5.1 230 10:19 13.08.2019
3744 Clouds 15 1016 82 10000 4.1 220 09:44 13.08.2019
3745 Rain 14 1016 87 10000 4.6 220 09:24 13.08.2019
3746 Clouds 14 1016 87 10000 4.6 220 08:55 13.08.2019
3747 Clouds 14 1016 87 10000 4.6 220 08:37 13.08.2019
3748 Clouds 13 1016 87 10000 3.1 220 08:18 13.08.2019
3749 Clouds 13 1016 87 10000 4.1 230 07:38 13.08.2019
3750 Clouds 13 1016 87 10000 4.1 230 07:38 13.08.2019
3751 Rain 13 1015 82 10000 5.1 220 07:20 13.08.2019
3752 Clouds 13 1016 93 10000 2.1 110 06:43 13.08.2019
3753 Clouds 13 1015 93 10000 2.1 180 05:46 13.08.2019
3754 Clouds 12 1016 93 10000 1.5 180 03:46 13.08.2019
3755 Clear 12 1015 87 10000 2.1 0 02:22 13.08.2019
3756 Clear 12 1015 87 10000 2.6 160 01:26 13.08.2019
3757 Clouds 13 1016 93 10000 0.5 130 00:47 13.08.2019
3758 Clear 13 1015 87 10000 1 0 00:18 13.08.2019
3759 Clear 13 1015 87 10000 1.5 230 23:41 12.08.2019
3760 Clear 14 1015 87 10000 1.5 240 23:20 12.08.2019
3761 Rain 14 1016 93 10000 1 0 22:40 12.08.2019
3762 Rain 14 1015 87 10000 2.6 160 22:20 12.08.2019
3763 Rain 14 1015 87 10000 2.6 160 21:56 12.08.2019
3764 Rain 14 1015 87 10000 2.6 160 21:38 12.08.2019
3765 Rain 15 1015 87 10000 2.1 230 21:19 12.08.2019
3766 Rain 15 1015 87 10000 2.6 270 20:57 12.08.2019
3767 Rain 16 1015 87 10000 2.6 270 20:38 12.08.2019
3768 Rain 16 1015 82 10000 4.1 280 20:20 12.08.2019
3769 Thunderstorm 16 1014 82 10000 3.6 310 19:56 12.08.2019
3770 Clouds 17 1014 82 10000 3.6 310 19:37 12.08.2019
3771 Drizzle 17 1014 87 10000 4.6 300 19:19 12.08.2019
3772 Rain 18 1014 67 10000 8.2 290 18:55 12.08.2019
3773 Rain 18 1014 67 10000 8.2 290 18:37 12.08.2019
3774 Rain 19 1014 67 10000 8.2 290 18:37 12.08.2019
3775 Clear 21 1013 46 10000 3.1 210 18:19 12.08.2019
3776 Rain 22 1013 43 10000 4.6 220 17:46 12.08.2019
3777 Rain 22 1013 40 10000 5.7 210 17:28 12.08.2019
3778 Clear 22 1014 43 10000 5.7 220 16:57 12.08.2019
3779 Clear 22 1014 43 10000 5.7 220 16:39 12.08.2019
3780 Rain 22 1014 46 10000 5.1 190 16:20 12.08.2019
3781 Clear 23 1014 43 10000 4.6 190 15:58 12.08.2019
3782 -273 0 0 0 0 0 15:39 12.08.2019
3783 -273 0 0 0 0 0 15:39 12.08.2019
3784 Clear 22 1015 49 10000 5.1 190 15:20 12.08.2019
3785 Clear 22 1015 46 10000 5.7 170 14:55 12.08.2019
3786 Clear 23 1015 46 10000 5.7 170 14:37 12.08.2019
3787 Clear 23 1015 46 10000 5.7 170 14:37 12.08.2019
3788 Clouds 22 1015 49 10000 4.6 170 14:18 12.08.2019
3789 Clouds 22 1016 52 10000 2.1 0 13:42 12.08.2019
3790 Clouds 22 1016 52 10000 2.6 200 13:23 12.08.2019
3791 Clouds 22 1016 52 10000 4.1 210 12:44 12.08.2019
3792 Clouds 21 1016 49 10000 3.1 0 12:22 12.08.2019
3793 Clouds 21 1016 56 10000 2.1 250 11:56 12.08.2019
3794 Clouds 20 1016 56 10000 2.1 250 11:38 12.08.2019
3795 Clouds 20 1016 59 10000 2.6 0 11:19 12.08.2019
3796 Clouds 20 1016 63 10000 4.1 130 10:41 12.08.2019
3797 Clouds 19 1016 63 10000 1.5 0 10:23 12.08.2019
3798 Clear 19 1016 67 10000 2.6 220 09:56 12.08.2019
3799 Clear 18 1016 67 10000 2.6 220 09:37 12.08.2019
3800 Clear 17 1016 63 10000 2.6 220 09:18 12.08.2019
3801 Clear 16 1016 77 10000 2.1 130 08:42 12.08.2019
3802 Clear 15 1017 87 10000 2.6 130 08:24 12.08.2019
3803 Clear 15 1016 82 10000 1 0 07:57 12.08.2019
3804 Clear 14 1016 82 10000 1 0 07:39 12.08.2019
3805 Clear 13 1016 76 10000 5.1 200 07:19 12.08.2019
3806 Clear 13 1015 71 10000 4.6 200 06:42 12.08.2019
3807 Clear 14 1015 76 10000 3.1 240 04:40 12.08.2019
3808 Clouds 16 1016 82 10000 2.1 210 02:43 12.08.2019
3809 Clouds 16 1016 77 10000 2.6 190 01:52 12.08.2019
3810 Clear 16 1015 71 10000 3.6 220 01:20 12.08.2019
3811 Clouds 16 1015 77 10000 3.1 210 00:56 12.08.2019
3812 Clear 16 1015 59 10000 4.1 200 00:37 12.08.2019
3813 Clear 16 1015 63 10000 3.1 200 00:18 12.08.2019
3814 Clear 16 1015 63 10000 3.1 200 00:18 12.08.2019
3815 Clouds 17 1015 67 10000 2.1 150 23:41 11.08.2019
3816 Clear 17 1015 59 10000 2.1 230 23:20 11.08.2019
3817 Clear 17 1015 59 10000 1 0 22:58 11.08.2019
3818 Clear 17 1015 59 10000 1 0 22:39 11.08.2019
3819 Clear 18 1015 55 10000 3.1 230 22:19 11.08.2019
3820 Clear 18 1014 55 10000 1.5 210 21:58 11.08.2019
3821 Clear 18 1014 55 10000 1.5 210 21:39 11.08.2019
3822 Clear 18 1014 55 10000 3.1 230 21:19 11.08.2019
3823 Clear 19 1014 59 10000 3.1 250 20:45 11.08.2019
3824 Rain 20 1014 59 10000 3.1 250 20:24 11.08.2019
3825 Rain 20 1014 59 10000 3.6 220 19:57 11.08.2019
3826 Rain 21 1014 59 10000 3.6 220 19:39 11.08.2019
3827 Drizzle 22 1014 37 10000 4.1 210 19:18 11.08.2019
3828 Clouds 22 1013 33 10000 3.1 240 18:41 11.08.2019
3829 Clear 23 1014 37 10000 4.6 240 18:20 11.08.2019
3830 Clear 23 1014 35 10000 4.1 250 17:56 11.08.2019
3831 Clear 24 1014 35 10000 4.1 250 17:38 11.08.2019
3832 Clear 24 1013 35 10000 3.6 240 17:20 11.08.2019
3833 Clear 24 1013 36 10000 5.1 240 16:55 11.08.2019
3834 Clear 25 1013 36 10000 5.1 240 16:37 11.08.2019
3835 Clear 25 1013 33 10000 5.1 240 16:18 11.08.2019
3836 Clear 25 1013 33 10000 5.1 240 16:18 11.08.2019
3837 Clear 25 1014 31 10000 5.7 220 15:42 11.08.2019
3838 Clear 25 1014 36 10000 4.6 220 15:23 11.08.2019
3839 Clear 25 1014 38 10000 4.1 200 14:56 11.08.2019
3840 Clear 25 1014 38 10000 4.1 200 14:38 11.08.2019
3841 Clear 25 1015 38 10000 5.7 230 14:19 11.08.2019
3842 Clear 25 1015 40 10000 4.1 230 13:43 11.08.2019
3843 Clear 25 1015 40 10000 5.7 250 13:24 11.08.2019
3844 Clear 24 1016 40 10000 6.2 240 12:48 11.08.2019
3845 Clear 23 1016 40 10000 7.2 250 12:23 11.08.2019
3846 Clouds 23 1016 43 10000 6.2 240 11:54 11.08.2019
3847 Clouds 22 1016 43 10000 6.2 240 11:36 11.08.2019
3848 Clouds 22 1016 46 10000 4.6 240 11:18 11.08.2019
3849 Clouds 22 1016 46 10000 5.1 220 10:41 11.08.2019
3850 Clear 21 1016 52 10000 4.1 230 10:22 11.08.2019
3851 Clear 21 1016 52 10000 3.6 230 09:58 11.08.2019
3852 Clear 20 1016 52 10000 3.6 230 09:38 11.08.2019
3853 Clear 19 1016 59 10000 3.1 240 09:19 11.08.2019
3854 Clear 18 1016 59 10000 1.5 230 08:44 11.08.2019
3855 Clear 16 1016 63 10000 3.1 230 08:25 11.08.2019
3856 Clear 16 1016 72 10000 1 0 07:54 11.08.2019
3857 Clear 14 1016 67 10000 4.1 190 07:22 11.08.2019
3858 Clear 14 1016 67 10000 4.1 190 06:41 11.08.2019
3859 Clear 15 1016 67 10000 3.6 230 05:34 11.08.2019
3860 Clear 15 1015 59 10000 4.6 210 03:36 11.08.2019
3861 Clear 16 1016 67 10000 0.5 0 02:46 11.08.2019
3862 Clear 17 1015 55 10000 5.7 190 01:36 11.08.2019
3863 Clear 18 1016 72 10000 3.1 180 00:59 11.08.2019
3864 Clear 18 1015 52 10000 4.6 190 00:41 11.08.2019
3865 Clear 18 1015 52 10000 4.6 190 00:23 11.08.2019
3866 Clouds 18 1016 72 10000 2.6 200 23:43 10.08.2019
3867 Clouds 18 1016 72 10000 2.6 200 23:43 10.08.2019
3868 Clear 18 1015 63 10000 3.1 210 23:23 10.08.2019
3869 Clear 18 1015 59 10000 2.6 210 22:43 10.08.2019
3870 Clear 18 1015 59 10000 2.6 210 22:43 10.08.2019
3871 Clear 20 1015 55 10000 2.6 230 22:24 10.08.2019
3872 Clear 20 1015 46 10000 5.1 260 21:58 10.08.2019
3873 Clear 20 1015 46 10000 5.1 260 21:38 10.08.2019
3874 Clear 21 1014 46 10000 6.2 240 21:19 10.08.2019
3875 Clear 22 1014 46 10000 4.6 230 20:56 10.08.2019
3876 Clear 22 1014 46 10000 4.6 230 20:37 10.08.2019
3877 Clear 22 1013 49 10000 6.2 240 20:18 10.08.2019
3878 Clear 22 1013 46 10000 6.2 230 19:39 10.08.2019
3879 Clear 23 1013 46 10000 7.2 220 19:20 10.08.2019
3880 Clear 24 1013 44 10000 7.2 220 18:40 10.08.2019
3881 Clear 24 1013 44 10000 7.2 220 18:40 10.08.2019
3882 Clear 24 1013 49 10000 7.2 220 18:22 10.08.2019
3883 Clear 24 1013 47 10000 5.7 220 17:45 10.08.2019
3884 Clouds 24 1013 50 10000 6.2 230 17:25 10.08.2019
3885 Clouds 25 1013 50 10000 7.2 220 16:47 10.08.2019
3886 Clouds 24 1013 49 10000 7.2 220 16:28 10.08.2019
3887 Clouds 24 1013 56 10000 6.2 220 15:56 10.08.2019
3888 Clouds 24 1012 53 10000 6.7 220 15:26 10.08.2019
3889 Clouds 23 1012 56 10000 7.7 230 14:45 10.08.2019
3890 Clouds 23 1012 56 10000 8.2 210 14:23 10.08.2019
3891 Clouds 23 1012 56 10000 8.2 210 14:23 10.08.2019
3892 Clouds 23 1012 56 10000 7.2 220 13:59 10.08.2019
3893 Clouds 23 1012 56 10000 7.2 220 13:39 10.08.2019
3894 Clouds 23 1012 60 10000 6.2 230 13:18 10.08.2019
3895 Clouds 23 1012 60 10000 7.2 230 12:42 10.08.2019
3896 Clouds 23 1012 64 10000 6.2 230 12:22 10.08.2019
3897 Clouds 22 1012 60 10000 7.7 230 11:57 10.08.2019
3898 Clouds 22 1012 60 10000 7.7 230 11:38 10.08.2019
3899 Clouds 22 1012 64 10000 6.2 220 11:20 10.08.2019
3900 Clouds 21 1011 68 10000 7.7 230 10:39 10.08.2019
3901 Clouds 21 1011 72 10000 5.7 230 10:20 10.08.2019
3902 Clouds 21 1011 72 10000 5.7 230 10:20 10.08.2019
3903 Clouds 21 1011 72 10000 5.1 220 09:44 10.08.2019
3904 Clouds 20 1011 72 10000 5.7 230 09:25 10.08.2019
3905 Clouds 20 1010 77 10000 5.7 220 08:59 10.08.2019
3906 Clouds 20 1010 77 10000 5.7 220 08:38 10.08.2019
3907 Clouds 20 1010 82 10000 5.1 230 08:19 10.08.2019
3908 Clouds 19 1010 82 10000 3.6 210 07:48 10.08.2019
3909 Clear 19 1009 77 10000 5.1 200 07:26 10.08.2019
3910 Clouds 19 1010 88 10000 4.1 240 06:47 10.08.2019
3911 Clouds 19 1010 88 9000 5.7 230 06:18 10.08.2019
3912 Clouds 19 1009 93 10000 3.1 0 05:22 10.08.2019
3913 Clouds 19 1008 82 10000 4.6 220 04:18 10.08.2019
3914 Clouds 19 1009 94 10000 2.6 90 02:52 10.08.2019
3915 Clouds 19 1009 94 10000 1.5 140 01:57 10.08.2019
3916 Clear 19 1007 77 10000 6.7 180 01:38 10.08.2019
3917 Clear 19 1007 77 10000 5.7 170 01:19 10.08.2019
3918 Rain 20 1008 77 10000 5.1 170 00:43 10.08.2019
3919 Rain 19 1009 94 10000 2.1 150 00:21 10.08.2019
3920 Rain 20 1010 94 6000 1 120 23:42 09.08.2019
3921 Rain 20 1009 100 10000 5.1 130 23:22 09.08.2019
3922 Rain 20 1009 100 10000 5.1 130 22:56 09.08.2019
3923 Rain 20 1009 100 10000 5.1 130 22:38 09.08.2019
3924 Rain 20 1008 100 10000 5.1 100 22:19 09.08.2019
3925 Rain 20 1010 100 10000 1.5 130 21:41 09.08.2019
3926 Rain 20 1010 100 7000 4.1 230 21:23 09.08.2019
3927 Rain 21 1009 94 10000 0.5 0 20:58 09.08.2019
3928 Rain 22 1009 94 10000 0.5 0 20:40 09.08.2019
3929 Rain 22 1009 94 10000 2.6 250 20:20 09.08.2019
3930 Rain 23 1009 78 10000 2.1 210 19:56 09.08.2019
3931 Rain 23 1009 78 10000 2.1 210 19:37 09.08.2019
3932 Rain 24 1008 73 10000 3.1 160 19:18 09.08.2019
3933 Rain 24 1008 73 10000 2.6 120 18:39 09.08.2019
3934 Clouds 25 1009 69 10000 1 70 18:21 09.08.2019
3935 Rain 25 1009 69 10000 1 0 17:46 09.08.2019
3936 Rain 26 1009 69 10000 2.6 120 17:26 09.08.2019
3937 Rain 26 1009 64 10000 3.1 130 16:59 09.08.2019
3938 Rain 26 1009 64 10000 3.1 130 16:39 09.08.2019
3939 Rain 26 1010 53 10000 4.6 150 16:20 09.08.2019
3940 Rain 26 1010 47 10000 5.1 160 15:56 09.08.2019
3941 Rain 27 1010 47 10000 5.1 160 15:37 09.08.2019
3942 Clear 27 1010 50 10000 4.6 150 15:18 09.08.2019
3943 Clear 27 1010 50 10000 4.1 140 14:44 09.08.2019
3944 Clear 27 1010 50 10000 4.6 140 14:22 09.08.2019
3945 Clear 27 1011 47 10000 5.1 140 13:56 09.08.2019
3946 Clear 27 1011 47 10000 5.1 140 13:38 09.08.2019
3947 Clouds 27 1010 50 10000 2.1 140 13:19 09.08.2019
3948 Clear 26 1011 53 10000 5.1 160 12:44 09.08.2019
3949 Clear 23 1011 60 10000 4.1 150 12:23 09.08.2019
3950 Clear 23 1012 64 10000 4.1 140 11:42 09.08.2019
3951 Clear 22 1012 64 10000 4.1 140 11:22 09.08.2019
3952 Clear 23 1011 68 10000 4.1 130 10:59 09.08.2019
3953 Clear 22 1011 68 10000 4.1 130 10:39 09.08.2019
3954 Clear 21 1011 68 10000 3.6 120 10:21 09.08.2019
3955 Clear 20 1012 68 10000 4.1 140 09:43 09.08.2019
3956 Clear 19 1012 77 10000 3.6 120 09:20 09.08.2019
3957 Clear 19 1012 82 10000 3.6 90 08:55 09.08.2019
3958 Clear 18 1012 82 10000 3.6 90 08:37 09.08.2019
3959 Clear 17 1012 82 10000 2.6 130 08:18 09.08.2019
3960 Clear 16 1012 82 10000 1.5 120 07:43 09.08.2019
3961 Clear 15 1012 72 10000 3.6 140 07:21 09.08.2019
3962 Clouds 14 1013 93 10000 1.5 310 06:52 09.08.2019
3963 Clear 14 1012 77 10000 3.1 140 06:27 09.08.2019
3964 Clouds 13 1013 93 10000 1 0 05:46 09.08.2019
3965 Clear 15 1013 77 10000 2.6 150 02:33 09.08.2019
3966 Clear 15 1013 82 10000 1 0 01:41 09.08.2019
3967 Clear 16 1013 72 10000 3.1 190 00:44 09.08.2019
3968 Clear 16 1013 72 10000 3.6 200 00:25 09.08.2019
3969 Clouds 16 1013 77 10000 1.5 290 23:59 08.08.2019
3970 Clear 17 1013 72 10000 3.6 190 23:38 08.08.2019
3971 Clear 17 1013 72 10000 3.1 190 23:19 08.08.2019
3972 Clouds 17 1013 72 10000 1.5 280 22:57 08.08.2019
3973 Clear 17 1013 63 10000 3.1 190 22:36 08.08.2019
3974 Clear 18 1013 63 10000 3.1 260 22:18 08.08.2019
3975 Clear 19 1013 63 10000 3.1 260 21:43 08.08.2019
3976 Clear 20 1013 56 10000 3.1 260 21:24 08.08.2019
3977 Clear 21 1013 56 10000 3.1 260 20:59 08.08.2019
3978 Clear 21 1013 56 10000 3.1 260 20:41 08.08.2019
3979 Clear 22 1012 56 10000 4.6 260 20:20 08.08.2019
3980 Clear 22 1012 53 10000 6.7 260 19:56 08.08.2019
3981 Clear 22 1012 53 10000 6.7 260 19:36 08.08.2019
3982 Clear 22 1012 53 10000 7.2 260 19:18 08.08.2019
3983 Clear 23 1012 53 10000 6.2 250 18:41 08.08.2019
3984 Clear 23 1012 52 10000 7.7 250 18:19 08.08.2019
3985 Clear 22 1012 46 10000 5.7 260 17:42 08.08.2019
3986 Clouds 22 1013 49 10000 4.1 250 17:24 08.08.2019
3987 Clear 23 1012 38 10000 6.7 260 16:59 08.08.2019
3988 Clear 24 1012 38 10000 6.7 260 16:41 08.08.2019
3989 Clear 23 1012 38 10000 6.2 280 16:23 08.08.2019
3990 Clear 24 1012 38 10000 7.2 290 15:57 08.08.2019
3991 Clear 24 1012 38 10000 7.2 290 15:38 08.08.2019
3992 Clear 24 1012 38 10000 7.2 280 15:20 08.08.2019
3993 Clear 24 1012 40 10000 6.7 280 14:38 08.08.2019
3994 Clouds 24 1012 40 10000 6.7 280 14:19 08.08.2019
3995 Clear 24 1012 40 10000 6.7 240 13:43 08.08.2019
3996 Clear 24 1012 46 10000 5.7 290 13:24 08.08.2019
3997 Clouds 24 1012 46 10000 5.7 240 12:58 08.08.2019
3998 Clouds 23 1012 46 10000 5.7 240 12:38 08.08.2019
3999 Clouds 23 1012 49 10000 5.7 220 12:18 08.08.2019
4000 Clouds 21 1012 52 10000 5.7 240 11:43 08.08.2019
4001 Clouds 21 1012 52 10000 6.2 260 11:24 08.08.2019
4002 Clouds 20 1012 56 10000 5.1 250 10:42 08.08.2019
4003 Clouds 20 1011 59 10000 5.7 220 10:22 08.08.2019
4004 Clear 19 1012 68 10000 5.1 220 09:58 08.08.2019
4005 Clear 19 1012 68 10000 5.1 220 09:39 08.08.2019
4006 Clear 18 1012 68 10000 3.6 220 09:20 08.08.2019
4007 Clear 17 1011 72 10000 4.1 230 08:40 08.08.2019
4008 Clear 17 1011 77 10000 1 0 08:21 08.08.2019
4009 Clear 16 1011 82 10000 1 0 07:42 08.08.2019
4010 Clear 15 1011 87 10000 3.6 210 07:21 08.08.2019
4011 Clear 14 1011 87 10000 3.6 210 06:59 08.08.2019
4012 Fog 14 1011 87 10000 3.6 210 06:41 08.08.2019
4013 Fog 13 1011 93 6000 2.6 170 05:55 08.08.2019
4014 Clear 14 1011 93 10000 1.5 130 05:28 08.08.2019
4015 Clouds 14 1011 87 10000 3.1 130 03:57 08.08.2019
4016 Clear 14 1010 72 10000 4.1 190 03:35 08.08.2019
4017 Clear 15 1010 72 10000 4.1 190 01:41 08.08.2019
4018 Clouds 16 1010 82 10000 1.5 0 00:46 08.08.2019
4019 Clouds 16 1010 87 10000 2.1 240 00:20 08.08.2019
4020 Clear 18 1009 68 10000 2.1 230 23:23 07.08.2019
4021 Clouds 17 1009 72 10000 3.6 220 22:59 07.08.2019
4022 Clouds 18 1009 72 10000 3.6 220 22:41 07.08.2019
4023 Rain 18 1009 68 10000 5.1 220 22:21 07.08.2019
4024 Rain 18 1009 68 10000 3.1 220 21:57 07.08.2019
4025 Rain 19 1009 68 10000 3.1 220 21:39 07.08.2019
4026 Clear 19 1008 59 10000 2.1 210 21:20 07.08.2019
4027 Clear 20 1008 56 10000 2.1 230 20:57 07.08.2019
4028 Clear 21 1008 56 10000 2.1 230 20:38 07.08.2019
4029 Clear 21 1008 52 10000 3.1 250 20:19 07.08.2019
4030 Clear 21 1008 52 10000 3.1 250 20:19 07.08.2019
4031 Clear 21 1008 52 10000 3.1 250 20:19 07.08.2019
4032 Clear 21 1008 49 10000 3.6 260 19:55 07.08.2019
4033 Clear 21 1008 49 10000 3.6 260 19:36 07.08.2019
4034 Clear 22 1008 53 10000 3.6 260 19:18 07.08.2019
4035 Clear 22 1008 53 10000 3.1 250 18:40 07.08.2019
4036 Clear 22 1008 49 10000 4.1 270 18:19 07.08.2019
4037 Clear 22 1008 49 10000 5.1 280 17:55 07.08.2019
4038 Clear 23 1008 49 10000 5.1 280 17:37 07.08.2019
4039 Clear 23 1008 49 10000 4.6 270 17:18 07.08.2019
4040 Clear 23 1008 49 10000 4.6 270 17:18 07.08.2019
4041 Clear 23 1008 49 10000 5.1 280 16:55 07.08.2019
4042 Clear 23 1008 49 10000 5.1 280 16:37 07.08.2019
4043 Clear 23 1008 46 10000 5.1 270 16:18 07.08.2019
4044 Clear 23 1008 49 10000 5.7 280 15:42 07.08.2019
4045 Clear 23 1007 46 10000 7.2 280 15:20 07.08.2019
4046 Clouds 23 1007 43 10000 5.1 270 14:49 07.08.2019
4047 Clouds 23 1007 49 10000 4.6 280 14:30 07.08.2019
4048 Clouds 23 1007 49 10000 4.1 260 13:58 07.08.2019
4049 Clouds 23 1007 49 10000 4.1 260 13:39 07.08.2019
4050 Clouds 23 1007 56 10000 4.6 240 13:19 07.08.2019
4051 Clouds 23 1008 56 10000 3.6 250 12:56 07.08.2019
4052 Clouds 22 1008 56 10000 3.6 250 12:38 07.08.2019
4053 Clouds 21 1008 60 10000 5.1 240 12:19 07.08.2019
4054 Clouds 21 1008 64 10000 3.1 230 11:55 07.08.2019
4055 Clouds 21 1008 64 10000 3.1 230 11:36 07.08.2019
4056 Clouds 20 1008 68 10000 3.6 250 11:18 07.08.2019
4057 Clouds 20 1008 77 10000 2.6 250 10:40 07.08.2019
4058 Clouds 20 1008 72 10000 3.1 260 10:19 07.08.2019
4059 Clouds 19 1007 72 10000 2.1 230 09:46 07.08.2019
4060 Clear 18 1008 77 10000 1.5 230 09:24 07.08.2019
4061 Clear 18 1008 82 10000 2.1 230 08:59 07.08.2019
4062 Clear 18 1008 82 10000 2.1 230 08:41 07.08.2019
4063 Clouds 18 1008 82 10000 2.6 230 08:23 07.08.2019
4064 Clouds 18 1008 88 10000 1 0 07:45 07.08.2019
4065 Clear 18 1008 88 10000 2.1 190 07:26 07.08.2019
4066 Clear 17 1008 88 10000 2.1 190 06:41 07.08.2019
4067 Clear 17 1008 88 10000 2.1 170 06:20 07.08.2019
4068 Clear 17 1008 88 10000 2.1 190 05:40 07.08.2019
4069 Clear 18 1008 82 10000 3.6 190 03:26 07.08.2019
4070 Clouds 18 1009 88 10000 3.1 190 02:51 07.08.2019
4071 Clear 18 1008 77 10000 3.6 200 02:30 07.08.2019
4072 Clouds 18 1009 88 10000 2.6 200 01:48 07.08.2019
4073 Clouds 19 1009 88 10000 2.6 170 00:53 07.08.2019
4074 Clouds 19 1008 64 10000 2.6 180 00:23 07.08.2019
4075 Clouds 19 1009 88 10000 1 0 23:47 06.08.2019
4076 Clear 19 1009 68 10000 3.6 230 23:23 06.08.2019
4077 Clear 19 1009 68 10000 3.6 230 22:59 06.08.2019
4078 Clear 19 1009 68 10000 3.6 230 22:40 06.08.2019
4079 Clear 19 1009 72 10000 2.1 260 22:20 06.08.2019
4080 Clear 20 1009 68 10000 2.1 210 21:44 06.08.2019
4081 Clear 21 1009 68 10000 3.1 210 21:26 06.08.2019
4082 Clouds 22 1009 64 10000 4.1 210 20:59 06.08.2019
4083 Clouds 22 1009 64 10000 4.1 210 20:41 06.08.2019
4084 Clouds 22 1009 64 10000 3.6 200 20:23 06.08.2019
4085 Clear 22 1009 53 10000 3.1 240 19:48 06.08.2019
4086 Clouds 23 1009 53 10000 2.1 260 19:29 06.08.2019
4087 Clouds 23 1009 47 10000 3.6 280 18:56 06.08.2019
4088 Clouds 23 1009 47 10000 3.6 280 18:37 06.08.2019
4089 Clouds 24 1009 50 10000 4.1 240 18:18 06.08.2019
4090 Clouds 23 1010 53 10000 4.1 250 17:56 06.08.2019
4091 Clouds 23 1010 53 10000 4.1 250 17:56 06.08.2019
4092 Clouds 24 1010 53 10000 4.1 250 17:36 06.08.2019
4093 Clouds 24 1010 60 10000 5.7 200 17:18 06.08.2019
4094 Clouds 24 1010 50 10000 4.6 230 16:42 06.08.2019
4095 Clouds 24 1010 53 10000 5.1 240 16:24 06.08.2019
4096 Clouds 24 1010 53 10000 4.6 290 15:57 06.08.2019
4097 Clouds 24 1010 53 10000 4.6 290 15:39 06.08.2019
4098 Clouds 24 1010 53 10000 4.6 290 15:39 06.08.2019
4099 Clouds 24 1011 57 10000 3.1 0 15:20 06.08.2019
4100 Clouds 24 1011 56 10000 3.6 280 14:45 06.08.2019
4101 Clouds 24 1011 60 10000 4.6 270 14:26 06.08.2019
4102 Clouds 24 1011 64 10000 3.6 260 13:58 06.08.2019
4103 Clouds 24 1011 64 10000 3.6 260 13:40 06.08.2019
4104 Clouds 23 1011 68 10000 2.6 310 13:21 06.08.2019
4105 Clouds 22 1012 68 10000 4.1 320 12:58 06.08.2019
4106 Clouds 22 1012 68 10000 4.1 320 12:39 06.08.2019
4107 Clouds 22 1012 68 10000 5.1 290 12:21 06.08.2019
4108 Clear 22 1011 64 10000 3.1 260 11:43 06.08.2019
4109 Clear 21 1011 64 10000 3.1 250 11:19 06.08.2019
4110 Rain 22 1011 64 10000 4.1 250 10:56 06.08.2019
4111 Rain 21 1011 64 10000 4.1 250 10:37 06.08.2019
4112 Rain 21 1011 60 10000 3.1 240 10:19 06.08.2019
4113 Rain 20 1011 64 10000 2.6 230 09:39 06.08.2019
4114 Rain 20 1011 64 10000 2.6 0 09:20 06.08.2019
4115 Clear 19 1011 77 10000 2.1 110 08:47 06.08.2019
4116 Clear 18 1011 77 10000 2.6 120 08:26 06.08.2019
4117 Clear 17 1011 82 10000 2.1 180 07:40 06.08.2019
4118 Clear 16 1010 68 10000 2.1 210 07:22 06.08.2019
4119 Clear 15 1010 63 10000 3.1 180 06:43 06.08.2019
4120 Clouds 15 1012 87 10000 2.01 184.932 05:55 06.08.2019
4121 Clouds 15 1011 87 10000 0.5 0 04:32 06.08.2019
4122 Clouds 17 1011 77 10000 2.1 310 01:55 06.08.2019
4123 Clear 17 1011 72 10000 2.1 200 01:24 06.08.2019
4124 Clear 18 1011 68 10000 1.5 200 00:30 06.08.2019
4125 Clouds 19 1011 72 10000 1.5 270 23:46 05.08.2019
4126 Clear 19 1011 64 10000 2.1 220 23:19 05.08.2019
4127 Clouds 19 1011 52 10000 0.5 30 22:41 05.08.2019
4128 Clear 20 1011 56 10000 2.6 280 22:23 05.08.2019
4129 Clear 20 1011 56 10000 2.6 280 21:55 05.08.2019
4130 Clear 21 1011 56 10000 2.6 280 21:36 05.08.2019
4131 Clear 22 1011 56 10000 2.6 300 21:18 05.08.2019
4132 Clear 23 1011 53 10000 3.1 280 20:55 05.08.2019
4133 Clear 23 1011 53 10000 3.1 280 20:37 05.08.2019
4134 Clear 24 1010 60 10000 2.6 270 20:18 05.08.2019
4135 Clear 24 1010 78 10000 0.5 0 19:40 05.08.2019
4136 Clear 25 1010 73 10000 1.5 140 19:22 05.08.2019
4137 Clouds 25 1010 73 10000 2.6 130 18:57 05.08.2019
4138 Clouds 25 1010 73 10000 2.6 130 18:57 05.08.2019
4139 Clouds 26 1010 73 10000 2.6 130 18:39 05.08.2019
4140 Clouds 26 1010 73 10000 2.6 160 18:18 05.08.2019
4141 Clear 26 1010 44 10000 5.7 270 17:41 05.08.2019
4142 Clear 26 1010 41 10000 5.7 250 17:22 05.08.2019
4143 Clear 26 1010 57 10000 2.1 180 16:45 05.08.2019
4144 Clear 27 1010 53 10000 3.1 220 16:24 05.08.2019
4145 Clear 26 1010 53 10000 4.1 170 15:44 05.08.2019
4146 Clear 25 1011 60 10000 4.1 130 15:21 05.08.2019
4147 -273 0 0 0 0 0 14:58 05.08.2019
4148 Clear 25 1011 64 10000 3.1 150 14:37 05.08.2019
4149 Rain 24 1011 73 10000 2.6 150 14:19 05.08.2019
4150 Clouds 24 1011 60 10000 2.1 170 13:40 05.08.2019
4151 Clear 23 1011 53 10000 4.1 210 13:20 05.08.2019
4152 Clear 23 1011 49 10000 4.6 210 12:44 05.08.2019
4153 Rain 22 1012 56 10000 3.1 210 12:20 05.08.2019
4154 Rain 21 1012 60 10000 4.1 190 11:45 05.08.2019
4155 Clear 21 1012 64 10000 2.6 160 11:26 05.08.2019
4156 Clear 20 1012 68 10000 3.6 140 10:50 05.08.2019
4157 Rain 20 1012 68 10000 3.6 140 10:32 05.08.2019
4158 Rain 19 1012 77 10000 2.6 110 09:57 05.08.2019
4159 Clear 18 1012 77 10000 2.6 110 09:39 05.08.2019
4160 Clear 18 1012 88 10000 2.1 130 09:20 05.08.2019
4161 Clear 17 1012 93 10000 2.1 70 08:44 05.08.2019
4162 Clear 17 1012 87 10000 2.6 40 08:25 05.08.2019
4163 Clear 17 1012 87 10000 3.1 110 07:49 05.08.2019
4164 Clear 17 1011 68 10000 2.6 100 07:30 05.08.2019
4165 Clouds 16 1012 87 10000 1 90 06:58 05.08.2019
4166 Clouds 16 1012 93 10000 0.5 230 06:24 05.08.2019
4167 Clear 16 1013 77 10000 1 0 05:33 05.08.2019
4168 Clouds 16 1013 87 10000 1 260 04:52 05.08.2019
4169 Clouds 17 1013 87 10000 0.5 350 03:52 05.08.2019
4170 Clouds 17 1014 87 10000 0.5 290 03:20 05.08.2019
4171 Clouds 17 1014 87 10000 1 280 02:21 05.08.2019
4172 Clear 17 1013 68 10000 3.1 130 01:25 05.08.2019
4173 Clear 17 1013 72 10000 3.1 130 00:40 05.08.2019
4174 Clear 18 1013 72 10000 3.6 130 00:20 05.08.2019
4175 Clear 17 1013 72 10000 3.6 130 00:20 05.08.2019
4176 Clouds 17 1014 82 10000 1 270 23:43 04.08.2019
4177 Clear 18 1014 72 10000 1.5 220 23:23 04.08.2019
4178 Clear 18 1014 72 10000 0.5 0 22:57 04.08.2019
4179 Clear 18 1014 72 10000 0.5 0 22:38 04.08.2019
4180 Clear 18 1015 68 10000 1 40 22:20 04.08.2019
4181 Clear 18 1014 68 10000 2.1 60 21:56 04.08.2019
4182 Clear 19 1014 68 10000 2.1 60 21:37 04.08.2019
4183 Clear 20 1014 60 10000 2.1 60 21:19 04.08.2019
4184 Clear 21 1014 53 10000 2.1 60 20:41 04.08.2019
4185 Clear 23 1014 53 10000 2.1 70 20:19 04.08.2019
4186 Clear 23 1015 47 10000 1 0 19:54 04.08.2019
4187 Clear 23 1015 47 10000 1 0 19:36 04.08.2019
4188 Clouds 24 1015 50 10000 1 0 19:18 04.08.2019
4189 Clouds 25 1015 47 10000 1.5 0 18:41 04.08.2019
4190 Clouds 25 1015 47 10000 1.5 0 18:20 04.08.2019
4191 Clouds 25 1015 49 10000 2.1 130 17:44 04.08.2019
4192 Clouds 25 1016 49 10000 1 0 17:24 04.08.2019
4193 Clouds 25 1016 49 10000 1.5 290 16:46 04.08.2019
4194 Clouds 25 1016 49 10000 1.5 0 16:27 04.08.2019
4195 Clouds 24 1016 53 10000 2.6 60 15:56 04.08.2019
4196 Clouds 25 1016 53 10000 2.6 60 15:37 04.08.2019
4197 Clouds 24 1016 53 10000 1 0 15:19 04.08.2019
4198 Clouds 23 1017 56 10000 2.1 0 14:42 04.08.2019
4199 Clouds 23 1017 56 10000 2.1 0 14:22 04.08.2019
4200 Clouds 23 1017 60 10000 3.1 330 13:44 04.08.2019
4201 Clouds 23 1017 56 10000 2.1 0 13:24 04.08.2019
4202 Clouds 23 1017 56 10000 2.1 0 13:24 04.08.2019
4203 Clouds 22 1018 68 10000 1.5 0 12:55 04.08.2019
4204 Clouds 21 1018 68 10000 1.5 0 12:37 04.08.2019
4205 Clouds 21 1018 68 10000 1.5 0 12:37 04.08.2019
4206 Clouds 21 1018 68 10000 1 0 12:19 04.08.2019
4207 Clouds 21 1018 68 10000 1.5 0 11:41 04.08.2019
4208 Clouds 21 1018 72 10000 1 0 11:22 04.08.2019
4209 Clouds 20 1018 77 10000 1 0 10:47 04.08.2019
4210 Clouds 19 1018 77 10000 1 0 10:22 04.08.2019
4211 Clouds 18 1018 82 10000 1 0 09:46 04.08.2019
4212 Clouds 17 1018 82 10000 0.5 0 09:25 04.08.2019
4213 Clouds 16 1018 87 10000 1.5 310 08:57 04.08.2019
4214 Clouds 15 1018 87 10000 1.5 310 08:33 04.08.2019
4215 Clear 15 1018 93 10000 0.5 0 07:54 04.08.2019
4216 Clouds 14 1018 93 10000 1 0 07:23 04.08.2019
4217 Fog 13 1018 93 10000 1 240 06:28 04.08.2019
4218 Fog 13 1018 93 10000 1 240 05:57 04.08.2019
4219 Clouds 14 1018 87 10000 1.5 240 03:34 04.08.2019
4220 Clouds 15 1018 82 10000 2.6 320 01:52 04.08.2019
4221 Clouds 15 1018 82 10000 1 0 01:32 04.08.2019
4222 Clouds 16 1018 82 10000 1.5 250 00:41 04.08.2019
4223 Clouds 16 1018 72 10000 1.5 250 00:23 04.08.2019
4224 Clouds 17 1017 82 10000 3.1 280 23:42 03.08.2019
4225 Clouds 17 1017 82 10000 3.1 280 23:19 03.08.2019
4226 Clouds 17 1017 77 10000 3.1 280 22:57 03.08.2019
4227 Clouds 17 1017 77 10000 3.1 280 22:38 03.08.2019
4228 Clouds 17 1017 77 10000 3.1 300 22:18 03.08.2019
4229 Clouds 18 1017 77 10000 3.1 310 21:39 03.08.2019
4230 Clouds 19 1017 72 10000 4.1 310 21:20 03.08.2019
4231 Clouds 20 1017 60 10000 5.7 310 20:43 03.08.2019
4232 Clouds 21 1016 60 10000 6.2 310 20:24 03.08.2019
4233 Clouds 21 1016 60 10000 6.2 320 19:43 03.08.2019
4234 Clouds 21 1016 60 10000 6.2 320 19:43 03.08.2019
4235 Clouds 22 1016 53 10000 6.2 310 19:25 03.08.2019
4236 Clouds 22 1016 53 10000 6.2 310 19:25 03.08.2019
4237 Clouds 22 1016 53 10000 6.7 310 18:56 03.08.2019
4238 Clouds 23 1016 53 10000 5.1 320 18:28 03.08.2019
4239 Clouds 23 1016 53 10000 5.1 330 17:51 03.08.2019
4240 Clouds 23 1016 64 10000 5.1 350 17:23 03.08.2019
4241 Clouds 22 1016 64 10000 5.1 350 16:58 03.08.2019
4242 Clouds 22 1016 64 10000 5.1 350 16:38 03.08.2019
4243 Clouds 22 1016 60 10000 4.1 300 16:19 03.08.2019
4244 Clouds 22 1017 72 10000 3.6 340 15:45 03.08.2019
4245 Clouds 22 1017 72 10000 3.6 340 15:45 03.08.2019
4246 Clouds 22 1017 68 10000 4.1 360 15:24 03.08.2019
4247 Rain 22 1017 82 10000 3.1 310 14:44 03.08.2019
4248 Rain 21 1017 88 9000 3.1 330 14:23 03.08.2019
4249 Rain 22 1017 77 10000 1.5 310 13:57 03.08.2019
4250 Rain 21 1017 77 10000 1.5 310 13:36 03.08.2019
4251 Rain 21 1017 82 8000 2.6 320 13:18 03.08.2019
4252 Clouds 21 1017 88 6000 1.5 350 12:40 03.08.2019
4253 Mist 20 1017 93 4000 2.6 350 12:22 03.08.2019
4254 Mist 19 1017 77 10000 3.1 10 11:49 03.08.2019
4255 Mist 18 1017 93 3500 3.6 330 11:28 03.08.2019
4256 Mist 19 1016 93 6000 3.6 330 10:46 03.08.2019
4257 Mist 18 1016 93 6000 3.6 320 10:24 03.08.2019
4258 Mist 17 1016 82 10000 4.1 360 09:45 03.08.2019
4259 Mist 17 1016 93 6000 2.6 310 09:23 03.08.2019
4260 Mist 16 1016 100 5000 2.6 330 08:55 03.08.2019
4261 Mist 15 1015 100 3500 2.6 310 08:18 03.08.2019
4262 Mist 15 1015 100 5000 2.1 300 07:37 03.08.2019
4263 Mist 14 1015 100 7000 1 0 06:40 03.08.2019
4264 Mist 14 1015 100 2000 2.1 320 05:44 03.08.2019
4265 Drizzle 15 1014 87 8000 0.5 40 02:42 03.08.2019
4266 Rain 15 1014 93 10000 2.1 310 01:50 03.08.2019
4267 Clouds 16 1014 93 10000 0.5 330 00:51 03.08.2019
4268 Clear 16 1014 87 10000 3.1 120 00:29 03.08.2019
4269 Rain 16 1014 87 10000 3.1 100 23:41 02.08.2019
4270 Rain 16 1014 93 10000 2.1 50 23:19 02.08.2019
4271 Rain 16 1014 93 10000 2.1 50 22:57 02.08.2019
4272 Rain 16 1014 93 9000 3.6 10 22:39 02.08.2019
4273 Rain 16 1015 93 2000 2.1 290 22:20 02.08.2019
4274 Rain 16 1014 82 10000 6.2 290 21:55 02.08.2019
4275 Rain 17 1014 82 10000 6.2 290 21:36 02.08.2019
4276 Thunderstorm 18 1014 93 8000 1 0 21:18 02.08.2019
4277 Rain 18 1014 88 8000 5.1 270 20:41 02.08.2019
4278 Rain 19 1014 56 9000 0.5 0 20:21 02.08.2019
4279 Thunderstorm 19 1013 53 10000 1.5 340 19:49 02.08.2019
4280 Thunderstorm 20 1014 53 10000 3.6 320 19:28 02.08.2019
4281 Thunderstorm 21 1014 77 5000 5.7 230 18:45 02.08.2019
4282 Thunderstorm 23 1013 49 10000 1 330 18:27 02.08.2019
4283 Thunderstorm 23 1013 49 10000 1.5 0 17:48 02.08.2019
4284 Clouds 23 1014 49 10000 2.1 0 17:26 02.08.2019
4285 Clouds 23 1014 56 10000 2.1 190 16:59 02.08.2019
4286 Clouds 23 1014 56 10000 2.1 190 16:39 02.08.2019
4287 Clouds 23 1014 46 10000 1 0 16:19 02.08.2019
4288 Clouds 24 1015 49 10000 2.6 340 15:44 02.08.2019
4289 Thunderstorm 23 1015 46 10000 1.5 200 15:20 02.08.2019
4290 Thunderstorm 24 1015 60 10000 4.1 170 14:47 02.08.2019
4291 Thunderstorm 23 1015 72 10000 3.6 180 14:19 02.08.2019
4292 Thunderstorm 24 1015 60 10000 4.6 230 13:50 02.08.2019
4293 Thunderstorm 23 1014 64 10000 2.1 120 13:28 02.08.2019
4294 Thunderstorm 23 1015 72 10000 4.1 190 12:47 02.08.2019
4295 Clouds 24 1015 50 10000 1 90 12:23 02.08.2019
4296 Clouds 23 1015 60 10000 1 0 11:56 02.08.2019
4297 Clouds 23 1015 60 10000 1 0 11:37 02.08.2019
4298 Clouds 22 1016 64 10000 3.1 350 11:18 02.08.2019
4299 Clouds 22 1016 64 10000 1.5 320 10:42 02.08.2019
4300 Clouds 21 1016 68 10000 1 0 10:23 02.08.2019
4301 Clouds 20 1016 68 10000 1 0 09:52 02.08.2019
4302 Clouds 18 1016 77 10000 1 0 09:28 02.08.2019
4303 Clouds 18 1016 77 10000 1.5 270 08:52 02.08.2019
4304 Clouds 17 1016 77 10000 1 290 08:23 02.08.2019
4305 Clouds 16 1016 82 10000 0.5 0 07:52 02.08.2019
4306 Clouds 15 1016 87 10000 1 0 07:32 02.08.2019
4307 Clouds 14 1016 82 10000 1.5 320 06:54 02.08.2019
4308 Clear 14 1016 87 10000 1 240 06:24 02.08.2019
4309 Clear 14 1016 87 10000 1 0 05:37 02.08.2019
4310 Clouds 15 1016 82 10000 1 0 03:31 02.08.2019
4311 Clouds 15 1016 77 10000 1 0 02:35 02.08.2019
4312 Clouds 16 1017 68 10000 1.5 310 00:47 02.08.2019
4313 Clear 17 1017 63 10000 1 0 00:18 02.08.2019
4314 Clear 18 1016 63 10000 2.6 260 23:43 01.08.2019
4315 Clear 18 1016 63 10000 2.6 260 23:19 01.08.2019
4316 Clear 17 1016 72 10000 2.1 230 22:40 01.08.2019
4317 Clear 18 1016 68 10000 1.5 230 22:21 01.08.2019
4318 Clear 19 1016 63 10000 1.5 230 21:44 01.08.2019
4319 Clear 20 1016 63 10000 1.5 310 21:24 01.08.2019
4320 Clear 21 1016 56 10000 1.5 320 20:59 01.08.2019
4321 Clear 22 1016 56 10000 1.5 320 20:40 01.08.2019
4322 Clear 21 1016 56 10000 2.6 320 20:21 01.08.2019
4323 Clear 22 1016 52 10000 3.1 320 19:42 01.08.2019
4324 Clear 23 1016 46 10000 3.1 240 19:20 01.08.2019
4325 Clear 23 1016 46 10000 3.6 310 18:46 01.08.2019
4326 Clear 23 1016 46 10000 3.6 300 18:25 01.08.2019
4327 Clear 23 1016 46 10000 3.1 340 17:56 01.08.2019
4328 Clear 23 1016 46 10000 3.1 340 17:38 01.08.2019
4329 Clouds 23 1016 40 10000 1.5 150 17:19 01.08.2019
4330 Clear 24 1017 40 10000 3.1 280 16:44 01.08.2019
4331 Clear 24 1017 43 10000 3.1 260 16:21 01.08.2019
4332 Clear 23 1017 46 10000 2.6 270 15:42 01.08.2019
4333 Clear 23 1017 43 10000 1.5 0 15:20 01.08.2019
4334 Clear 23 1017 46 10000 3.1 220 14:44 01.08.2019
4335 Clouds 23 1017 46 10000 2.6 250 14:21 01.08.2019
4336 Clouds 22 1017 46 10000 3.1 230 13:58 01.08.2019
4337 Clouds 22 1017 46 10000 3.1 230 13:40 01.08.2019
4338 Clouds 23 1017 46 10000 1.5 0 13:21 01.08.2019
4339 Clouds 22 1018 52 10000 2.6 240 12:49 01.08.2019
4340 Clouds 21 1018 52 10000 3.1 250 12:28 01.08.2019
4341 Clouds 22 1018 43 10000 3.6 240 11:55 01.08.2019
4342 Clouds 22 1017 52 10000 4.6 230 11:36 01.08.2019
4343 Clouds 21 1018 60 10000 3.1 160 11:18 01.08.2019
4344 Clouds 20 1018 63 10000 3.6 100 10:41 01.08.2019
4345 Clear 20 1018 63 10000 3.1 80 10:22 01.08.2019
4346 Clear 19 1018 72 10000 1.5 40 09:48 01.08.2019
4347 Clear 18 1018 72 10000 1.5 80 09:23 01.08.2019
4348 Clear 17 1018 93 10000 1.5 70 08:49 01.08.2019
4349 Clear 16 1018 87 10000 0.5 0 08:21 01.08.2019
4350 Clear 15 1018 93 10000 1 80 07:53 01.08.2019
4351 Clear 14 1018 72 10000 3.1 190 07:29 01.08.2019
4352 Clouds 13 1018 87 10000 0.5 0 06:58 01.08.2019
4353 Clear 13 1018 82 10000 3.1 210 06:36 01.08.2019
4354 Clear 13 1018 87 10000 1.5 200 05:32 01.08.2019
4355 Clear 14 1018 72 10000 2.6 200 02:36 01.08.2019
4356 Clear 15 1018 67 10000 1 0 01:25 01.08.2019
4357 Clear 15 1017 63 10000 3.1 210 00:27 01.08.2019
4358 Clouds 16 1017 72 10000 2.1 300 23:57 31.07.2019
4359 Clear 16 1017 63 10000 3.1 210 23:39 31.07.2019
4360 Clear 16 1017 63 10000 3.1 210 23:19 31.07.2019
4361 Clouds 16 1017 67 10000 1.5 260 22:44 31.07.2019
4362 Clear 17 1017 82 10000 3.1 320 22:24 31.07.2019
4363 Clear 17 1017 82 10000 3.1 320 22:24 31.07.2019
4364 Clouds 19 1017 77 10000 4.1 310 21:41 31.07.2019
4365 Rain 20 1016 72 10000 4.1 310 21:23 31.07.2019
4366 Rain 20 1016 68 10000 2.6 320 20:49 31.07.2019
4367 Clear 22 1016 52 10000 4.6 320 20:24 31.07.2019
4368 Clear 22 1016 56 10000 5.1 320 19:49 31.07.2019
4369 Rain 23 1015 56 10000 4.6 330 19:31 31.07.2019
4370 Rain 23 1015 49 10000 7.2 310 18:57 31.07.2019
4371 Rain 23 1015 49 10000 7.2 310 18:37 31.07.2019
4372 Rain 25 1015 41 10000 1.5 300 18:18 31.07.2019
4373 Clear 25 1015 46 10000 2.6 100 17:44 31.07.2019
4374 Clouds 25 1015 26 10000 6.7 220 17:20 31.07.2019
4375 Clear 25 1015 47 10000 4.1 10 16:52 31.07.2019
4376 Clouds 25 1015 46 10000 5.1 330 16:26 31.07.2019
4377 Clouds 25 1015 44 10000 2.1 0 15:55 31.07.2019
4378 Clouds 25 1015 44 10000 2.1 0 15:37 31.07.2019
4379 Clear 25 1015 38 10000 5.1 180 15:18 31.07.2019
4380 Clouds 25 1015 38 10000 3.6 250 14:42 31.07.2019
4381 Rain 24 1016 46 10000 1.5 0 14:19 31.07.2019
4382 Clouds 24 1016 56 10000 1.5 0 13:46 31.07.2019
4383 Clouds 24 1016 64 10000 3.1 130 13:28 31.07.2019
4384 Clouds 24 1016 56 10000 1 0 12:58 31.07.2019
4385 Clouds 23 1016 56 10000 1 0 12:40 31.07.2019
4386 Clouds 22 1016 60 10000 1.5 0 12:21 31.07.2019
4387 Clouds 22 1016 60 10000 2.1 280 11:39 31.07.2019
4388 Clouds 22 1016 60 10000 3.1 290 11:20 31.07.2019
4389 Clouds 22 1016 68 10000 1.5 270 10:45 31.07.2019
4390 Rain 21 1016 72 10000 1.5 310 10:21 31.07.2019
4391 Rain 20 1016 82 10000 1 0 09:58 31.07.2019
4392 Rain 19 1016 82 10000 1 0 09:39 31.07.2019
4393 Rain 20 1016 82 10000 1 0 09:39 31.07.2019
4394 Rain 19 1016 72 10000 2.1 300 09:21 31.07.2019
4395 Clouds 19 1016 72 10000 0.5 0 08:42 31.07.2019
4396 Clouds 18 1015 88 10000 0.5 0 08:22 31.07.2019
4397 Fog 17 1015 93 10000 1 0 07:40 31.07.2019
4398 Fog 17 1015 63 10000 2.6 240 07:22 31.07.2019
4399 Clouds 17 1014 100 10000 1.35 207.917 04:56 31.07.2019
4400 Clouds 18 1014 88 10000 1.5 40 03:29 31.07.2019
4401 Clear 20 1013 53 10000 2.1 240 00:24 31.07.2019
4402 Clouds 20 1013 64 10000 0.5 0 23:40 30.07.2019
4403 Clear 21 1013 49 10000 2.6 240 23:20 30.07.2019
4404 Clouds 21 1012 56 10000 1 0 22:46 30.07.2019
4405 Rain 21 1012 57 10000 1.5 220 22:25 30.07.2019
4406 Rain 22 1012 57 10000 1.5 220 21:57 30.07.2019
4407 Clear 23 1012 57 10000 1.5 220 21:36 30.07.2019
4408 Clear 24 1011 41 10000 1 350 21:18 30.07.2019
4409 Clear 26 1011 42 10000 1.5 340 20:43 30.07.2019
4410 Clear 27 1011 39 10000 1.5 310 20:24 30.07.2019
4411 Clear 27 1011 37 10000 2.1 280 19:59 30.07.2019
4412 Clear 28 1011 37 10000 2.1 280 19:39 30.07.2019
4413 Clear 29 1011 35 10000 2.6 280 18:58 30.07.2019
4414 Clear 29 1011 35 10000 2.6 280 18:39 30.07.2019
4415 Clear 29 1011 34 10000 3.6 280 18:19 30.07.2019
4416 Clear 29 1011 39 10000 3.1 280 17:42 30.07.2019
4417 Clear 29 1011 35 10000 1.5 0 17:19 30.07.2019
4418 Clear 29 1012 34 10000 3.6 260 16:52 30.07.2019
4419 Clear 29 1012 39 10000 2.6 290 16:21 30.07.2019
4420 Clear 28 1012 39 10000 2.1 280 15:58 30.07.2019
4421 Clear 29 1012 39 10000 2.1 280 15:38 30.07.2019
4422 Clear 29 1012 39 10000 3.1 290 15:19 30.07.2019
4423 Clear 28 1012 39 10000 1.5 0 14:42 30.07.2019
4424 Clouds 28 1012 41 10000 2.6 0 14:21 30.07.2019
4425 Clouds 28 1012 41 10000 2.6 0 14:21 30.07.2019
4426 Clouds 28 1012 39 10000 3.1 300 13:47 30.07.2019
4427 Clouds 27 1012 36 10000 2.6 310 13:29 30.07.2019
4428 Clouds 26 1013 44 10000 2.6 310 12:59 30.07.2019
4429 Clouds 26 1013 44 10000 2.6 310 12:59 30.07.2019
4430 Clouds 26 1013 44 10000 2.6 310 12:40 30.07.2019
4431 Clouds 26 1013 50 10000 2.6 220 12:22 30.07.2019
4432 Clouds 25 1013 53 10000 1.5 0 11:42 30.07.2019
4433 Clear 25 1013 64 10000 1 0 11:20 30.07.2019
4434 Clear 24 1013 69 10000 1 0 10:46 30.07.2019
4435 Clear 23 1013 69 9000 1.5 0 10:27 30.07.2019
4436 Clear 22 1013 73 10000 0.5 0 09:50 30.07.2019
4437 Clear 22 1013 73 10000 0.5 0 09:32 30.07.2019
4438 Clear 20 1013 82 9000 0.5 0 08:58 30.07.2019
4439 Clear 20 1013 82 9000 0.5 0 08:31 30.07.2019
4440 Mist 18 1013 88 9000 0.5 0 07:48 30.07.2019
4441 Fog 17 1013 93 4500 1 310 07:29 30.07.2019
4442 Fog 16 1013 100 9000 1.5 210 06:48 30.07.2019
4443 Fog 16 1013 93 9000 1.5 200 06:22 30.07.2019
4444 Mist 16 1013 93 9000 0.5 0 05:33 30.07.2019
4445 Clouds 17 1012 82 10000 1 0 03:28 30.07.2019
4446 Clear 17 1012 77 10000 0.5 0 01:21 30.07.2019
4447 Clear 18 1012 77 10000 0.99 340.885 00:22 30.07.2019
4448 Clouds 18 1012 82 10000 1 300 23:47 29.07.2019
4449 Clouds 19 1012 72 10000 2.1 200 23:27 29.07.2019
4450 Clouds 20 1012 77 10000 1 220 22:58 29.07.2019
4451 Clouds 20 1012 68 10000 2.1 230 22:39 29.07.2019
4452 Clouds 20 1012 73 10000 1.5 250 22:20 29.07.2019
4453 Clouds 20 1012 73 10000 1.5 250 21:59 29.07.2019
4454 Clouds 21 1012 73 10000 1.5 250 21:40 29.07.2019
4455 Clouds 22 1012 73 10000 1 0 21:21 29.07.2019
4456 Clear 22 1012 73 10000 2.1 290 20:49 29.07.2019
4457 Clouds 22 1011 68 10000 2.1 280 20:26 29.07.2019
4458 Clouds 22 1011 68 10000 2.6 300 19:59 29.07.2019
4459 Clouds 23 1011 68 10000 2.6 300 19:41 29.07.2019
4460 Clouds 23 1011 64 10000 2.6 280 19:20 29.07.2019
4461 Clouds 23 1012 68 10000 2.6 330 18:43 29.07.2019
4462 Clouds 23 1012 68 10000 3.1 340 18:22 29.07.2019
4463 Clouds 22 1012 68 10000 3.1 310 17:53 29.07.2019
4464 Clouds 22 1012 68 10000 3.1 310 17:35 29.07.2019
4465 Clouds 22 1012 64 10000 4.6 310 16:59 29.07.2019
4466 Clouds 22 1012 64 10000 4.6 310 16:40 29.07.2019
4467 Clouds 22 1012 68 10000 3.6 310 16:22 29.07.2019
4468 Clouds 22 1012 73 10000 3.1 320 15:52 29.07.2019
4469 Clouds 22 1012 73 10000 3.1 320 15:52 29.07.2019
4470 Clouds 22 1012 73 10000 3.1 320 15:52 29.07.2019
4471 Clouds 21 1012 72 10000 4.6 280 15:33 29.07.2019
4472 Clouds 22 1012 77 10000 4.6 290 14:56 29.07.2019
4473 Clouds 21 1012 77 10000 4.6 290 14:37 29.07.2019
4474 Clouds 21 1012 77 10000 4.6 310 14:19 29.07.2019
4475 Clouds 20 1012 82 10000 4.1 300 13:41 29.07.2019
4476 Rain 20 1012 88 10000 5.1 310 13:23 29.07.2019
4477 Rain 20 1012 88 9000 4.1 310 12:42 29.07.2019
4478 Rain 19 1012 93 9000 4.1 320 12:23 29.07.2019
4479 Clouds 19 1012 82 9000 4.6 320 11:44 29.07.2019
4480 Clouds 19 1012 82 10000 5.7 320 11:22 29.07.2019
4481 Clouds 19 1011 82 9000 6.2 310 10:46 29.07.2019
4482 Clouds 18 1011 88 8000 5.7 310 10:25 29.07.2019
4483 Clouds 18 1011 88 8000 5.7 300 09:50 29.07.2019
4484 Clouds 18 1011 88 8000 4.6 320 09:28 29.07.2019
4485 Clouds 18 1011 88 8000 4.1 310 08:57 29.07.2019
4486 Clouds 18 1011 88 8000 4.1 310 08:31 29.07.2019
4487 Mist 18 1010 93 8000 4.1 300 07:58 29.07.2019
4488 Mist 18 1010 93 8000 4.1 300 07:36 29.07.2019
4489 Mist 18 1009 88 10000 2.1 320 06:45 29.07.2019
4490 Rain 18 1009 88 10000 2.1 320 05:46 29.07.2019
4491 Rain 18 1009 88 10000 1.5 330 04:50 29.07.2019
4492 Drizzle 19 1009 88 9000 3.6 260 02:26 29.07.2019
4493 Rain 19 1009 88 9000 4.1 250 01:41 29.07.2019
4494 Rain 20 1009 88 9000 3.6 260 01:21 29.07.2019
4495 Rain 20 1009 88 9000 3.6 260 01:21 29.07.2019
4496 Rain 20 1008 88 9000 3.6 250 00:41 29.07.2019
4497 Rain 20 1007 82 6000 3.1 320 00:19 29.07.2019
4498 Rain 20 1007 82 6000 3.1 320 23:40 28.07.2019
4499 Rain 21 1007 77 6000 4.6 330 23:18 28.07.2019
4500 Rain 20 1006 77 7000 4.1 320 22:38 28.07.2019
4501 Rain 20 1006 77 7000 4.1 320 22:38 28.07.2019
4502 Rain 21 1005 77 8000 6.2 300 22:19 28.07.2019
4503 Rain 22 1005 73 9000 7.2 300 21:46 28.07.2019
4504 Clear 24 1005 69 10000 5.7 300 21:18 28.07.2019
4505 Clear 24 1004 61 10000 2.1 340 20:45 28.07.2019
4506 Clear 25 1004 61 10000 3.1 310 20:27 28.07.2019
4507 Clear 25 1004 57 10000 3.1 340 19:42 28.07.2019
4508 Clear 26 1003 57 10000 3.1 330 19:22 28.07.2019
4509 Clear 26 1003 57 10000 2.6 320 18:51 28.07.2019
4510 Clear 27 1003 57 10000 3.1 330 18:30 28.07.2019
4511 Clear 27 1003 54 10000 2.1 10 17:59 28.07.2019
4512 Clear 27 1003 54 10000 2.1 10 17:59 28.07.2019
4513 Clear 27 1003 54 10000 2.1 10 17:40 28.07.2019
4514 Clear 27 1003 54 10000 0.5 0 17:20 28.07.2019
4515 Clear 27 1002 54 10000 1.5 0 16:47 28.07.2019
4516 Clear 27 1002 57 10000 0.5 0 16:28 28.07.2019
4517 Clear 27 1002 53 10000 1.5 0 15:57 28.07.2019
4518 Clear 27 1002 53 10000 1.5 0 15:57 28.07.2019
4519 Clear 27 1002 53 10000 1.5 0 15:39 28.07.2019
4520 Clear 27 1002 54 10000 1.5 130 15:20 28.07.2019
4521 Clear 27 1002 57 10000 1 0 14:37 28.07.2019
4522 Clear 26 1002 60 10000 0.5 0 14:18 28.07.2019
4523 Clear 26 1002 60 10000 1 0 13:41 28.07.2019
4524 Clear 25 1002 60 10000 1 0 13:21 28.07.2019
4525 Clear 24 1002 68 10000 1.5 230 12:58 28.07.2019
4526 Clear 24 1002 68 10000 1.5 230 12:39 28.07.2019
4527 Clear 23 1002 64 10000 1 0 12:19 28.07.2019
4528 Clear 23 1002 68 10000 1 0 11:44 28.07.2019
4529 Clear 23 1002 68 10000 1 0 11:44 28.07.2019
4530 Rain 22 1001 68 10000 1.5 20 11:26 28.07.2019
4531 Rain 22 1001 68 10000 1.5 20 10:39 28.07.2019
4532 Rain 22 1001 68 10000 1.5 20 10:39 28.07.2019
4533 Rain 22 1001 72 10000 1.5 10 10:20 28.07.2019
4534 Rain 22 1001 64 10000 2.1 80 09:41 28.07.2019
4535 Rain 22 1001 64 10000 2.1 80 09:41 28.07.2019
4536 Rain 20 1001 64 10000 1.5 90 09:23 28.07.2019
4537 Rain 20 1001 68 10000 0.5 0 08:46 28.07.2019
4538 Thunderstorm 20 1001 72 10000 1 0 08:28 28.07.2019
4539 Thunderstorm 19 1001 68 10000 1 0 07:51 28.07.2019
4540 Thunderstorm 19 1000 63 10000 1.5 300 07:32 28.07.2019
4541 Clear 18 1001 72 10000 1.5 310 06:39 28.07.2019
4542 Clear 18 1001 72 10000 1 0 05:25 28.07.2019
4543 Clear 19 1001 56 10000 2.1 110 03:23 28.07.2019
4544 Clear 20 1001 52 10000 0.5 0 02:19 28.07.2019
4545 Clear 21 1001 59 10000 0.5 0 01:18 28.07.2019
4546 Clouds 21 1001 46 10000 1.5 20 00:44 28.07.2019
4547 Clear 22 1002 49 10000 1.5 40 23:56 27.07.2019
4548 Clear 23 1002 49 10000 1.5 40 23:38 27.07.2019
4549 Clear 23 1002 53 10000 2.1 30 23:18 27.07.2019
4550 Clear 23 1002 49 10000 2.6 30 22:40 27.07.2019
4551 Clear 23 1002 46 10000 2.6 30 22:18 27.07.2019
4552 Clear 25 1002 44 10000 2.6 50 21:39 27.07.2019
4553 Clear 25 1002 41 10000 2.6 60 21:20 27.07.2019
4554 Clear 26 1002 41 10000 3.6 70 20:50 27.07.2019
4555 Clear 26 1002 39 10000 3.1 70 20:23 27.07.2019
4556 Clear 27 1002 39 10000 3.6 70 19:43 27.07.2019
4557 Clear 27 1002 34 10000 5.1 70 19:25 27.07.2019
4558 Clear 28 1002 32 10000 5.7 70 18:51 27.07.2019
4559 Clear 28 1002 32 10000 5.7 70 18:32 27.07.2019
4560 Clear 29 1002 32 10000 5.7 80 17:52 27.07.2019
4561 Clear 29 1002 32 10000 5.7 80 17:33 27.07.2019
4562 Clear 30 1002 28 10000 5.1 80 16:59 27.07.2019
4563 Clear 30 1002 28 10000 5.1 80 16:39 27.07.2019
4564 Clear 30 1003 28 10000 5.7 90 16:20 27.07.2019
4565 Clear 30 1003 30 10000 6.7 80 15:46 27.07.2019
4566 Clear 30 1003 28 10000 5.7 70 15:20 27.07.2019
4567 Clear 30 1003 28 10000 6.2 80 14:49 27.07.2019
4568 Clear 30 1004 32 10000 6.2 90 14:31 27.07.2019
4569 Clear 30 1004 32 10000 6.7 80 13:52 27.07.2019
4570 Clear 29 1004 34 10000 6.2 90 13:25 27.07.2019
4571 Clear 29 1004 34 10000 7.7 90 12:57 27.07.2019
4572 Clear 28 1004 34 10000 7.7 90 12:37 27.07.2019
4573 Clear 28 1005 36 10000 7.2 120 12:19 27.07.2019
4574 Clear 28 1005 39 10000 6.7 90 11:41 27.07.2019
4575 Clear 27 1005 44 10000 6.2 100 11:23 27.07.2019
4576 Clear 26 1006 44 10000 6.2 100 10:41 27.07.2019
4577 Clear 26 1006 47 10000 5.1 90 10:23 27.07.2019
4578 Clear 25 1006 49 10000 5.1 90 09:42 27.07.2019
4579 Clear 24 1005 47 10000 4.6 110 09:23 27.07.2019
4580 Clear 23 1006 53 10000 4.1 100 08:50 27.07.2019
4581 Clear 22 1006 53 10000 4.1 100 08:32 27.07.2019
4582 Clear 21 1006 60 10000 3.1 120 07:56 27.07.2019
4583 Clear 21 1006 60 10000 3.1 120 07:56 27.07.2019
4584 Clear 21 1006 60 10000 3.1 120 07:34 27.07.2019
4585 Clouds 19 1005 72 10000 2.1 310 06:58 27.07.2019
4586 Clear 19 1005 56 10000 2.1 160 06:37 27.07.2019
4587 Clear 18 1005 59 10000 2.6 120 06:18 27.07.2019
4588 Clear 18 1006 77 10000 1 0 05:32 27.07.2019
4589 Clear 19 1005 52 10000 4.1 100 04:35 27.07.2019
4590 Clouds 19 1006 63 10000 1 360 03:37 27.07.2019
4591 Clear 21 1006 53 10000 4.1 80 02:42 27.07.2019
4592 Clouds 22 1007 49 10000 2.1 360 01:52 27.07.2019
4593 Clear 22 1008 49 10000 3.6 100 01:28 27.07.2019
4594 Clear 24 1008 49 10000 3.1 60 00:33 27.07.2019
4595 Clear 25 1008 44 10000 3.6 60 23:58 26.07.2019
4596 Clear 25 1008 44 10000 3.6 60 23:38 26.07.2019
4597 Clear 25 1008 47 10000 4.1 70 23:20 26.07.2019
4598 Clear 25 1009 44 10000 4.1 70 22:42 26.07.2019
4599 Clear 25 1009 44 10000 3.1 70 22:23 26.07.2019
4600 Clear 26 1009 39 10000 3.6 70 21:49 26.07.2019
4601 Clear 28 1008 39 10000 3.6 70 21:20 26.07.2019
4602 Clear 29 1008 39 10000 4.1 70 20:45 26.07.2019
4603 Clear 30 1009 35 10000 4.1 70 20:27 26.07.2019
4604 Clear 30 1009 35 10000 5.1 90 19:44 26.07.2019
4605 Clear 31 1009 31 10000 5.1 100 19:26 26.07.2019
4606 Clear 31 1009 27 10000 5.7 90 18:58 26.07.2019
4607 Clear 32 1009 27 10000 5.7 90 18:38 26.07.2019
4608 Clear 33 1009 27 10000 5.1 70 18:20 26.07.2019
4609 Clear 33 1009 29 10000 5.7 80 17:47 26.07.2019
4610 Clear 33 1010 27 10000 5.7 80 17:19 26.07.2019
4611 Clear 33 1010 27 10000 5.7 80 17:19 26.07.2019
4612 Clear 33 1010 27 10000 6.2 80 16:58 26.07.2019
4613 Clear 33 1010 27 10000 6.2 80 16:40 26.07.2019
4614 Clear 33 1010 26 10000 5.1 70 16:20 26.07.2019
4615 Clear 33 1011 27 10000 5.7 90 15:56 26.07.2019
4616 Clear 33 1011 27 10000 5.7 90 15:38 26.07.2019
4617 Clear 33 1011 33 10000 3.6 80 15:19 26.07.2019
4618 Clear 33 1011 33 10000 4.1 100 14:43 26.07.2019
4619 Clear 33 1012 33 10000 4.1 90 14:22 26.07.2019
4620 Clear 33 1012 35 10000 5.1 100 13:44 26.07.2019
4621 Clear 32 1012 35 10000 4.6 110 13:26 26.07.2019
4622 Clear 32 1012 38 10000 4.6 90 12:49 26.07.2019
4623 Clear 31 1013 40 10000 5.7 90 12:22 26.07.2019
4624 Clear 31 1013 37 10000 4.6 100 11:48 26.07.2019
4625 Clear 30 1013 39 10000 4.6 90 11:22 26.07.2019
4626 Clear 30 1013 42 10000 5.1 100 10:58 26.07.2019
4627 Clear 29 1013 42 10000 5.1 100 10:39 26.07.2019
4628 Clear 29 1013 42 10000 5.1 100 10:39 26.07.2019
4629 Clear 28 1013 44 10000 5.1 100 10:18 26.07.2019
4630 Clear 27 1014 44 10000 4.1 100 09:43 26.07.2019
4631 Clear 26 1014 50 10000 1.75 75.694 09:24 26.07.2019
4632 Clear 24 1014 57 10000 3.1 80 08:40 26.07.2019
4633 Clear 23 1014 50 10000 1.5 70 08:20 26.07.2019
4634 Clear 22 1014 60 10000 0.5 0 07:39 26.07.2019
4635 Clear 21 1013 44 10000 3.6 110 07:18 26.07.2019
4636 Clouds 20 1013 72 10000 2.1 310 05:44 26.07.2019
4637 Clear 20 1013 44 10000 3.1 130 04:30 26.07.2019
4638 Clouds 20 1014 68 10000 2.6 300 03:50 26.07.2019
4639 Clouds 22 1014 68 10000 2.6 290 01:45 26.07.2019
4640 Clear 23 1014 42 10000 2.1 120 01:18 26.07.2019
4641 Clear 25 1014 39 10000 2.6 110 00:28 26.07.2019
4642 Clear 25 1014 42 10000 2.6 110 23:40 25.07.2019
4643 Clear 26 1014 42 10000 2.6 110 23:19 25.07.2019
4644 Clear 25 1014 48 10000 2.6 100 22:41 25.07.2019
4645 Clear 26 1015 45 10000 2.1 30 22:21 25.07.2019
4646 Clear 27 1015 45 10000 2.1 30 21:47 25.07.2019
4647 Clear 30 1015 42 10000 1.5 10 21:23 25.07.2019
4648 Clear 31 1015 42 10000 1.5 360 20:51 25.07.2019
4649 Clear 32 1015 35 10000 1.5 360 20:33 25.07.2019
4650 Clear 33 1015 29 10000 2.1 20 19:57 25.07.2019
4651 Clear 33 1015 29 10000 2.1 20 19:39 25.07.2019
4652 Clear 34 1015 28 10000 2.1 40 19:21 25.07.2019
4653 Clear 35 1015 26 10000 3.1 30 18:41 25.07.2019
4654 Clear 36 1015 28 10000 3.1 40 18:22 25.07.2019
4655 Clear 36 1016 28 10000 2.6 40 17:48 25.07.2019
4656 Clouds 36 1014 23 10000 4.1 80 17:30 25.07.2019
4657 Clear 36 1016 25 10000 2.6 100 16:56 25.07.2019
4658 Clear 37 1016 25 10000 2.6 100 16:37 25.07.2019
4659 Clear 36 1016 28 10000 2.6 130 16:18 25.07.2019
4660 Clear 36 1016 26 10000 2.1 0 15:42 25.07.2019
4661 Clear 36 1017 28 10000 2.6 110 15:19 25.07.2019
4662 Clear 36 1017 30 10000 2.1 0 14:42 25.07.2019
4663 Clear 36 1017 30 10000 2.1 80 14:22 25.07.2019
4664 Clear 36 1017 30 10000 2.1 0 13:44 25.07.2019
4665 Clear 36 1017 32 10000 3.1 100 13:26 25.07.2019
4666 Clear 36 1017 32 10000 3.1 100 13:26 25.07.2019
4667 Clear 35 1017 33 10000 2.1 100 12:55 25.07.2019
4668 Clear 34 1017 31 10000 2.1 110 12:28 25.07.2019
4669 Clear 33 1018 38 10000 1.5 110 11:45 25.07.2019
4670 Clear 32 1018 42 10000 1.5 80 11:24 25.07.2019
4671 Clear 31 1018 45 10000 1.5 80 10:55 25.07.2019
4672 Clear 31 1018 45 10000 1.5 80 10:55 25.07.2019
4673 Clear 31 1018 45 10000 1.5 80 10:36 25.07.2019
4674 Clear 30 1018 45 10000 1.5 90 10:18 25.07.2019
4675 Clear 27 1018 54 10000 2.1 100 09:40 25.07.2019
4676 Clear 25 1018 64 10000 2.1 100 08:59 25.07.2019
4677 Clear 24 1018 64 10000 2.1 100 08:40 25.07.2019
4678 Clear 22 1018 77 10000 1 270 07:55 25.07.2019
4679 Clear 21 1017 73 10000 2.1 170 07:30 25.07.2019
4680 Clouds 20 1017 88 10000 1.5 290 06:42 25.07.2019
4681 Clear 20 1016 73 10000 1 0 06:42 25.07.2019
4682 Clear 20 1017 77 10000 1 180 05:37 25.07.2019
4683 Clear 20 1017 77 10000 1 180 05:18 25.07.2019
4684 Clear 20 1016 53 10000 3.6 160 04:31 25.07.2019
4685 Clear 20 1016 60 10000 3.1 310 01:31 25.07.2019
4686 Clear 21 1016 60 10000 3.1 310 00:45 25.07.2019
4687 Clear 24 1016 44 10000 3.6 150 00:19 25.07.2019
4688 Clear 24 1016 60 10000 2.6 300 23:45 24.07.2019
4689 Clear 24 1016 54 10000 1 140 23:27 24.07.2019
4690 Clear 24 1016 54 10000 1 140 22:48 24.07.2019
4691 Clear 25 1016 51 10000 0.5 200 22:27 24.07.2019
4692 Clear 26 1016 51 10000 0.5 170 21:59 24.07.2019
4693 Clear 27 1016 51 10000 0.5 170 21:41 24.07.2019
4694 Clear 29 1016 43 10000 1 110 21:20 24.07.2019
4695 Clear 32 1016 38 10000 2.1 90 20:48 24.07.2019
4696 Clear 32 1016 33 10000 2.1 90 20:29 24.07.2019
4697 Clear 32 1015 30 10000 2.6 90 19:59 24.07.2019
4698 Clear 32 1015 30 10000 2.6 90 19:59 24.07.2019
4699 Clear 33 1015 30 10000 2.6 90 19:41 24.07.2019
4700 Clear 34 1016 30 10000 2.1 60 19:21 24.07.2019
4701 Clear 34 1016 30 10000 2.1 120 18:45 24.07.2019
4702 Clear 35 1016 30 10000 3.1 120 18:25 24.07.2019
4703 Clear 35 1016 28 10000 2.6 0 17:49 24.07.2019
4704 Clouds 35 1015 25 10000 2.1 170 17:25 24.07.2019
4705 Clear 35 1016 30 10000 3.6 150 16:59 24.07.2019
4706 Clear 35 1016 30 10000 3.6 150 16:59 24.07.2019
4707 Clear 35 1016 30 10000 3.6 150 16:39 24.07.2019
4708 Clear 35 1016 28 10000 2.1 0 16:21 24.07.2019
4709 Clear 35 1016 31 10000 3.1 160 15:38 24.07.2019
4710 Clear 35 1016 32 10000 1.5 0 15:20 24.07.2019
4711 Clear 34 1017 31 10000 3.1 0 14:46 24.07.2019
4712 Clear 34 1017 33 10000 2.1 0 14:22 24.07.2019
4713 Clear 34 1017 33 10000 2.1 0 14:22 24.07.2019
4714 Clear 33 1017 33 10000 2.1 80 13:41 24.07.2019
4715 Clear 33 1017 35 10000 2.6 70 13:23 24.07.2019
4716 Clear 33 1017 35 10000 2.1 100 12:54 24.07.2019
4717 Clear 32 1017 35 10000 2.1 100 12:35 24.07.2019
4718 Clear 31 1018 35 10000 2.6 110 11:57 24.07.2019
4719 Clear 31 1018 35 10000 2.6 110 11:37 24.07.2019
4720 Clear 30 1018 37 10000 3.1 130 11:18 24.07.2019
4721 Clear 30 1018 37 10000 3.1 130 11:18 24.07.2019
4722 Clear 29 1018 39 10000 2.6 110 10:41 24.07.2019
4723 Clear 28 1018 44 10000 2.6 90 10:23 24.07.2019
4724 Clear 27 1018 54 10000 2.1 70 09:44 24.07.2019
4725 Clear 24 1018 64 10000 1 0 09:23 24.07.2019
4726 Clear 23 1018 73 10000 1 0 08:52 24.07.2019
4727 Clear 22 1018 60 10000 1 0 08:26 24.07.2019
4728 Clear 22 1018 60 10000 1.5 120 07:47 24.07.2019
4729 Clear 20 1018 77 10000 1 0 07:23 24.07.2019
4730 Clear 17 1018 82 10000 0.5 0 06:28 24.07.2019
4731 Clear 17 1017 60 10000 3.6 140 05:26 24.07.2019
4732 Clouds 19 1019 72 10000 2.6 300 01:56 24.07.2019
4733 Clear 20 1018 56 10000 2.6 130 01:22 24.07.2019
4734 Clouds 20 1019 68 10000 2.1 300 00:50 24.07.2019
4735 Clear 21 1019 56 10000 2.6 130 00:19 24.07.2019
4736 Clear 21 1019 53 10000 2.6 130 23:37 23.07.2019
4737 Clear 21 1019 57 10000 3.1 120 23:19 23.07.2019
4738 Clear 23 1019 53 10000 2.1 120 22:39 23.07.2019
4739 Clear 23 1019 47 10000 2.1 40 22:19 23.07.2019
4740 Clear 25 1019 47 10000 2.1 40 21:46 23.07.2019
4741 Clear 27 1019 47 10000 1.5 20 21:28 23.07.2019
4742 Clear 28 1019 45 10000 2.1 30 20:57 23.07.2019
4743 Clear 29 1019 45 10000 2.1 30 20:39 23.07.2019
4744 Clear 30 1019 42 10000 1.5 30 20:19 23.07.2019
4745 Clear 30 1020 42 10000 2.1 40 19:37 23.07.2019
4746 Clear 30 1020 37 10000 1.5 60 19:18 23.07.2019
4747 Clear 31 1020 37 10000 1.5 0 18:42 23.07.2019
4748 Clear 32 1020 33 10000 1 0 18:22 23.07.2019
4749 Clear 32 1020 33 10000 1 0 17:44 23.07.2019
4750 Clouds 32 1020 29 10000 2.1 100 17:24 23.07.2019
4751 Clear 31 1021 35 10000 1.5 0 16:50 23.07.2019
4752 Clear 31 1021 35 10000 1.5 280 16:28 23.07.2019
4753 Clear 31 1021 35 10000 1.5 300 15:58 23.07.2019
4754 Clear 31 1021 35 10000 1.5 300 15:39 23.07.2019
4755 Clear 31 1021 39 10000 1.5 0 15:21 23.07.2019
4756 Clear 30 1022 37 10000 1 0 14:37 23.07.2019
4757 Clear 30 1022 37 10000 2.1 80 14:19 23.07.2019
4758 Clouds 30 1022 39 10000 1.5 320 13:56 23.07.2019
4759 Clear 29 1022 44 10000 1 0 13:38 23.07.2019
4760 Clear 29 1023 44 10000 1.5 70 13:19 23.07.2019
4761 Clear 29 1023 47 10000 2.1 40 12:44 23.07.2019
4762 Clear 28 1022 45 10000 1.5 260 12:25 23.07.2019
4763 Clear 28 1023 50 10000 1 0 11:45 23.07.2019
4764 Clear 27 1023 50 10000 1 0 11:26 23.07.2019
4765 Clear 27 1023 53 10000 1 0 10:52 23.07.2019
4766 Clear 26 1023 56 10000 1 0 10:26 23.07.2019
4767 Clear 24 1023 64 10000 1.5 100 09:44 23.07.2019
4768 Clear 22 1024 68 10000 1 0 09:24 23.07.2019
4769 Clear 21 1024 77 10000 0.5 0 08:57 23.07.2019
4770 Clear 20 1024 77 10000 0.5 0 08:38 23.07.2019
4771 Clear 19 1023 82 10000 0.5 0 08:19 23.07.2019
4772 Clear 19 1023 82 10000 0.5 0 07:50 23.07.2019
4773 Clear 18 1023 82 10000 0.5 0 07:32 23.07.2019
4774 Clear 15 1023 87 10000 1.5 170 06:37 23.07.2019
4775 Clear 15 1023 87 10000 0.5 0 04:51 23.07.2019
4776 Clouds 17 1023 87 10000 1.5 300 01:55 23.07.2019
4777 Clouds 17 1023 72 10000 2.6 310 00:54 23.07.2019
4778 Clear 18 1023 68 10000 1.5 190 00:27 23.07.2019
4779 Clear 19 1023 64 10000 1 240 23:40 22.07.2019
4780 Clear 19 1023 60 10000 1 0 23:21 22.07.2019
4781 Clouds 20 1023 68 10000 2.1 300 22:46 22.07.2019
4782 Clear 20 1023 56 10000 1.5 330 22:27 22.07.2019
4783 Clear 21 1023 56 10000 1.5 330 21:58 22.07.2019
4784 Clear 22 1023 56 10000 1.5 330 21:40 22.07.2019
4785 Clear 24 1023 53 10000 2.1 330 21:20 22.07.2019
4786 Clear 25 1023 47 10000 3.1 330 20:44 22.07.2019
4787 Clear 26 1023 44 10000 3.6 320 20:23 22.07.2019
4788 Clear 26 1022 41 10000 4.1 290 19:43 22.07.2019
4789 Clear 26 1022 41 10000 3.6 270 19:24 22.07.2019
4790 Clear 27 1023 44 10000 3.6 270 18:57 22.07.2019
4791 Clear 27 1023 44 10000 3.6 270 18:39 22.07.2019
4792 Clouds 27 1023 41 10000 3.6 290 18:21 22.07.2019
4793 Clear 27 1023 44 10000 4.6 300 17:39 22.07.2019
4794 Clouds 27 1023 34 10000 4.1 300 17:20 22.07.2019
4795 Clear 27 1023 44 10000 6.2 280 16:41 22.07.2019
4796 Clear 27 1023 39 10000 5.1 280 16:21 22.07.2019
4797 Clouds 27 1023 39 10000 3.6 290 15:58 22.07.2019
4798 Clear 26 1023 50 10000 3.1 280 15:36 22.07.2019
4799 Clear 25 1023 44 10000 4.1 280 15:18 22.07.2019
4800 Clear 25 1024 47 10000 5.7 300 14:42 22.07.2019
4801 Clear 25 1023 47 10000 5.7 250 14:20 22.07.2019
4802 Clear 25 1023 47 10000 5.7 250 14:20 22.07.2019
4803 Clear 25 1024 47 10000 4.6 260 13:45 22.07.2019
4804 Clear 25 1024 47 10000 4.6 260 13:45 22.07.2019
4805 Clear 25 1024 44 10000 5.1 260 13:26 22.07.2019
4806 Clear 24 1024 53 10000 4.1 250 12:44 22.07.2019
4807 Clear 24 1024 53 10000 5.7 270 12:24 22.07.2019
4808 Clear 23 1024 56 10000 4.1 260 11:44 22.07.2019
4809 Clear 22 1024 53 10000 4.1 220 11:20 22.07.2019
4810 Clear 22 1024 53 10000 3.1 250 10:48 22.07.2019
4811 Clear 21 1024 68 10000 0.5 0 10:27 22.07.2019
4812 Clear 19 1024 72 10000 2.1 130 09:44 22.07.2019
4813 Clear 18 1024 82 10000 2.1 120 09:24 22.07.2019
4814 Clear 17 1024 87 10000 1.5 130 08:45 22.07.2019
4815 Clear 16 1023 87 10000 1 0 08:25 22.07.2019
4816 Clear 16 1023 93 10000 2.1 150 07:55 22.07.2019
4817 Clear 15 1023 93 10000 2.1 150 07:33 22.07.2019
4818 Clouds 13 1024 93 10000 0.5 300 06:51 22.07.2019
4819 Clouds 13 1024 93 10000 1 0 03:57 22.07.2019
4820 Clear 14 1023 87 10000 1 0 02:24 22.07.2019
4821 Clouds 15 1023 82 10000 2.1 320 00:56 22.07.2019
4822 Clouds 15 1023 77 10000 1.5 170 00:26 22.07.2019
4823 Clouds 16 1023 77 10000 1.5 0 23:55 21.07.2019
4824 Clear 16 1023 82 10000 1.5 230 23:31 21.07.2019
4825 Clear 17 1023 77 10000 1.5 270 22:42 21.07.2019
4826 Clear 18 1023 72 10000 1.5 210 22:23 21.07.2019
4827 Clear 18 1022 68 10000 1.5 320 21:58 21.07.2019
4828 Clear 19 1022 68 10000 1.5 320 21:38 21.07.2019
4829 Clear 21 1022 64 10000 2.6 330 21:20 21.07.2019
4830 Clear 22 1022 53 10000 2.6 320 20:44 21.07.2019
4831 Clear 22 1022 53 10000 3.6 310 20:26 21.07.2019
4832 Clear 23 1022 43 10000 5.1 300 19:55 21.07.2019
4833 Clear 23 1022 43 10000 5.1 300 19:36 21.07.2019
4834 Clear 23 1022 43 10000 5.1 300 19:18 21.07.2019
4835 Clear 24 1022 46 10000 5.1 320 18:44 21.07.2019
4836 Clear 24 1022 49 10000 4.1 310 18:25 21.07.2019
4837 Clear 24 1022 49 10000 4.1 310 18:25 21.07.2019
4838 Clouds 24 1022 53 10000 5.7 300 17:42 21.07.2019
4839 Clouds 24 1021 49 10000 6.2 300 17:20 21.07.2019
4840 Clouds 24 1021 53 10000 5.7 310 16:45 21.07.2019
4841 Clouds 25 1021 56 10000 6.7 310 16:25 21.07.2019
4842 Clouds 24 1021 53 10000 6.2 310 15:57 21.07.2019
4843 Clouds 25 1021 53 10000 6.2 310 15:36 21.07.2019
4844 Clouds 24 1021 53 10000 5.7 310 15:18 21.07.2019
4845 Clouds 23 1021 56 10000 6.2 320 14:41 21.07.2019
4846 Clouds 23 1021 56 10000 5.1 310 14:22 21.07.2019
4847 Clouds 23 1021 56 10000 4.6 310 13:45 21.07.2019
4848 Clouds 23 1021 64 10000 3.6 320 13:27 21.07.2019
4849 Clouds 22 1021 64 10000 3.1 290 12:43 21.07.2019
4850 Clouds 21 1020 68 10000 2.6 290 12:24 21.07.2019
4851 Clouds 20 1020 68 10000 2.6 300 11:47 21.07.2019
4852 Clouds 20 1020 68 10000 3.6 310 11:29 21.07.2019
4853 Clouds 20 1020 72 10000 4.1 290 10:56 21.07.2019
4854 Clouds 20 1020 72 10000 4.1 290 10:38 21.07.2019
4855 Clouds 19 1019 72 10000 3.1 270 10:19 21.07.2019
4856 Clouds 19 1019 72 10000 3.6 260 09:37 21.07.2019
4857 Clouds 19 1019 82 10000 3.6 250 09:19 21.07.2019
4858 Clouds 18 1019 82 10000 3.1 260 08:40 21.07.2019
4859 Clouds 18 1018 88 10000 1.5 250 08:22 21.07.2019
4860 Fog 17 1017 82 10000 3.6 240 07:32 21.07.2019
4861 Fog 16 1017 82 10000 4.1 250 06:42 21.07.2019
4862 Clear 16 1015 93 10000 3.1 230 04:23 21.07.2019
4863 Clouds 17 1015 88 10000 2.1 160 01:57 21.07.2019
4864 Rain 17 1015 93 10000 2.6 150 00:51 21.07.2019
4865 Clear 17 1014 88 10000 3.6 230 00:22 21.07.2019
4866 Clouds 17 1014 93 10000 0.5 0 23:54 20.07.2019
4867 Clouds 17 1014 93 10000 2.1 180 23:36 20.07.2019
4868 Clouds 17 1014 93 10000 2.1 180 23:18 20.07.2019
4869 Clouds 17 1014 93 10000 2.1 180 23:18 20.07.2019
4870 Clouds 17 1014 93 10000 2.1 180 23:18 20.07.2019
4871 Clouds 18 1014 93 10000 2.1 170 22:41 20.07.2019
4872 -273 0 0 0 0 0 22:19 20.07.2019
4873 Rain 18 1013 93 10000 2.1 120 21:44 20.07.2019
4874 Rain 18 1014 93 10000 1 0 21:24 20.07.2019
4875 Rain 19 1014 93 6000 3.6 290 20:44 20.07.2019
4876 Thunderstorm 19 1012 88 10000 1.5 150 20:23 20.07.2019
4877 Thunderstorm 19 1013 93 10000 3.6 330 19:53 20.07.2019
4878 Thunderstorm 19 1013 93 10000 3.6 330 19:34 20.07.2019
4879 Thunderstorm 22 1012 68 7000 10.8 270 18:58 20.07.2019
4880 Thunderstorm 23 1012 68 7000 10.8 270 18:40 20.07.2019
4881 Thunderstorm 25 1011 50 10000 3.1 210 18:19 20.07.2019
4882 Thunderstorm 26 1010 44 10000 2.6 190 17:47 20.07.2019
4883 Thunderstorm 26 1011 45 10000 4.1 190 17:20 20.07.2019
4884 Thunderstorm 29 1011 42 10000 4.6 200 16:42 20.07.2019
4885 Rain 30 1011 42 10000 4.6 200 16:23 20.07.2019
4886 Rain 29 1012 47 10000 4.1 200 15:43 20.07.2019
4887 Clear 29 1012 44 10000 4.6 190 15:21 20.07.2019
4888 Clear 28 1012 44 10000 4.6 220 14:54 20.07.2019
4889 Clear 28 1012 44 10000 4.6 220 14:36 20.07.2019
4890 Clear 28 1013 47 10000 6.2 230 14:18 20.07.2019
4891 Clear 28 1012 47 10000 6.2 190 13:38 20.07.2019
4892 Clouds 28 1012 50 10000 6.2 190 13:19 20.07.2019
4893 Clouds 27 1013 50 10000 5.1 190 12:49 20.07.2019
4894 Clouds 27 1013 53 10000 5.1 190 12:20 20.07.2019
4895 Clear 26 1013 53 10000 5.1 180 11:52 20.07.2019
4896 Clear 26 1013 57 10000 5.1 180 11:23 20.07.2019
4897 Clear 25 1013 57 10000 6.7 190 10:49 20.07.2019
4898 Clear 23 1013 64 10000 4.1 140 10:26 20.07.2019
4899 Clear 22 1014 68 10000 4.1 160 09:52 20.07.2019
4900 Clear 20 1014 72 10000 4.1 150 09:27 20.07.2019
4901 Clear 19 1014 82 10000 3.1 110 08:55 20.07.2019
4902 Clear 18 1014 87 10000 2.6 130 08:24 20.07.2019
4903 Clear 17 1014 87 10000 4.1 140 07:48 20.07.2019
4904 Fog 15 1014 93 10000 1 290 06:47 20.07.2019
4905 Fog 14 1014 93 10000 1 0 05:52 20.07.2019
4906 Clear 13 1014 100 10000 2.1 100 04:31 20.07.2019
4907 Clear 14 1014 82 10000 4.6 170 02:33 20.07.2019
4908 Clear 15 1014 82 10000 3.6 170 01:19 20.07.2019
4909 Clear 15 1015 77 10000 1.5 0 00:39 20.07.2019
4910 Clear 15 1015 87 10000 1.5 210 00:18 20.07.2019
4911 Clear 16 1015 87 10000 1.5 210 23:40 19.07.2019
4912 Clear 17 1015 87 10000 2.1 230 23:22 19.07.2019
4913 Clear 17 1015 82 10000 1.5 250 22:43 19.07.2019
4914 Clear 18 1015 82 10000 0.5 0 22:23 19.07.2019
4915 Clear 18 1014 77 10000 1 0 21:45 19.07.2019
4916 Clear 20 1014 77 10000 1.5 50 21:26 19.07.2019
4917 Clear 22 1014 68 10000 1.5 130 20:49 19.07.2019
4918 Clouds 22 1014 64 10000 2.1 140 20:31 19.07.2019
4919 Clouds 22 1014 60 10000 2.1 140 19:48 19.07.2019
4920 Clouds 23 1014 56 10000 1 0 19:27 19.07.2019
4921 Clouds 23 1014 60 10000 1.5 150 18:42 19.07.2019
4922 Clouds 24 1014 56 10000 1 0 18:22 19.07.2019
4923 Clouds 24 1014 60 10000 3.1 20 17:54 19.07.2019
4924 Clouds 24 1014 60 10000 4.1 340 17:28 19.07.2019
4925 Clouds 23 1014 60 10000 3.6 280 16:49 19.07.2019
4926 Clouds 23 1014 53 10000 3.1 210 16:27 19.07.2019
4927 Clouds 23 1014 64 10000 2.6 0 15:53 19.07.2019
4928 Rain 23 1014 64 10000 2.6 0 15:31 19.07.2019
4929 Rain 22 1014 73 10000 3.6 170 14:58 19.07.2019
4930 Rain 21 1014 73 10000 3.6 170 14:39 19.07.2019
4931 Rain 22 1015 72 10000 4.1 160 14:21 19.07.2019
4932 Rain 22 1015 77 10000 4.1 160 13:44 19.07.2019
4933 Rain 21 1015 77 10000 4.1 160 13:44 19.07.2019
4934 Rain 22 1015 77 10000 4.1 160 13:44 19.07.2019
4935 Rain 21 1015 82 10000 3.1 160 13:26 19.07.2019
4936 Rain 20 1015 88 10000 2.6 210 12:55 19.07.2019
4937 Clouds 20 1015 88 10000 2.6 190 12:31 19.07.2019
4938 Clouds 20 1015 88 10000 2.6 190 12:31 19.07.2019
4939 Clouds 19 1015 88 10000 2.1 20 11:59 19.07.2019
4940 Clouds 19 1015 87 10000 2.1 150 11:41 19.07.2019
4941 Clouds 19 1015 93 9000 2.1 200 11:18 19.07.2019
4942 Drizzle 18 1015 88 9000 2.1 80 10:47 19.07.2019
4943 Drizzle 18 1015 93 9000 3.1 220 10:22 19.07.2019
4944 Rain 18 1015 88 10000 1 30 09:58 19.07.2019
4945 Drizzle 17 1015 93 9000 2.1 240 09:39 19.07.2019
4946 Rain 17 1015 93 5000 3.6 280 09:21 19.07.2019
4947 Clouds 17 1014 87 9000 2.6 260 08:47 19.07.2019
4948 Rain 16 1014 93 10000 1.5 240 07:53 19.07.2019
4949 Rain 16 1014 93 10000 1.5 240 07:53 19.07.2019
4950 Rain 16 1013 82 10000 2.6 190 07:29 19.07.2019
4951 Clouds 16 1014 100 10000 1.5 250 05:56 19.07.2019
4952 Clouds 17 1013 72 10000 1.5 230 02:23 19.07.2019
4953 Clear 17 1013 72 10000 2.1 240 01:18 19.07.2019
4954 Clear 17 1012 72 10000 3.1 230 00:38 19.07.2019
4955 Clouds 18 1012 82 10000 0.5 260 23:45 18.07.2019
4956 Clear 18 1012 72 10000 2.1 200 23:24 18.07.2019
4957 Clouds 19 1012 68 10000 1 0 22:59 18.07.2019
4958 Clear 19 1012 64 10000 1.5 220 22:40 18.07.2019
4959 Clear 19 1012 64 10000 1.5 220 22:19 18.07.2019
4960 Clear 19 1012 64 10000 2.1 220 21:44 18.07.2019
4961 Clear 21 1012 60 10000 2.1 270 21:26 18.07.2019
4962 Clear 22 1012 56 10000 2.6 250 20:51 18.07.2019
4963 Rain 22 1012 49 10000 3.6 250 20:29 18.07.2019
4964 Rain 23 1011 46 10000 3.1 280 19:57 18.07.2019
4965 Rain 23 1011 46 10000 3.1 280 19:38 18.07.2019
4966 Clear 24 1011 41 10000 1.5 270 19:18 18.07.2019
4967 Clear 25 1011 41 10000 1 0 18:41 18.07.2019
4968 Clear 25 1011 41 10000 2.1 0 18:20 18.07.2019
4969 Clear 26 1011 38 10000 3.1 220 17:43 18.07.2019
4970 Clouds 26 1011 34 10000 2.6 280 17:24 18.07.2019
4971 Clear 26 1011 44 10000 2.6 300 16:56 18.07.2019
4972 Clear 26 1012 41 10000 4.1 300 16:31 18.07.2019
4973 Clear 25 1012 44 10000 1.5 0 15:59 18.07.2019
4974 Clear 25 1012 44 10000 1.5 0 15:39 18.07.2019
4975 Clouds 25 1012 46 10000 1.5 0 15:21 18.07.2019
4976 Clouds 24 1012 43 10000 2.6 0 14:45 18.07.2019
4977 Clouds 24 1012 43 10000 2.1 0 14:26 18.07.2019
4978 Clouds 24 1012 49 10000 2.6 0 13:48 18.07.2019
4979 Clouds 23 1012 53 10000 1.5 0 13:23 18.07.2019
4980 Clouds 23 1012 60 10000 3.1 120 12:50 18.07.2019
4981 Clouds 21 1012 64 10000 2.1 190 12:21 18.07.2019
4982 Clouds 21 1013 64 10000 1.5 0 11:58 18.07.2019
4983 Clouds 22 1013 64 10000 1.5 0 11:39 18.07.2019
4984 Clouds 21 1012 72 10000 1.5 0 11:20 18.07.2019
4985 Clouds 20 1013 72 10000 1.5 0 10:41 18.07.2019
4986 Clouds 19 1013 82 10000 1 130 09:50 18.07.2019
4987 Fog 17 1013 87 5000 1 0 09:26 18.07.2019
4988 Fog 15 1013 87 10000 1.5 80 08:52 18.07.2019
4989 Fog 14 1013 87 9000 0.5 0 08:25 18.07.2019
4990 Fog 14 1013 87 9000 0.5 0 07:56 18.07.2019
4991 Fog 13 1013 100 300 1 0 07:35 18.07.2019
4992 Fog 11 1013 93 10000 2.1 150 06:46 18.07.2019
4993 Fog 10 1013 100 500 0.58 215.365 06:19 18.07.2019
4994 Fog 11 1013 87 10000 1 0 03:34 18.07.2019
4995 Clear 11 1014 93 10000 2.6 310 01:53 18.07.2019
4996 Clear 12 1014 87 10000 0.19 151.535 01:33 18.07.2019
4997 Clouds 12 1014 93 10000 1.5 310 23:57 17.07.2019
4998 Clear 13 1014 93 10000 1.5 170 23:21 17.07.2019
4999 Clouds 14 1014 82 10000 1.5 310 22:59 17.07.2019
5000 Clear 14 1014 87 10000 2.1 280 22:41 17.07.2019
5001 Clear 14 1014 87 10000 2.1 280 22:21 17.07.2019
5002 Clear 15 1014 82 10000 2.1 290 21:56 17.07.2019
5003 Clear 15 1014 82 10000 2.1 290 21:37 17.07.2019
5004 Clear 17 1014 82 10000 2.1 290 21:19 17.07.2019
5005 Clouds 18 1014 72 10000 2.1 290 20:41 17.07.2019
5006 Clouds 18 1014 77 10000 2.6 290 20:21 17.07.2019
5007 Clouds 18 1015 72 10000 2.1 270 19:59 17.07.2019
5008 Clouds 19 1015 72 10000 2.1 270 19:40 17.07.2019
5009 Clouds 19 1015 72 10000 2.6 290 19:19 17.07.2019
5010 Clouds 19 1015 72 10000 3.1 300 18:42 17.07.2019
5011 Clouds 20 1015 68 10000 1 0 18:21 17.07.2019
5012 Clouds 20 1015 68 10000 1 0 18:21 17.07.2019
5013 Clouds 19 1015 63 10000 0.5 320 17:55 17.07.2019
5014 Clouds 19 1015 63 10000 0.5 320 17:37 17.07.2019
5015 Clouds 19 1015 72 10000 3.1 290 17:18 17.07.2019
5016 Clouds 19 1015 72 10000 3.1 310 16:38 17.07.2019
5017 Clouds 19 1016 67 10000 2.1 300 16:19 17.07.2019
5018 Clouds 19 1016 67 10000 2.1 300 16:19 17.07.2019
5019 Clouds 20 1016 67 10000 2.1 300 15:51 17.07.2019
5020 Clouds 19 1016 67 10000 2.6 290 15:29 17.07.2019
5021 Clouds 18 1016 72 10000 2.6 310 14:55 17.07.2019
5022 Clouds 18 1016 77 10000 3.1 290 14:37 17.07.2019
5023 Clouds 18 1016 77 10000 3.1 290 14:19 17.07.2019
5024 Clouds 18 1016 72 10000 1.5 0 13:45 17.07.2019
5025 Clouds 18 1016 72 10000 1.5 0 13:25 17.07.2019
5026 Clouds 18 1016 82 10000 1 0 12:43 17.07.2019
5027 Clouds 17 1016 82 10000 1 0 12:21 17.07.2019
5028 Clouds 16 1016 82 10000 1 0 11:56 17.07.2019
5029 Clouds 16 1016 82 10000 1 0 11:37 17.07.2019
5030 Clouds 16 1016 82 9000 1 0 11:18 17.07.2019
5031 Clouds 16 1016 87 8000 2.1 330 10:42 17.07.2019
5032 Drizzle 15 1016 87 10000 2.6 320 10:18 17.07.2019
5033 Drizzle 15 1016 82 10000 1.5 300 09:44 17.07.2019
5034 Drizzle 15 1016 82 10000 1.5 300 09:44 17.07.2019
5035 Drizzle 15 1016 82 10000 1.5 300 09:25 17.07.2019
5036 Clouds 14 1016 93 10000 1.5 310 08:44 17.07.2019
5037 Clouds 14 1016 93 10000 1.5 310 08:22 17.07.2019
5038 Clouds 14 1016 93 10000 1 0 07:51 17.07.2019
5039 Clouds 14 1016 93 10000 1 0 07:51 17.07.2019
5040 Clouds 13 1016 93 10000 1 0 07:26 17.07.2019
5041 Clouds 13 1016 82 10000 1.5 300 06:58 17.07.2019
5042 Clouds 13 1016 87 10000 1 300 06:30 17.07.2019
5043 Clouds 13 1016 87 10000 1.5 300 05:57 17.07.2019
5044 Clouds 13 1016 82 10000 1 0 05:30 17.07.2019
5045 Clouds 13 1017 87 10000 1 0 04:46 17.07.2019
5046 Clouds 13 1017 82 10000 0.54 240.74 03:32 17.07.2019
5047 Clouds 13 1017 87 10000 1 0 02:21 17.07.2019
5048 Clouds 13 1017 87 10000 1 0 01:27 17.07.2019
5049 Clouds 13 1017 77 10000 1.5 320 00:59 17.07.2019
5050 Clouds 14 1017 87 10000 1.5 280 00:37 17.07.2019
5051 Clouds 14 1017 77 10000 1.5 330 00:19 17.07.2019
5052 Clouds 14 1018 87 10000 2.1 310 23:40 16.07.2019
5053 Clouds 14 1018 87 10000 2.1 310 23:20 16.07.2019
5054 Clouds 14 1018 87 10000 2.1 320 22:43 16.07.2019
5055 Clouds 15 1018 87 10000 2.1 320 22:24 16.07.2019
5056 Clouds 15 1018 82 10000 2.6 320 21:47 16.07.2019
5057 Clouds 15 1018 82 10000 2.6 320 21:22 16.07.2019
5058 Clouds 15 1018 87 10000 3.1 330 20:58 16.07.2019
5059 Clouds 16 1018 77 10000 3.6 320 20:39 16.07.2019
5060 Clouds 16 1018 77 10000 3.6 320 20:21 16.07.2019
5061 Clouds 16 1018 77 10000 4.1 330 19:52 16.07.2019
5062 Clouds 17 1018 82 10000 4.6 310 19:29 16.07.2019
5063 Clouds 17 1018 77 10000 4.6 320 18:58 16.07.2019
5064 Clouds 17 1018 77 10000 5.1 310 18:39 16.07.2019
5065 Clouds 17 1018 77 10000 5.1 310 18:20 16.07.2019
5066 Clouds 17 1017 60 10000 3.6 20 17:42 16.07.2019
5067 Clouds 17 1017 60 10000 3.6 20 17:21 16.07.2019
5068 Clouds 17 1018 77 10000 5.7 310 16:45 16.07.2019
5069 Clouds 17 1018 77 10000 5.7 310 16:23 16.07.2019
5070 Clouds 17 1018 77 10000 5.1 300 15:55 16.07.2019
5071 Clouds 17 1018 77 10000 5.1 310 15:37 16.07.2019
5072 Clouds 16 1018 82 10000 5.1 300 15:18 16.07.2019
5073 Clouds 16 1018 82 10000 4.6 310 14:42 16.07.2019
5074 Clouds 16 1018 82 10000 4.6 310 14:23 16.07.2019
5075 Clouds 15 1018 82 10000 4.6 290 13:46 16.07.2019
5076 Clouds 15 1018 82 10000 4.6 290 13:27 16.07.2019
5077 Clouds 14 1018 82 10000 4.1 290 12:55 16.07.2019
5078 Clouds 14 1018 82 10000 5.1 300 12:37 16.07.2019
5079 Clouds 14 1018 82 10000 5.1 300 12:19 16.07.2019
5080 Drizzle 14 1018 87 10000 5.1 310 11:43 16.07.2019
5081 Drizzle 14 1018 87 10000 5.1 310 11:23 16.07.2019
5082 Clouds 13 1018 87 10000 5.1 310 10:57 16.07.2019
5083 Clouds 13 1018 87 10000 5.1 310 10:38 16.07.2019
5084 Clouds 13 1018 87 10000 5.1 310 10:18 16.07.2019
5085 Clouds 13 1018 87 10000 5.1 310 10:18 16.07.2019
5086 Clouds 12 1018 87 10000 4.1 320 09:42 16.07.2019
5087 Clouds 12 1018 87 10000 3.6 320 09:19 16.07.2019
5088 Clouds 12 1018 87 10000 3.6 320 08:46 16.07.2019
5089 Clouds 11 1018 87 10000 3.6 320 08:22 16.07.2019
5090 Clouds 11 1018 93 10000 3.6 310 07:49 16.07.2019
5091 Clouds 11 1018 87 10000 2.6 280 07:31 16.07.2019
5092 Clouds 11 1018 87 10000 2.6 280 06:53 16.07.2019
5093 Clouds 11 1018 87 10000 2.1 250 06:31 16.07.2019
5094 Clouds 10 1018 87 10000 1.5 260 05:42 16.07.2019
5095 Clouds 10 1018 87 10000 1.5 260 05:24 16.07.2019
5096 Clouds 9 1018 93 10000 2.1 250 04:23 16.07.2019
5097 Fog 10 1019 87 10000 2.1 250 03:28 16.07.2019
5098 Clouds 10 1018 87 10000 2.1 270 02:36 16.07.2019
5099 Clouds 10 1018 87 10000 2.1 290 01:49 16.07.2019
5100 Clouds 10 1018 93 10000 1.5 300 00:53 16.07.2019
5101 Clouds 11 1018 87 10000 3.1 240 00:22 16.07.2019
5102 Clouds 11 1019 87 10000 1.5 270 23:54 15.07.2019
5103 Clear 12 1018 87 10000 3.1 230 23:36 15.07.2019
5104 Clouds 12 1019 76 10000 0.5 280 22:55 15.07.2019
5105 Clouds 12 1019 71 10000 2.1 330 22:37 15.07.2019
5106 Clouds 12 1019 71 10000 2.1 330 22:18 15.07.2019
5107 Clouds 14 1018 76 10000 3.6 320 21:42 15.07.2019
5108 Clouds 15 1018 76 10000 3.6 320 21:20 15.07.2019
5109 Clouds 14 1018 82 10000 4.1 310 20:57 15.07.2019
5110 Clouds 14 1018 76 10000 4.6 310 20:39 15.07.2019
5111 Clouds 15 1018 76 10000 4.6 310 20:21 15.07.2019
5112 Clouds 15 1018 76 10000 3.6 310 19:44 15.07.2019
5113 Clouds 15 1018 76 10000 3.6 310 19:22 15.07.2019
5114 Clouds 15 1019 82 10000 5.1 290 18:57 15.07.2019
5115 Clouds 15 1019 76 10000 4.1 310 18:38 15.07.2019
5116 Clouds 15 1019 76 10000 4.6 320 18:19 15.07.2019
5117 Clouds 15 1019 63 10000 3.6 330 17:44 15.07.2019
5118 Clouds 15 1019 63 10000 3.6 330 17:26 15.07.2019
5119 Clouds 15 1019 76 10000 5.1 310 16:59 15.07.2019
5120 Clouds 15 1019 76 10000 4.6 320 16:38 15.07.2019
5121 Clouds 15 1019 72 10000 4.6 320 16:20 15.07.2019
5122 Clouds 15 1019 72 10000 4.6 320 16:20 15.07.2019
5123 Clouds 16 1019 72 10000 4.6 320 15:55 15.07.2019
5124 Clouds 15 1019 72 10000 4.1 310 15:36 15.07.2019
5125 Clouds 15 1019 76 10000 3.6 310 15:18 15.07.2019
5126 Clouds 15 1019 71 10000 4.6 320 14:41 15.07.2019
5127 Clouds 15 1019 71 10000 4.6 320 14:23 15.07.2019
5128 Drizzle 15 1019 72 10000 3.6 330 13:50 15.07.2019
5129 Drizzle 15 1019 72 10000 3.6 330 13:50 15.07.2019
5130 Drizzle 15 1019 76 10000 3.6 330 13:22 15.07.2019
5131 Drizzle 15 1019 76 10000 2.6 320 12:58 15.07.2019
5132 Clouds 15 1019 82 10000 3.6 320 12:40 15.07.2019
5133 Clouds 15 1019 82 10000 3.6 320 12:20 15.07.2019
5134 Clouds 15 1019 67 10000 2.6 300 11:41 15.07.2019
5135 Clouds 15 1019 67 10000 2.6 300 11:22 15.07.2019
5136 Clouds 14 1019 71 10000 2.6 320 10:45 15.07.2019
5137 Clouds 14 1019 71 10000 2.6 320 10:25 15.07.2019
5138 Clouds 14 1019 82 10000 1.5 0 09:47 15.07.2019
5139 Clouds 14 1019 82 10000 1.5 0 09:25 15.07.2019
5140 Clouds 14 1019 87 10000 2.1 320 08:49 15.07.2019
5141 Clouds 13 1018 93 10000 2.1 320 08:27 15.07.2019
5142 Clouds 13 1018 87 10000 2.6 310 07:58 15.07.2019
5143 Clouds 13 1018 82 10000 1 10 07:36 15.07.2019
5144 Clouds 12 1018 82 10000 1 10 06:51 15.07.2019
5145 Clouds 12 1018 93 10000 2.1 290 06:32 15.07.2019
5146 Clouds 12 1018 82 10000 1.5 350 05:44 15.07.2019
5147 Clouds 12 1018 82 10000 1.5 350 05:19 15.07.2019
5148 Clouds 12 1019 87 10000 1 0 04:41 15.07.2019
5149 Clouds 12 1019 87 10000 1.5 310 03:33 15.07.2019
5150 Clouds 13 1019 87 10000 1 0 02:30 15.07.2019
5151 Clouds 13 1019 93 10000 1 0 01:39 15.07.2019
5152 Clouds 13 1019 93 10000 1 0 01:20 15.07.2019
5153 Clouds 13 1019 87 10000 0.5 0 00:46 15.07.2019
5154 Clouds 14 1019 72 10000 1.5 340 00:19 15.07.2019
5155 Clouds 13 1019 87 10000 2.6 340 23:41 14.07.2019
5156 Clouds 14 1019 87 10000 2.6 340 23:21 14.07.2019
5157 Clouds 14 1019 87 10000 2.1 340 22:58 14.07.2019
5158 Clouds 14 1019 87 10000 2.1 330 22:39 14.07.2019
5159 Clouds 14 1019 87 10000 2.1 330 22:21 14.07.2019
5160 Clouds 14 1019 82 10000 1.5 330 21:54 14.07.2019
5161 Clouds 15 1019 82 10000 1 40 21:36 14.07.2019
5162 Clouds 14 1019 82 10000 1 40 21:18 14.07.2019
5163 Clouds 15 1019 82 10000 2.6 330 20:39 14.07.2019
5164 Clouds 15 1019 82 10000 2.6 330 20:21 14.07.2019
5165 Clouds 15 1019 82 10000 2.6 330 20:20 14.07.2019
5166 Clouds 15 1019 76 10000 2.6 340 19:57 14.07.2019
5167 Clouds 15 1019 82 10000 2.1 350 19:38 14.07.2019
5168 Clouds 15 1019 82 10000 2.1 350 19:19 14.07.2019
5169 Rain 16 1019 72 10000 3.1 10 18:41 14.07.2019
5170 Clouds 16 1019 82 10000 3.6 340 18:22 14.07.2019
5171 Clouds 16 1019 82 10000 3.1 310 17:58 14.07.2019
5172 Clouds 16 1019 82 10000 5.1 310 17:23 14.07.2019
5173 Clouds 16 1019 82 10000 3.6 330 16:55 14.07.2019
5174 Clouds 16 1019 87 10000 4.1 350 16:26 14.07.2019
5175 Clouds 15 1019 82 10000 3.6 340 15:58 14.07.2019
5176 Clouds 16 1019 82 10000 4.1 330 15:40 14.07.2019
5177 Clouds 16 1019 82 10000 4.1 330 15:22 14.07.2019
5178 Clouds 15 1019 76 10000 3.1 280 14:45 14.07.2019
5179 Clouds 16 1019 76 10000 3.1 280 14:20 14.07.2019
5180 Rain 15 1019 87 10000 2.6 320 13:46 14.07.2019
5181 Rain 15 1019 87 10000 2.6 320 13:24 14.07.2019
5182 Rain 15 1019 82 10000 2.1 300 12:57 14.07.2019
5183 Rain 15 1019 87 10000 2.1 30 12:38 14.07.2019
5184 Clouds 15 1018 72 10000 2.6 320 12:18 14.07.2019
5185 Rain 14 1018 82 10000 1.5 40 11:45 14.07.2019
5186 Rain 15 1018 82 10000 1.5 40 11:20 14.07.2019
5187 Rain 15 1018 82 10000 1.5 40 11:20 14.07.2019
5188 Rain 14 1018 87 10000 4.6 340 10:43 14.07.2019
5189 Rain 15 1018 87 10000 4.6 340 10:21 14.07.2019
5190 Rain 14 1018 87 10000 3.1 330 09:48 14.07.2019
5191 Rain 14 1018 87 10000 3.1 310 09:29 14.07.2019
5192 Drizzle 13 1018 93 10000 3.6 320 08:46 14.07.2019
5193 Drizzle 13 1018 93 10000 3.6 320 08:27 14.07.2019
5194 Mist 12 1018 93 4200 2.6 280 07:43 14.07.2019
5195 Mist 12 1018 82 10000 3.6 360 07:19 14.07.2019
5196 Clouds 12 1018 93 10000 4.1 310 05:46 14.07.2019
5197 Rain 13 1018 100 3200 3.1 300 03:53 14.07.2019
5198 Clouds 13 1018 93 9000 2.1 280 03:34 14.07.2019
5199 Clouds 14 1018 82 10000 3.6 350 02:52 14.07.2019
5200 Clouds 14 1019 82 10000 1.5 270 02:22 14.07.2019
5201 Clouds 14 1019 82 10000 1.5 280 01:35 14.07.2019
5202 Clouds 14 1019 82 10000 1.5 280 01:35 14.07.2019
5203 Clouds 14 1019 82 10000 1.5 280 01:35 14.07.2019
5204 Clouds 14 1018 93 10000 1.5 320 00:59 14.07.2019
5205 Clouds 14 1018 82 10000 2.6 300 00:40 14.07.2019
5206 Clouds 14 1018 82 10000 2.6 300 00:20 14.07.2019
5207 Clouds 15 1018 93 10000 1 0 23:56 13.07.2019
5208 Clouds 15 1018 93 10000 1 340 23:37 13.07.2019
5209 Clouds 15 1018 93 10000 1 340 23:19 13.07.2019
5210 Clouds 15 1017 93 10000 1 330 22:40 13.07.2019
5211 Clouds 15 1017 93 10000 1 330 22:21 13.07.2019
5212 Clouds 16 1017 87 10000 1.5 330 21:45 13.07.2019
5213 Clouds 17 1017 87 10000 1.5 330 21:20 13.07.2019
5214 Clouds 17 1017 87 10000 2.1 320 20:47 13.07.2019
5215 Clouds 17 1017 87 10000 2.6 320 20:28 13.07.2019
5216 Rain 17 1017 87 10000 3.1 320 19:48 13.07.2019
5217 Rain 17 1017 87 10000 3.1 320 19:29 13.07.2019
5218 Clouds 17 1017 93 10000 4.6 320 18:46 13.07.2019
5219 Clouds 17 1017 93 10000 4.6 320 18:23 13.07.2019
5220 Rain 17 1017 93 10000 6.7 330 17:42 13.07.2019
5221 Rain 17 1017 93 10000 6.7 330 17:22 13.07.2019
5222 Rain 17 1017 87 10000 5.1 320 16:58 13.07.2019
5223 Rain 17 1017 87 10000 5.7 310 16:38 13.07.2019
5224 Rain 17 1017 87 10000 5.7 310 16:19 13.07.2019
5225 Rain 17 1017 87 10000 5.7 310 16:19 13.07.2019
5226 Rain 17 1017 87 9000 5.7 320 15:44 13.07.2019
5227 Rain 16 1017 87 9000 5.7 320 15:21 13.07.2019
5228 Rain 16 1017 93 10000 6.2 320 14:45 13.07.2019
5229 Rain 16 1017 93 10000 6.2 320 14:24 13.07.2019
5230 Rain 16 1016 93 7000 5.1 300 13:46 13.07.2019
5231 Rain 16 1016 93 7000 5.1 300 13:26 13.07.2019
5232 Rain 16 1016 100 5000 6.2 300 12:59 13.07.2019
5233 Rain 16 1016 93 4100 6.2 300 12:39 13.07.2019
5234 Rain 16 1016 93 6000 6.7 290 12:20 13.07.2019
5235 Rain 16 1015 93 9000 6.7 300 11:42 13.07.2019
5236 Drizzle 15 1015 87 9000 6.7 300 11:19 13.07.2019
5237 Drizzle 15 1015 87 10000 3.6 310 10:44 13.07.2019
5238 Drizzle 15 1015 87 10000 3.6 310 10:23 13.07.2019
5239 Drizzle 15 1015 93 10000 4.1 300 09:54 13.07.2019
5240 Drizzle 15 1015 93 10000 4.1 300 09:54 13.07.2019
5241 Clouds 15 1015 87 10000 4.1 310 09:31 13.07.2019
5242 Clouds 15 1014 93 10000 4.6 310 08:58 13.07.2019
5243 Fog 14 1014 93 9000 4.1 300 08:33 13.07.2019
5244 Fog 15 1014 93 9000 3.1 310 07:58 13.07.2019
5245 Fog 14 1014 100 4000 2.6 290 07:30 13.07.2019
5246 Fog 14 1013 93 8000 4.1 300 06:39 13.07.2019
5247 Fog 14 1013 93 8000 4.1 300 05:57 13.07.2019
5248 Clouds 14 1014 100 5000 3.1 280 04:42 13.07.2019
5249 Clouds 14 1014 100 5000 3.1 280 04:22 13.07.2019
5250 Clouds 14 1013 100 10000 2.15 284.859 03:55 13.07.2019
5251 Mist 14 1013 100 4700 4.1 280 03:37 13.07.2019
5252 Clouds 14 1013 93 10000 0.5 0 01:54 13.07.2019
5253 Clouds 14 1013 100 8000 3.1 250 01:36 13.07.2019
5254 Clouds 14 1013 100 8000 3.1 250 01:18 13.07.2019
5255 Clouds 14 1013 100 8000 3.1 250 01:18 13.07.2019
5256 Drizzle 14 1013 93 5000 3.1 250 00:46 13.07.2019
5257 Drizzle 14 1012 93 8000 1.5 300 00:18 13.07.2019
5258 Rain 14 1012 100 10000 3.1 290 23:42 12.07.2019
5259 Rain 14 1012 100 10000 3.1 290 23:23 12.07.2019
5260 Rain 14 1012 93 10000 3.1 290 22:42 12.07.2019
5261 Rain 14 1012 93 10000 3.1 290 22:23 12.07.2019
5262 Rain 14 1012 93 8000 1 0 21:42 12.07.2019
5263 Rain 14 1012 93 8000 1 0 21:22 12.07.2019
5264 Rain 15 1012 100 10000 2.6 220 20:54 12.07.2019
5265 Rain 15 1012 100 9000 1.5 200 20:24 12.07.2019
5266 Rain 16 1011 87 6000 6.7 310 19:45 12.07.2019
5267 Rain 16 1011 87 6000 6.7 310 19:27 12.07.2019
5268 Thunderstorm 17 1010 77 10000 2.1 190 18:59 12.07.2019
5269 Thunderstorm 16 1010 82 10000 2.1 0 18:38 12.07.2019
5270 Thunderstorm 17 1011 88 10000 3.6 150 18:19 12.07.2019
5271 Thunderstorm 18 1011 88 10000 3.1 150 17:47 12.07.2019
5272 Thunderstorm 18 1011 88 10000 3.1 150 17:27 12.07.2019
5273 Thunderstorm 18 1011 87 10000 3.6 190 16:43 12.07.2019
5274 Thunderstorm 18 1011 87 10000 3.6 190 16:20 12.07.2019
5275 Thunderstorm 18 1012 93 10000 2.1 320 15:41 12.07.2019
5276 Thunderstorm 20 1012 93 10000 2.1 320 15:21 12.07.2019
5277 Rain 20 1011 82 10000 4.1 350 14:56 12.07.2019
5278 Thunderstorm 20 1011 93 10000 3.6 30 14:38 12.07.2019
5279 Thunderstorm 21 1011 93 10000 3.6 30 14:19 12.07.2019
5280 Thunderstorm 22 1011 64 10000 2.1 160 13:39 12.07.2019
5281 Clouds 22 1011 68 10000 2.1 170 12:58 12.07.2019
5282 Clouds 21 1011 60 10000 2.6 120 12:39 12.07.2019
5283 Clouds 21 1011 72 10000 1.5 170 12:20 12.07.2019
5284 Clouds 21 1012 72 9000 1 0 11:44 12.07.2019
5285 Clouds 20 1012 82 9000 1 0 11:20 12.07.2019
5286 Clouds 20 1012 77 8000 1 0 10:44 12.07.2019
5287 Clouds 19 1012 77 8000 1 0 10:24 12.07.2019
5288 Fog 18 1012 88 8000 0.5 0 09:54 12.07.2019
5289 Fog 17 1012 88 7000 1 0 09:30 12.07.2019
5290 Fog 17 1012 88 7000 1 0 09:30 12.07.2019
5291 Fog 17 1012 88 7000 1 0 09:30 12.07.2019
5292 Fog 17 1012 88 6000 1.34 220.025 08:59 12.07.2019
5293 Fog 16 1012 93 6000 0.5 0 08:39 12.07.2019
5294 Fog 16 1012 93 6000 0.5 0 08:18 12.07.2019
5295 Fog 16 1011 93 8000 2.1 190 07:44 12.07.2019
5296 Fog 15 1011 93 8000 2.1 190 07:26 12.07.2019
5297 Mist 14 1012 100 2300 0.5 0 06:29 12.07.2019
5298 Mist 14 1012 100 2600 0.5 140 05:48 12.07.2019
5299 Clear 14 1012 93 10000 1.5 240 03:23 12.07.2019
5300 Drizzle 14 1012 87 10000 3.6 190 01:43 12.07.2019
5301 Drizzle 15 1013 93 8000 1 0 00:58 12.07.2019
5302 Clear 15 1012 87 10000 2.6 180 00:27 12.07.2019
5303 Clear 15 1012 82 10000 2.1 200 23:49 11.07.2019
5304 Rain 15 1012 87 10000 2.6 200 23:26 11.07.2019
5305 Rain 15 1013 87 10000 2.1 250 22:58 11.07.2019
5306 Rain 15 1013 93 10000 1 0 22:39 11.07.2019
5307 Rain 15 1013 87 8000 2.55 191.332 22:21 11.07.2019
5308 Rain 15 1013 87 3000 2.6 300 21:41 11.07.2019
5309 Rain 17 1013 93 9000 2.1 160 21:19 11.07.2019
5310 Rain 16 1013 93 9000 2.1 160 20:55 11.07.2019
5311 Thunderstorm 17 1013 93 10000 2.1 170 20:36 11.07.2019
5312 Thunderstorm 17 1013 93 9000 2.6 170 20:18 11.07.2019
5313 Clouds 18 1012 93 10000 2.6 150 19:43 11.07.2019
5314 Clouds 18 1012 93 10000 2.6 150 19:23 11.07.2019
5315 Clouds 18 1013 88 10000 2.6 160 18:49 11.07.2019
5316 Rain 17 1013 88 10000 2.1 160 18:31 11.07.2019
5317 Rain 17 1013 93 10000 2.1 150 17:55 11.07.2019
5318 Rain 17 1013 88 10000 3.6 200 17:37 11.07.2019
5319 Rain 17 1013 93 9000 2.1 150 17:19 11.07.2019
5320 Rain 17 1014 100 8000 0.5 0 16:43 11.07.2019
5321 Rain 16 1014 100 8000 0.5 0 16:21 11.07.2019
5322 Drizzle 17 1014 93 8000 1.5 90 15:44 11.07.2019
5323 Drizzle 17 1014 93 8000 1.5 90 15:25 11.07.2019
5324 Drizzle 17 1014 87 10000 0.5 0 14:59 11.07.2019
5325 Rain 18 1014 100 8000 2.1 260 14:39 11.07.2019
5326 Rain 17 1014 100 8000 2.1 260 14:19 11.07.2019
5327 Rain 18 1014 82 8000 1 0 14:19 11.07.2019
5328 Rain 18 1014 72 10000 0.5 0 13:42 11.07.2019
5329 Rain 18 1014 72 10000 0.5 0 13:23 11.07.2019
5330 Rain 18 1014 77 10000 1 0 12:39 11.07.2019
5331 Rain 18 1014 87 10000 1 0 12:19 11.07.2019
5332 Rain 18 1014 87 10000 1 0 11:50 11.07.2019
5333 Rain 18 1014 82 10000 0.5 0 11:30 11.07.2019
5334 Rain 17 1014 82 10000 0.5 0 10:54 11.07.2019
5335 Rain 16 1014 77 10000 1 0 10:20 11.07.2019
5336 Rain 17 1014 77 10000 0.5 0 09:57 11.07.2019
5337 Rain 16 1015 87 10000 2.1 150 09:39 11.07.2019
5338 Rain 16 1015 87 10000 2.1 150 09:20 11.07.2019
5339 Clouds 15 1015 87 10000 2.6 150 08:42 11.07.2019
5340 Clouds 14 1015 87 10000 2.6 150 08:20 11.07.2019
5341 Clear 14 1014 87 10000 3.1 170 07:46 11.07.2019
5342 Clear 14 1014 87 10000 3.1 170 07:28 11.07.2019
5343 Clouds 13 1015 100 10000 1.5 140 06:21 11.07.2019
5344 Clouds 12 1015 93 10000 1 160 05:43 11.07.2019
5345 Clouds 13 1015 93 10000 1 160 05:24 11.07.2019
5346 Clouds 13 1016 76 10000 1.5 30 03:59 11.07.2019
5347 Rain 13 1017 93 10000 1 0 02:34 11.07.2019
5348 Rain 14 1018 82 10000 1.5 280 00:49 11.07.2019
5349 Rain 16 1017 72 10000 1 320 23:53 10.07.2019
5350 Rain 16 1017 51 10000 1.5 270 23:31 10.07.2019
5351 Clouds 16 1017 45 10000 2.1 350 22:58 10.07.2019
5352 Clear 16 1017 67 10000 2.1 340 22:37 10.07.2019
5353 Clear 17 1017 67 10000 2.1 340 22:18 10.07.2019
5354 Clear 18 1017 59 10000 2.1 20 21:43 10.07.2019
5355 Clear 19 1017 59 10000 2.1 20 21:25 10.07.2019
5356 Clear 19 1017 45 10000 3.1 330 20:48 10.07.2019
5357 Clear 19 1017 45 10000 3.1 330 20:28 10.07.2019
5358 Clear 20 1017 42 10000 4.1 350 20:00 10.07.2019
5359 Clear 20 1017 40 10000 4.1 340 19:41 10.07.2019
5360 Clear 20 1017 42 10000 3.1 360 19:21 10.07.2019
5361 Clear 20 1018 42 10000 3.6 350 18:47 10.07.2019
5362 Clear 21 1018 42 10000 3.6 350 18:25 10.07.2019
5363 Clear 21 1018 42 10000 3.6 350 17:51 10.07.2019
5364 Clear 22 1018 40 10000 3.6 330 17:30 10.07.2019
5365 Clear 22 1018 43 10000 4.1 330 16:59 10.07.2019
5366 Clear 21 1019 42 10000 3.1 330 16:22 10.07.2019
5367 Clear 21 1019 42 10000 2.1 330 15:54 10.07.2019
5368 Clouds 21 1019 48 10000 2.1 0 15:36 10.07.2019
5369 Clouds 21 1019 45 10000 2.1 0 15:18 10.07.2019
5370 Clouds 20 1019 52 10000 3.1 0 14:39 10.07.2019
5371 Clouds 19 1020 55 10000 2.1 0 14:19 10.07.2019
5372 Clouds 19 1020 55 10000 1.5 0 13:41 10.07.2019
5373 Clouds 18 1020 55 10000 1.5 0 13:18 10.07.2019
5374 Clouds 18 1020 62 10000 3.1 320 12:42 10.07.2019
5375 Clouds 17 1020 62 10000 3.1 320 12:22 10.07.2019
5376 Clouds 16 1020 62 10000 2.6 310 11:51 10.07.2019
5377 Clouds 16 1020 67 10000 2.1 0 11:22 10.07.2019
5378 Clouds 15 1020 71 10000 2.6 320 10:58 10.07.2019
5379 Clouds 15 1020 71 10000 2.6 320 10:58 10.07.2019
5380 Clouds 15 1020 71 10000 2.6 340 10:36 10.07.2019
5381 Clouds 15 1020 71 10000 2.6 340 10:18 10.07.2019
5382 Clouds 13 1020 76 10000 1 0 09:41 10.07.2019
5383 Clouds 13 1020 76 10000 1 0 09:20 10.07.2019
5384 Fog 12 1020 93 10000 0.5 0 08:49 10.07.2019
5385 Fog 11 1020 93 10000 0.5 0 08:27 10.07.2019
5386 Fog 11 1020 100 10000 1.22 271.887 07:53 10.07.2019
5387 Fog 9 1020 93 10000 0.5 0 07:24 10.07.2019
5388 Fog 8 1020 100 10000 1 240 06:41 10.07.2019
5389 Clear 7 1020 93 10000 1.5 190 05:42 10.07.2019
5390 Clear 8 1020 93 10000 1 0 04:33 10.07.2019
5391 Clouds 9 1021 87 10000 1 0 02:38 10.07.2019
5392 Clouds 10 1020 93 10000 2.1 250 00:44 10.07.2019
5393 Clouds 11 1020 100 10000 2.1 240 23:44 09.07.2019
5394 Clouds 11 1020 100 10000 2.1 240 23:25 09.07.2019
5395 Clouds 12 1020 93 10000 2.6 250 22:59 09.07.2019
5396 Clear 12 1020 93 10000 1.5 230 22:40 09.07.2019
5397 Clear 12 1020 93 10000 1.5 230 22:20 09.07.2019
5398 Clouds 13 1020 93 10000 0.5 210 21:47 09.07.2019
5399 Clouds 14 1019 93 10000 1 0 21:26 09.07.2019
5400 Rain 15 1019 93 9000 3.6 20 20:56 09.07.2019
5401 Clouds 16 1019 76 10000 1 0 20:36 09.07.2019
5402 Clouds 16 1019 82 10000 2.1 330 20:18 09.07.2019
5403 Rain 15 1019 82 10000 6.2 20 19:37 09.07.2019
5404 Rain 15 1019 82 10000 6.2 20 19:19 09.07.2019
5405 Clouds 16 1019 62 10000 4.1 330 18:39 09.07.2019
5406 Clouds 16 1020 55 10000 7.7 310 18:19 09.07.2019
5407 Clouds 17 1020 51 10000 2.6 300 17:44 09.07.2019
5408 Clouds 17 1020 51 10000 2.6 300 17:22 09.07.2019
5409 Clouds 17 1020 51 10000 2.6 300 17:22 09.07.2019
5410 Clouds 16 1020 58 10000 4.6 310 16:58 09.07.2019
5411 Clouds 16 1020 58 10000 4.6 310 16:40 09.07.2019
5412 Clouds 16 1020 58 10000 4.6 310 16:22 09.07.2019
5413 Clouds 16 1020 58 10000 3.6 330 15:42 09.07.2019
5414 Clouds 16 1020 58 10000 3.6 330 15:23 09.07.2019
5415 Clouds 16 1020 62 10000 4.1 330 14:45 09.07.2019
5416 Clouds 16 1020 62 10000 4.1 330 14:23 09.07.2019
5417 Clouds 16 1020 58 10000 4.1 330 13:50 09.07.2019
5418 Clouds 15 1020 58 10000 5.7 320 13:29 09.07.2019
5419 Clouds 15 1020 58 10000 3.6 320 12:59 09.07.2019
5420 Clouds 15 1020 66 10000 4.6 310 12:38 09.07.2019
5421 Clouds 14 1020 66 10000 5.7 330 12:19 09.07.2019
5422 Clouds 14 1020 66 10000 5.1 330 11:42 09.07.2019
5423 Clouds 14 1020 66 10000 5.1 330 11:22 09.07.2019
5424 Clouds 14 1020 71 10000 4.1 320 10:59 09.07.2019
5425 Clouds 13 1020 76 10000 4.6 330 10:40 09.07.2019
5426 Clouds 13 1020 76 10000 4.6 330 10:21 09.07.2019
5427 Clouds 13 1020 81 10000 4.1 310 09:38 09.07.2019
5428 Clouds 12 1020 81 10000 4.1 310 09:20 09.07.2019
5429 Clouds 12 1019 81 10000 4.1 310 08:44 09.07.2019
5430 Clouds 11 1019 81 10000 4.1 310 08:18 09.07.2019
5431 Clear 13 1018 62 10000 2.1 240 03:45 05.07.2019
5432 Clear 14 1018 62 10000 2.1 240 03:21 05.07.2019
5433 Clear 14 1019 62 10000 2.6 240 02:52 05.07.2019
5434 Clear 14 1019 58 10000 2.1 240 02:20 05.07.2019
5435 Clear 14 1019 62 10000 1.5 210 01:34 05.07.2019
5436 Clouds 14 1019 62 10000 1.5 300 00:52 05.07.2019
5437 Clear 14 1019 58 10000 1 0 00:31 05.07.2019
5438 Clear 15 1020 51 10000 2.1 230 23:44 04.07.2019
5439 Clear 15 1020 51 10000 2.1 230 23:19 04.07.2019
5440 Clear 15 1020 51 10000 2.1 230 23:19 04.07.2019
5441 Clear 16 1020 52 10000 2.6 300 22:42 04.07.2019
5442 Clear 16 1020 52 10000 2.6 300 22:23 04.07.2019
5443 Clear 18 1020 52 10000 1.5 320 21:45 04.07.2019
5444 Clear 19 1020 52 10000 1.5 320 21:26 04.07.2019
5445 Clear 20 1020 45 10000 1.5 360 20:59 04.07.2019
5446 Clear 20 1020 45 10000 2.6 330 20:38 04.07.2019
5447 Clear 21 1020 42 10000 2.6 340 20:19 04.07.2019
5448 Clear 22 1021 40 10000 3.1 340 19:42 04.07.2019
5449 Clear 22 1021 40 10000 3.1 340 19:22 04.07.2019
5450 Clear 22 1021 37 10000 3.1 330 18:55 04.07.2019
5451 Clear 22 1021 37 10000 2.6 360 18:36 04.07.2019
5452 Clear 23 1022 37 10000 2.6 320 18:18 04.07.2019
5453 Clouds 22 1021 30 10000 2.6 320 17:41 04.07.2019
5454 Clear 22 1022 37 10000 3.6 310 17:18 04.07.2019
5455 Clear 22 1022 37 10000 3.6 310 17:18 04.07.2019
5456 Clear 22 1023 40 10000 2.1 10 15:55 04.07.2019
5457 Clear 22 1023 37 10000 2.1 330 15:36 04.07.2019
5458 Clear 21 1023 37 10000 2.1 330 15:18 04.07.2019
5459 Clear 21 1024 39 10000 2.6 0 14:41 04.07.2019
5460 Clear 21 1024 39 10000 2.6 0 14:20 04.07.2019
5461 Clouds 21 1024 42 10000 2.6 0 13:57 04.07.2019
5462 Clouds 21 1024 42 10000 2.6 0 13:57 04.07.2019
5463 Clouds 21 1024 45 10000 2.1 0 13:39 04.07.2019
5464 Clouds 20 1025 45 10000 2.1 0 13:19 04.07.2019
5465 Clouds 19 1025 48 10000 2.6 0 12:39 04.07.2019
5466 Clouds 19 1025 48 10000 2.6 0 12:21 04.07.2019
5467 Clouds 19 1025 51 10000 2.6 310 11:55 04.07.2019
5468 Clouds 18 1025 55 10000 1.5 110 11:37 04.07.2019
5469 Clear 18 1025 51 10000 1 0 11:18 04.07.2019
5470 Clear 17 1025 58 10000 1 0 10:39 04.07.2019
5471 Clear 17 1025 66 10000 1.5 350 10:18 04.07.2019
5472 Clear 16 1025 71 10000 1 0 09:39 04.07.2019
5473 Clear 14 1025 71 10000 1 0 09:20 04.07.2019
5474 Clear 14 1025 71 10000 1.5 10 08:54 04.07.2019
5475 Clear 13 1025 76 10000 0.5 0 08:19 04.07.2019
5476 Clear 11 1025 76 10000 0.5 0 07:43 04.07.2019
5477 Clear 11 1025 81 10000 2.1 310 07:20 04.07.2019
5478 Clear 8 1025 81 10000 1.5 160 06:37 04.07.2019
5479 Clear 7 1025 87 10000 0.5 0 05:47 04.07.2019
5480 Clear 7 1025 87 10000 0.5 0 05:29 04.07.2019
5481 Clear 8 1025 70 10000 0.5 0 02:36 04.07.2019
5482 Clear 9 1025 62 10000 1.17 332.075 01:27 04.07.2019
5483 Clear 10 1025 62 10000 0.5 0 00:52 04.07.2019
5484 Clear 11 1024 66 10000 2.1 310 23:53 03.07.2019
5485 Clear 12 1025 54 10000 1.5 30 23:21 03.07.2019
5486 Clear 12 1025 54 10000 1.5 30 23:21 03.07.2019
5487 Clouds 12 1024 48 10000 1.5 350 22:57 03.07.2019
5488 Clear 13 1024 58 10000 2.1 350 22:39 03.07.2019
5489 Clear 13 1024 58 10000 2.1 350 22:21 03.07.2019
5490 Clear 14 1023 58 10000 3.1 340 21:56 03.07.2019
5491 Clear 16 1023 51 10000 3.1 350 21:37 03.07.2019
5492 Clear 18 1023 45 10000 5.1 340 20:57 03.07.2019
5493 Clear 18 1023 42 10000 5.7 350 20:37 03.07.2019
5494 Clear 18 1023 42 10000 5.1 10 20:19 03.07.2019
5495 Clear 19 1023 45 10000 5.1 10 19:45 03.07.2019
5496 Clear 19 1023 45 10000 5.1 10 19:25 03.07.2019
5497 Clear 20 1024 42 10000 4.6 330 18:45 03.07.2019
5498 Clear 20 1024 42 10000 4.6 330 18:23 03.07.2019
5499 Clear 20 1024 42 10000 4.6 350 17:51 03.07.2019
5500 Clear 20 1024 45 10000 5.7 330 17:20 03.07.2019
5501 Clear 20 1024 45 10000 5.7 330 16:58 03.07.2019
5502 Clear 20 1024 42 10000 3.6 340 16:40 03.07.2019
5503 Clear 20 1024 48 10000 3.6 350 16:18 03.07.2019
5504 Clouds 20 1024 48 10000 3.6 340 15:46 03.07.2019
5505 Clouds 20 1024 48 10000 3.6 340 15:27 03.07.2019
5506 Clouds 19 1024 51 10000 3.1 330 14:49 03.07.2019
5507 Clouds 19 1024 51 10000 3.1 330 14:22 03.07.2019
5508 Clouds 19 1024 51 10000 4.1 330 13:50 03.07.2019
5509 Clouds 19 1024 48 10000 3.1 330 13:31 03.07.2019
5510 Clouds 19 1024 48 10000 2.6 360 12:52 03.07.2019
5511 Clouds 18 1024 48 10000 3.1 350 12:20 03.07.2019
5512 Clouds 18 1024 55 10000 3.6 320 11:55 03.07.2019
5513 Clouds 18 1024 55 10000 5.1 330 11:36 03.07.2019
5514 Clouds 18 1024 62 10000 3.6 310 11:18 03.07.2019
5515 Clouds 18 1024 58 10000 3.6 10 10:40 03.07.2019
5516 Clouds 18 1024 58 10000 3.6 10 10:21 03.07.2019
5517 Clouds 17 1024 67 10000 1.5 340 09:42 03.07.2019
5518 Clouds 15 1024 67 10000 1.5 340 09:20 03.07.2019
5519 Clear 14 1024 76 10000 1 0 08:53 03.07.2019
5520 Clear 13 1024 81 10000 1.5 330 08:31 03.07.2019
5521 Clear 13 1024 81 10000 1.5 330 07:49 03.07.2019
5522 Clear 12 1023 93 10000 1.5 270 07:31 03.07.2019
5523 Clear 9 1023 87 10000 1.5 300 06:35 03.07.2019
5524 Clear 9 1023 81 10000 1 0 05:42 03.07.2019
5525 Clear 9 1023 81 10000 0.5 0 04:52 03.07.2019
5526 Clear 9 1023 81 10000 1 0 03:27 03.07.2019
5527 Clouds 9 1023 81 10000 1 290 02:37 03.07.2019
5528 Clear 10 1023 76 10000 1 0 01:22 03.07.2019
5529 Clouds 10 1023 76 10000 1 270 00:52 03.07.2019
5530 Clear 11 1023 66 10000 1.5 110 00:33 03.07.2019
5531 Clouds 13 1022 66 10000 3.1 310 23:39 02.07.2019
5532 Clouds 13 1022 66 10000 1 300 23:20 02.07.2019
5533 Clouds 13 1022 66 10000 1 300 23:20 02.07.2019
5534 Clouds 13 1022 66 10000 1 300 22:57 02.07.2019
5535 Clouds 13 1022 66 10000 1 300 22:57 02.07.2019
5536 Clouds 13 1022 66 10000 1 300 22:57 02.07.2019
5537 Clouds 13 1022 66 10000 1 300 22:39 02.07.2019
5538 Clear 15 1021 51 10000 2.6 330 22:20 02.07.2019
5539 Clouds 16 1021 45 10000 1.5 10 21:47 02.07.2019
5540 Clear 18 1022 45 10000 3.6 340 21:25 02.07.2019
5541 Clear 18 1022 45 10000 3.6 340 20:59 02.07.2019
5542 Clear 19 1022 45 10000 3.6 340 20:40 02.07.2019
5543 Clear 19 1022 42 10000 4.1 350 20:22 02.07.2019
5544 Clear 19 1022 45 10000 5.1 10 19:44 02.07.2019
5545 Clear 20 1022 39 10000 4.6 10 19:24 02.07.2019
5546 Clouds 20 1021 37 10000 5.1 360 18:58 02.07.2019
5547 Clear 21 1022 42 10000 4.6 340 18:19 02.07.2019
5548 Clear 21 1022 42 10000 4.6 340 17:58 02.07.2019
5549 Clear 21 1022 42 10000 5.7 350 17:37 02.07.2019
5550 Clear 21 1022 42 10000 5.1 330 17:19 02.07.2019
5551 Clear 21 1022 42 10000 5.1 330 17:19 02.07.2019
5552 Clear 21 1022 40 10000 6.2 350 16:43 02.07.2019
5553 Clear 21 1022 40 10000 6.2 350 16:25 02.07.2019
5554 Clouds 21 1022 49 10000 4.1 350 15:40 02.07.2019
5555 Clouds 20 1022 55 10000 4.1 360 15:22 02.07.2019
5556 Clouds 20 1022 45 10000 3.6 310 14:47 02.07.2019
5557 Clouds 21 1022 45 10000 3.6 310 14:27 02.07.2019
5558 Clouds 21 1022 49 10000 5.7 320 13:44 02.07.2019
5559 Clouds 20 1022 55 10000 5.1 320 13:19 02.07.2019
5560 Clouds 20 1022 59 10000 5.1 320 12:45 02.07.2019
5561 Clouds 19 1022 63 10000 5.7 310 12:24 02.07.2019
5562 Clouds 19 1022 63 10000 5.7 310 11:55 02.07.2019
5563 Clouds 18 1022 72 10000 5.1 300 11:37 02.07.2019
5564 Rain 18 1022 82 10000 5.7 320 11:18 02.07.2019
5565 Clouds 18 1022 67 10000 5.7 310 10:39 02.07.2019
5566 Clouds 18 1022 72 10000 6.2 300 10:21 02.07.2019
5567 Clouds 17 1022 55 10000 6.2 310 09:42 02.07.2019
5568 Clouds 16 1021 72 10000 5.1 300 09:19 02.07.2019
5569 Clouds 16 1022 63 10000 2.1 300 08:40 02.07.2019
5570 Clouds 15 1021 76 10000 4.1 300 08:20 02.07.2019
5571 Clouds 15 1021 71 10000 3.1 290 07:50 02.07.2019
5572 Clear 14 1021 76 10000 3.1 240 07:20 02.07.2019
5573 Clouds 12 1021 87 10000 3.1 300 06:42 02.07.2019
5574 Clear 11 1020 76 10000 2.6 280 05:55 02.07.2019
5575 Clouds 13 1020 67 10000 2.6 230 03:26 02.07.2019
5576 Clear 15 1019 55 10000 4.1 320 00:48 02.07.2019
5577 Clear 16 1020 63 10000 3.1 310 23:43 01.07.2019
5578 Clear 17 1019 55 10000 2.1 300 23:19 01.07.2019
5579 Clear 17 1017 52 10000 5.1 310 22:44 01.07.2019
5580 Clear 18 1017 52 10000 5.1 310 22:26 01.07.2019
5581 Clear 20 1017 46 10000 6.2 320 21:46 01.07.2019
5582 Clear 21 1017 46 10000 6.2 320 21:25 01.07.2019
5583 Clear 22 1016 43 10000 7.2 300 20:51 01.07.2019
5584 Clear 23 1016 40 10000 8.2 300 20:21 01.07.2019
5585 Clear 23 1016 40 10000 8.2 300 19:57 01.07.2019
5586 Clouds 23 1016 33 10000 5.7 320 19:39 01.07.2019
5587 Clear 24 1016 38 10000 9.3 310 19:21 01.07.2019
5588 Clear 25 1016 41 10000 9.3 320 18:50 01.07.2019
5589 Clear 25 1016 41 10000 9.3 320 18:28 01.07.2019
5590 Clear 25 1016 38 10000 7.7 300 17:55 01.07.2019
5591 Clear 26 1016 38 10000 8.2 320 17:37 01.07.2019
5592 Clear 26 1016 38 10000 8.2 320 17:19 01.07.2019
5593 Clear 26 1016 41 10000 8.2 330 16:44 01.07.2019
5594 Clear 26 1016 38 10000 7.2 300 16:24 01.07.2019
5595 Clear 26 1016 41 10000 7.2 310 15:44 01.07.2019
5596 Clear 26 1016 44 10000 4.6 320 15:26 01.07.2019
5597 Clouds 25 1016 41 10000 5.7 310 14:45 01.07.2019
5598 Clouds 25 1016 46 10000 6.2 310 14:24 01.07.2019
5599 Clouds 26 1016 46 10000 5.1 270 13:55 01.07.2019
5600 Clouds 25 1016 46 10000 5.1 270 13:37 01.07.2019
5601 Clouds 25 1016 50 10000 6.7 320 13:18 01.07.2019
5602 Clouds 24 1016 49 10000 6.2 290 12:38 01.07.2019
5603 Clouds 23 1017 53 10000 3.1 270 12:20 01.07.2019
5604 Clouds 24 1017 53 10000 4.6 270 11:47 01.07.2019
5605 Clear 23 1017 56 10000 4.1 280 11:28 01.07.2019
5606 Clear 22 1017 56 10000 5.7 310 10:55 01.07.2019
5607 Clear 22 1017 56 10000 5.7 310 10:37 01.07.2019
5608 Clear 21 1016 64 10000 5.7 310 10:18 01.07.2019
5609 Clear 20 1016 68 10000 4.1 290 09:41 01.07.2019
5610 Clear 19 1016 64 10000 2.6 290 09:22 01.07.2019
5611 Rain 19 1017 82 10000 2.6 310 08:39 01.07.2019
5612 Rain 19 1017 82 10000 2.6 310 08:21 01.07.2019
5613 Clouds 19 1016 72 10000 2.6 160 07:29 01.07.2019
5614 Clear 17 1016 67 10000 3.6 190 06:39 01.07.2019
5615 Clouds 18 1015 68 10000 2.1 310 02:48 01.07.2019
5616 Clouds 22 1016 47 10000 4.1 340 00:51 01.07.2019
5617 Clear 23 1016 63 10000 2.1 270 00:30 01.07.2019
5618 Clouds 24 1015 47 10000 2.1 330 23:58 30.06.2019
5619 Clear 23 1015 53 10000 5.1 310 23:23 30.06.2019
5620 Clear 23 1015 50 10000 5.1 310 22:53 30.06.2019
5621 Clear 25 1015 50 10000 6.2 310 22:22 30.06.2019
5622 Clear 27 1014 61 10000 4.6 320 21:48 30.06.2019
5623 Clear 28 1014 54 10000 6.2 310 21:30 30.06.2019
5624 Clear 29 1013 57 10000 6.2 320 20:59 30.06.2019
5625 Clear 30 1013 57 10000 6.2 320 20:40 30.06.2019
5626 Clear 30 1013 58 10000 4.6 320 20:21 30.06.2019
5627 Clear 30 1013 58 10000 5.7 320 19:47 30.06.2019
5628 Clear 31 1013 52 10000 2.6 320 19:25 30.06.2019
5629 Clear 33 1013 48 10000 5.7 320 18:41 30.06.2019
5630 Clear 34 1013 48 10000 6.7 320 18:21 30.06.2019
5631 Clear 34 1014 46 10000 7.7 330 17:40 30.06.2019
5632 Clear 34 1013 41 10000 6.7 320 17:19 30.06.2019
5633 Clear 35 1013 36 10000 5.7 310 16:51 30.06.2019
5634 Clear 35 1013 30 10000 5.1 250 16:32 30.06.2019
5635 Clear 35 1013 32 10000 4.6 240 15:39 30.06.2019
5636 Clear 34 1013 32 10000 4.1 250 15:19 30.06.2019
5637 -273 0 0 0 0 0 14:57 30.06.2019
5638 Clear 34 1013 32 10000 3.6 240 14:57 30.06.2019
5639 Clear 34 1013 32 10000 3.6 240 14:38 30.06.2019
5640 Clear 34 1013 31 10000 4.1 230 13:57 30.06.2019
5641 Clear 33 1013 31 10000 4.1 230 13:38 30.06.2019
5642 Clear 33 1013 38 10000 4.6 180 13:19 30.06.2019
5643 Clear 32 1014 38 10000 4.1 220 12:45 30.06.2019
5644 Clear 31 1014 37 10000 5.1 190 12:23 30.06.2019
5645 Clear 31 1014 37 10000 5.1 190 11:47 30.06.2019
5646 Clear 30 1014 37 10000 5.1 190 11:22 30.06.2019
5647 Clear 29 1014 45 10000 4.6 200 10:56 30.06.2019
5648 Clear 28 1014 45 10000 4.6 200 10:37 30.06.2019
5649 Clear 27 1014 44 10000 4.1 210 10:18 30.06.2019
5650 Clear 27 1014 44 10000 4.1 210 10:18 30.06.2019
5651 Clear 26 1014 47 10000 1.5 120 09:43 30.06.2019
5652 Clear 24 1015 53 10000 1.5 140 09:22 30.06.2019
5653 Clear 23 1015 56 10000 2.1 110 08:42 30.06.2019
5654 Clear 22 1015 60 10000 2.1 110 08:23 30.06.2019
5655 Clear 20 1015 68 10000 1 0 07:52 30.06.2019
5656 Clear 19 1013 33 10000 4.6 160 07:26 30.06.2019
5657 Clear 16 1015 67 10000 3.6 150 06:39 30.06.2019
5658 Clear 15 1015 67 10000 2.6 120 04:56 30.06.2019
5659 Clear 16 1015 55 10000 3.6 130 02:41 30.06.2019
5660 Clear 16 1016 82 10000 1.5 300 01:24 30.06.2019
5661 Clear 19 1016 41 10000 1.5 140 00:26 30.06.2019
5662 Clear 19 1017 82 10000 1.5 300 23:53 29.06.2019
5663 Clear 20 1017 60 10000 3.1 130 23:24 29.06.2019
5664 Clear 19 1017 60 10000 3.1 140 22:55 29.06.2019
5665 Clear 21 1017 60 10000 1.5 140 22:25 29.06.2019
5666 Clear 23 1017 44 10000 1.5 90 21:57 29.06.2019
5667 Clear 23 1017 44 10000 1.5 90 21:57 29.06.2019
5668 Clear 26 1017 44 10000 1.5 90 21:39 29.06.2019
5669 Clear 26 1017 39 10000 2.1 90 21:20 29.06.2019
5670 Clear 28 1018 37 10000 2.6 100 20:40 29.06.2019
5671 Clear 28 1018 30 10000 3.1 100 20:21 29.06.2019
5672 Clear 30 1018 27 10000 3.1 100 19:43 29.06.2019
5673 Clear 30 1018 25 10000 2.6 90 19:22 29.06.2019
5674 Clear 30 1018 25 10000 2.1 80 18:48 29.06.2019
5675 Clear 31 1018 25 10000 2.6 100 18:25 29.06.2019
5676 Clear 31 1019 25 10000 3.1 100 17:40 29.06.2019
5677 Clear 31 1019 28 10000 2.6 90 17:22 29.06.2019
5678 Clear 30 1019 28 10000 3.1 90 16:51 29.06.2019
5679 Clear 30 1020 30 10000 3.1 90 16:28 29.06.2019
5680 Clear 29 1020 26 10000 3.1 110 15:37 29.06.2019
5681 Clear 29 1020 28 10000 2.6 80 15:19 29.06.2019
5682 Clear 29 1020 30 10000 2.6 0 14:41 29.06.2019
5683 Clear 29 1021 28 10000 3.1 80 14:23 29.06.2019
5684 Clear 28 1021 36 10000 3.1 100 13:44 29.06.2019
5685 Clear 28 1021 36 10000 3.1 100 13:26 29.06.2019
5686 Clear 27 1021 38 10000 2.1 0 12:45 29.06.2019
5687 Clear 26 1022 41 10000 2.6 0 12:26 29.06.2019
5688 Clear 25 1022 41 10000 2.1 130 11:51 29.06.2019
5689 Clear 25 1022 46 10000 2.1 0 11:29 29.06.2019
5690 Clear 24 1022 46 10000 3.6 120 10:52 29.06.2019
5691 Clear 23 1022 52 10000 3.1 110 10:29 29.06.2019
5692 Clear 22 1022 56 10000 2.1 60 09:58 29.06.2019
5693 Clear 20 1022 68 10000 1.5 80 09:31 29.06.2019
5694 Clear 19 1022 72 10000 1.5 110 08:41 29.06.2019
5695 Clear 16 1023 87 10000 0.5 0 07:46 29.06.2019
5696 Clear 15 1022 63 10000 3.1 120 07:19 29.06.2019
5697 Clear 13 1022 71 10000 3.6 110 06:42 29.06.2019
5698 Clear 11 1022 81 10000 3.1 120 06:20 29.06.2019
5699 Clouds 13 1023 76 10000 2.1 310 02:26 29.06.2019
5700 Clear 13 1024 76 10000 2.1 300 00:57 29.06.2019
5701 Clear 15 1023 72 10000 0.5 360 23:59 28.06.2019
5702 Clear 16 1024 59 10000 2.1 120 23:23 28.06.2019
5703 Clear 16 1023 52 10000 1 30 22:53 28.06.2019
5704 Clear 17 1024 63 10000 1 0 22:28 28.06.2019
5705 Clear 18 1024 63 10000 2.6 40 21:46 28.06.2019
5706 Clear 21 1023 64 10000 2.1 40 21:21 28.06.2019
5707 Clear 21 1023 49 10000 2.1 10 20:46 28.06.2019
5708 Clear 22 1023 46 10000 2.6 330 20:25 28.06.2019
5709 Clear 23 1024 43 10000 2.6 350 19:53 28.06.2019
5710 Clear 23 1024 40 10000 2.6 350 19:27 28.06.2019
5711 Clear 24 1024 40 10000 2.6 360 18:45 28.06.2019
5712 Clear 24 1024 40 10000 2.6 20 18:22 28.06.2019
5713 Clear 24 1024 35 10000 2.6 360 17:58 28.06.2019
5714 Clear 24 1024 40 10000 3.1 360 17:29 28.06.2019
5715 Clear 24 1024 40 10000 3.6 360 16:49 28.06.2019
5716 Clear 24 1024 40 10000 3.6 10 16:24 28.06.2019
5717 Clear 24 1024 46 10000 3.1 40 15:48 28.06.2019
5718 Clear 23 1025 46 10000 3.6 30 15:23 28.06.2019
5719 Clear 22 1025 46 10000 3.1 360 14:43 28.06.2019
5720 Clear 22 1025 46 10000 3.1 360 14:43 28.06.2019
5721 Clear 22 1025 49 10000 4.1 30 14:22 28.06.2019
5722 Clear 22 1025 49 10000 3.6 10 13:51 28.06.2019
5723 Clear 21 1025 55 10000 3.1 350 13:30 28.06.2019
5724 Clear 21 1025 59 10000 2.1 320 12:58 28.06.2019
5725 Clear 20 1025 59 10000 2.1 320 12:40 28.06.2019
5726 Clear 19 1026 63 10000 1.5 0 11:50 28.06.2019
5727 Clear 18 1026 67 10000 2.1 320 11:22 28.06.2019
5728 Clear 18 1026 67 10000 1.5 0 10:44 28.06.2019
5729 Clear 18 1026 67 10000 1.5 0 10:44 28.06.2019
5730 Clear 17 1026 67 10000 1.5 0 10:21 28.06.2019
5731 Clouds 16 1026 76 10000 2.1 360 09:47 28.06.2019
5732 Clouds 15 1026 71 10000 1.5 0 09:29 28.06.2019
5733 Clouds 14 1026 71 10000 1.5 90 08:45 28.06.2019
5734 Clouds 13 1026 81 10000 1.5 0 08:25 28.06.2019
5735 Clouds 13 1026 81 10000 1.5 60 07:46 28.06.2019
5736 Clouds 12 1026 81 10000 2.1 60 06:57 28.06.2019
5737 Clouds 12 1026 81 10000 2.6 360 05:42 28.06.2019
5738 Clear 12 1027 76 10000 1.5 360 01:22 28.06.2019
5739 Clear 15 1027 76 10000 1.5 340 00:26 28.06.2019
5740 Clear 15 1026 67 10000 3.6 360 23:48 27.06.2019
5741 Clear 16 1026 67 10000 1.5 340 23:25 27.06.2019
5742 Clear 16 1025 59 10000 4.6 10 22:54 27.06.2019
5743 Clear 16 1025 67 10000 5.7 340 22:36 27.06.2019
5744 Clear 17 1025 67 10000 5.7 340 22:18 27.06.2019
5745 Clear 19 1025 63 10000 5.1 340 21:42 27.06.2019
5746 Clear 20 1025 56 10000 5.7 360 21:24 27.06.2019
5747 Clear 21 1025 52 10000 5.1 350 20:50 27.06.2019
5748 Clear 22 1025 52 10000 4.6 360 20:32 27.06.2019
5749 Clear 22 1025 49 10000 6.2 340 19:59 27.06.2019
5750 Clear 22 1025 49 10000 6.2 340 19:40 27.06.2019
5751 Clear 23 1025 46 10000 6.2 360 19:22 27.06.2019
5752 Clear 23 1025 49 10000 6.2 340 18:42 27.06.2019
5753 Clear 24 1025 53 10000 6.2 340 18:19 27.06.2019
5754 Clear 24 1025 49 10000 6.2 330 17:41 27.06.2019
5755 Clear 24 1025 36 10000 4.6 10 17:22 27.06.2019
5756 Clear 24 1026 46 10000 6.2 330 16:39 27.06.2019
5757 Clear 24 1026 49 10000 5.7 340 16:19 27.06.2019
5758 Clear 24 1026 49 10000 5.7 340 16:19 27.06.2019
5759 Clear 24 1026 43 10000 6.2 340 15:50 27.06.2019
5760 Clear 24 1026 46 10000 6.2 350 15:30 27.06.2019
5761 Clear 23 1026 49 10000 5.1 350 14:52 27.06.2019
5762 Clear 23 1027 49 10000 5.1 330 14:31 27.06.2019
5763 Clear 23 1027 52 10000 4.6 340 13:57 27.06.2019
5764 Clear 23 1027 52 10000 4.6 340 13:38 27.06.2019
5765 Clear 23 1027 52 10000 5.1 360 13:20 27.06.2019
5766 Clear 22 1027 49 10000 4.1 350 12:41 27.06.2019
5767 Clear 21 1027 52 10000 5.7 360 12:23 27.06.2019
5768 Clear 21 1027 59 10000 4.6 350 11:44 27.06.2019
5769 Clear 20 1027 63 10000 4.1 350 11:21 27.06.2019
5770 Clear 20 1027 63 10000 3.6 340 10:56 27.06.2019
5771 Clear 20 1027 63 10000 3.6 340 10:36 27.06.2019
5772 Clouds 19 1027 67 10000 4.1 330 10:18 27.06.2019
5773 Clouds 18 1027 67 10000 4.1 360 09:37 27.06.2019
5774 Clouds 17 1027 77 10000 4.6 330 09:19 27.06.2019
5775 Clouds 16 1027 82 10000 5.7 330 08:45 27.06.2019
5776 Clouds 16 1027 82 10000 5.1 330 08:23 27.06.2019
5777 Clouds 16 1027 82 10000 5.1 330 07:39 27.06.2019
5778 Clouds 16 1026 77 10000 4.1 10 06:55 27.06.2019
5779 Clouds 15 1027 82 10000 2.1 340 06:29 27.06.2019
5780 Clouds 15 1025 82 10000 2.6 20 03:50 27.06.2019
5781 Clear 17 1026 82 10000 2.6 360 02:40 27.06.2019
5782 Clear 18 1026 77 10000 2.1 340 01:18 27.06.2019
5783 Clouds 19 1024 68 10000 3.6 360 00:45 27.06.2019
5784 Clear 22 1026 72 10000 2.1 340 00:24 27.06.2019
5785 Clear 22 1025 68 10000 2.1 340 23:42 26.06.2019
5786 Clear 22 1025 73 10000 2.1 330 23:22 26.06.2019
5787 Clear 22 1024 65 10000 4.1 350 22:55 26.06.2019
5788 Clear 22 1024 73 10000 5.1 330 22:37 26.06.2019
5789 Clear 23 1024 73 10000 5.1 330 22:18 26.06.2019
5790 Clear 25 1024 69 10000 5.7 340 21:39 26.06.2019
5791 Clear 25 1024 69 10000 5.7 340 21:39 26.06.2019
5792 Clear 26 1023 69 10000 6.2 330 21:19 26.06.2019
5793 Clear 27 1023 61 10000 5.7 330 20:50 26.06.2019
5794 Clear 28 1023 54 10000 4.6 320 20:30 26.06.2019
5795 Clear 29 1023 51 10000 4.1 320 19:52 26.06.2019
5796 Clear 29 1023 51 10000 4.1 320 19:52 26.06.2019
5797 Clear 30 1023 51 10000 5.7 320 19:32 26.06.2019
5798 Clear 30 1023 51 10000 5.1 330 18:58 26.06.2019
5799 Clear 32 1023 51 10000 5.1 330 18:39 26.06.2019
5800 Clear 32 1023 45 10000 6.2 320 18:19 26.06.2019
5801 Clear 32 1023 45 10000 5.7 320 17:46 26.06.2019
5802 Clear 32 1023 45 10000 5.7 320 17:46 26.06.2019
5803 Clouds 33 1022 38 10000 4.6 20 17:27 26.06.2019
5804 Clouds 33 1022 38 10000 4.6 20 17:27 26.06.2019
5805 Clear 33 1023 48 10000 5.1 330 16:51 26.06.2019
5806 Clear 33 1023 45 10000 5.1 310 16:29 26.06.2019
5807 Clear 33 1023 48 10000 5.7 320 15:52 26.06.2019
5808 Clouds 33 1023 55 10000 4.1 330 15:28 26.06.2019
5809 Clear 33 1023 55 10000 4.6 300 14:42 26.06.2019
5810 Clouds 33 1023 48 10000 4.1 310 14:21 26.06.2019
5811 Clouds 33 1023 51 10000 5.7 320 13:46 26.06.2019
5812 Clouds 32 1024 55 10000 6.2 310 13:21 26.06.2019
5813 Clouds 32 1024 55 10000 6.2 310 13:21 26.06.2019
5814 Clouds 32 1024 58 10000 3.1 310 12:54 26.06.2019
5815 Clouds 32 1024 58 10000 3.1 310 12:54 26.06.2019
5816 Clouds 32 1024 58 10000 3.1 310 12:36 26.06.2019
5817 Clear 31 1024 62 10000 3.6 320 12:18 26.06.2019
5818 Clear 30 1023 65 10000 3.1 310 11:25 26.06.2019
5819 Clear 29 1023 65 10000 3.1 310 10:51 26.06.2019
5820 Clear 29 1023 65 10000 3.1 310 10:51 26.06.2019
5821 Clear 29 1023 65 10000 3.6 300 10:31 26.06.2019
5822 Clear 28 1023 69 10000 3.6 310 09:51 26.06.2019
5823 Clear 26 1023 69 10000 2.6 310 09:29 26.06.2019
5824 Clear 25 1022 69 10000 2.1 300 08:52 26.06.2019
5825 Clear 24 1022 73 10000 0.5 0 08:22 26.06.2019
5826 Clear 23 1022 78 10000 1 90 07:57 26.06.2019
5827 Clear 23 1022 78 10000 1 90 07:37 26.06.2019
5828 Clear 21 1021 82 10000 0.5 0 06:33 26.06.2019
5829 Clouds 21 1020 83 10000 1 310 01:36 26.06.2019
5830 Clouds 22 1020 83 10000 1.5 290 00:32 26.06.2019
5831 Clouds 23 1020 83 10000 1.5 290 23:49 25.06.2019
5832 Clear 24 1020 57 10000 1.5 160 23:31 25.06.2019
5833 Clear 24 1020 57 10000 1.5 180 22:59 25.06.2019
5834 Clear 24 1020 57 10000 1.5 180 22:41 25.06.2019
5835 Clear 25 1020 61 10000 1.5 170 22:22 25.06.2019
5836 Clear 27 1020 51 10000 1.5 170 21:46 25.06.2019
5837 Clear 28 1020 48 10000 2.6 190 21:24 25.06.2019
5838 Clear 29 1020 42 10000 3.1 200 20:48 25.06.2019
5839 Clear 29 1020 42 10000 3.1 200 20:48 25.06.2019
5840 Clear 29 1020 42 10000 3.1 200 20:48 25.06.2019
5841 Clear 30 1019 42 10000 3.1 210 20:24 25.06.2019
5842 Clear 31 1019 40 10000 3.1 170 19:56 25.06.2019
5843 Clear 31 1019 40 10000 3.1 170 19:37 25.06.2019
5844 Clear 32 1019 35 10000 3.6 160 19:19 25.06.2019
5845 Clear 32 1019 38 10000 4.1 150 18:41 25.06.2019
5846 Clear 32 1019 38 10000 4.1 150 18:23 25.06.2019
5847 -273 0 0 0 0 0 17:44 25.06.2019
5848 Clouds 33 1019 31 10000 4.6 210 17:23 25.06.2019
5849 Clouds 33 1019 31 10000 4.6 210 17:23 25.06.2019
5850 -273 0 0 0 0 0 17:23 25.06.2019
5851 Clear 32 1020 35 10000 4.6 150 16:44 25.06.2019
5852 Clear 32 1020 35 10000 4.1 160 16:25 25.06.2019
5853 Clear 32 1020 38 10000 5.1 160 15:43 25.06.2019
5854 Clear 32 1020 38 10000 5.1 150 15:25 25.06.2019
5855 Clear 31 1020 40 10000 5.1 140 14:57 25.06.2019
5856 Clear 31 1020 40 10000 5.1 140 14:38 25.06.2019
5857 Clear 31 1020 40 10000 5.7 160 14:20 25.06.2019
5858 Clear 31 1020 42 10000 4.6 150 13:41 25.06.2019
5859 Clear 31 1020 42 10000 4.6 140 13:19 25.06.2019
5860 Clear 30 1020 45 10000 4.6 150 12:41 25.06.2019
5861 Clear 29 1020 45 10000 4.6 130 12:23 25.06.2019
5862 Clear 29 1021 48 10000 4.6 140 11:44 25.06.2019
5863 Clear 28 1021 51 10000 4.6 130 11:23 25.06.2019
5864 Clear 28 1021 54 10000 4.1 140 10:48 25.06.2019
5865 Clear 27 1021 57 10000 4.1 120 10:24 25.06.2019
5866 Clear 25 1021 57 10000 4.6 110 09:59 25.06.2019
5867 Clear 24 1021 57 10000 4.6 110 09:38 25.06.2019
5868 Clear 24 1021 56 10000 3.6 130 09:20 25.06.2019
5869 Clear 23 1021 60 10000 2.6 110 08:50 25.06.2019
5870 Clear 23 1021 60 10000 2.6 110 08:50 25.06.2019
5871 Clear 22 1021 60 10000 2.6 110 08:29 25.06.2019
5872 Clear 21 1021 56 10000 2.1 120 07:43 25.06.2019
5873 Clear 20 1020 60 10000 1.5 110 07:23 25.06.2019
5874 Clear 19 1020 60 10000 1.5 110 06:42 25.06.2019
5875 Clear 17 1020 52 10000 3.1 130 04:30 25.06.2019
5876 Clear 19 1020 46 10000 3.1 130 02:35 25.06.2019
5877 Clear 19 1020 49 10000 4.1 120 00:38 25.06.2019
5878 Clear 20 1020 46 10000 4.1 130 00:18 25.06.2019
5879 Clouds 21 1021 77 10000 1 340 23:48 24.06.2019
5880 Clear 21 1020 49 10000 4.1 120 23:30 24.06.2019
5881 Clouds 22 1020 72 10000 1 340 22:45 24.06.2019
5882 Clear 23 1021 41 10000 3.1 90 22:19 24.06.2019
5883 Clear 24 1021 41 10000 3.1 90 22:19 24.06.2019
5884 Clear 25 1021 41 10000 3.1 90 21:43 24.06.2019
5885 Clear 25 1021 41 10000 4.1 90 21:20 24.06.2019
5886 Clear 25 1021 41 10000 4.1 90 21:20 24.06.2019
5887 Clear 26 1021 41 10000 3.1 90 20:59 24.06.2019
5888 Clear 26 1021 41 10000 3.1 90 20:40 24.06.2019
5889 Clear 27 1021 39 10000 4.1 80 20:22 24.06.2019
5890 Clear 28 1021 39 10000 4.6 80 19:47 24.06.2019
5891 Clear 28 1020 39 10000 5.7 80 19:25 24.06.2019
5892 Clear 28 1021 39 10000 5.7 90 18:54 24.06.2019
5893 Clear 28 1021 42 10000 5.1 80 18:30 24.06.2019
5894 Clear 29 1021 45 10000 5.1 80 17:59 24.06.2019
5895 Clouds 29 1020 37 10000 5.1 80 17:36 24.06.2019
5896 Clear 29 1021 45 10000 5.7 90 16:56 24.06.2019
5897 Clear 29 1021 45 10000 5.7 90 16:37 24.06.2019
5898 Clear 29 1021 42 10000 5.1 90 16:19 24.06.2019
5899 Clear 29 1021 42 10000 6.2 90 15:40 24.06.2019
5900 Clear 29 1021 42 10000 6.2 80 15:21 24.06.2019
5901 Clear 28 1021 47 10000 5.1 80 14:35 24.06.2019
5902 Clear 28 1022 44 10000 5.1 80 13:56 24.06.2019
5903 Clear 28 1022 47 10000 4.6 80 13:31 24.06.2019
5904 Clear 28 1022 47 10000 4.6 90 12:45 24.06.2019
5905 Clear 27 1022 47 10000 4.6 80 12:26 24.06.2019
5906 Clear 26 1022 50 10000 5.7 90 11:59 24.06.2019
5907 Clear 26 1022 50 10000 5.7 90 11:59 24.06.2019
5908 Clear 26 1022 50 10000 5.7 90 11:40 24.06.2019
5909 Clear 26 1022 50 10000 6.2 100 11:21 24.06.2019
5910 Clear 26 1022 53 10000 6.2 100 10:50 24.06.2019
5911 Clear 25 1022 56 10000 5.7 100 10:27 24.06.2019
5912 Clear 24 1022 56 10000 5.1 100 09:49 24.06.2019
5913 Clear 24 1022 56 10000 5.1 100 09:49 24.06.2019
5914 Clear 23 1021 53 10000 3.6 120 09:23 24.06.2019
5915 Clear 22 1022 64 10000 3.1 110 08:52 24.06.2019
5916 Clear 21 1022 64 10000 4.1 110 08:26 24.06.2019
5917 Clear 21 1022 64 10000 4.1 110 08:26 24.06.2019
5918 Clear 20 1022 68 10000 3.1 110 07:45 24.06.2019
5919 Clear 19 1021 60 10000 2.6 100 07:26 24.06.2019
5920 Clear 16 1021 72 10000 3.6 120 06:39 24.06.2019
5921 Clear 15 1022 72 10000 1.5 140 06:19 24.06.2019
5922 Clear 16 1022 72 10000 1.5 120 05:27 24.06.2019
5923 Clear 16 1021 59 10000 3.6 130 04:25 24.06.2019
5924 Clear 17 1021 55 10000 4.6 120 03:23 24.06.2019
5925 Clear 17 1021 55 10000 4.1 110 02:32 24.06.2019
5926 Clouds 17 1021 82 10000 2.6 310 01:53 24.06.2019
5927 Clear 18 1021 55 10000 3.6 110 01:22 24.06.2019
5928 Clear 18 1021 55 10000 2.6 100 00:40 24.06.2019
5929 Clear 19 1021 59 10000 2.1 100 00:19 24.06.2019
5930 Clear 19 1021 59 10000 2.1 100 00:19 24.06.2019
5931 Clouds 19 1020 82 10000 1.5 260 23:44 23.06.2019
5932 Clear 20 1021 56 10000 2.6 90 23:23 23.06.2019
5933 Clear 19 1021 52 10000 2.6 90 22:43 23.06.2019
5934 Clear 21 1020 52 10000 3.1 90 22:20 23.06.2019
5935 Clear 21 1020 49 10000 2.6 80 21:56 23.06.2019
5936 Clear 23 1020 49 10000 2.6 80 21:36 23.06.2019
5937 Clear 23 1020 46 10000 2.6 70 21:18 23.06.2019
5938 Clear 25 1020 41 10000 3.1 60 20:40 23.06.2019
5939 Clear 25 1020 44 10000 3.6 60 20:22 23.06.2019
5940 Clear 26 1020 39 10000 3.1 70 19:44 23.06.2019
5941 Clear 26 1020 36 10000 3.1 70 19:21 23.06.2019
5942 Clear 26 1020 36 10000 5.1 80 18:54 23.06.2019
5943 Clear 26 1020 36 10000 5.1 80 18:54 23.06.2019
5944 Clear 27 1020 36 10000 5.1 80 18:24 23.06.2019
5945 Clear 27 1020 36 10000 5.7 90 17:50 23.06.2019
5946 Clear 27 1020 36 10000 6.2 80 17:26 23.06.2019
5947 Clear 27 1020 36 10000 5.7 80 16:55 23.06.2019
5948 Clear 27 1020 34 10000 5.7 80 16:36 23.06.2019
5949 Clear 27 1020 34 10000 5.7 80 16:18 23.06.2019
5950 Clear 27 1020 30 10000 6.2 70 15:40 23.06.2019
5951 Clear 27 1021 36 10000 4.6 80 15:20 23.06.2019
5952 Clear 26 1021 34 10000 5.7 100 14:40 23.06.2019
5953 Clear 26 1021 33 10000 6.7 90 14:22 23.06.2019
5954 Clear 26 1021 36 10000 6.7 80 13:57 23.06.2019
5955 Clear 26 1021 36 10000 6.7 80 13:57 23.06.2019
5956 Clear 26 1021 36 10000 6.7 80 13:38 23.06.2019
5957 Clear 26 1021 36 10000 5.7 100 13:18 23.06.2019
5958 Clear 26 1021 41 10000 7.2 90 12:42 23.06.2019
5959 Clear 25 1021 41 10000 6.2 90 12:21 23.06.2019
5960 Clear 25 1021 47 10000 5.7 90 11:52 23.06.2019
5961 Clear 24 1021 49 10000 5.1 80 11:29 23.06.2019
5962 Clear 24 1021 56 10000 4.1 80 10:54 23.06.2019
5963 Clear 23 1021 56 10000 3.6 100 10:22 23.06.2019
5964 Clear 22 1021 60 10000 3.6 80 09:59 23.06.2019
5965 Clear 21 1021 63 10000 3.1 80 09:28 23.06.2019
5966 Clear 20 1021 63 10000 2.6 80 08:56 23.06.2019
5967 Clear 20 1021 72 10000 2.1 90 08:37 23.06.2019
5968 Clear 19 1021 72 10000 0.5 0 08:19 23.06.2019
5969 Clouds 18 1020 87 10000 3.1 300 07:51 23.06.2019
5970 Clouds 16 1020 87 10000 2.6 310 07:20 23.06.2019
5971 Clouds 15 1020 87 10000 2.6 310 06:53 23.06.2019
5972 Clear 15 1020 93 10000 1.5 200 05:54 23.06.2019
5973 Clear 15 1020 72 10000 2.6 100 03:30 23.06.2019
5974 Clear 17 1020 68 10000 1.5 80 01:43 23.06.2019
5975 Clear 17 1020 68 10000 1 90 01:24 23.06.2019
5976 Clear 18 1020 68 10000 2.1 100 00:34 23.06.2019
5977 Clouds 18 1019 64 10000 1.5 20 23:52 22.06.2019
5978 Clear 19 1020 82 10000 2.1 20 23:27 22.06.2019
5979 Clear 18 1019 77 10000 2.6 20 22:49 22.06.2019
5980 Clear 18 1019 72 10000 2.1 10 22:29 22.06.2019
5981 Clear 20 1019 68 10000 2.6 30 21:59 22.06.2019
5982 Clear 20 1019 68 10000 2.6 30 21:37 22.06.2019
5983 Clouds 22 1019 64 10000 2.6 20 21:18 22.06.2019
5984 Clouds 22 1019 64 10000 3.1 20 20:46 22.06.2019
5985 Clouds 23 1019 64 10000 3.6 20 20:25 22.06.2019
5986 Clouds 22 1019 60 10000 3.1 30 19:44 22.06.2019
5987 Clear 23 1019 60 10000 3.6 50 19:22 22.06.2019
5988 Clouds 23 1019 56 10000 3.6 40 18:47 22.06.2019
5989 Clouds 24 1019 56 10000 3.6 40 18:29 22.06.2019
5990 Clouds 24 1019 56 10000 4.6 50 17:52 22.06.2019
5991 Clouds 24 1019 53 10000 3.6 70 17:31 22.06.2019
5992 Clouds 24 1020 49 10000 5.1 60 16:50 22.06.2019
5993 Clouds 24 1020 49 10000 4.6 60 16:24 22.06.2019
5994 Clouds 24 1020 56 10000 4.1 50 15:54 22.06.2019
5995 Clouds 24 1020 56 10000 4.1 50 15:33 22.06.2019
5996 Clouds 24 1020 56 10000 3.6 50 14:53 22.06.2019
5997 Clouds 24 1021 60 10000 4.1 40 14:34 22.06.2019
5998 Clouds 23 1021 60 10000 3.6 70 13:58 22.06.2019
5999 Clouds 24 1021 60 10000 3.6 70 13:40 22.06.2019
6000 Clouds 23 1021 60 10000 4.1 80 13:19 22.06.2019
6001 Clear 23 1021 60 10000 3.6 60 12:47 22.06.2019
6002 Clear 22 1021 60 10000 4.1 50 12:29 22.06.2019
6003 Clear 21 1022 60 10000 3.1 70 11:53 22.06.2019
6004 Clear 21 1022 56 10000 3.6 40 11:29 22.06.2019
6005 Clear 20 1022 68 10000 3.6 30 10:47 22.06.2019
6006 Clear 20 1022 72 10000 3.6 40 10:19 22.06.2019
6007 Clear 18 1022 72 10000 1.5 0 09:42 22.06.2019
6008 Clouds 17 1021 72 10000 3.1 10 08:58 22.06.2019
6009 Clear 16 1022 82 10000 2.1 350 08:40 22.06.2019
6010 Clouds 15 1022 87 10000 2.1 350 07:56 22.06.2019
6011 Clear 14 1022 87 10000 1.5 160 07:30 22.06.2019
6012 Clouds 12 1021 87 10000 2.6 300 06:46 22.06.2019
6013 Clear 11 1022 93 10000 2.1 290 04:38 22.06.2019
6014 Clear 12 1022 81 10000 1.5 150 02:31 22.06.2019
6015 Clouds 13 1021 76 10000 2.6 320 00:57 22.06.2019
6016 Clear 13 1022 71 10000 1.5 340 00:35 22.06.2019
6017 Clouds 14 1021 76 10000 3.1 310 23:51 21.06.2019
6018 Clear 14 1021 67 10000 2.1 220 23:25 21.06.2019
6019 Clouds 14 1020 77 10000 1.5 290 22:58 21.06.2019
6020 Clear 14 1020 67 10000 2.6 320 22:40 21.06.2019
6021 Clear 15 1020 67 10000 2.6 320 22:20 21.06.2019
6022 Clear 18 1020 67 10000 2.6 320 21:40 21.06.2019
6023 Clear 19 1020 55 10000 3.1 320 21:21 21.06.2019
6024 Clear 20 1019 52 10000 4.6 330 20:49 21.06.2019
6025 Clear 20 1019 55 10000 5.1 340 20:27 21.06.2019
6026 Clear 21 1019 56 10000 5.1 340 19:54 21.06.2019
6027 Clear 21 1019 52 10000 4.6 340 19:23 21.06.2019
6028 Clear 21 1019 56 10000 4.1 330 18:43 21.06.2019
6029 Clear 22 1019 37 10000 4.6 260 18:24 21.06.2019
6030 Clear 22 1019 52 10000 3.6 340 17:36 21.06.2019
6031 Clouds 21 1018 52 10000 3.1 330 16:59 21.06.2019
6032 Clouds 22 1018 52 10000 3.1 330 16:37 21.06.2019
6033 Clouds 22 1018 56 10000 3.1 330 16:19 21.06.2019
6034 Clouds 22 1019 60 10000 3.6 320 15:38 21.06.2019
6035 Clouds 22 1019 60 10000 1.5 290 15:18 21.06.2019
6036 Clouds 21 1019 60 10000 1.5 0 14:40 21.06.2019
6037 Clouds 21 1019 59 10000 2.1 0 14:21 21.06.2019
6038 Clouds 22 1019 68 10000 3.6 280 13:40 21.06.2019
6039 Clouds 21 1019 68 10000 3.1 290 13:22 21.06.2019
6040 Clouds 21 1019 56 10000 2.1 210 12:51 21.06.2019
6041 Clouds 20 1019 77 10000 3.6 300 12:23 21.06.2019
6042 Clouds 19 1019 72 10000 3.6 320 11:56 21.06.2019
6043 Clouds 19 1019 72 10000 2.1 280 11:38 21.06.2019
6044 Clouds 19 1019 72 10000 2.1 280 11:19 21.06.2019
6045 Clouds 19 1018 77 10000 3.6 300 10:44 21.06.2019
6046 Clouds 19 1018 77 10000 3.6 300 10:44 21.06.2019
6047 Clouds 19 1018 82 10000 4.1 300 10:21 21.06.2019
6048 Fog 17 1018 82 10000 3.1 300 09:43 21.06.2019
6049 Fog 17 1018 82 9000 2.1 300 09:25 21.06.2019
6050 Fog 17 1018 87 8000 1.5 310 08:58 21.06.2019
6051 Fog 16 1018 87 8000 1.5 310 08:40 21.06.2019
6052 Fog 16 1018 93 8000 1.5 320 08:19 21.06.2019
6053 Fog 16 1017 87 9000 2.6 280 07:45 21.06.2019
6054 Fog 16 1017 87 9000 2.6 280 07:45 21.06.2019
6055 Fog 15 1017 100 2000 1.5 300 07:22 21.06.2019
6056 Fog 14 1017 87 7000 1.5 250 06:29 21.06.2019
6057 Fog 14 1017 93 50 0.5 170 05:55 21.06.2019
6058 Fog 14 1016 100 6000 1 280 04:49 21.06.2019
6059 Mist 15 1016 93 5000 1.5 290 03:48 21.06.2019
6060 Fog 15 1016 93 900 1 280 03:28 21.06.2019
6061 Clouds 15 1016 82 10000 2.1 250 02:34 21.06.2019
6062 Clouds 16 1015 82 10000 2.1 280 01:32 21.06.2019
6063 Rain 15 1015 93 10000 1.5 250 00:46 21.06.2019
6064 Rain 16 1015 93 8000 2.1 330 23:57 20.06.2019
6065 Rain 16 1015 93 10000 1.5 270 23:39 20.06.2019
6066 Rain 16 1015 93 10000 1.5 270 23:19 20.06.2019
6067 Thunderstorm 16 1014 93 10000 2.1 280 22:41 20.06.2019
6068 Clear 16 1014 93 10000 2.1 250 22:23 20.06.2019
6069 Clear 16 1014 93 10000 2.1 250 22:23 20.06.2019
6070 Clear 16 1014 93 10000 2.6 260 21:56 20.06.2019
6071 Clear 16 1014 93 10000 2.6 260 21:38 20.06.2019
6072 Clouds 18 1013 93 10000 2.6 260 21:19 20.06.2019
6073 Rain 18 1013 93 10000 1 0 20:41 20.06.2019
6074 Clear 18 1013 68 10000 2.6 270 20:23 20.06.2019
6075 Clouds 19 1012 88 10000 1 360 19:46 20.06.2019
6076 Rain 19 1012 93 10000 1.5 270 19:19 20.06.2019
6077 Thunderstorm 20 1012 64 10000 3.1 310 18:58 20.06.2019
6078 Thunderstorm 21 1012 64 10000 3.1 310 18:40 20.06.2019
6079 Thunderstorm 22 1011 56 10000 3.6 330 18:21 20.06.2019
6080 Thunderstorm 23 1012 56 10000 3.6 0 17:47 20.06.2019
6081 Thunderstorm 23 1011 73 10000 2.6 180 17:29 20.06.2019
6082 Clouds 23 1012 68 10000 4.1 300 16:44 20.06.2019
6083 Clouds 24 1012 60 10000 3.6 290 16:19 20.06.2019
6084 Rain 24 1012 60 10000 3.6 320 15:56 20.06.2019
6085 Rain 24 1012 60 10000 3.6 320 15:38 20.06.2019
6086 Clouds 24 1012 50 10000 5.1 250 15:18 20.06.2019
6087 Clouds 23 1012 60 10000 3.6 290 14:43 20.06.2019
6088 Clouds 24 1012 56 10000 5.7 290 14:21 20.06.2019
6089 Clouds 23 1012 56 10000 4.6 260 13:40 20.06.2019
6090 Clouds 23 1012 56 10000 4.1 260 13:19 20.06.2019
6091 Clouds 23 1012 64 10000 5.1 260 12:44 20.06.2019
6092 Clouds 22 1012 68 10000 4.1 270 12:23 20.06.2019
6093 Clouds 22 1012 60 10000 4.6 260 11:45 20.06.2019
6094 Clouds 22 1012 68 10000 3.6 240 11:24 20.06.2019
6095 Clouds 21 1011 68 10000 3.1 240 10:54 20.06.2019
6096 Clouds 21 1011 68 10000 3.1 240 10:36 20.06.2019
6097 Clouds 21 1012 72 10000 3.1 250 10:18 20.06.2019
6098 Clouds 20 1011 72 10000 2.6 0 09:40 20.06.2019
6099 Clouds 19 1011 93 10000 2.6 340 09:21 20.06.2019
6100 Clouds 18 1011 88 10000 1 0 08:45 20.06.2019
6101 Clouds 18 1011 100 10000 1.5 50 08:27 20.06.2019
6102 Clouds 18 1011 93 10000 0.5 0 07:53 20.06.2019
6103 Fog 17 1010 77 10000 3.6 190 07:28 20.06.2019
6104 Clouds 16 1010 77 10000 3.1 210 06:27 20.06.2019
6105 Clouds 16 1010 93 10000 1.5 290 04:54 20.06.2019
6106 Clear 17 1009 82 10000 3.1 230 02:29 20.06.2019
6107 Clear 17 1009 82 10000 3.1 160 00:34 20.06.2019
6108 Thunderstorm 18 1009 53 10000 5.1 320 23:56 19.06.2019
6109 Thunderstorm 19 1008 68 10000 2.1 140 23:37 19.06.2019
6110 Thunderstorm 19 1008 68 10000 2.1 140 23:19 19.06.2019
6111 Thunderstorm 18 1008 68 10000 2.1 140 22:40 19.06.2019
6112 Thunderstorm 20 1008 72 10000 3.1 120 22:18 19.06.2019
6113 Thunderstorm 20 1008 72 10000 3.1 120 22:18 19.06.2019
6114 Thunderstorm 20 1008 72 10000 3.1 120 22:18 19.06.2019
6115 Rain 20 1008 77 10000 3.1 110 21:42 19.06.2019
6116 Clouds 23 1008 73 10000 0.5 0 21:23 19.06.2019
6117 Clouds 23 1008 73 10000 1.5 280 20:42 19.06.2019
6118 Clouds 23 1008 73 10000 1.5 280 20:42 19.06.2019
6119 Thunderstorm 23 1008 73 10000 1.5 30 20:22 19.06.2019
6120 Thunderstorm 23 1008 64 10000 1 0 19:51 19.06.2019
6121 Rain 24 1008 77 10000 1.5 40 19:29 19.06.2019
6122 Rain 25 1008 77 10000 2.6 60 18:57 19.06.2019
6123 Thunderstorm 26 1008 88 10000 4.6 350 18:28 19.06.2019
6124 Thunderstorm 28 1007 64 10000 2.1 310 17:53 19.06.2019
6125 Thunderstorm 28 1007 64 10000 2.1 310 17:53 19.06.2019
6126 Thunderstorm 29 1007 45 10000 4.1 190 17:33 19.06.2019
6127 Clouds 29 1008 45 10000 3.6 210 16:57 19.06.2019
6128 Clouds 29 1008 45 10000 3.6 210 16:38 19.06.2019
6129 Clouds 29 1008 39 10000 4.6 220 16:20 19.06.2019
6130 Clouds 29 1008 42 10000 4.6 200 15:47 19.06.2019
6131 Thunderstorm 29 1008 39 10000 5.7 190 15:25 19.06.2019
6132 Thunderstorm 30 1008 42 10000 6.2 180 14:50 19.06.2019
6133 Rain 30 1009 42 10000 4.6 190 14:29 19.06.2019
6134 Clear 30 1009 45 10000 5.7 200 13:59 19.06.2019
6135 Clear 30 1009 45 10000 5.7 200 13:38 19.06.2019
6136 Clear 30 1009 45 10000 5.7 190 13:20 19.06.2019
6137 Clear 29 1009 48 10000 5.1 160 12:42 19.06.2019
6138 Clear 29 1009 51 10000 4.1 180 12:20 19.06.2019
6139 Clear 28 1009 51 10000 4.6 170 11:44 19.06.2019
6140 Clear 27 1010 50 10000 3.1 160 11:25 19.06.2019
6141 Clear 27 1010 57 10000 3.1 130 10:51 19.06.2019
6142 Clear 26 1010 57 10000 3.1 140 10:32 19.06.2019
6143 Clear 25 1010 64 10000 3.1 150 09:59 19.06.2019
6144 Clear 24 1010 64 10000 3.1 150 09:39 19.06.2019
6145 Clear 23 1010 60 10000 3.1 150 09:19 19.06.2019
6146 Clear 22 1010 73 10000 2.1 140 08:48 19.06.2019
6147 Clear 21 1010 77 10000 1.5 80 08:28 19.06.2019
6148 Clear 20 1011 82 10000 1 0 07:47 19.06.2019
6149 Clear 19 1011 88 10000 1.5 100 07:23 19.06.2019
6150 Fog 17 1011 82 10000 1.5 50 06:49 19.06.2019
6151 Fog 17 1011 88 10000 0.5 0 06:24 19.06.2019
6152 Fog 16 1011 93 10000 1 290 05:47 19.06.2019
6153 Clear 17 1010 64 10000 3.6 170 04:19 19.06.2019
6154 Clear 17 1011 60 10000 3.6 170 03:18 19.06.2019
6155 Clouds 18 1012 88 10000 1 300 01:48 19.06.2019
6156 Clouds 19 1012 82 10000 2.6 300 00:57 19.06.2019
6157 Clear 19 1012 60 10000 3.6 170 00:39 19.06.2019
6158 Clear 19 1012 56 10000 3.1 170 00:19 19.06.2019
6159 Clear 20 1012 56 10000 3.1 170 23:46 18.06.2019
6160 Clear 20 1012 60 10000 3.1 170 23:25 18.06.2019
6161 Clouds 20 1012 82 10000 1.5 290 22:43 18.06.2019
6162 Clear 21 1013 68 10000 1.5 140 22:24 18.06.2019
6163 Clear 21 1013 64 10000 1.5 180 21:56 18.06.2019
6164 Clear 23 1013 64 10000 1.5 180 21:37 18.06.2019
6165 Clear 24 1013 60 10000 1.5 170 21:19 18.06.2019
6166 Clear 24 1013 57 10000 1.5 200 20:42 18.06.2019
6167 Clear 25 1013 57 10000 1.5 180 20:23 18.06.2019
6168 Clear 26 1013 53 10000 2.1 170 19:41 18.06.2019
6169 Clear 26 1013 50 10000 1.5 190 19:23 18.06.2019
6170 Clear 27 1013 44 10000 2.6 160 18:56 18.06.2019
6171 Clear 27 1013 44 10000 3.6 180 18:26 18.06.2019
6172 Clear 28 1014 42 10000 3.1 170 17:56 18.06.2019
6173 Clear 28 1014 42 10000 3.1 170 17:56 18.06.2019
6174 Clear 28 1014 42 10000 3.1 170 17:38 18.06.2019
6175 Clouds 28 1013 42 10000 3.1 210 17:19 18.06.2019
6176 Clear 28 1014 37 10000 2.1 160 16:42 18.06.2019
6177 Clear 28 1014 39 10000 2.6 0 16:22 18.06.2019
6178 Clear 28 1014 39 10000 2.6 0 16:22 18.06.2019
6179 Clear 28 1014 37 10000 3.1 170 15:42 18.06.2019
6180 Clear 28 1015 39 10000 2.6 170 15:23 18.06.2019
6181 Clear 28 1015 42 10000 2.6 80 14:56 18.06.2019
6182 Clear 28 1015 42 10000 2.6 80 14:38 18.06.2019
6183 Clear 27 1015 44 10000 2.6 150 14:19 18.06.2019
6184 Clear 27 1015 44 10000 3.1 100 13:50 18.06.2019
6185 Clear 27 1016 44 10000 3.6 150 13:30 18.06.2019
6186 Clouds 27 1016 44 10000 4.1 140 12:46 18.06.2019
6187 Clear 27 1016 50 10000 2.6 150 12:28 18.06.2019
6188 Clear 26 1016 53 10000 1.5 0 11:54 18.06.2019
6189 Clear 26 1016 53 10000 1.5 0 11:36 18.06.2019
6190 Clear 26 1016 50 10000 1.5 0 11:18 18.06.2019
6191 Clear 24 1017 56 10000 2.6 80 10:41 18.06.2019
6192 Clear 24 1017 60 10000 3.1 130 10:22 18.06.2019
6193 Clear 23 1017 64 10000 2.6 110 09:51 18.06.2019
6194 Clear 22 1017 68 10000 1.5 70 09:25 18.06.2019
6195 Clear 20 1017 82 10000 1.5 80 08:50 18.06.2019
6196 Clouds 19 1017 82 10000 0.5 0 08:30 18.06.2019
6197 Clouds 18 1017 82 10000 0.5 0 07:56 18.06.2019
6198 Clear 17 1016 68 10000 2.6 170 07:26 18.06.2019
6199 Clouds 16 1017 87 10000 2.6 310 06:55 18.06.2019
6200 Clouds 15 1017 93 10000 0.5 0 05:27 18.06.2019
6201 Clear 14 1017 68 10000 2.1 140 04:21 18.06.2019
6202 Clouds 15 1018 87 10000 2.6 300 02:48 18.06.2019
6203 Clear 16 1018 68 10000 3.1 140 01:27 18.06.2019
6204 Clear 16 1018 87 10000 2.6 310 00:58 18.06.2019
6205 Clear 16 1018 68 10000 3.1 130 00:30 18.06.2019
6206 Clear 17 1018 82 10000 2.1 310 23:58 17.06.2019
6207 Clear 17 1018 68 10000 2.6 130 23:37 17.06.2019
6208 Clear 18 1018 68 10000 2.6 130 23:18 17.06.2019
6209 Clear 18 1018 68 10000 1.5 70 22:40 17.06.2019
6210 Clear 19 1018 68 10000 1.5 70 22:21 17.06.2019
6211 Clear 20 1018 64 10000 2.1 110 21:45 17.06.2019
6212 Clear 22 1018 60 10000 2.6 90 21:23 17.06.2019
6213 Clear 23 1018 56 10000 2.6 80 20:43 17.06.2019
6214 Clear 24 1018 50 10000 3.1 80 20:24 17.06.2019
6215 Clear 24 1019 50 10000 3.1 80 19:57 17.06.2019
6216 Clear 24 1019 50 10000 3.1 80 19:39 17.06.2019
6217 Clear 24 1019 50 10000 3.1 80 19:39 17.06.2019
6218 Clear 24 1019 47 10000 3.1 90 19:20 17.06.2019
6219 Clear 24 1019 47 10000 3.1 70 18:39 17.06.2019
6220 Clear 25 1019 47 10000 3.1 70 18:18 17.06.2019
6221 Clear 25 1019 47 10000 3.1 70 18:18 17.06.2019
6222 Clouds 25 1019 44 10000 1.5 110 17:48 17.06.2019
6223 Clouds 25 1019 44 10000 1.5 110 17:30 17.06.2019
6224 Clouds 25 1019 44 10000 2.6 110 17:00 17.06.2019
6225 Clouds 25 1020 47 10000 2.1 0 16:41 17.06.2019
6226 Clouds 25 1020 47 10000 2.1 0 16:23 17.06.2019
6227 Clouds 25 1021 50 10000 3.1 90 15:44 17.06.2019
6228 Clouds 24 1021 50 10000 3.1 90 15:20 17.06.2019
6229 Clouds 24 1021 44 10000 3.1 80 14:56 17.06.2019
6230 Clouds 24 1021 53 10000 3.1 70 14:38 17.06.2019
6231 Clouds 24 1020 47 10000 3.1 80 14:19 17.06.2019
6232 Clouds 24 1021 56 10000 3.1 120 13:42 17.06.2019
6233 Clouds 24 1022 53 10000 3.6 90 13:21 17.06.2019
6234 Clouds 24 1022 60 10000 3.6 90 12:46 17.06.2019
6235 Clouds 23 1022 60 10000 3.6 90 12:22 17.06.2019
6236 Clouds 23 1022 64 10000 3.1 100 11:45 17.06.2019
6237 Clouds 23 1022 64 10000 3.1 100 11:26 17.06.2019
6238 Clouds 21 1022 77 10000 2.1 100 10:48 17.06.2019
6239 Fog 21 1022 77 10000 2.1 100 10:29 17.06.2019
6240 Fog 20 1022 87 5000 1.5 0 09:57 17.06.2019
6241 Fog 20 1023 88 10000 1.5 80 09:39 17.06.2019
6242 Fog 17 1023 93 10000 1.5 110 09:20 17.06.2019
6243 Fog 17 1023 93 10000 1.5 120 08:39 17.06.2019
6244 Fog 15 1023 100 900 0.5 340 08:21 17.06.2019
6245 Clear 15 1022 82 10000 1.5 0 07:40 17.06.2019
6246 Fog 14 1023 100 100 1 310 07:20 17.06.2019
6247 Fog 12 1022 100 150 0.5 0 06:29 17.06.2019
6248 Fog 12 1022 93 4000 2.1 310 05:31 17.06.2019
6249 Fog 12 1022 87 10000 3.1 170 04:33 17.06.2019
6250 Clear 12 1022 87 10000 1.5 180 03:33 17.06.2019
6251 Clear 12 1022 81 10000 1.5 170 02:49 17.06.2019
6252 Clear 13 1022 76 10000 1 0 02:31 17.06.2019
6253 Clear 13 1022 76 10000 0.5 0 01:38 17.06.2019
6254 Rain 14 1022 93 10000 2.1 310 00:58 17.06.2019
6255 Rain 14 1022 87 10000 2.6 120 00:38 17.06.2019
6256 Rain 15 1022 87 10000 2.6 120 00:20 17.06.2019
6257 Rain 15 1022 93 7000 2.6 260 23:40 16.06.2019
6258 Rain 15 1022 93 7000 2.6 260 23:20 16.06.2019
6259 Clouds 16 1021 82 10000 2.1 120 22:47 16.06.2019
6260 Clouds 16 1021 82 10000 2.1 120 22:21 16.06.2019
6261 Clouds 16 1021 82 10000 1.5 0 21:59 16.06.2019
6262 Rain 18 1021 77 10000 2.1 360 21:40 16.06.2019
6263 Rain 18 1021 77 10000 2.1 360 21:21 16.06.2019
6264 Clouds 19 1021 77 10000 2.1 350 20:54 16.06.2019
6265 Rain 19 1021 77 10000 2.1 350 20:54 16.06.2019
6266 Clouds 20 1021 64 10000 1.5 80 20:36 16.06.2019
6267 Clouds 19 1021 68 10000 1.5 130 20:18 16.06.2019
6268 Clouds 20 1021 64 10000 2.1 140 19:39 16.06.2019
6269 Clouds 20 1021 64 10000 2.1 100 19:21 16.06.2019
6270 Clouds 20 1021 64 10000 2.1 100 19:21 16.06.2019
6271 Clouds 20 1021 64 10000 2.1 100 18:57 16.06.2019
6272 Clouds 20 1021 68 10000 1.5 70 18:36 16.06.2019
6273 Clouds 20 1021 77 10000 2.1 30 18:18 16.06.2019
6274 Clouds 20 1021 72 10000 3.1 350 17:42 16.06.2019
6275 Clouds 20 1021 72 10000 3.1 350 17:21 16.06.2019
6276 Rain 20 1021 72 10000 1 0 16:56 16.06.2019
6277 Rain 20 1021 68 10000 1.5 240 16:38 16.06.2019
6278 Clouds 20 1021 72 10000 1.5 210 16:19 16.06.2019
6279 Clouds 21 1021 77 10000 2.6 220 15:41 16.06.2019
6280 Clouds 20 1021 77 10000 2.6 220 15:23 16.06.2019
6281 Clouds 20 1021 77 10000 2.6 190 14:42 16.06.2019
6282 Clouds 20 1021 77 10000 2.6 190 14:23 16.06.2019
6283 Clouds 20 1021 77 10000 2.6 190 14:23 16.06.2019
6284 Clouds 19 1021 77 10000 2.6 150 13:51 16.06.2019
6285 Clouds 19 1021 88 10000 3.1 150 13:26 16.06.2019
6286 Rain 19 1021 93 9000 2.6 140 12:57 16.06.2019
6287 Rain 19 1021 93 9000 2.6 140 12:57 16.06.2019
6288 Drizzle 19 1021 87 9000 2.6 140 12:38 16.06.2019
6289 Rain 18 1021 87 10000 3.1 130 12:18 16.06.2019
6290 Rain 18 1021 93 10000 1.5 160 11:38 16.06.2019
6291 Rain 17 1020 93 10000 2.1 110 11:19 16.06.2019
6292 Rain 17 1020 87 10000 1.5 160 10:45 16.06.2019
6293 Rain 17 1020 93 10000 2.6 150 10:20 16.06.2019
6294 Drizzle 16 1020 93 10000 2.6 120 09:47 16.06.2019
6295 Drizzle 16 1020 93 10000 2.6 120 09:25 16.06.2019
6296 Rain 16 1019 93 10000 1 0 08:50 16.06.2019
6297 Rain 16 1019 93 10000 1 0 08:22 16.06.2019
6298 Drizzle 15 1018 82 10000 1.5 0 07:50 16.06.2019
6299 Drizzle 14 1018 82 10000 1.5 0 07:32 16.06.2019
6300 Drizzle 14 1018 93 10000 1.5 290 06:57 16.06.2019
6301 Drizzle 14 1018 93 10000 1.5 290 06:57 16.06.2019
6302 Clear 13 1018 100 10000 1 0 06:21 16.06.2019
6303 Clear 13 1018 93 10000 0.5 0 05:28 16.06.2019
6304 Clear 12 1018 87 10000 1.5 140 04:33 16.06.2019
6305 Clear 12 1018 87 10000 1 0 03:45 16.06.2019
6306 Clear 12 1018 87 10000 1 0 03:26 16.06.2019
6307 Clouds 13 1018 87 10000 1 310 01:55 16.06.2019
6308 Clear 13 1017 82 10000 1 0 01:37 16.06.2019
6309 Clear 14 1017 87 10000 1 330 00:59 16.06.2019
6310 Clear 14 1016 87 10000 2.1 250 00:37 16.06.2019
6311 Clear 14 1016 87 10000 2.1 250 00:18 16.06.2019
6312 Clear 15 1016 77 10000 2.1 310 23:40 15.06.2019
6313 Clear 15 1016 77 10000 2.1 310 23:20 15.06.2019
6314 Clear 16 1016 77 10000 2.6 330 22:49 15.06.2019
6315 Clear 16 1016 77 10000 2.6 330 22:26 15.06.2019
6316 Clear 18 1015 68 10000 2.6 320 21:45 15.06.2019
6317 Clear 19 1015 68 10000 2.6 320 21:27 15.06.2019
6318 Clear 19 1015 68 10000 2.6 320 21:27 15.06.2019
6319 Clear 19 1015 68 10000 2.6 320 21:27 15.06.2019
6320 Clear 21 1015 64 10000 4.6 320 20:46 15.06.2019
6321 Clear 21 1015 64 10000 4.6 320 20:24 15.06.2019
6322 Clear 22 1015 56 10000 4.6 300 19:53 15.06.2019
6323 Clouds 22 1014 46 10000 4.1 290 19:29 15.06.2019
6324 Clouds 22 1015 56 10000 6.2 320 18:59 15.06.2019
6325 Clouds 23 1015 53 10000 7.2 300 18:37 15.06.2019
6326 Clouds 23 1015 53 10000 6.7 300 18:18 15.06.2019
6327 Clouds 23 1015 53 10000 6.7 300 18:18 15.06.2019
6328 Clouds 23 1014 53 10000 8.2 290 17:40 15.06.2019
6329 Clouds 23 1014 53 10000 8.2 290 17:21 15.06.2019
6330 Clouds 23 1014 56 10000 8.7 290 16:44 15.06.2019
6331 Clouds 23 1014 56 10000 8.7 290 16:18 15.06.2019
6332 Clouds 23 1013 56 10000 6.2 260 15:41 15.06.2019
6333 Clouds 23 1013 56 10000 6.2 260 15:22 15.06.2019
6334 Clouds 23 1012 64 10000 5.7 250 14:39 15.06.2019
6335 Clouds 24 1012 60 10000 8.2 290 14:18 15.06.2019
6336 Clouds 24 1012 64 10000 6.7 260 13:44 15.06.2019
6337 Clouds 24 1012 64 10000 6.2 260 13:21 15.06.2019
6338 Clouds 23 1012 64 10000 6.2 260 12:59 15.06.2019
6339 Clouds 23 1011 68 10000 5.7 280 12:40 15.06.2019
6340 Clouds 22 1011 68 10000 5.7 280 12:21 15.06.2019
6341 Clouds 22 1010 64 10000 4.6 250 11:45 15.06.2019
6342 Clouds 22 1010 64 10000 4.6 250 11:45 15.06.2019
6343 Clouds 22 1010 64 10000 4.6 250 11:27 15.06.2019
6344 Clear 23 1009 64 10000 6.2 220 10:43 15.06.2019
6345 Clear 23 1009 64 10000 6.2 220 10:25 15.06.2019
6346 Clear 21 1009 73 10000 2.6 250 09:48 15.06.2019
6347 Clouds 20 1009 68 10000 4.6 190 09:26 15.06.2019
6348 Clouds 20 1009 68 10000 4.6 190 09:26 15.06.2019
6349 Clear 19 1008 68 10000 2.1 110 08:54 15.06.2019
6350 Clear 19 1008 82 10000 1 0 08:34 15.06.2019
6351 Clear 19 1008 82 10000 1 0 08:34 15.06.2019
6352 Clear 18 1008 88 10000 1.5 240 07:58 15.06.2019
6353 Clear 17 1008 93 10000 1.5 250 07:25 15.06.2019
6354 Clear 16 1009 87 10000 2.6 270 06:48 15.06.2019
6355 Clear 16 1009 87 10000 2.6 270 06:22 15.06.2019
6356 Clear 16 1009 93 10000 2.1 270 05:37 15.06.2019
6357 Thunderstorm 16 1009 87 10000 2.1 280 04:49 15.06.2019
6358 Thunderstorm 16 1009 87 10000 2.1 280 04:49 15.06.2019
6359 Clear 16 1010 93 10000 1 0 03:50 15.06.2019
6360 Clouds 16 1011 87 10000 5.1 300 03:19 15.06.2019
6361 Clear 17 1011 72 10000 1.5 110 02:23 15.06.2019
6362 Clear 17 1012 68 10000 3.1 100 01:50 15.06.2019
6363 Clouds 17 1012 87 10000 1 310 01:18 15.06.2019
6364 Clear 18 1013 64 10000 2.1 140 00:40 15.06.2019
6365 Clouds 19 1013 88 10000 1 280 23:55 14.06.2019
6366 Clear 19 1012 60 10000 1 100 23:27 14.06.2019
6367 Clear 19 1012 60 10000 1 100 23:27 14.06.2019
6368 Clouds 19 1013 77 10000 1 280 22:57 14.06.2019
6369 Clear 20 1014 64 10000 1.5 230 22:39 14.06.2019
6370 Clear 20 1014 64 10000 1.5 230 22:19 14.06.2019
6371 Clear 21 1014 60 10000 2.1 210 21:41 14.06.2019
6372 Clear 22 1014 60 10000 2.1 210 21:22 14.06.2019
6373 Clear 23 1014 60 10000 1.5 150 20:43 14.06.2019
6374 Clear 23 1014 60 10000 1.5 150 20:19 14.06.2019
6375 Clear 23 1015 57 10000 1.5 190 19:57 14.06.2019
6376 Clear 23 1015 53 10000 3.1 190 19:36 14.06.2019
6377 Clear 24 1014 50 10000 4.1 160 19:18 14.06.2019
6378 Clear 24 1015 57 10000 4.1 160 18:43 14.06.2019
6379 Clear 25 1015 57 10000 4.1 160 18:24 14.06.2019
6380 Clear 25 1015 50 10000 3.6 180 17:55 14.06.2019
6381 Clear 26 1015 57 10000 4.6 180 17:37 14.06.2019
6382 Clear 26 1015 53 10000 5.7 180 17:19 14.06.2019
6383 Clear 26 1015 47 10000 6.2 180 16:45 14.06.2019
6384 Clear 27 1015 47 10000 7.2 180 16:20 14.06.2019
6385 -273 0 0 0 0 0 15:42 14.06.2019
6386 -273 0 0 0 0 0 15:42 14.06.2019
6387 Clear 27 1016 44 10000 6.2 170 15:24 14.06.2019
6388 Clear 27 1016 44 10000 6.2 170 15:24 14.06.2019
6389 Clear 27 1016 44 10000 5.7 170 14:59 14.06.2019
6390 Clear 27 1016 44 10000 5.7 170 14:59 14.06.2019
6391 Clear 27 1016 44 10000 5.7 170 14:59 14.06.2019
6392 Clouds 27 1016 44 10000 7.7 180 14:40 14.06.2019
6393 Clouds 27 1016 44 10000 6.2 170 14:21 14.06.2019
6394 Clear 27 1016 47 10000 6.7 140 13:42 14.06.2019
6395 Clear 27 1016 47 10000 6.7 140 13:24 14.06.2019
6396 Clouds 26 1016 47 10000 5.7 190 12:43 14.06.2019
6397 Clear 25 1016 50 10000 5.7 150 12:25 14.06.2019
6398 Clouds 25 1016 47 10000 5.7 190 12:25 14.06.2019
6399 Clear 25 1016 53 10000 5.7 140 11:58 14.06.2019
6400 Clear 24 1016 53 10000 5.7 140 11:39 14.06.2019
6401 Clear 24 1016 53 10000 5.7 140 11:20 14.06.2019
6402 Clear 23 1016 56 10000 5.1 140 10:43 14.06.2019
6403 Clear 22 1016 63 10000 3.6 130 10:20 14.06.2019
6404 Clear 20 1016 68 10000 3.6 140 09:46 14.06.2019
6405 Clear 20 1016 68 10000 3.6 140 09:46 14.06.2019
6406 Clear 19 1016 68 10000 3.6 140 09:24 14.06.2019
6407 Clear 17 1016 72 10000 2.1 80 08:47 14.06.2019
6408 Clear 17 1016 72 10000 2.1 80 08:19 14.06.2019
6409 Clear 16 1016 77 10000 3.1 90 07:51 14.06.2019
6410 Clear 14 1016 82 10000 2.6 100 07:21 14.06.2019
6411 Clear 13 1014 62 10000 1.5 150 06:35 14.06.2019
6412 -273 0 0 0 0 0 05:58 14.06.2019
6413 -273 0 0 0 0 0 05:58 14.06.2019
6414 Clear 10 1015 76 10000 3.6 140 05:26 14.06.2019
6415 Clear 11 1015 71 10000 0.5 0 04:46 14.06.2019
6416 Clouds 11 1016 87 10000 1.5 310 03:52 14.06.2019
6417 Clear 11 1015 62 10000 1 0 03:26 14.06.2019
6418 Clouds 12 1016 93 10000 1.5 310 02:55 14.06.2019
6419 Clear 12 1015 58 10000 3.1 160 02:27 14.06.2019
6420 Clear 12 1015 58 10000 3.1 160 02:27 14.06.2019
6421 Clear 12 1015 58 10000 3.1 160 02:27 14.06.2019
6422 Clouds 12 1016 93 10000 1 310 00:58 14.06.2019
6423 Clear 13 1015 55 10000 3.1 170 00:23 14.06.2019
6424 Clouds 13 1016 81 10000 1 0 23:59 13.06.2019
6425 Clear 14 1015 55 10000 2.6 170 23:41 13.06.2019
6426 Clear 14 1015 55 10000 2.6 170 23:21 13.06.2019
6427 Clear 15 1015 59 10000 3.1 220 22:40 13.06.2019
6428 Rain 16 1015 55 10000 2.6 230 22:21 13.06.2019
6429 Rain 17 1014 52 10000 3.6 230 21:40 13.06.2019
6430 Rain 19 1014 52 10000 3.6 230 21:20 13.06.2019
6431 Clear 20 1014 45 10000 4.1 210 20:57 13.06.2019
6432 Clear 20 1014 45 10000 4.1 210 20:57 13.06.2019
6433 Clear 20 1014 49 10000 4.6 180 20:38 13.06.2019
6434 Clear 21 1014 46 10000 4.1 200 20:19 13.06.2019
6435 Clear 21 1014 49 10000 4.6 220 19:41 13.06.2019
6436 Clear 21 1014 49 10000 4.6 220 19:22 13.06.2019
6437 Clear 22 1013 46 10000 6.2 220 18:57 13.06.2019
6438 Clear 22 1013 43 10000 6.7 200 18:39 13.06.2019
6439 Clear 22 1013 43 10000 6.7 200 18:21 13.06.2019
6440 Clear 22 1013 49 10000 5.1 200 17:42 13.06.2019
6441 Clear 22 1013 49 10000 6.7 200 17:20 13.06.2019
6442 Clear 22 1014 46 10000 7.2 220 16:50 13.06.2019
6443 Clear 22 1014 46 10000 7.2 220 16:22 13.06.2019
6444 Clear 22 1014 45 10000 8.7 210 15:57 13.06.2019
6445 Clear 22 1014 45 10000 8.7 210 15:57 13.06.2019
6446 Clear 22 1014 46 10000 6.2 190 15:38 13.06.2019
6447 Clear 22 1014 46 10000 6.2 190 15:19 13.06.2019
6448 Clear 22 1014 49 10000 6.7 180 14:46 13.06.2019
6449 Clear 22 1014 49 10000 6.7 180 14:27 13.06.2019
6450 Clouds 22 1014 59 10000 4.6 230 13:46 13.06.2019
6451 Clouds 21 1014 59 10000 4.6 230 13:21 13.06.2019
6452 Clouds 21 1014 59 10000 4.6 220 12:58 13.06.2019
6453 Clouds 21 1014 56 10000 6.2 200 12:38 13.06.2019
6454 Clouds 21 1014 56 10000 6.2 200 12:19 13.06.2019
6455 Clouds 20 1014 59 10000 5.1 190 11:41 13.06.2019
6456 Clouds 20 1014 59 10000 5.1 190 11:22 13.06.2019
6457 Clouds 19 1014 67 10000 5.1 180 10:46 13.06.2019
6458 Clouds 19 1014 67 10000 5.1 180 10:27 13.06.2019
6459 Clear 17 1014 72 10000 4.1 140 09:48 13.06.2019
6460 Clear 16 1014 72 10000 4.1 140 09:25 13.06.2019
6461 Clear 16 1014 72 10000 4.1 140 09:25 13.06.2019
6462 Clear 16 1014 77 10000 3.6 140 08:50 13.06.2019
6463 Clear 15 1014 77 10000 2.6 140 08:30 13.06.2019
6464 Clear 14 1014 82 10000 2.6 130 07:59 13.06.2019
6465 Clear 14 1012 67 10000 3.6 170 07:31 13.06.2019
6466 Fog 12 1012 67 10000 3.1 160 06:53 13.06.2019
6467 Fog 12 1012 71 10000 2.6 160 06:24 13.06.2019
6468 Fog 11 1014 100 10000 0.5 10 05:58 13.06.2019
6469 Fog 11 1013 93 10000 1 0 05:38 13.06.2019
6470 Fog 11 1013 87 10000 1.5 160 05:18 13.06.2019
6471 Fog 11 1012 71 10000 3.1 180 03:36 13.06.2019
6472 Clouds 12 1014 93 10000 2.52 199.969 01:55 13.06.2019
6473 Clouds 12 1013 93 10000 1 280 00:30 13.06.2019
6474 Clear 13 1012 82 10000 1.5 190 23:26 12.06.2019
6475 Clear 13 1012 87 10000 1 180 22:58 12.06.2019
6476 Clear 14 1011 82 10000 1.5 200 22:39 12.06.2019
6477 Clear 14 1011 82 10000 1.5 200 22:21 12.06.2019
6478 Clouds 16 1011 77 10000 3.1 200 21:42 12.06.2019
6479 Clouds 17 1011 77 10000 3.1 200 21:22 12.06.2019
6480 Clouds 18 1010 72 10000 3.6 240 20:48 12.06.2019
6481 Clouds 18 1010 72 10000 3.6 240 20:29 12.06.2019
6482 Clouds 18 1010 72 10000 4.1 220 19:57 12.06.2019
6483 Clouds 18 1010 72 10000 4.1 220 19:38 12.06.2019
6484 Clouds 18 1010 77 10000 4.1 230 19:19 12.06.2019
6485 Clouds 18 1011 77 10000 3.6 220 18:42 12.06.2019
6486 Clouds 17 1011 77 10000 3.6 220 18:23 12.06.2019
6487 Clouds 16 1010 82 10000 3.6 220 17:45 12.06.2019
6488 Clouds 16 1010 82 10000 3.6 220 17:21 12.06.2019
6489 Clouds 16 1010 93 10000 2.1 240 16:43 12.06.2019
6490 Clouds 16 1010 93 10000 2.1 240 16:25 12.06.2019
6491 Rain 16 1010 100 8000 2.6 150 15:58 12.06.2019
6492 Rain 16 1010 100 7000 2.1 150 15:33 12.06.2019
6493 Rain 17 1009 93 9000 1.5 210 14:55 12.06.2019
6494 Thunderstorm 18 1009 88 7000 3.1 200 14:32 12.06.2019
6495 Rain 18 1009 93 7000 1.5 170 13:57 12.06.2019
6496 Rain 18 1008 82 10000 1 0 13:38 12.06.2019
6497 Rain 18 1008 93 8000 2.1 330 13:19 12.06.2019
6498 Rain 18 1008 82 10000 1 0 13:19 12.06.2019
6499 Rain 18 1008 88 7000 1 270 12:40 12.06.2019
6500 Rain 18 1008 88 10000 0.5 0 12:21 12.06.2019
6501 Rain 18 1008 88 10000 0.5 0 11:55 12.06.2019
6502 Rain 18 1008 88 10000 2.1 80 11:37 12.06.2019
6503 Clouds 18 1008 88 10000 2.1 90 11:19 12.06.2019
6504 Rain 18 1008 82 10000 2.1 80 10:42 12.06.2019
6505 Rain 18 1008 82 10000 2.1 80 10:18 12.06.2019
6506 Clouds 17 1008 87 10000 2.1 70 09:41 12.06.2019
6507 Clouds 17 1008 87 10000 2.1 70 09:21 12.06.2019
6508 Fog 17 1008 93 4400 1.5 50 08:29 12.06.2019
6509 Fog 16 1009 93 3600 1.5 90 07:58 12.06.2019
6510 Fog 15 1009 100 3300 1.5 320 07:20 12.06.2019
6511 Fog 15 1009 100 3300 1.5 310 06:39 12.06.2019
6512 Clouds 15 1010 87 8000 1 130 05:25 12.06.2019
6513 Clear 15 1010 87 10000 1 0 02:22 12.06.2019
6514 Clouds 15 1010 87 10000 2.6 310 00:47 12.06.2019
6515 Clear 16 1010 87 10000 3.6 300 00:19 12.06.2019
6516 Clear 16 1010 87 10000 3.6 310 23:42 11.06.2019
6517 Clear 16 1010 87 10000 3.6 310 23:23 11.06.2019
6518 Clouds 17 1011 82 10000 2.6 320 22:42 11.06.2019
6519 Clouds 18 1011 88 10000 4.6 330 22:18 11.06.2019
6520 Clouds 18 1011 88 10000 4.6 330 21:56 11.06.2019
6521 Thunderstorm 18 1011 82 10000 3.6 360 21:37 11.06.2019
6522 Thunderstorm 19 1011 82 10000 4.1 360 21:19 11.06.2019
6523 Clouds 20 1011 77 10000 4.1 360 20:46 11.06.2019
6524 Clouds 19 1012 77 10000 3.1 350 20:22 11.06.2019
6525 Clouds 20 1010 64 10000 3.6 360 19:52 11.06.2019
6526 Clouds 20 1012 77 10000 2.1 20 19:29 11.06.2019
6527 Clouds 21 1011 77 10000 3.1 20 18:53 11.06.2019
6528 Clouds 21 1011 68 10000 2.6 20 18:20 11.06.2019
6529 Clouds 21 1011 68 10000 2.6 20 18:20 11.06.2019
6530 Clouds 21 1011 68 10000 2.6 20 18:20 11.06.2019
6531 Clouds 21 1011 60 10000 2.1 100 17:41 11.06.2019
6532 Clouds 21 1011 68 10000 2.6 10 17:20 11.06.2019
6533 Clouds 22 1011 68 10000 3.1 360 16:44 11.06.2019
6534 Clouds 22 1011 68 10000 3.1 360 16:24 11.06.2019
6535 Clouds 22 1011 68 10000 1.5 280 15:44 11.06.2019
6536 Clouds 22 1011 68 10000 1.5 280 15:25 11.06.2019
6537 Clouds 21 1011 68 10000 2.1 0 14:58 11.06.2019
6538 Clouds 21 1012 68 10000 2.6 330 14:39 11.06.2019
6539 Clouds 21 1012 72 10000 2.1 360 14:19 11.06.2019
6540 Clouds 21 1012 77 10000 1.5 0 13:43 11.06.2019
6541 Clouds 20 1012 77 10000 2.1 10 13:21 11.06.2019
6542 Clouds 19 1012 82 10000 2.6 350 12:42 11.06.2019
6543 Clouds 19 1012 82 10000 2.6 350 12:22 11.06.2019
6544 Clouds 18 1012 87 10000 3.6 340 11:56 11.06.2019
6545 Clouds 18 1012 93 10000 3.1 340 11:33 11.06.2019
6546 Clouds 17 1011 93 10000 4.1 310 10:51 11.06.2019
6547 Clouds 17 1011 93 10000 2.6 320 10:27 11.06.2019
6548 Rain 16 1011 93 7000 2.1 360 09:52 11.06.2019
6549 Rain 16 1011 87 10000 1 0 09:28 11.06.2019
6550 Rain 15 1011 93 6000 1.5 360 08:59 11.06.2019
6551 Rain 15 1011 93 5000 1.5 320 08:40 11.06.2019
6552 Rain 15 1011 93 5000 1.5 320 08:20 11.06.2019
6553 Rain 15 1011 93 10000 1 220 07:34 11.06.2019
6554 Rain 15 1011 93 4000 1 0 06:53 11.06.2019
6555 Rain 15 1011 93 10000 3.6 270 05:21 11.06.2019
6556 Rain 14 1010 87 10000 1.5 0 04:40 11.06.2019
6557 Clear 15 1011 87 10000 3.1 240 02:27 11.06.2019
6558 Clear 15 1010 87 10000 2.6 140 00:53 11.06.2019
6559 Clear 16 1010 82 10000 1 0 00:31 11.06.2019
6560 Clear 17 1010 77 10000 2.1 170 23:46 10.06.2019
6561 Clear 17 1010 77 10000 2.1 170 23:21 10.06.2019
6562 Clouds 18 1011 68 10000 3.1 170 22:45 10.06.2019
6563 Clouds 18 1011 68 10000 3.1 170 22:27 10.06.2019
6564 Clouds 18 1011 68 10000 3.1 170 21:58 10.06.2019
6565 Clouds 18 1011 68 10000 4.1 190 21:38 10.06.2019
6566 Clouds 19 1011 68 10000 4.1 190 21:20 10.06.2019
6567 Clouds 20 1011 77 10000 2.6 160 20:42 10.06.2019
6568 Clouds 20 1011 77 10000 2.6 160 20:21 10.06.2019
6569 Rain 20 1011 64 10000 4.6 160 19:46 10.06.2019
6570 Rain 21 1011 64 10000 4.6 160 19:23 10.06.2019
6571 Rain 22 1011 60 10000 4.6 160 18:58 10.06.2019
6572 Rain 21 1011 56 10000 4.1 180 18:39 10.06.2019
6573 Rain 23 1011 60 10000 3.1 180 18:20 10.06.2019
6574 Clouds 24 1011 53 10000 5.1 170 17:44 10.06.2019
6575 Clouds 24 1011 53 10000 5.1 170 17:24 10.06.2019
6576 Clear 24 1011 53 10000 4.1 150 16:49 10.06.2019
6577 Clouds 25 1011 49 10000 4.1 180 16:30 10.06.2019
6578 Clouds 24 1011 53 10000 3.6 170 15:59 10.06.2019
6579 Rain 24 1012 56 10000 4.1 180 15:40 10.06.2019
6580 Clouds 24 1012 56 10000 3.6 180 15:22 10.06.2019
6581 Clouds 24 1012 56 10000 3.6 230 14:45 10.06.2019
6582 Clouds 24 1012 56 10000 3.6 230 14:25 10.06.2019
6583 Clouds 24 1013 53 10000 3.1 170 13:46 10.06.2019
6584 Clouds 24 1013 53 10000 3.1 170 13:28 10.06.2019
6585 Clouds 24 1013 56 10000 3.6 170 12:54 10.06.2019
6586 Clouds 23 1013 60 10000 3.6 180 12:31 10.06.2019
6587 Clear 23 1013 60 10000 5.1 200 11:58 10.06.2019
6588 Clouds 22 1013 64 10000 3.1 180 11:38 10.06.2019
6589 Clear 22 1014 68 10000 3.1 160 11:18 10.06.2019
6590 Clear 21 1014 72 10000 2.6 220 10:41 10.06.2019
6591 Clear 20 1014 68 10000 3.1 140 10:19 10.06.2019
6592 Clear 20 1014 68 10000 3.1 140 09:51 10.06.2019
6593 Clear 19 1014 72 10000 2.6 130 09:29 10.06.2019
6594 Clear 18 1014 77 10000 0.5 0 08:50 10.06.2019
6595 -273 0 0 0 0 0 08:27 10.06.2019
6596 Clear 16 1014 82 10000 2.6 120 07:42 10.06.2019
6597 Clear 14 1015 82 10000 1 0 04:43 10.06.2019
6598 Clear 15 1015 77 10000 1 0 03:29 10.06.2019
6599 Clouds 15 1016 77 10000 2.6 300 01:55 10.06.2019
6600 Clouds 16 1017 59 10000 1.5 10 01:19 10.06.2019
6601 Clear 17 1018 67 10000 1.5 100 00:47 10.06.2019
6602 Clear 17 1018 67 10000 1.5 10 23:48 09.06.2019
6603 Clear 17 1018 67 10000 1.5 10 23:48 09.06.2019
6604 Clear 18 1018 67 10000 1.5 10 23:23 09.06.2019
6605 Clear 18 1018 67 10000 1.5 10 22:48 09.06.2019
6606 Clear 18 1018 67 10000 2.1 20 22:26 09.06.2019
6607 Clear 18 1019 63 10000 2.6 40 21:48 09.06.2019
6608 Clear 19 1019 63 10000 2.6 40 21:29 09.06.2019
6609 Clear 20 1019 60 10000 2.1 50 20:59 09.06.2019
6610 Clear 21 1019 56 10000 3.1 60 20:41 09.06.2019
6611 Clear 21 1019 56 10000 3.1 60 20:21 09.06.2019
6612 Clear 21 1019 56 10000 3.1 60 20:21 09.06.2019
6613 Clear 21 1020 52 10000 3.6 60 19:43 09.06.2019
6614 Clear 21 1020 52 10000 3.6 60 19:43 09.06.2019
6615 Clear 21 1020 52 10000 2.6 70 19:18 09.06.2019
6616 Clear 21 1020 52 10000 2.6 70 19:18 09.06.2019
6617 Clouds 22 1020 40 10000 2.6 90 18:43 09.06.2019
6618 Clouds 22 1020 40 10000 2.6 90 18:25 09.06.2019
6619 Clouds 22 1021 43 10000 2.1 100 17:56 09.06.2019
6620 Clouds 22 1021 46 10000 3.1 90 17:30 09.06.2019
6621 Clouds 22 1021 43 10000 3.6 90 16:58 09.06.2019
6622 Clouds 22 1021 46 10000 2.1 0 16:39 09.06.2019
6623 Clear 22 1022 43 10000 2.1 90 16:20 09.06.2019
6624 Clear 22 1022 43 10000 2.1 90 15:50 09.06.2019
6625 Clear 22 1022 40 10000 1.5 0 15:29 09.06.2019
6626 Clouds 21 1023 45 10000 1.5 0 14:54 09.06.2019
6627 Clear 21 1023 42 10000 1 0 14:34 09.06.2019
6628 Clear 22 1023 49 10000 2.1 260 13:57 09.06.2019
6629 Clear 21 1024 42 10000 1.5 0 13:39 09.06.2019
6630 Clear 21 1024 48 10000 2.1 0 12:55 09.06.2019
6631 Clear 21 1024 48 10000 1 0 12:34 09.06.2019
6632 Clear 21 1024 48 10000 1 0 12:34 09.06.2019
6633 Clear 19 1024 48 10000 1 0 11:51 09.06.2019
6634 Clear 19 1024 55 10000 1 0 11:30 09.06.2019
6635 -273 0 0 0 0 0 10:58 09.06.2019
6636 -273 0 0 0 0 0 10:58 09.06.2019
6637 Clear 18 1025 59 10000 2.1 150 10:39 09.06.2019
6638 Clear 18 1025 59 10000 2.1 150 10:19 09.06.2019
6639 Clear 18 1025 59 10000 2.1 150 10:19 09.06.2019
6640 Clear 16 1025 62 10000 1.5 200 09:38 09.06.2019
6641 Clear 15 1025 62 10000 2.6 150 09:19 09.06.2019
6642 Clear 15 1025 62 10000 2.6 150 09:19 09.06.2019
6643 Clear 14 1025 67 10000 2.6 150 08:44 09.06.2019
6644 Clear 13 1025 76 10000 2.6 140 07:52 09.06.2019
6645 Clear 9 1024 87 10000 2.1 90 06:44 09.06.2019
6646 Clear 9 1024 87 10000 2.1 90 05:55 09.06.2019
6647 Clear 10 1024 81 10000 2.6 140 02:59 09.06.2019
6648 Clear 10 1023 62 10000 4.1 190 01:37 09.06.2019
6649 Clouds 11 1024 81 10000 3.1 210 01:19 09.06.2019
6650 Clear 12 1023 71 10000 5.1 210 00:29 09.06.2019
6651 Clear 12 1023 51 10000 3.1 200 23:41 08.06.2019
6652 Clear 12 1023 51 10000 3.1 200 23:22 08.06.2019
6653 Clear 12 1023 51 10000 3.1 200 22:55 08.06.2019
6654 Clear 13 1023 54 10000 3.1 170 22:36 08.06.2019
6655 Clear 13 1022 51 10000 4.1 200 22:18 08.06.2019
6656 Rain 15 1022 48 10000 4.6 210 21:40 08.06.2019
6657 Rain 16 1022 48 10000 4.6 210 21:21 08.06.2019
6658 Clear 17 1022 45 10000 6.2 210 20:45 08.06.2019
6659 Clear 17 1022 45 10000 6.2 210 20:25 08.06.2019
6660 Rain 17 1021 45 10000 7.2 220 19:56 08.06.2019
6661 Rain 17 1021 45 10000 7.2 210 19:37 08.06.2019
6662 Clear 18 1021 42 10000 8.2 220 19:19 08.06.2019
6663 Clouds 18 1021 42 10000 7.7 220 18:41 08.06.2019
6664 Clouds 18 1021 45 10000 6.7 220 18:22 08.06.2019
6665 Clouds 18 1021 45 10000 7.2 220 17:44 08.06.2019
6666 Clouds 18 1021 45 10000 7.2 220 17:22 08.06.2019
6667 Clouds 18 1021 48 10000 7.2 210 16:48 08.06.2019
6668 Clouds 18 1021 48 10000 7.2 210 16:29 08.06.2019
6669 Clouds 18 1021 48 10000 9.8 210 15:51 08.06.2019
6670 Clouds 18 1020 48 10000 7.2 220 15:33 08.06.2019
6671 Clouds 18 1020 48 10000 7.2 220 15:33 08.06.2019
6672 Clouds 18 1020 48 10000 7.2 220 15:33 08.06.2019
6673 Clouds 17 1020 51 10000 9.3 220 14:48 08.06.2019
6674 Clouds 17 1020 51 10000 9.3 220 14:48 08.06.2019
6675 Clouds 17 1020 51 10000 9.3 220 14:29 08.06.2019
6676 Clouds 18 1019 48 10000 9.3 190 13:45 08.06.2019
6677 Clouds 17 1019 54 10000 7.7 210 12:53 08.06.2019
6678 Clouds 17 1019 47 10000 10.3 210 12:33 08.06.2019
6679 Clouds 16 1018 51 10000 7.7 210 11:44 08.06.2019
6680 Clouds 16 1018 51 10000 7.7 210 11:26 08.06.2019
6681 Clouds 16 1018 54 10000 8.7 230 10:47 08.06.2019
6682 Clouds 16 1018 54 10000 8.7 230 10:24 08.06.2019
6683 Clouds 15 1017 58 10000 9.3 220 09:54 08.06.2019
6684 Clouds 14 1016 58 10000 9.3 210 09:29 08.06.2019
6685 Clouds 14 1015 66 10000 9.3 200 08:40 08.06.2019
6686 Clouds 13 1015 76 10000 7.7 190 08:19 08.06.2019
6687 Clouds 13 1015 76 10000 6.2 180 06:51 08.06.2019
6688 Clouds 12 1015 76 10000 6.2 180 06:32 08.06.2019
6689 Clear 12 1013 58 10000 4.1 180 03:35 08.06.2019
6690 Rain